<?xml version="1.0" encoding="UTF-8"?><gpx version="1.1" creator="Relive" xmlns="http://www.topografix.com/GPX/1/1" xmlns:xsi="http://www.w3.org/2001/XMLSchema-instance" xsi:schemaLocation="http://www.topografix.com/GPX/1/1 http://www.topografix.com/GPX/1/1/gpx.xsd http://www.garmin.com/xmlschemas/TrackPointExtension/v1 http://www.garmin.com/xmlschemas/TrackPointExtensionv1.xsd http://www.garmin.com/xmlschemas/GpxExtensions/v3 http://www.garmin.com/xmlschemas/GpxExtensionsv3.xsd" xmlns:gpxtpx="http://www.garmin.com/xmlschemas/TrackPointExtension/v1" xmlns:gpxx="http://www.garmin.com/xmlschemas/GpxExtensions/v3"><metadata><time>2023-06-30T11:52:38.000Z</time><name>Afternoon Jun 30th</name></metadata><trk><trkseg><trkpt lat="42.160805" lon="14.132916"><time>2023-06-30T11:52:38.000Z</time><ele>1911.6</ele></trkpt><trkpt lat="42.160805" lon="14.132914"><time>2023-06-30T11:52:39.000Z</time><ele>1911.6</ele></trkpt><trkpt lat="42.160764" lon="14.132856"><time>2023-06-30T11:52:43.000Z</time><ele>1911.6</ele></trkpt><trkpt lat="42.160752" lon="14.132838"><time>2023-06-30T11:52:44.000Z</time><ele>1911.6</ele></trkpt><trkpt lat="42.160659" lon="14.132718"><time>2023-06-30T11:52:53.000Z</time><ele>1911.6</ele></trkpt><trkpt lat="42.160612" lon="14.132672"><time>2023-06-30T11:52:58.000Z</time><ele>1912</ele></trkpt><trkpt lat="42.160585" lon="14.132645"><time>2023-06-30T11:53:01.000Z</time><ele>1911.6</ele></trkpt><trkpt lat="42.160562" lon="14.132634"><time>2023-06-30T11:53:03.000Z</time><ele>1911.6</ele></trkpt><trkpt lat="42.160551" lon="14.132628"><time>2023-06-30T11:53:04.000Z</time><ele>1911.6</ele></trkpt><trkpt lat="42.160459" lon="14.132565"><time>2023-06-30T11:53:14.000Z</time><ele>1912.4</ele></trkpt><trkpt lat="42.160445" lon="14.132555"><time>2023-06-30T11:53:15.000Z</time><ele>1912.6</ele></trkpt><trkpt lat="42.160361" lon="14.132534"><time>2023-06-30T11:53:23.000Z</time><ele>1912.8</ele></trkpt><trkpt lat="42.160284" lon="14.132518"><time>2023-06-30T11:53:30.000Z</time><ele>1913.4</ele></trkpt><trkpt lat="42.160249" lon="14.1325"><time>2023-06-30T11:53:34.000Z</time><ele>1913.6</ele></trkpt><trkpt lat="42.160196" lon="14.132477"><time>2023-06-30T11:53:38.000Z</time><ele>1913.8</ele></trkpt><trkpt lat="42.160146" lon="14.132439"><time>2023-06-30T11:53:44.000Z</time><ele>1914</ele></trkpt><trkpt lat="42.160081" lon="14.132358"><time>2023-06-30T11:53:52.000Z</time><ele>1914.8</ele></trkpt><trkpt lat="42.160067" lon="14.132319"><time>2023-06-30T11:53:55.000Z</time><ele>1915.2</ele></trkpt><trkpt lat="42.16004" lon="14.132252"><time>2023-06-30T11:54:02.000Z</time><ele>1915.8</ele></trkpt><trkpt lat="42.160016" lon="14.132167"><time>2023-06-30T11:54:11.000Z</time><ele>1916.4</ele></trkpt><trkpt lat="42.160007" lon="14.132144"><time>2023-06-30T11:54:14.000Z</time><ele>1916.8</ele></trkpt><trkpt lat="42.159977" lon="14.132087"><time>2023-06-30T11:54:20.000Z</time><ele>1917.6</ele></trkpt><trkpt lat="42.159965" lon="14.132064"><time>2023-06-30T11:54:22.000Z</time><ele>1918</ele></trkpt><trkpt lat="42.159946" lon="14.132007"><time>2023-06-30T11:54:29.000Z</time><ele>1919.2</ele></trkpt><trkpt lat="42.159936" lon="14.131985"><time>2023-06-30T11:54:31.000Z</time><ele>1919.6</ele></trkpt><trkpt lat="42.159926" lon="14.131946"><time>2023-06-30T11:54:35.000Z</time><ele>1920.2</ele></trkpt><trkpt lat="42.159922" lon="14.131932"><time>2023-06-30T11:54:36.000Z</time><ele>1920.2</ele></trkpt><trkpt lat="42.159919" lon="14.131921"><time>2023-06-30T11:54:37.000Z</time><ele>1920.4</ele></trkpt><trkpt lat="42.159906" lon="14.131873"><time>2023-06-30T11:54:42.000Z</time><ele>1920.8</ele></trkpt><trkpt lat="42.159894" lon="14.13185"><time>2023-06-30T11:54:45.000Z</time><ele>1921.4</ele></trkpt><trkpt lat="42.159869" lon="14.131796"><time>2023-06-30T11:54:51.000Z</time><ele>1922.2</ele></trkpt><trkpt lat="42.159861" lon="14.131777"><time>2023-06-30T11:54:53.000Z</time><ele>1922.6</ele></trkpt><trkpt lat="42.159843" lon="14.131753"><time>2023-06-30T11:54:57.000Z</time><ele>1923</ele></trkpt><trkpt lat="42.159828" lon="14.131741"><time>2023-06-30T11:54:59.000Z</time><ele>1923.2</ele></trkpt><trkpt lat="42.159824" lon="14.131733"><time>2023-06-30T11:55:01.000Z</time><ele>1923.6</ele></trkpt><trkpt lat="42.159814" lon="14.131707"><time>2023-06-30T11:55:04.000Z</time><ele>1923.8</ele></trkpt><trkpt lat="42.159791" lon="14.131669"><time>2023-06-30T11:55:09.000Z</time><ele>1924.6</ele></trkpt><trkpt lat="42.159771" lon="14.131625"><time>2023-06-30T11:55:13.000Z</time><ele>1925.4</ele></trkpt><trkpt lat="42.159755" lon="14.131601"><time>2023-06-30T11:55:16.000Z</time><ele>1925.8</ele></trkpt><trkpt lat="42.159726" lon="14.131554"><time>2023-06-30T11:55:21.000Z</time><ele>1926.4</ele></trkpt><trkpt lat="42.159708" lon="14.131526"><time>2023-06-30T11:55:23.000Z</time><ele>1926.8</ele></trkpt><trkpt lat="42.159671" lon="14.131471"><time>2023-06-30T11:55:28.000Z</time><ele>1927.8</ele></trkpt><trkpt lat="42.159633" lon="14.131416"><time>2023-06-30T11:55:34.000Z</time><ele>1929</ele></trkpt><trkpt lat="42.159618" lon="14.131385"><time>2023-06-30T11:55:37.000Z</time><ele>1929.6</ele></trkpt><trkpt lat="42.159594" lon="14.131343"><time>2023-06-30T11:55:40.000Z</time><ele>1930</ele></trkpt><trkpt lat="42.159579" lon="14.131324"><time>2023-06-30T11:55:42.000Z</time><ele>1930.4</ele></trkpt><trkpt lat="42.159545" lon="14.131293"><time>2023-06-30T11:55:46.000Z</time><ele>1931.2</ele></trkpt><trkpt lat="42.159515" lon="14.131263"><time>2023-06-30T11:55:50.000Z</time><ele>1931.8</ele></trkpt><trkpt lat="42.159474" lon="14.131224"><time>2023-06-30T11:55:56.000Z</time><ele>1932.2</ele></trkpt><trkpt lat="42.159461" lon="14.131208"><time>2023-06-30T11:55:58.000Z</time><ele>1932.6</ele></trkpt><trkpt lat="42.15942" lon="14.131167"><time>2023-06-30T11:56:04.000Z</time><ele>1933.6</ele></trkpt><trkpt lat="42.15941" lon="14.131155"><time>2023-06-30T11:56:06.000Z</time><ele>1933.8</ele></trkpt><trkpt lat="42.159381" lon="14.131136"><time>2023-06-30T11:56:10.000Z</time><ele>1934.8</ele></trkpt><trkpt lat="42.15936" lon="14.131114"><time>2023-06-30T11:56:14.000Z</time><ele>1935.2</ele></trkpt><trkpt lat="42.159347" lon="14.131089"><time>2023-06-30T11:56:18.000Z</time><ele>1935.8</ele></trkpt><trkpt lat="42.159334" lon="14.131072"><time>2023-06-30T11:56:21.000Z</time><ele>1936.4</ele></trkpt><trkpt lat="42.159301" lon="14.131042"><time>2023-06-30T11:56:27.000Z</time><ele>1936.8</ele></trkpt><trkpt lat="42.159286" lon="14.13102"><time>2023-06-30T11:56:30.000Z</time><ele>1937.2</ele></trkpt><trkpt lat="42.159269" lon="14.130991"><time>2023-06-30T11:56:34.000Z</time><ele>1937.8</ele></trkpt><trkpt lat="42.159236" lon="14.130936"><time>2023-06-30T11:56:41.000Z</time><ele>1939</ele></trkpt><trkpt lat="42.159232" lon="14.130915"><time>2023-06-30T11:56:43.000Z</time><ele>1939.2</ele></trkpt><trkpt lat="42.159215" lon="14.130867"><time>2023-06-30T11:56:48.000Z</time><ele>1940</ele></trkpt><trkpt lat="42.159201" lon="14.13084"><time>2023-06-30T11:56:50.000Z</time><ele>1940.4</ele></trkpt><trkpt lat="42.15919" lon="14.130813"><time>2023-06-30T11:56:52.000Z</time><ele>1941</ele></trkpt><trkpt lat="42.159166" lon="14.130766"><time>2023-06-30T11:56:57.000Z</time><ele>1941.6</ele></trkpt><trkpt lat="42.159162" lon="14.130756"><time>2023-06-30T11:56:58.000Z</time><ele>1941.8</ele></trkpt><trkpt lat="42.159159" lon="14.130749"><time>2023-06-30T11:56:59.000Z</time><ele>1942</ele></trkpt><trkpt lat="42.159155" lon="14.130737"><time>2023-06-30T11:57:01.000Z</time><ele>1942.4</ele></trkpt><trkpt lat="42.159138" lon="14.130707"><time>2023-06-30T11:57:04.000Z</time><ele>1942.6</ele></trkpt><trkpt lat="42.159133" lon="14.130702"><time>2023-06-30T11:57:05.000Z</time><ele>1943</ele></trkpt><trkpt lat="42.159129" lon="14.130694"><time>2023-06-30T11:57:06.000Z</time><ele>1943.2</ele></trkpt><trkpt lat="42.159111" lon="14.130669"><time>2023-06-30T11:57:09.000Z</time><ele>1943.6</ele></trkpt><trkpt lat="42.159101" lon="14.130649"><time>2023-06-30T11:57:11.000Z</time><ele>1944.2</ele></trkpt><trkpt lat="42.159093" lon="14.130633"><time>2023-06-30T11:57:13.000Z</time><ele>1944.4</ele></trkpt><trkpt lat="42.159069" lon="14.130581"><time>2023-06-30T11:57:18.000Z</time><ele>1945.4</ele></trkpt><trkpt lat="42.159049" lon="14.130551"><time>2023-06-30T11:57:21.000Z</time><ele>1945.8</ele></trkpt><trkpt lat="42.159031" lon="14.130524"><time>2023-06-30T11:57:24.000Z</time><ele>1946.4</ele></trkpt><trkpt lat="42.159" lon="14.13048"><time>2023-06-30T11:57:29.000Z</time><ele>1947.2</ele></trkpt><trkpt lat="42.158996" lon="14.130473"><time>2023-06-30T11:57:30.000Z</time><ele>1947.6</ele></trkpt><trkpt lat="42.158968" lon="14.130423"><time>2023-06-30T11:57:37.000Z</time><ele>1948.6</ele></trkpt><trkpt lat="42.158938" lon="14.130366"><time>2023-06-30T11:57:43.000Z</time><ele>1949.6</ele></trkpt><trkpt lat="42.158916" lon="14.130329"><time>2023-06-30T11:57:47.000Z</time><ele>1950.4</ele></trkpt><trkpt lat="42.158906" lon="14.130308"><time>2023-06-30T11:57:49.000Z</time><ele>1950.6</ele></trkpt><trkpt lat="42.1589" lon="14.130299"><time>2023-06-30T11:57:50.000Z</time><ele>1950.8</ele></trkpt><trkpt lat="42.158862" lon="14.13026"><time>2023-06-30T11:57:56.000Z</time><ele>1951.8</ele></trkpt><trkpt lat="42.158855" lon="14.130255"><time>2023-06-30T11:57:57.000Z</time><ele>1952</ele></trkpt><trkpt lat="42.158805" lon="14.130232"><time>2023-06-30T11:58:04.000Z</time><ele>1952.8</ele></trkpt><trkpt lat="42.15879" lon="14.130217"><time>2023-06-30T11:58:06.000Z</time><ele>1953.2</ele></trkpt><trkpt lat="42.158783" lon="14.130206"><time>2023-06-30T11:58:07.000Z</time><ele>1953.2</ele></trkpt><trkpt lat="42.158744" lon="14.13014"><time>2023-06-30T11:58:13.000Z</time><ele>1954</ele></trkpt><trkpt lat="42.158735" lon="14.130121"><time>2023-06-30T11:58:15.000Z</time><ele>1954</ele></trkpt><trkpt lat="42.158711" lon="14.130056"><time>2023-06-30T11:58:22.000Z</time><ele>1954.6</ele></trkpt><trkpt lat="42.158698" lon="14.130036"><time>2023-06-30T11:58:24.000Z</time><ele>1954.8</ele></trkpt><trkpt lat="42.158685" lon="14.13001"><time>2023-06-30T11:58:26.000Z</time><ele>1955</ele></trkpt><trkpt lat="42.158659" lon="14.129957"><time>2023-06-30T11:58:31.000Z</time><ele>1955.4</ele></trkpt><trkpt lat="42.158649" lon="14.129944"><time>2023-06-30T11:58:32.000Z</time><ele>1955.4</ele></trkpt><trkpt lat="42.158597" lon="14.129856"><time>2023-06-30T11:58:40.000Z</time><ele>1956</ele></trkpt><trkpt lat="42.158589" lon="14.129841"><time>2023-06-30T11:58:41.000Z</time><ele>1956</ele></trkpt><trkpt lat="42.158584" lon="14.129829"><time>2023-06-30T11:58:42.000Z</time><ele>1956.2</ele></trkpt><trkpt lat="42.158533" lon="14.129732"><time>2023-06-30T11:58:51.000Z</time><ele>1957.2</ele></trkpt><trkpt lat="42.158499" lon="14.12968"><time>2023-06-30T11:58:58.000Z</time><ele>1957.6</ele></trkpt><trkpt lat="42.158498" lon="14.129673"><time>2023-06-30T11:59:00.000Z</time><ele>1957.6</ele></trkpt><trkpt lat="42.158496" lon="14.129637"><time>2023-06-30T11:59:08.000Z</time><ele>1958.2</ele></trkpt><trkpt lat="42.158496" lon="14.129637"><time>2023-06-30T11:59:09.000Z</time><ele>1958.2</ele></trkpt><trkpt lat="42.158496" lon="14.129636"><time>2023-06-30T11:59:17.000Z</time><ele>1958.2</ele></trkpt><trkpt lat="42.158496" lon="14.129636"><time>2023-06-30T11:59:19.000Z</time><ele>1958.2</ele></trkpt><trkpt lat="42.158494" lon="14.129636"><time>2023-06-30T11:59:31.000Z</time><ele>1958.6</ele></trkpt><trkpt lat="42.15846" lon="14.129629"><time>2023-06-30T11:59:43.000Z</time><ele>1958.4</ele></trkpt><trkpt lat="42.158442" lon="14.129614"><time>2023-06-30T11:59:51.000Z</time><ele>1958.4</ele></trkpt><trkpt lat="42.158408" lon="14.129585"><time>2023-06-30T12:00:01.000Z</time><ele>1958.6</ele></trkpt><trkpt lat="42.158356" lon="14.129578"><time>2023-06-30T12:00:10.000Z</time><ele>1958.8</ele></trkpt><trkpt lat="42.158317" lon="14.129571"><time>2023-06-30T12:00:17.000Z</time><ele>1958.8</ele></trkpt><trkpt lat="42.158297" lon="14.129571"><time>2023-06-30T12:00:21.000Z</time><ele>1959</ele></trkpt><trkpt lat="42.158289" lon="14.12957"><time>2023-06-30T12:00:29.000Z</time><ele>1959</ele></trkpt><trkpt lat="42.158288" lon="14.12957"><time>2023-06-30T12:00:36.000Z</time><ele>1959</ele></trkpt><trkpt lat="42.158288" lon="14.12957"><time>2023-06-30T12:00:38.000Z</time><ele>1959</ele></trkpt><trkpt lat="42.158288" lon="14.12957"><time>2023-06-30T12:00:41.000Z</time><ele>1959</ele></trkpt><trkpt lat="42.158288" lon="14.129569"><time>2023-06-30T12:00:42.000Z</time><ele>1959</ele></trkpt><trkpt lat="42.158288" lon="14.129569"><time>2023-06-30T12:00:49.000Z</time><ele>1959</ele></trkpt><trkpt lat="42.158289" lon="14.129568"><time>2023-06-30T12:00:54.000Z</time><ele>1958.8</ele></trkpt><trkpt lat="42.15829" lon="14.129567"><time>2023-06-30T12:00:57.000Z</time><ele>1958.8</ele></trkpt><trkpt lat="42.158291" lon="14.129566"><time>2023-06-30T12:01:01.000Z</time><ele>1958.8</ele></trkpt><trkpt lat="42.158292" lon="14.129562"><time>2023-06-30T12:01:13.000Z</time><ele>1958.4</ele></trkpt><trkpt lat="42.158293" lon="14.129561"><time>2023-06-30T12:01:24.000Z</time><ele>1958</ele></trkpt><trkpt lat="42.158294" lon="14.12956"><time>2023-06-30T12:01:36.000Z</time><ele>1958.2</ele></trkpt><trkpt lat="42.15831" lon="14.129483"><time>2023-06-30T12:01:42.000Z</time><ele>1958.6</ele></trkpt><trkpt lat="42.158317" lon="14.129441"><time>2023-06-30T12:01:45.000Z</time><ele>1958.6</ele></trkpt><trkpt lat="42.158331" lon="14.129376"><time>2023-06-30T12:01:49.000Z</time><ele>1959</ele></trkpt><trkpt lat="42.158338" lon="14.12935"><time>2023-06-30T12:01:51.000Z</time><ele>1959.2</ele></trkpt><trkpt lat="42.15833" lon="14.129303"><time>2023-06-30T12:01:54.000Z</time><ele>1959.4</ele></trkpt><trkpt lat="42.15832" lon="14.129281"><time>2023-06-30T12:01:56.000Z</time><ele>1959.6</ele></trkpt><trkpt lat="42.158294" lon="14.129228"><time>2023-06-30T12:02:01.000Z</time><ele>1959.8</ele></trkpt><trkpt lat="42.158277" lon="14.129199"><time>2023-06-30T12:02:04.000Z</time><ele>1960.2</ele></trkpt><trkpt lat="42.158256" lon="14.129161"><time>2023-06-30T12:02:08.000Z</time><ele>1961.2</ele></trkpt><trkpt lat="42.158245" lon="14.129138"><time>2023-06-30T12:02:10.000Z</time><ele>1961.4</ele></trkpt><trkpt lat="42.158228" lon="14.129104"><time>2023-06-30T12:02:13.000Z</time><ele>1961.4</ele></trkpt><trkpt lat="42.158207" lon="14.129053"><time>2023-06-30T12:02:18.000Z</time><ele>1961.4</ele></trkpt><trkpt lat="42.158198" lon="14.129033"><time>2023-06-30T12:02:20.000Z</time><ele>1961.8</ele></trkpt><trkpt lat="42.158183" lon="14.129003"><time>2023-06-30T12:02:23.000Z</time><ele>1962</ele></trkpt><trkpt lat="42.158173" lon="14.128988"><time>2023-06-30T12:02:24.000Z</time><ele>1962.2</ele></trkpt><trkpt lat="42.158166" lon="14.128972"><time>2023-06-30T12:02:25.000Z</time><ele>1962.2</ele></trkpt><trkpt lat="42.158149" lon="14.12894"><time>2023-06-30T12:02:27.000Z</time><ele>1962.4</ele></trkpt><trkpt lat="42.158124" lon="14.128886"><time>2023-06-30T12:02:32.000Z</time><ele>1962.8</ele></trkpt><trkpt lat="42.158112" lon="14.128862"><time>2023-06-30T12:02:34.000Z</time><ele>1963</ele></trkpt><trkpt lat="42.15808" lon="14.128801"><time>2023-06-30T12:02:38.000Z</time><ele>1963.4</ele></trkpt><trkpt lat="42.15806" lon="14.128748"><time>2023-06-30T12:02:42.000Z</time><ele>1964</ele></trkpt><trkpt lat="42.158041" lon="14.128712"><time>2023-06-30T12:02:45.000Z</time><ele>1964.2</ele></trkpt><trkpt lat="42.158023" lon="14.128682"><time>2023-06-30T12:02:47.000Z</time><ele>1964.4</ele></trkpt><trkpt lat="42.157935" lon="14.12854"><time>2023-06-30T12:02:59.000Z</time><ele>1965.6</ele></trkpt><trkpt lat="42.157861" lon="14.12844"><time>2023-06-30T12:03:09.000Z</time><ele>1966.2</ele></trkpt><trkpt lat="42.157836" lon="14.128399"><time>2023-06-30T12:03:12.000Z</time><ele>1966.6</ele></trkpt><trkpt lat="42.157778" lon="14.128315"><time>2023-06-30T12:03:20.000Z</time><ele>1967.6</ele></trkpt><trkpt lat="42.157757" lon="14.128293"><time>2023-06-30T12:03:22.000Z</time><ele>1967.6</ele></trkpt><trkpt lat="42.157673" lon="14.128186"><time>2023-06-30T12:03:32.000Z</time><ele>1968.8</ele></trkpt><trkpt lat="42.157625" lon="14.12812"><time>2023-06-30T12:03:38.000Z</time><ele>1969.8</ele></trkpt><trkpt lat="42.157579" lon="14.128056"><time>2023-06-30T12:03:44.000Z</time><ele>1970.2</ele></trkpt><trkpt lat="42.157537" lon="14.128006"><time>2023-06-30T12:03:49.000Z</time><ele>1970.8</ele></trkpt><trkpt lat="42.1575" lon="14.127966"><time>2023-06-30T12:03:53.000Z</time><ele>1971.4</ele></trkpt><trkpt lat="42.157453" lon="14.12788"><time>2023-06-30T12:04:01.000Z</time><ele>1971.8</ele></trkpt><trkpt lat="42.157439" lon="14.127852"><time>2023-06-30T12:04:03.000Z</time><ele>1972.2</ele></trkpt><trkpt lat="42.157405" lon="14.127794"><time>2023-06-30T12:04:07.000Z</time><ele>1973</ele></trkpt><trkpt lat="42.157355" lon="14.1277"><time>2023-06-30T12:04:15.000Z</time><ele>1974.2</ele></trkpt><trkpt lat="42.157281" lon="14.127581"><time>2023-06-30T12:04:25.000Z</time><ele>1975</ele></trkpt><trkpt lat="42.157275" lon="14.127567"><time>2023-06-30T12:04:26.000Z</time><ele>1975.2</ele></trkpt><trkpt lat="42.157245" lon="14.127509"><time>2023-06-30T12:04:30.000Z</time><ele>1975.8</ele></trkpt><trkpt lat="42.157221" lon="14.127446"><time>2023-06-30T12:04:35.000Z</time><ele>1976.4</ele></trkpt><trkpt lat="42.157198" lon="14.127399"><time>2023-06-30T12:04:39.000Z</time><ele>1977</ele></trkpt><trkpt lat="42.15718" lon="14.127361"><time>2023-06-30T12:04:42.000Z</time><ele>1977.6</ele></trkpt><trkpt lat="42.157139" lon="14.127247"><time>2023-06-30T12:04:51.000Z</time><ele>1978.4</ele></trkpt><trkpt lat="42.15713" lon="14.127215"><time>2023-06-30T12:04:53.000Z</time><ele>1978.6</ele></trkpt><trkpt lat="42.157104" lon="14.127135"><time>2023-06-30T12:04:59.000Z</time><ele>1979.4</ele></trkpt><trkpt lat="42.157101" lon="14.127107"><time>2023-06-30T12:05:01.000Z</time><ele>1979.6</ele></trkpt><trkpt lat="42.157086" lon="14.127002"><time>2023-06-30T12:05:07.000Z</time><ele>1980.6</ele></trkpt><trkpt lat="42.157086" lon="14.126978"><time>2023-06-30T12:05:09.000Z</time><ele>1980.8</ele></trkpt><trkpt lat="42.157085" lon="14.126884"><time>2023-06-30T12:05:15.000Z</time><ele>1981.6</ele></trkpt><trkpt lat="42.157083" lon="14.126866"><time>2023-06-30T12:05:16.000Z</time><ele>1981.8</ele></trkpt><trkpt lat="42.157093" lon="14.126765"><time>2023-06-30T12:05:23.000Z</time><ele>1982.6</ele></trkpt><trkpt lat="42.157093" lon="14.126753"><time>2023-06-30T12:05:24.000Z</time><ele>1982.8</ele></trkpt><trkpt lat="42.157094" lon="14.126627"><time>2023-06-30T12:05:31.000Z</time><ele>1983.8</ele></trkpt><trkpt lat="42.157093" lon="14.126583"><time>2023-06-30T12:05:34.000Z</time><ele>1984.4</ele></trkpt><trkpt lat="42.157091" lon="14.126469"><time>2023-06-30T12:05:41.000Z</time><ele>1984.8</ele></trkpt><trkpt lat="42.157088" lon="14.126437"><time>2023-06-30T12:05:43.000Z</time><ele>1985</ele></trkpt><trkpt lat="42.157091" lon="14.126413"><time>2023-06-30T12:05:45.000Z</time><ele>1985.2</ele></trkpt><trkpt lat="42.157083" lon="14.126338"><time>2023-06-30T12:05:50.000Z</time><ele>1986</ele></trkpt><trkpt lat="42.157077" lon="14.12628"><time>2023-06-30T12:05:53.000Z</time><ele>1986.4</ele></trkpt><trkpt lat="42.157075" lon="14.126162"><time>2023-06-30T12:06:01.000Z</time><ele>1987</ele></trkpt><trkpt lat="42.157069" lon="14.126145"><time>2023-06-30T12:06:02.000Z</time><ele>1987</ele></trkpt><trkpt lat="42.157064" lon="14.126042"><time>2023-06-30T12:06:09.000Z</time><ele>1988.2</ele></trkpt><trkpt lat="42.157062" lon="14.125995"><time>2023-06-30T12:06:12.000Z</time><ele>1988.6</ele></trkpt><trkpt lat="42.157037" lon="14.125892"><time>2023-06-30T12:06:19.000Z</time><ele>1989.2</ele></trkpt><trkpt lat="42.157024" lon="14.125842"><time>2023-06-30T12:06:22.000Z</time><ele>1989.4</ele></trkpt><trkpt lat="42.156992" lon="14.125721"><time>2023-06-30T12:06:29.000Z</time><ele>1990.2</ele></trkpt><trkpt lat="42.156976" lon="14.125662"><time>2023-06-30T12:06:33.000Z</time><ele>1990.6</ele></trkpt><trkpt lat="42.156959" lon="14.125589"><time>2023-06-30T12:06:37.000Z</time><ele>1991.2</ele></trkpt><trkpt lat="42.156945" lon="14.125521"><time>2023-06-30T12:06:42.000Z</time><ele>1991.6</ele></trkpt><trkpt lat="42.15694" lon="14.125508"><time>2023-06-30T12:06:43.000Z</time><ele>1991.6</ele></trkpt><trkpt lat="42.156924" lon="14.125449"><time>2023-06-30T12:06:47.000Z</time><ele>1992.4</ele></trkpt><trkpt lat="42.156914" lon="14.125407"><time>2023-06-30T12:06:49.000Z</time><ele>1992.6</ele></trkpt><trkpt lat="42.156883" lon="14.125304"><time>2023-06-30T12:06:56.000Z</time><ele>1993.4</ele></trkpt><trkpt lat="42.156876" lon="14.125259"><time>2023-06-30T12:06:59.000Z</time><ele>1993.8</ele></trkpt><trkpt lat="42.15686" lon="14.125178"><time>2023-06-30T12:07:04.000Z</time><ele>1994.4</ele></trkpt><trkpt lat="42.15683" lon="14.125107"><time>2023-06-30T12:07:10.000Z</time><ele>1995.4</ele></trkpt><trkpt lat="42.156822" lon="14.125089"><time>2023-06-30T12:07:11.000Z</time><ele>1995.4</ele></trkpt><trkpt lat="42.156792" lon="14.124961"><time>2023-06-30T12:07:19.000Z</time><ele>1996</ele></trkpt><trkpt lat="42.156774" lon="14.124918"><time>2023-06-30T12:07:22.000Z</time><ele>1996.4</ele></trkpt><trkpt lat="42.156728" lon="14.124797"><time>2023-06-30T12:07:30.000Z</time><ele>1997.4</ele></trkpt><trkpt lat="42.156718" lon="14.124777"><time>2023-06-30T12:07:32.000Z</time><ele>1997.6</ele></trkpt><trkpt lat="42.15668" lon="14.124699"><time>2023-06-30T12:07:37.000Z</time><ele>1998.4</ele></trkpt><trkpt lat="42.156663" lon="14.124666"><time>2023-06-30T12:07:39.000Z</time><ele>1998.6</ele></trkpt><trkpt lat="42.156649" lon="14.124641"><time>2023-06-30T12:07:41.000Z</time><ele>1998.8</ele></trkpt><trkpt lat="42.156636" lon="14.124607"><time>2023-06-30T12:07:44.000Z</time><ele>1999</ele></trkpt><trkpt lat="42.156605" lon="14.124529"><time>2023-06-30T12:07:49.000Z</time><ele>1999.6</ele></trkpt><trkpt lat="42.156539" lon="14.12439"><time>2023-06-30T12:07:59.000Z</time><ele>2000.6</ele></trkpt><trkpt lat="42.156475" lon="14.124228"><time>2023-06-30T12:08:10.000Z</time><ele>2001.8</ele></trkpt><trkpt lat="42.15647" lon="14.124214"><time>2023-06-30T12:08:11.000Z</time><ele>2002</ele></trkpt><trkpt lat="42.156443" lon="14.124108"><time>2023-06-30T12:08:19.000Z</time><ele>2002.8</ele></trkpt><trkpt lat="42.156431" lon="14.124054"><time>2023-06-30T12:08:22.000Z</time><ele>2003.4</ele></trkpt><trkpt lat="42.156412" lon="14.123999"><time>2023-06-30T12:08:25.000Z</time><ele>2003.6</ele></trkpt><trkpt lat="42.156385" lon="14.123912"><time>2023-06-30T12:08:31.000Z</time><ele>2003.6</ele></trkpt><trkpt lat="42.156371" lon="14.123837"><time>2023-06-30T12:08:37.000Z</time><ele>2003.8</ele></trkpt><trkpt lat="42.156363" lon="14.123807"><time>2023-06-30T12:08:39.000Z</time><ele>2004.4</ele></trkpt><trkpt lat="42.156351" lon="14.123772"><time>2023-06-30T12:08:41.000Z</time><ele>2004.8</ele></trkpt><trkpt lat="42.156344" lon="14.123753"><time>2023-06-30T12:08:42.000Z</time><ele>2004.8</ele></trkpt><trkpt lat="42.156336" lon="14.123735"><time>2023-06-30T12:08:43.000Z</time><ele>2005</ele></trkpt><trkpt lat="42.156297" lon="14.12363"><time>2023-06-30T12:08:49.000Z</time><ele>2004.4</ele></trkpt><trkpt lat="42.156266" lon="14.123553"><time>2023-06-30T12:08:54.000Z</time><ele>2004</ele></trkpt><trkpt lat="42.156245" lon="14.123496"><time>2023-06-30T12:08:58.000Z</time><ele>2004</ele></trkpt><trkpt lat="42.156203" lon="14.123411"><time>2023-06-30T12:09:05.000Z</time><ele>2004.2</ele></trkpt><trkpt lat="42.156141" lon="14.123289"><time>2023-06-30T12:09:13.000Z</time><ele>2005.6</ele></trkpt><trkpt lat="42.156121" lon="14.123257"><time>2023-06-30T12:09:15.000Z</time><ele>2005.8</ele></trkpt><trkpt lat="42.15611" lon="14.123244"><time>2023-06-30T12:09:16.000Z</time><ele>2006</ele></trkpt><trkpt lat="42.156052" lon="14.123156"><time>2023-06-30T12:09:24.000Z</time><ele>2006.2</ele></trkpt><trkpt lat="42.156006" lon="14.123103"><time>2023-06-30T12:09:29.000Z</time><ele>2007.2</ele></trkpt><trkpt lat="42.155967" lon="14.123057"><time>2023-06-30T12:09:32.000Z</time><ele>2007.8</ele></trkpt><trkpt lat="42.155885" lon="14.122963"><time>2023-06-30T12:09:41.000Z</time><ele>2007.6</ele></trkpt><trkpt lat="42.155834" lon="14.122904"><time>2023-06-30T12:09:46.000Z</time><ele>2008.4</ele></trkpt><trkpt lat="42.155766" lon="14.122835"><time>2023-06-30T12:09:52.000Z</time><ele>2009</ele></trkpt><trkpt lat="42.155697" lon="14.12276"><time>2023-06-30T12:10:00.000Z</time><ele>2009.4</ele></trkpt><trkpt lat="42.155677" lon="14.122739"><time>2023-06-30T12:10:02.000Z</time><ele>2009.8</ele></trkpt><trkpt lat="42.155587" lon="14.122645"><time>2023-06-30T12:10:10.000Z</time><ele>2010.4</ele></trkpt><trkpt lat="42.155556" lon="14.12261"><time>2023-06-30T12:10:14.000Z</time><ele>2010.8</ele></trkpt><trkpt lat="42.155515" lon="14.122567"><time>2023-06-30T12:10:18.000Z</time><ele>2011.4</ele></trkpt><trkpt lat="42.15544" lon="14.122499"><time>2023-06-30T12:10:24.000Z</time><ele>2012.6</ele></trkpt><trkpt lat="42.155399" lon="14.122459"><time>2023-06-30T12:10:28.000Z</time><ele>2012.8</ele></trkpt><trkpt lat="42.155343" lon="14.122415"><time>2023-06-30T12:10:34.000Z</time><ele>2013.6</ele></trkpt><trkpt lat="42.155261" lon="14.122343"><time>2023-06-30T12:10:41.000Z</time><ele>2014.2</ele></trkpt><trkpt lat="42.155229" lon="14.122322"><time>2023-06-30T12:10:45.000Z</time><ele>2014.6</ele></trkpt><trkpt lat="42.155137" lon="14.122287"><time>2023-06-30T12:10:52.000Z</time><ele>2015.6</ele></trkpt><trkpt lat="42.155122" lon="14.122279"><time>2023-06-30T12:10:53.000Z</time><ele>2015.6</ele></trkpt><trkpt lat="42.155036" lon="14.12221"><time>2023-06-30T12:11:02.000Z</time><ele>2016.8</ele></trkpt><trkpt lat="42.155028" lon="14.122203"><time>2023-06-30T12:11:03.000Z</time><ele>2017</ele></trkpt><trkpt lat="42.15496" lon="14.122171"><time>2023-06-30T12:11:09.000Z</time><ele>2017.8</ele></trkpt><trkpt lat="42.154902" lon="14.122149"><time>2023-06-30T12:11:14.000Z</time><ele>2018.2</ele></trkpt><trkpt lat="42.154823" lon="14.122101"><time>2023-06-30T12:11:22.000Z</time><ele>2019</ele></trkpt><trkpt lat="42.154783" lon="14.122082"><time>2023-06-30T12:11:25.000Z</time><ele>2019.4</ele></trkpt><trkpt lat="42.154713" lon="14.122054"><time>2023-06-30T12:11:30.000Z</time><ele>2020</ele></trkpt><trkpt lat="42.15466" lon="14.122028"><time>2023-06-30T12:11:35.000Z</time><ele>2020.2</ele></trkpt><trkpt lat="42.154601" lon="14.122007"><time>2023-06-30T12:11:40.000Z</time><ele>2021</ele></trkpt><trkpt lat="42.154536" lon="14.121988"><time>2023-06-30T12:11:45.000Z</time><ele>2021.4</ele></trkpt><trkpt lat="42.154457" lon="14.121956"><time>2023-06-30T12:11:53.000Z</time><ele>2022</ele></trkpt><trkpt lat="42.154427" lon="14.121947"><time>2023-06-30T12:11:55.000Z</time><ele>2022.4</ele></trkpt><trkpt lat="42.154362" lon="14.121927"><time>2023-06-30T12:12:00.000Z</time><ele>2022.8</ele></trkpt><trkpt lat="42.154332" lon="14.121917"><time>2023-06-30T12:12:03.000Z</time><ele>2023.2</ele></trkpt><trkpt lat="42.154287" lon="14.121901"><time>2023-06-30T12:12:07.000Z</time><ele>2023.4</ele></trkpt><trkpt lat="42.154221" lon="14.121878"><time>2023-06-30T12:12:12.000Z</time><ele>2024.2</ele></trkpt><trkpt lat="42.15414" lon="14.121857"><time>2023-06-30T12:12:18.000Z</time><ele>2024.6</ele></trkpt><trkpt lat="42.154097" lon="14.121837"><time>2023-06-30T12:12:22.000Z</time><ele>2025</ele></trkpt><trkpt lat="42.154077" lon="14.121834"><time>2023-06-30T12:12:24.000Z</time><ele>2025.2</ele></trkpt><trkpt lat="42.154068" lon="14.121835"><time>2023-06-30T12:12:25.000Z</time><ele>2025.4</ele></trkpt><trkpt lat="42.154058" lon="14.121834"><time>2023-06-30T12:12:26.000Z</time><ele>2025.4</ele></trkpt><trkpt lat="42.154008" lon="14.12183"><time>2023-06-30T12:12:30.000Z</time><ele>2025.8</ele></trkpt><trkpt lat="42.153984" lon="14.121828"><time>2023-06-30T12:12:32.000Z</time><ele>2026.2</ele></trkpt><trkpt lat="42.153885" lon="14.1218"><time>2023-06-30T12:12:40.000Z</time><ele>2026.8</ele></trkpt><trkpt lat="42.153822" lon="14.121788"><time>2023-06-30T12:12:45.000Z</time><ele>2027.4</ele></trkpt><trkpt lat="42.153746" lon="14.121779"><time>2023-06-30T12:12:50.000Z</time><ele>2028.2</ele></trkpt><trkpt lat="42.153676" lon="14.121759"><time>2023-06-30T12:12:55.000Z</time><ele>2028.4</ele></trkpt><trkpt lat="42.153635" lon="14.121751"><time>2023-06-30T12:12:59.000Z</time><ele>2028.8</ele></trkpt><trkpt lat="42.15357" lon="14.121744"><time>2023-06-30T12:13:05.000Z</time><ele>2029.4</ele></trkpt><trkpt lat="42.153501" lon="14.12175"><time>2023-06-30T12:13:10.000Z</time><ele>2030</ele></trkpt><trkpt lat="42.153449" lon="14.121744"><time>2023-06-30T12:13:14.000Z</time><ele>2030.6</ele></trkpt><trkpt lat="42.153419" lon="14.121744"><time>2023-06-30T12:13:17.000Z</time><ele>2030.8</ele></trkpt><trkpt lat="42.153399" lon="14.121745"><time>2023-06-30T12:13:19.000Z</time><ele>2031</ele></trkpt><trkpt lat="42.153336" lon="14.121746"><time>2023-06-30T12:13:24.000Z</time><ele>2031.8</ele></trkpt><trkpt lat="42.153225" lon="14.121751"><time>2023-06-30T12:13:33.000Z</time><ele>2032.6</ele></trkpt><trkpt lat="42.1532" lon="14.121751"><time>2023-06-30T12:13:35.000Z</time><ele>2032.8</ele></trkpt><trkpt lat="42.153119" lon="14.121761"><time>2023-06-30T12:13:41.000Z</time><ele>2033.8</ele></trkpt><trkpt lat="42.15309" lon="14.121769"><time>2023-06-30T12:13:43.000Z</time><ele>2034.2</ele></trkpt><trkpt lat="42.15297" lon="14.121776"><time>2023-06-30T12:13:52.000Z</time><ele>2034.8</ele></trkpt><trkpt lat="42.152957" lon="14.121775"><time>2023-06-30T12:13:53.000Z</time><ele>2035</ele></trkpt><trkpt lat="42.152862" lon="14.121788"><time>2023-06-30T12:14:01.000Z</time><ele>2035.8</ele></trkpt><trkpt lat="42.152835" lon="14.121792"><time>2023-06-30T12:14:03.000Z</time><ele>2036.2</ele></trkpt><trkpt lat="42.152731" lon="14.121792"><time>2023-06-30T12:14:10.000Z</time><ele>2037</ele></trkpt><trkpt lat="42.152695" lon="14.121785"><time>2023-06-30T12:14:13.000Z</time><ele>2037</ele></trkpt><trkpt lat="42.152665" lon="14.121789"><time>2023-06-30T12:14:16.000Z</time><ele>2037.2</ele></trkpt><trkpt lat="42.152658" lon="14.121799"><time>2023-06-30T12:14:18.000Z</time><ele>2037.4</ele></trkpt><trkpt lat="42.152657" lon="14.121799"><time>2023-06-30T12:14:20.000Z</time><ele>2037.6</ele></trkpt><trkpt lat="42.152658" lon="14.121794"><time>2023-06-30T12:14:25.000Z</time><ele>2037.4</ele></trkpt><trkpt lat="42.152658" lon="14.121793"><time>2023-06-30T12:14:30.000Z</time><ele>2037.4</ele></trkpt><trkpt lat="42.152658" lon="14.121793"><time>2023-06-30T12:14:39.000Z</time><ele>2037.6</ele></trkpt><trkpt lat="42.152599" lon="14.12179"><time>2023-06-30T12:14:45.000Z</time><ele>2038</ele></trkpt><trkpt lat="42.152516" lon="14.121776"><time>2023-06-30T12:14:52.000Z</time><ele>2038.6</ele></trkpt><trkpt lat="42.15251" lon="14.121776"><time>2023-06-30T12:14:53.000Z</time><ele>2038.6</ele></trkpt><trkpt lat="42.152501" lon="14.121775"><time>2023-06-30T12:14:54.000Z</time><ele>2038.8</ele></trkpt><trkpt lat="42.152461" lon="14.121772"><time>2023-06-30T12:14:58.000Z</time><ele>2039</ele></trkpt><trkpt lat="42.152441" lon="14.121762"><time>2023-06-30T12:15:00.000Z</time><ele>2039.2</ele></trkpt><trkpt lat="42.152431" lon="14.121755"><time>2023-06-30T12:15:01.000Z</time><ele>2039.2</ele></trkpt><trkpt lat="42.152418" lon="14.121755"><time>2023-06-30T12:15:05.000Z</time><ele>2039.8</ele></trkpt><trkpt lat="42.152418" lon="14.121756"><time>2023-06-30T12:15:06.000Z</time><ele>2039.8</ele></trkpt><trkpt lat="42.152382" lon="14.121734"><time>2023-06-30T12:15:11.000Z</time><ele>2040</ele></trkpt><trkpt lat="42.15236" lon="14.121719"><time>2023-06-30T12:15:13.000Z</time><ele>2040</ele></trkpt><trkpt lat="42.152353" lon="14.121715"><time>2023-06-30T12:15:14.000Z</time><ele>2040</ele></trkpt><trkpt lat="42.152291" lon="14.12168"><time>2023-06-30T12:15:20.000Z</time><ele>2040.6</ele></trkpt><trkpt lat="42.152259" lon="14.121643"><time>2023-06-30T12:15:24.000Z</time><ele>2041</ele></trkpt><trkpt lat="42.152183" lon="14.121537"><time>2023-06-30T12:15:33.000Z</time><ele>2042.2</ele></trkpt><trkpt lat="42.152145" lon="14.121417"><time>2023-06-30T12:15:42.000Z</time><ele>2043.2</ele></trkpt><trkpt lat="42.152142" lon="14.1214"><time>2023-06-30T12:15:43.000Z</time><ele>2043.4</ele></trkpt><trkpt lat="42.152134" lon="14.121326"><time>2023-06-30T12:15:48.000Z</time><ele>2044.2</ele></trkpt><trkpt lat="42.152128" lon="14.121266"><time>2023-06-30T12:15:52.000Z</time><ele>2044.8</ele></trkpt><trkpt lat="42.152138" lon="14.121186"><time>2023-06-30T12:15:57.000Z</time><ele>2045.4</ele></trkpt><trkpt lat="42.152151" lon="14.121113"><time>2023-06-30T12:16:02.000Z</time><ele>2045.8</ele></trkpt><trkpt lat="42.152165" lon="14.121037"><time>2023-06-30T12:16:06.000Z</time><ele>2046</ele></trkpt><trkpt lat="42.152182" lon="14.120988"><time>2023-06-30T12:16:10.000Z</time><ele>2046.4</ele></trkpt><trkpt lat="42.152208" lon="14.120875"><time>2023-06-30T12:16:17.000Z</time><ele>2047.4</ele></trkpt><trkpt lat="42.152211" lon="14.120857"><time>2023-06-30T12:16:18.000Z</time><ele>2047.4</ele></trkpt><trkpt lat="42.152227" lon="14.120696"><time>2023-06-30T12:16:27.000Z</time><ele>2048</ele></trkpt><trkpt lat="42.152238" lon="14.120609"><time>2023-06-30T12:16:33.000Z</time><ele>2048.6</ele></trkpt><trkpt lat="42.152251" lon="14.12053"><time>2023-06-30T12:16:37.000Z</time><ele>2049.4</ele></trkpt><trkpt lat="42.152258" lon="14.120492"><time>2023-06-30T12:16:39.000Z</time><ele>2049.6</ele></trkpt><trkpt lat="42.152275" lon="14.120406"><time>2023-06-30T12:16:45.000Z</time><ele>2049.8</ele></trkpt><trkpt lat="42.152288" lon="14.120326"><time>2023-06-30T12:16:50.000Z</time><ele>2050.8</ele></trkpt><trkpt lat="42.152304" lon="14.120243"><time>2023-06-30T12:16:54.000Z</time><ele>2051.8</ele></trkpt><trkpt lat="42.15231" lon="14.120205"><time>2023-06-30T12:16:56.000Z</time><ele>2051.8</ele></trkpt><trkpt lat="42.152333" lon="14.120014"><time>2023-06-30T12:17:08.000Z</time><ele>2052.8</ele></trkpt><trkpt lat="42.152332" lon="14.119996"><time>2023-06-30T12:17:09.000Z</time><ele>2053</ele></trkpt><trkpt lat="42.152328" lon="14.119781"><time>2023-06-30T12:17:20.000Z</time><ele>2054</ele></trkpt><trkpt lat="42.15233" lon="14.119761"><time>2023-06-30T12:17:21.000Z</time><ele>2054</ele></trkpt><trkpt lat="42.152316" lon="14.119613"><time>2023-06-30T12:17:31.000Z</time><ele>2054.8</ele></trkpt><trkpt lat="42.152314" lon="14.119596"><time>2023-06-30T12:17:32.000Z</time><ele>2055</ele></trkpt><trkpt lat="42.152308" lon="14.119549"><time>2023-06-30T12:17:35.000Z</time><ele>2055.4</ele></trkpt><trkpt lat="42.152294" lon="14.11948"><time>2023-06-30T12:17:39.000Z</time><ele>2056.2</ele></trkpt><trkpt lat="42.152283" lon="14.119399"><time>2023-06-30T12:17:43.000Z</time><ele>2056.8</ele></trkpt><trkpt lat="42.152269" lon="14.119315"><time>2023-06-30T12:17:47.000Z</time><ele>2057.2</ele></trkpt><trkpt lat="42.152252" lon="14.119172"><time>2023-06-30T12:17:55.000Z</time><ele>2057.6</ele></trkpt><trkpt lat="42.152236" lon="14.119093"><time>2023-06-30T12:18:01.000Z</time><ele>2058.4</ele></trkpt><trkpt lat="42.152232" lon="14.119057"><time>2023-06-30T12:18:03.000Z</time><ele>2058.6</ele></trkpt><trkpt lat="42.15222" lon="14.119004"><time>2023-06-30T12:18:06.000Z</time><ele>2058.6</ele></trkpt><trkpt lat="42.152188" lon="14.118869"><time>2023-06-30T12:18:15.000Z</time><ele>2059.4</ele></trkpt><trkpt lat="42.152171" lon="14.118789"><time>2023-06-30T12:18:19.000Z</time><ele>2060.6</ele></trkpt><trkpt lat="42.152144" lon="14.118698"><time>2023-06-30T12:18:24.000Z</time><ele>2060.6</ele></trkpt><trkpt lat="42.152095" lon="14.118536"><time>2023-06-30T12:18:35.000Z</time><ele>2061.4</ele></trkpt><trkpt lat="42.15209" lon="14.118518"><time>2023-06-30T12:18:36.000Z</time><ele>2061.8</ele></trkpt><trkpt lat="42.152028" lon="14.118343"><time>2023-06-30T12:18:47.000Z</time><ele>2062.4</ele></trkpt><trkpt lat="42.152019" lon="14.118321"><time>2023-06-30T12:18:49.000Z</time><ele>2063</ele></trkpt><trkpt lat="42.152012" lon="14.1183"><time>2023-06-30T12:18:52.000Z</time><ele>2063.6</ele></trkpt><trkpt lat="42.152007" lon="14.118284"><time>2023-06-30T12:18:54.000Z</time><ele>2064</ele></trkpt><trkpt lat="42.152001" lon="14.11827"><time>2023-06-30T12:18:55.000Z</time><ele>2064</ele></trkpt><trkpt lat="42.151994" lon="14.118255"><time>2023-06-30T12:18:56.000Z</time><ele>2064.2</ele></trkpt><trkpt lat="42.151967" lon="14.118195"><time>2023-06-30T12:19:00.000Z</time><ele>2064.4</ele></trkpt><trkpt lat="42.151941" lon="14.118111"><time>2023-06-30T12:19:06.000Z</time><ele>2065</ele></trkpt><trkpt lat="42.151921" lon="14.118057"><time>2023-06-30T12:19:10.000Z</time><ele>2066</ele></trkpt><trkpt lat="42.151915" lon="14.11804"><time>2023-06-30T12:19:11.000Z</time><ele>2066.2</ele></trkpt><trkpt lat="42.151889" lon="14.117969"><time>2023-06-30T12:19:15.000Z</time><ele>2067.2</ele></trkpt><trkpt lat="42.151847" lon="14.117865"><time>2023-06-30T12:19:22.000Z</time><ele>2067.2</ele></trkpt><trkpt lat="42.151813" lon="14.11779"><time>2023-06-30T12:19:28.000Z</time><ele>2068.2</ele></trkpt><trkpt lat="42.151801" lon="14.117758"><time>2023-06-30T12:19:30.000Z</time><ele>2069.4</ele></trkpt><trkpt lat="42.151786" lon="14.117727"><time>2023-06-30T12:19:32.000Z</time><ele>2070</ele></trkpt><trkpt lat="42.15178" lon="14.117711"><time>2023-06-30T12:19:33.000Z</time><ele>2070.4</ele></trkpt><trkpt lat="42.151695" lon="14.117557"><time>2023-06-30T12:19:44.000Z</time><ele>2069.6</ele></trkpt><trkpt lat="42.151619" lon="14.117447"><time>2023-06-30T12:19:53.000Z</time><ele>2071.6</ele></trkpt><trkpt lat="42.151585" lon="14.117407"><time>2023-06-30T12:19:56.000Z</time><ele>2072</ele></trkpt><trkpt lat="42.151483" lon="14.117298"><time>2023-06-30T12:20:07.000Z</time><ele>2072.4</ele></trkpt><trkpt lat="42.151464" lon="14.117279"><time>2023-06-30T12:20:09.000Z</time><ele>2072.8</ele></trkpt><trkpt lat="42.151417" lon="14.117227"><time>2023-06-30T12:20:14.000Z</time><ele>2073.8</ele></trkpt><trkpt lat="42.151367" lon="14.117181"><time>2023-06-30T12:20:18.000Z</time><ele>2074.6</ele></trkpt><trkpt lat="42.151291" lon="14.117098"><time>2023-06-30T12:20:26.000Z</time><ele>2074.8</ele></trkpt><trkpt lat="42.151269" lon="14.117074"><time>2023-06-30T12:20:28.000Z</time><ele>2075.2</ele></trkpt><trkpt lat="42.151258" lon="14.117063"><time>2023-06-30T12:20:29.000Z</time><ele>2075.4</ele></trkpt><trkpt lat="42.151198" lon="14.117008"><time>2023-06-30T12:20:34.000Z</time><ele>2076</ele></trkpt><trkpt lat="42.151133" lon="14.116936"><time>2023-06-30T12:20:40.000Z</time><ele>2076.4</ele></trkpt><trkpt lat="42.151097" lon="14.116888"><time>2023-06-30T12:20:45.000Z</time><ele>2076.4</ele></trkpt><trkpt lat="42.151057" lon="14.116846"><time>2023-06-30T12:20:49.000Z</time><ele>2077</ele></trkpt><trkpt lat="42.151009" lon="14.116796"><time>2023-06-30T12:20:54.000Z</time><ele>2078.2</ele></trkpt><trkpt lat="42.15095" lon="14.116739"><time>2023-06-30T12:20:59.000Z</time><ele>2078.6</ele></trkpt><trkpt lat="42.150939" lon="14.11673"><time>2023-06-30T12:21:00.000Z</time><ele>2078.8</ele></trkpt><trkpt lat="42.150852" lon="14.116649"><time>2023-06-30T12:21:09.000Z</time><ele>2079.2</ele></trkpt><trkpt lat="42.150818" lon="14.116624"><time>2023-06-30T12:21:12.000Z</time><ele>2079.6</ele></trkpt><trkpt lat="42.150672" lon="14.116498"><time>2023-06-30T12:21:24.000Z</time><ele>2080</ele></trkpt><trkpt lat="42.150545" lon="14.116336"><time>2023-06-30T12:21:36.000Z</time><ele>2080.2</ele></trkpt><trkpt lat="42.15053" lon="14.116309"><time>2023-06-30T12:21:38.000Z</time><ele>2080.2</ele></trkpt><trkpt lat="42.150524" lon="14.116295"><time>2023-06-30T12:21:39.000Z</time><ele>2080.2</ele></trkpt><trkpt lat="42.150484" lon="14.11621"><time>2023-06-30T12:21:46.000Z</time><ele>2080.2</ele></trkpt><trkpt lat="42.150439" lon="14.116118"><time>2023-06-30T12:21:53.000Z</time><ele>2080.6</ele></trkpt><trkpt lat="42.150418" lon="14.116071"><time>2023-06-30T12:21:56.000Z</time><ele>2080.6</ele></trkpt><trkpt lat="42.150369" lon="14.115931"><time>2023-06-30T12:22:04.000Z</time><ele>2080.8</ele></trkpt><trkpt lat="42.150335" lon="14.115837"><time>2023-06-30T12:22:11.000Z</time><ele>2080.8</ele></trkpt><trkpt lat="42.150334" lon="14.115824"><time>2023-06-30T12:22:12.000Z</time><ele>2080.8</ele></trkpt><trkpt lat="42.150293" lon="14.115716"><time>2023-06-30T12:22:20.000Z</time><ele>2081.2</ele></trkpt><trkpt lat="42.150279" lon="14.115687"><time>2023-06-30T12:22:22.000Z</time><ele>2081.2</ele></trkpt><trkpt lat="42.150258" lon="14.115632"><time>2023-06-30T12:22:26.000Z</time><ele>2081.6</ele></trkpt><trkpt lat="42.150248" lon="14.115605"><time>2023-06-30T12:22:28.000Z</time><ele>2081.8</ele></trkpt><trkpt lat="42.150225" lon="14.115502"><time>2023-06-30T12:22:38.000Z</time><ele>2081.4</ele></trkpt><trkpt lat="42.150214" lon="14.115455"><time>2023-06-30T12:22:46.000Z</time><ele>2081.4</ele></trkpt><trkpt lat="42.150215" lon="14.11545"><time>2023-06-30T12:22:48.000Z</time><ele>2081.4</ele></trkpt><trkpt lat="42.150216" lon="14.11545"><time>2023-06-30T12:22:49.000Z</time><ele>2081.4</ele></trkpt><trkpt lat="42.150217" lon="14.115449"><time>2023-06-30T12:22:51.000Z</time><ele>2081.4</ele></trkpt><trkpt lat="42.150217" lon="14.115447"><time>2023-06-30T12:22:56.000Z</time><ele>2081</ele></trkpt><trkpt lat="42.150217" lon="14.115447"><time>2023-06-30T12:23:01.000Z</time><ele>2081.2</ele></trkpt><trkpt lat="42.150216" lon="14.115447"><time>2023-06-30T12:23:07.000Z</time><ele>2081</ele></trkpt><trkpt lat="42.15021" lon="14.115443"><time>2023-06-30T12:23:40.000Z</time><ele>2081.2</ele></trkpt><trkpt lat="42.1502" lon="14.115422"><time>2023-06-30T12:23:57.000Z</time><ele>2081.8</ele></trkpt><trkpt lat="42.150199" lon="14.115372"><time>2023-06-30T12:24:16.000Z</time><ele>2081.6</ele></trkpt><trkpt lat="42.15018" lon="14.115221"><time>2023-06-30T12:24:31.000Z</time><ele>2081.6</ele></trkpt><trkpt lat="42.150173" lon="14.115184"><time>2023-06-30T12:24:39.000Z</time><ele>2081.6</ele></trkpt><trkpt lat="42.150173" lon="14.115185"><time>2023-06-30T12:24:43.000Z</time><ele>2081.6</ele></trkpt><trkpt lat="42.150173" lon="14.115185"><time>2023-06-30T12:24:47.000Z</time><ele>2081.6</ele></trkpt><trkpt lat="42.150173" lon="14.115185"><time>2023-06-30T12:24:48.000Z</time><ele>2081.6</ele></trkpt><trkpt lat="42.150173" lon="14.115185"><time>2023-06-30T12:24:50.000Z</time><ele>2081.6</ele></trkpt><trkpt lat="42.150172" lon="14.115182"><time>2023-06-30T12:24:57.000Z</time><ele>2081.6</ele></trkpt><trkpt lat="42.150161" lon="14.115178"><time>2023-06-30T12:25:01.000Z</time><ele>2081.6</ele></trkpt><trkpt lat="42.150157" lon="14.115176"><time>2023-06-30T12:25:02.000Z</time><ele>2081.6</ele></trkpt><trkpt lat="42.150141" lon="14.115149"><time>2023-06-30T12:25:04.000Z</time><ele>2081.6</ele></trkpt><trkpt lat="42.150104" lon="14.115102"><time>2023-06-30T12:25:07.000Z</time><ele>2081.6</ele></trkpt><trkpt lat="42.149988" lon="14.115007"><time>2023-06-30T12:25:15.000Z</time><ele>2081.6</ele></trkpt><trkpt lat="42.149922" lon="14.114977"><time>2023-06-30T12:25:22.000Z</time><ele>2081.4</ele></trkpt><trkpt lat="42.149882" lon="14.114956"><time>2023-06-30T12:25:25.000Z</time><ele>2081.2</ele></trkpt><trkpt lat="42.149867" lon="14.11495"><time>2023-06-30T12:25:26.000Z</time><ele>2081.2</ele></trkpt><trkpt lat="42.14983" lon="14.114929"><time>2023-06-30T12:25:29.000Z</time><ele>2081</ele></trkpt><trkpt lat="42.149762" lon="14.114856"><time>2023-06-30T12:25:36.000Z</time><ele>2080.8</ele></trkpt><trkpt lat="42.14974" lon="14.114822"><time>2023-06-30T12:25:39.000Z</time><ele>2080.6</ele></trkpt><trkpt lat="42.149703" lon="14.114761"><time>2023-06-30T12:25:46.000Z</time><ele>2080.4</ele></trkpt><trkpt lat="42.149696" lon="14.11475"><time>2023-06-30T12:25:47.000Z</time><ele>2080.4</ele></trkpt><trkpt lat="42.149659" lon="14.114698"><time>2023-06-30T12:25:51.000Z</time><ele>2080.6</ele></trkpt><trkpt lat="42.149584" lon="14.114573"><time>2023-06-30T12:26:01.000Z</time><ele>2080.2</ele></trkpt><trkpt lat="42.149579" lon="14.114565"><time>2023-06-30T12:26:02.000Z</time><ele>2080.2</ele></trkpt><trkpt lat="42.149465" lon="14.114421"><time>2023-06-30T12:26:16.000Z</time><ele>2080.4</ele></trkpt><trkpt lat="42.149399" lon="14.114354"><time>2023-06-30T12:26:24.000Z</time><ele>2080.2</ele></trkpt><trkpt lat="42.149379" lon="14.114341"><time>2023-06-30T12:26:28.000Z</time><ele>2079.8</ele></trkpt><trkpt lat="42.14937" lon="14.114339"><time>2023-06-30T12:26:30.000Z</time><ele>2079.8</ele></trkpt><trkpt lat="42.14937" lon="14.11434"><time>2023-06-30T12:26:31.000Z</time><ele>2079.8</ele></trkpt><trkpt lat="42.14937" lon="14.114339"><time>2023-06-30T12:26:34.000Z</time><ele>2079.8</ele></trkpt><trkpt lat="42.149376" lon="14.114331"><time>2023-06-30T12:26:38.000Z</time><ele>2080.2</ele></trkpt><trkpt lat="42.149376" lon="14.11433"><time>2023-06-30T12:26:49.000Z</time><ele>2079.8</ele></trkpt><trkpt lat="42.149376" lon="14.11433"><time>2023-06-30T12:26:51.000Z</time><ele>2079.8</ele></trkpt><trkpt lat="42.149376" lon="14.11433"><time>2023-06-30T12:26:54.000Z</time><ele>2079.8</ele></trkpt><trkpt lat="42.149376" lon="14.114329"><time>2023-06-30T12:26:57.000Z</time><ele>2079.8</ele></trkpt><trkpt lat="42.149375" lon="14.114328"><time>2023-06-30T12:27:00.000Z</time><ele>2080</ele></trkpt><trkpt lat="42.149331" lon="14.114328"><time>2023-06-30T12:27:31.000Z</time><ele>2079.8</ele></trkpt><trkpt lat="42.14923" lon="14.114292"><time>2023-06-30T12:27:39.000Z</time><ele>2080</ele></trkpt><trkpt lat="42.149217" lon="14.114288"><time>2023-06-30T12:27:40.000Z</time><ele>2080</ele></trkpt><trkpt lat="42.149196" lon="14.114273"><time>2023-06-30T12:27:42.000Z</time><ele>2079.8</ele></trkpt><trkpt lat="42.149125" lon="14.114205"><time>2023-06-30T12:27:49.000Z</time><ele>2079.6</ele></trkpt><trkpt lat="42.149073" lon="14.11412"><time>2023-06-30T12:27:57.000Z</time><ele>2080.2</ele></trkpt><trkpt lat="42.149043" lon="14.11408"><time>2023-06-30T12:28:00.000Z</time><ele>2080.4</ele></trkpt><trkpt lat="42.149035" lon="14.114067"><time>2023-06-30T12:28:01.000Z</time><ele>2080.4</ele></trkpt><trkpt lat="42.148955" lon="14.113959"><time>2023-06-30T12:28:09.000Z</time><ele>2080.2</ele></trkpt><trkpt lat="42.14894" lon="14.113933"><time>2023-06-30T12:28:11.000Z</time><ele>2080.2</ele></trkpt><trkpt lat="42.148931" lon="14.113922"><time>2023-06-30T12:28:12.000Z</time><ele>2080.2</ele></trkpt><trkpt lat="42.148847" lon="14.113855"><time>2023-06-30T12:28:20.000Z</time><ele>2079.4</ele></trkpt><trkpt lat="42.148838" lon="14.113847"><time>2023-06-30T12:28:21.000Z</time><ele>2079.2</ele></trkpt><trkpt lat="42.14876" lon="14.113806"><time>2023-06-30T12:28:28.000Z</time><ele>2079.8</ele></trkpt><trkpt lat="42.148749" lon="14.113795"><time>2023-06-30T12:28:30.000Z</time><ele>2079.8</ele></trkpt><trkpt lat="42.148723" lon="14.113781"><time>2023-06-30T12:28:33.000Z</time><ele>2079.8</ele></trkpt><trkpt lat="42.148712" lon="14.113779"><time>2023-06-30T12:28:35.000Z</time><ele>2079.8</ele></trkpt><trkpt lat="42.14871" lon="14.113777"><time>2023-06-30T12:28:37.000Z</time><ele>2080</ele></trkpt><trkpt lat="42.14871" lon="14.113777"><time>2023-06-30T12:28:38.000Z</time><ele>2080</ele></trkpt><trkpt lat="42.14871" lon="14.113778"><time>2023-06-30T12:28:40.000Z</time><ele>2080</ele></trkpt><trkpt lat="42.148709" lon="14.113781"><time>2023-06-30T12:28:41.000Z</time><ele>2080</ele></trkpt><trkpt lat="42.148708" lon="14.113792"><time>2023-06-30T12:28:48.000Z</time><ele>2080</ele></trkpt><trkpt lat="42.148708" lon="14.113792"><time>2023-06-30T12:28:58.000Z</time><ele>2080</ele></trkpt><trkpt lat="42.148708" lon="14.113792"><time>2023-06-30T12:28:59.000Z</time><ele>2080</ele></trkpt><trkpt lat="42.148704" lon="14.113796"><time>2023-06-30T12:29:21.000Z</time><ele>2080</ele></trkpt><trkpt lat="42.148703" lon="14.113796"><time>2023-06-30T12:29:34.000Z</time><ele>2080</ele></trkpt><trkpt lat="42.148703" lon="14.113796"><time>2023-06-30T12:29:36.000Z</time><ele>2080</ele></trkpt><trkpt lat="42.148703" lon="14.113796"><time>2023-06-30T12:29:41.000Z</time><ele>2080</ele></trkpt><trkpt lat="42.148702" lon="14.113795"><time>2023-06-30T12:29:49.000Z</time><ele>2080</ele></trkpt><trkpt lat="42.148701" lon="14.113796"><time>2023-06-30T12:30:05.000Z</time><ele>2080</ele></trkpt><trkpt lat="42.1487" lon="14.113798"><time>2023-06-30T12:30:19.000Z</time><ele>2080</ele></trkpt><trkpt lat="42.14868" lon="14.113817"><time>2023-06-30T12:30:35.000Z</time><ele>2080</ele></trkpt><trkpt lat="42.14867" lon="14.113834"><time>2023-06-30T12:30:54.000Z</time><ele>2080</ele></trkpt><trkpt lat="42.14867" lon="14.113834"><time>2023-06-30T12:31:02.000Z</time><ele>2080</ele></trkpt><trkpt lat="42.148671" lon="14.113834"><time>2023-06-30T12:31:03.000Z</time><ele>2080</ele></trkpt><trkpt lat="42.148673" lon="14.113834"><time>2023-06-30T12:31:04.000Z</time><ele>2080</ele></trkpt><trkpt lat="42.148678" lon="14.113833"><time>2023-06-30T12:31:06.000Z</time><ele>2080</ele></trkpt><trkpt lat="42.148693" lon="14.113831"><time>2023-06-30T12:31:09.000Z</time><ele>2080</ele></trkpt><trkpt lat="42.148722" lon="14.113797"><time>2023-06-30T12:31:14.000Z</time><ele>2080</ele></trkpt><trkpt lat="42.148725" lon="14.113773"><time>2023-06-30T12:31:19.000Z</time><ele>2080</ele></trkpt><trkpt lat="42.148725" lon="14.113773"><time>2023-06-30T12:31:21.000Z</time><ele>2080</ele></trkpt><trkpt lat="42.148725" lon="14.113772"><time>2023-06-30T12:31:25.000Z</time><ele>2080</ele></trkpt><trkpt lat="42.148725" lon="14.113771"><time>2023-06-30T12:31:30.000Z</time><ele>2080</ele></trkpt><trkpt lat="42.148675" lon="14.113761"><time>2023-06-30T12:31:47.000Z</time><ele>2082.8</ele></trkpt><trkpt lat="42.148668" lon="14.113761"><time>2023-06-30T12:31:49.000Z</time><ele>2082.8</ele></trkpt><trkpt lat="42.148663" lon="14.113761"><time>2023-06-30T12:31:50.000Z</time><ele>2082.8</ele></trkpt><trkpt lat="42.148647" lon="14.11379"><time>2023-06-30T12:31:55.000Z</time><ele>2083.2</ele></trkpt><trkpt lat="42.14862" lon="14.113805"><time>2023-06-30T12:32:00.000Z</time><ele>2083.6</ele></trkpt><trkpt lat="42.148588" lon="14.113824"><time>2023-06-30T12:32:14.000Z</time><ele>2083</ele></trkpt><trkpt lat="42.148588" lon="14.113824"><time>2023-06-30T12:32:16.000Z</time><ele>2083</ele></trkpt><trkpt lat="42.148588" lon="14.113824"><time>2023-06-30T12:32:18.000Z</time><ele>2083</ele></trkpt><trkpt lat="42.148588" lon="14.113824"><time>2023-06-30T12:32:21.000Z</time><ele>2083.2</ele></trkpt><trkpt lat="42.148589" lon="14.113824"><time>2023-06-30T12:32:23.000Z</time><ele>2083.2</ele></trkpt><trkpt lat="42.148593" lon="14.113824"><time>2023-06-30T12:32:26.000Z</time><ele>2083.2</ele></trkpt><trkpt lat="42.148599" lon="14.113818"><time>2023-06-30T12:32:38.000Z</time><ele>2082.4</ele></trkpt><trkpt lat="42.14861" lon="14.113762"><time>2023-06-30T12:32:42.000Z</time><ele>2082.2</ele></trkpt><trkpt lat="42.148613" lon="14.113714"><time>2023-06-30T12:32:45.000Z</time><ele>2081.8</ele></trkpt><trkpt lat="42.148611" lon="14.113699"><time>2023-06-30T12:32:46.000Z</time><ele>2081.8</ele></trkpt><trkpt lat="42.148608" lon="14.113684"><time>2023-06-30T12:32:47.000Z</time><ele>2081.8</ele></trkpt><trkpt lat="42.148595" lon="14.11366"><time>2023-06-30T12:32:50.000Z</time><ele>2081.8</ele></trkpt><trkpt lat="42.148582" lon="14.113635"><time>2023-06-30T12:32:55.000Z</time><ele>2081.6</ele></trkpt><trkpt lat="42.148582" lon="14.113635"><time>2023-06-30T12:32:56.000Z</time><ele>2081.6</ele></trkpt><trkpt lat="42.14857" lon="14.113607"><time>2023-06-30T12:33:06.000Z</time><ele>2081.6</ele></trkpt><trkpt lat="42.14853" lon="14.113565"><time>2023-06-30T12:33:11.000Z</time><ele>2082.2</ele></trkpt><trkpt lat="42.148491" lon="14.11353"><time>2023-06-30T12:33:15.000Z</time><ele>2082</ele></trkpt><trkpt lat="42.148473" lon="14.113478"><time>2023-06-30T12:33:19.000Z</time><ele>2081.4</ele></trkpt><trkpt lat="42.148473" lon="14.113449"><time>2023-06-30T12:33:21.000Z</time><ele>2081</ele></trkpt><trkpt lat="42.148471" lon="14.113434"><time>2023-06-30T12:33:22.000Z</time><ele>2080.8</ele></trkpt><trkpt lat="42.148468" lon="14.113419"><time>2023-06-30T12:33:23.000Z</time><ele>2080.6</ele></trkpt><trkpt lat="42.148397" lon="14.113267"><time>2023-06-30T12:33:33.000Z</time><ele>2081</ele></trkpt><trkpt lat="42.148337" lon="14.113071"><time>2023-06-30T12:33:44.000Z</time><ele>2080.6</ele></trkpt><trkpt lat="42.148327" lon="14.113032"><time>2023-06-30T12:33:46.000Z</time><ele>2080.6</ele></trkpt><trkpt lat="42.148293" lon="14.112918"><time>2023-06-30T12:33:52.000Z</time><ele>2080.2</ele></trkpt><trkpt lat="42.148277" lon="14.112888"><time>2023-06-30T12:33:54.000Z</time><ele>2079.8</ele></trkpt><trkpt lat="42.148266" lon="14.112872"><time>2023-06-30T12:33:55.000Z</time><ele>2079.6</ele></trkpt><trkpt lat="42.148211" lon="14.11278"><time>2023-06-30T12:34:02.000Z</time><ele>2078.6</ele></trkpt><trkpt lat="42.148194" lon="14.112755"><time>2023-06-30T12:34:04.000Z</time><ele>2078.6</ele></trkpt><trkpt lat="42.148147" lon="14.112641"><time>2023-06-30T12:34:11.000Z</time><ele>2078.2</ele></trkpt><trkpt lat="42.148129" lon="14.112614"><time>2023-06-30T12:34:13.000Z</time><ele>2078</ele></trkpt><trkpt lat="42.148097" lon="14.112578"><time>2023-06-30T12:34:16.000Z</time><ele>2078</ele></trkpt><trkpt lat="42.148076" lon="14.112541"><time>2023-06-30T12:34:19.000Z</time><ele>2078</ele></trkpt><trkpt lat="42.148058" lon="14.112483"><time>2023-06-30T12:34:22.000Z</time><ele>2077.6</ele></trkpt><trkpt lat="42.148051" lon="14.112463"><time>2023-06-30T12:34:23.000Z</time><ele>2077.4</ele></trkpt><trkpt lat="42.148011" lon="14.112345"><time>2023-06-30T12:34:30.000Z</time><ele>2077</ele></trkpt><trkpt lat="42.148006" lon="14.112325"><time>2023-06-30T12:34:31.000Z</time><ele>2077</ele></trkpt><trkpt lat="42.147997" lon="14.112292"><time>2023-06-30T12:34:33.000Z</time><ele>2076.8</ele></trkpt><trkpt lat="42.147987" lon="14.112261"><time>2023-06-30T12:34:35.000Z</time><ele>2076.4</ele></trkpt><trkpt lat="42.14798" lon="14.112234"><time>2023-06-30T12:34:37.000Z</time><ele>2076.2</ele></trkpt><trkpt lat="42.147982" lon="14.112189"><time>2023-06-30T12:34:41.000Z</time><ele>2075.4</ele></trkpt><trkpt lat="42.147983" lon="14.112173"><time>2023-06-30T12:34:42.000Z</time><ele>2075</ele></trkpt><trkpt lat="42.147966" lon="14.112129"><time>2023-06-30T12:34:45.000Z</time><ele>2074.6</ele></trkpt><trkpt lat="42.147936" lon="14.112095"><time>2023-06-30T12:34:48.000Z</time><ele>2074.4</ele></trkpt><trkpt lat="42.147899" lon="14.112051"><time>2023-06-30T12:34:53.000Z</time><ele>2073.8</ele></trkpt><trkpt lat="42.147835" lon="14.111962"><time>2023-06-30T12:35:00.000Z</time><ele>2074.8</ele></trkpt><trkpt lat="42.147807" lon="14.111918"><time>2023-06-30T12:35:03.000Z</time><ele>2075</ele></trkpt><trkpt lat="42.147788" lon="14.111868"><time>2023-06-30T12:35:06.000Z</time><ele>2074.4</ele></trkpt><trkpt lat="42.147775" lon="14.11183"><time>2023-06-30T12:35:09.000Z</time><ele>2074</ele></trkpt><trkpt lat="42.147765" lon="14.111769"><time>2023-06-30T12:35:13.000Z</time><ele>2073.8</ele></trkpt><trkpt lat="42.147726" lon="14.111692"><time>2023-06-30T12:35:19.000Z</time><ele>2073.2</ele></trkpt><trkpt lat="42.147712" lon="14.111652"><time>2023-06-30T12:35:22.000Z</time><ele>2073.2</ele></trkpt><trkpt lat="42.147703" lon="14.111625"><time>2023-06-30T12:35:24.000Z</time><ele>2073</ele></trkpt><trkpt lat="42.147669" lon="14.111543"><time>2023-06-30T12:35:30.000Z</time><ele>2072</ele></trkpt><trkpt lat="42.14764" lon="14.111463"><time>2023-06-30T12:35:35.000Z</time><ele>2071.8</ele></trkpt><trkpt lat="42.147625" lon="14.111402"><time>2023-06-30T12:35:39.000Z</time><ele>2071.6</ele></trkpt><trkpt lat="42.147594" lon="14.111329"><time>2023-06-30T12:35:44.000Z</time><ele>2071.4</ele></trkpt><trkpt lat="42.14756" lon="14.111235"><time>2023-06-30T12:35:50.000Z</time><ele>2071.4</ele></trkpt><trkpt lat="42.147553" lon="14.11122"><time>2023-06-30T12:35:51.000Z</time><ele>2071.4</ele></trkpt><trkpt lat="42.147538" lon="14.11117"><time>2023-06-30T12:35:54.000Z</time><ele>2071</ele></trkpt><trkpt lat="42.147531" lon="14.111152"><time>2023-06-30T12:35:55.000Z</time><ele>2071</ele></trkpt><trkpt lat="42.147475" lon="14.111033"><time>2023-06-30T12:36:03.000Z</time><ele>2070.4</ele></trkpt><trkpt lat="42.147432" lon="14.110924"><time>2023-06-30T12:36:10.000Z</time><ele>2070.6</ele></trkpt><trkpt lat="42.147423" lon="14.110908"><time>2023-06-30T12:36:11.000Z</time><ele>2070.8</ele></trkpt><trkpt lat="42.147414" lon="14.11089"><time>2023-06-30T12:36:12.000Z</time><ele>2070.8</ele></trkpt><trkpt lat="42.147383" lon="14.110803"><time>2023-06-30T12:36:17.000Z</time><ele>2069.8</ele></trkpt><trkpt lat="42.147356" lon="14.11074"><time>2023-06-30T12:36:21.000Z</time><ele>2069.2</ele></trkpt><trkpt lat="42.147319" lon="14.11063"><time>2023-06-30T12:36:29.000Z</time><ele>2069.2</ele></trkpt><trkpt lat="42.1473" lon="14.110574"><time>2023-06-30T12:36:33.000Z</time><ele>2068.8</ele></trkpt><trkpt lat="42.14726" lon="14.110481"><time>2023-06-30T12:36:38.000Z</time><ele>2068.6</ele></trkpt><trkpt lat="42.147225" lon="14.110343"><time>2023-06-30T12:36:45.000Z</time><ele>2067.6</ele></trkpt><trkpt lat="42.147212" lon="14.110289"><time>2023-06-30T12:36:49.000Z</time><ele>2067</ele></trkpt><trkpt lat="42.147208" lon="14.110272"><time>2023-06-30T12:36:50.000Z</time><ele>2067</ele></trkpt><trkpt lat="42.14719" lon="14.110233"><time>2023-06-30T12:36:53.000Z</time><ele>2067</ele></trkpt><trkpt lat="42.147171" lon="14.110155"><time>2023-06-30T12:36:58.000Z</time><ele>2066.8</ele></trkpt><trkpt lat="42.147163" lon="14.110132"><time>2023-06-30T12:37:00.000Z</time><ele>2066.6</ele></trkpt><trkpt lat="42.147165" lon="14.110121"><time>2023-06-30T12:37:01.000Z</time><ele>2066.4</ele></trkpt><trkpt lat="42.147162" lon="14.110095"><time>2023-06-30T12:37:03.000Z</time><ele>2065.8</ele></trkpt><trkpt lat="42.147156" lon="14.110068"><time>2023-06-30T12:37:05.000Z</time><ele>2065.4</ele></trkpt><trkpt lat="42.147142" lon="14.110012"><time>2023-06-30T12:37:08.000Z</time><ele>2065.2</ele></trkpt><trkpt lat="42.147124" lon="14.109937"><time>2023-06-30T12:37:12.000Z</time><ele>2065</ele></trkpt><trkpt lat="42.147106" lon="14.109835"><time>2023-06-30T12:37:17.000Z</time><ele>2064.8</ele></trkpt><trkpt lat="42.147076" lon="14.109713"><time>2023-06-30T12:37:25.000Z</time><ele>2064.8</ele></trkpt><trkpt lat="42.147078" lon="14.109639"><time>2023-06-30T12:37:30.000Z</time><ele>2064.4</ele></trkpt><trkpt lat="42.147075" lon="14.109595"><time>2023-06-30T12:37:33.000Z</time><ele>2064</ele></trkpt><trkpt lat="42.14704" lon="14.109425"><time>2023-06-30T12:37:42.000Z</time><ele>2063.6</ele></trkpt><trkpt lat="42.147036" lon="14.109408"><time>2023-06-30T12:37:43.000Z</time><ele>2063.4</ele></trkpt><trkpt lat="42.147033" lon="14.109391"><time>2023-06-30T12:37:44.000Z</time><ele>2063.4</ele></trkpt><trkpt lat="42.147019" lon="14.109328"><time>2023-06-30T12:37:49.000Z</time><ele>2063</ele></trkpt><trkpt lat="42.147012" lon="14.109267"><time>2023-06-30T12:37:53.000Z</time><ele>2063</ele></trkpt><trkpt lat="42.147012" lon="14.109254"><time>2023-06-30T12:37:54.000Z</time><ele>2062.8</ele></trkpt><trkpt lat="42.147014" lon="14.109211"><time>2023-06-30T12:37:57.000Z</time><ele>2062.2</ele></trkpt><trkpt lat="42.147012" lon="14.10918"><time>2023-06-30T12:37:59.000Z</time><ele>2061.8</ele></trkpt><trkpt lat="42.147012" lon="14.109161"><time>2023-06-30T12:38:00.000Z</time><ele>2061.6</ele></trkpt><trkpt lat="42.147014" lon="14.109142"><time>2023-06-30T12:38:01.000Z</time><ele>2061.4</ele></trkpt><trkpt lat="42.147012" lon="14.109125"><time>2023-06-30T12:38:02.000Z</time><ele>2061.2</ele></trkpt><trkpt lat="42.14701" lon="14.109111"><time>2023-06-30T12:38:03.000Z</time><ele>2061</ele></trkpt><trkpt lat="42.147004" lon="14.109035"><time>2023-06-30T12:38:08.000Z</time><ele>2060.4</ele></trkpt><trkpt lat="42.147002" lon="14.109011"><time>2023-06-30T12:38:10.000Z</time><ele>2060</ele></trkpt><trkpt lat="42.147" lon="14.108969"><time>2023-06-30T12:38:14.000Z</time><ele>2059.6</ele></trkpt><trkpt lat="42.146997" lon="14.108889"><time>2023-06-30T12:38:19.000Z</time><ele>2058.8</ele></trkpt><trkpt lat="42.147002" lon="14.108829"><time>2023-06-30T12:38:23.000Z</time><ele>2058.2</ele></trkpt><trkpt lat="42.146999" lon="14.108815"><time>2023-06-30T12:38:24.000Z</time><ele>2058</ele></trkpt><trkpt lat="42.146994" lon="14.108795"><time>2023-06-30T12:38:26.000Z</time><ele>2057.6</ele></trkpt><trkpt lat="42.146995" lon="14.108763"><time>2023-06-30T12:38:29.000Z</time><ele>2057.4</ele></trkpt><trkpt lat="42.146977" lon="14.108695"><time>2023-06-30T12:38:33.000Z</time><ele>2056.8</ele></trkpt><trkpt lat="42.146974" lon="14.108678"><time>2023-06-30T12:38:34.000Z</time><ele>2056.6</ele></trkpt><trkpt lat="42.146966" lon="14.108653"><time>2023-06-30T12:38:36.000Z</time><ele>2056.6</ele></trkpt><trkpt lat="42.146955" lon="14.108635"><time>2023-06-30T12:38:38.000Z</time><ele>2056.4</ele></trkpt><trkpt lat="42.146938" lon="14.108574"><time>2023-06-30T12:38:43.000Z</time><ele>2056</ele></trkpt><trkpt lat="42.146927" lon="14.108509"><time>2023-06-30T12:38:50.000Z</time><ele>2055.8</ele></trkpt><trkpt lat="42.146883" lon="14.108415"><time>2023-06-30T12:38:57.000Z</time><ele>2056</ele></trkpt><trkpt lat="42.146833" lon="14.108265"><time>2023-06-30T12:39:06.000Z</time><ele>2056</ele></trkpt><trkpt lat="42.146784" lon="14.108214"><time>2023-06-30T12:39:13.000Z</time><ele>2056.4</ele></trkpt><trkpt lat="42.146783" lon="14.108214"><time>2023-06-30T12:39:14.000Z</time><ele>2056.2</ele></trkpt><trkpt lat="42.146735" lon="14.108203"><time>2023-06-30T12:39:21.000Z</time><ele>2056.4</ele></trkpt><trkpt lat="42.146648" lon="14.108189"><time>2023-06-30T12:39:28.000Z</time><ele>2057.8</ele></trkpt><trkpt lat="42.146636" lon="14.108185"><time>2023-06-30T12:39:29.000Z</time><ele>2058</ele></trkpt><trkpt lat="42.146614" lon="14.108179"><time>2023-06-30T12:39:31.000Z</time><ele>2058.2</ele></trkpt><trkpt lat="42.146586" lon="14.108179"><time>2023-06-30T12:39:33.000Z</time><ele>2058.6</ele></trkpt><trkpt lat="42.146558" lon="14.10818"><time>2023-06-30T12:39:35.000Z</time><ele>2058.8</ele></trkpt><trkpt lat="42.146511" lon="14.108175"><time>2023-06-30T12:39:38.000Z</time><ele>2059.2</ele></trkpt><trkpt lat="42.146388" lon="14.108154"><time>2023-06-30T12:39:47.000Z</time><ele>2058.6</ele></trkpt><trkpt lat="42.146339" lon="14.108164"><time>2023-06-30T12:39:51.000Z</time><ele>2058.8</ele></trkpt><trkpt lat="42.146309" lon="14.10818"><time>2023-06-30T12:39:54.000Z</time><ele>2058.8</ele></trkpt><trkpt lat="42.146253" lon="14.1082"><time>2023-06-30T12:39:59.000Z</time><ele>2059.4</ele></trkpt><trkpt lat="42.146245" lon="14.108207"><time>2023-06-30T12:40:00.000Z</time><ele>2059.6</ele></trkpt><trkpt lat="42.146235" lon="14.108211"><time>2023-06-30T12:40:01.000Z</time><ele>2059.6</ele></trkpt><trkpt lat="42.146226" lon="14.108215"><time>2023-06-30T12:40:02.000Z</time><ele>2059.8</ele></trkpt><trkpt lat="42.146205" lon="14.10823"><time>2023-06-30T12:40:04.000Z</time><ele>2060</ele></trkpt><trkpt lat="42.14617" lon="14.108242"><time>2023-06-30T12:40:07.000Z</time><ele>2060.4</ele></trkpt><trkpt lat="42.146139" lon="14.10824"><time>2023-06-30T12:40:09.000Z</time><ele>2060.6</ele></trkpt><trkpt lat="42.146015" lon="14.108267"><time>2023-06-30T12:40:17.000Z</time><ele>2060.4</ele></trkpt><trkpt lat="42.145926" lon="14.10827"><time>2023-06-30T12:40:24.000Z</time><ele>2060.4</ele></trkpt><trkpt lat="42.145915" lon="14.108268"><time>2023-06-30T12:40:25.000Z</time><ele>2060.2</ele></trkpt><trkpt lat="42.14585" lon="14.10828"><time>2023-06-30T12:40:30.000Z</time><ele>2060</ele></trkpt><trkpt lat="42.145794" lon="14.108285"><time>2023-06-30T12:40:35.000Z</time><ele>2060.6</ele></trkpt><trkpt lat="42.145769" lon="14.108276"><time>2023-06-30T12:40:37.000Z</time><ele>2060.8</ele></trkpt><trkpt lat="42.145721" lon="14.108271"><time>2023-06-30T12:40:41.000Z</time><ele>2060.8</ele></trkpt><trkpt lat="42.145685" lon="14.10827"><time>2023-06-30T12:40:43.000Z</time><ele>2060.6</ele></trkpt><trkpt lat="42.145585" lon="14.108302"><time>2023-06-30T12:40:50.000Z</time><ele>2060.4</ele></trkpt><trkpt lat="42.145539" lon="14.10831"><time>2023-06-30T12:40:55.000Z</time><ele>2060.4</ele></trkpt><trkpt lat="42.145519" lon="14.108308"><time>2023-06-30T12:40:57.000Z</time><ele>2060.4</ele></trkpt><trkpt lat="42.14548" lon="14.108289"><time>2023-06-30T12:41:01.000Z</time><ele>2060.4</ele></trkpt><trkpt lat="42.145453" lon="14.10828"><time>2023-06-30T12:41:04.000Z</time><ele>2060.4</ele></trkpt><trkpt lat="42.145422" lon="14.108274"><time>2023-06-30T12:41:06.000Z</time><ele>2060.4</ele></trkpt><trkpt lat="42.145397" lon="14.108285"><time>2023-06-30T12:41:08.000Z</time><ele>2060.4</ele></trkpt><trkpt lat="42.145346" lon="14.1083"><time>2023-06-30T12:41:13.000Z</time><ele>2061</ele></trkpt><trkpt lat="42.145318" lon="14.108297"><time>2023-06-30T12:41:16.000Z</time><ele>2061.4</ele></trkpt><trkpt lat="42.145292" lon="14.108312"><time>2023-06-30T12:41:18.000Z</time><ele>2061.8</ele></trkpt><trkpt lat="42.145264" lon="14.10831"><time>2023-06-30T12:41:21.000Z</time><ele>2062</ele></trkpt><trkpt lat="42.145229" lon="14.108309"><time>2023-06-30T12:41:24.000Z</time><ele>2062.2</ele></trkpt><trkpt lat="42.145218" lon="14.108316"><time>2023-06-30T12:41:25.000Z</time><ele>2062.4</ele></trkpt><trkpt lat="42.145194" lon="14.108318"><time>2023-06-30T12:41:27.000Z</time><ele>2062.6</ele></trkpt><trkpt lat="42.145154" lon="14.108312"><time>2023-06-30T12:41:30.000Z</time><ele>2062.8</ele></trkpt><trkpt lat="42.145134" lon="14.10831"><time>2023-06-30T12:41:32.000Z</time><ele>2062.8</ele></trkpt><trkpt lat="42.145095" lon="14.108305"><time>2023-06-30T12:41:36.000Z</time><ele>2063</ele></trkpt><trkpt lat="42.145082" lon="14.108296"><time>2023-06-30T12:41:37.000Z</time><ele>2063</ele></trkpt><trkpt lat="42.145061" lon="14.108277"><time>2023-06-30T12:41:39.000Z</time><ele>2063</ele></trkpt><trkpt lat="42.145042" lon="14.108248"><time>2023-06-30T12:41:41.000Z</time><ele>2063.2</ele></trkpt><trkpt lat="42.145025" lon="14.108237"><time>2023-06-30T12:41:42.000Z</time><ele>2063.2</ele></trkpt><trkpt lat="42.144941" lon="14.108205"><time>2023-06-30T12:41:49.000Z</time><ele>2063.6</ele></trkpt><trkpt lat="42.144934" lon="14.10821"><time>2023-06-30T12:41:50.000Z</time><ele>2063.8</ele></trkpt><trkpt lat="42.14492" lon="14.108219"><time>2023-06-30T12:41:52.000Z</time><ele>2064.2</ele></trkpt><trkpt lat="42.1449" lon="14.108228"><time>2023-06-30T12:41:54.000Z</time><ele>2064.4</ele></trkpt><trkpt lat="42.144887" lon="14.108228"><time>2023-06-30T12:41:56.000Z</time><ele>2064.8</ele></trkpt><trkpt lat="42.144858" lon="14.108222"><time>2023-06-30T12:42:00.000Z</time><ele>2065.2</ele></trkpt><trkpt lat="42.144852" lon="14.108223"><time>2023-06-30T12:42:01.000Z</time><ele>2065.4</ele></trkpt><trkpt lat="42.144813" lon="14.108217"><time>2023-06-30T12:42:06.000Z</time><ele>2066.4</ele></trkpt><trkpt lat="42.144792" lon="14.108211"><time>2023-06-30T12:42:09.000Z</time><ele>2067.2</ele></trkpt><trkpt lat="42.144777" lon="14.108212"><time>2023-06-30T12:42:11.000Z</time><ele>2067.6</ele></trkpt><trkpt lat="42.144757" lon="14.108218"><time>2023-06-30T12:42:15.000Z</time><ele>2068.2</ele></trkpt><trkpt lat="42.144753" lon="14.108222"><time>2023-06-30T12:42:17.000Z</time><ele>2068.8</ele></trkpt><trkpt lat="42.144748" lon="14.10822"><time>2023-06-30T12:42:18.000Z</time><ele>2069</ele></trkpt><trkpt lat="42.144734" lon="14.108214"><time>2023-06-30T12:42:20.000Z</time><ele>2069.4</ele></trkpt><trkpt lat="42.144721" lon="14.108202"><time>2023-06-30T12:42:22.000Z</time><ele>2069.6</ele></trkpt><trkpt lat="42.144715" lon="14.108194"><time>2023-06-30T12:42:23.000Z</time><ele>2070</ele></trkpt><trkpt lat="42.144687" lon="14.108164"><time>2023-06-30T12:42:27.000Z</time><ele>2070.6</ele></trkpt><trkpt lat="42.144677" lon="14.108157"><time>2023-06-30T12:42:28.000Z</time><ele>2071</ele></trkpt><trkpt lat="42.144654" lon="14.108192"><time>2023-06-30T12:42:34.000Z</time><ele>2072</ele></trkpt><trkpt lat="42.144652" lon="14.108197"><time>2023-06-30T12:42:35.000Z</time><ele>2072.2</ele></trkpt><trkpt lat="42.144639" lon="14.108205"><time>2023-06-30T12:42:38.000Z</time><ele>2072.6</ele></trkpt><trkpt lat="42.144628" lon="14.108207"><time>2023-06-30T12:42:41.000Z</time><ele>2073.4</ele></trkpt><trkpt lat="42.144599" lon="14.108239"><time>2023-06-30T12:42:48.000Z</time><ele>2074.6</ele></trkpt><trkpt lat="42.144599" lon="14.108249"><time>2023-06-30T12:42:49.000Z</time><ele>2074.8</ele></trkpt><trkpt lat="42.144581" lon="14.108298"><time>2023-06-30T12:42:55.000Z</time><ele>2075.8</ele></trkpt><trkpt lat="42.14456" lon="14.108313"><time>2023-06-30T12:42:59.000Z</time><ele>2076.4</ele></trkpt><trkpt lat="42.144548" lon="14.108311"><time>2023-06-30T12:43:02.000Z</time><ele>2076.8</ele></trkpt><trkpt lat="42.144534" lon="14.108287"><time>2023-06-30T12:43:08.000Z</time><ele>2077.4</ele></trkpt><trkpt lat="42.144528" lon="14.108259"><time>2023-06-30T12:43:11.000Z</time><ele>2078</ele></trkpt><trkpt lat="42.144509" lon="14.108272"><time>2023-06-30T12:43:14.000Z</time><ele>2078.6</ele></trkpt><trkpt lat="42.144495" lon="14.108282"><time>2023-06-30T12:43:17.000Z</time><ele>2079.2</ele></trkpt><trkpt lat="42.144481" lon="14.108288"><time>2023-06-30T12:43:20.000Z</time><ele>2079.6</ele></trkpt><trkpt lat="42.144467" lon="14.108291"><time>2023-06-30T12:43:23.000Z</time><ele>2080.4</ele></trkpt><trkpt lat="42.144444" lon="14.108277"><time>2023-06-30T12:43:28.000Z</time><ele>2081.2</ele></trkpt><trkpt lat="42.14444" lon="14.108271"><time>2023-06-30T12:43:29.000Z</time><ele>2081.4</ele></trkpt><trkpt lat="42.144421" lon="14.108231"><time>2023-06-30T12:43:35.000Z</time><ele>2082.6</ele></trkpt><trkpt lat="42.144403" lon="14.10817"><time>2023-06-30T12:43:42.000Z</time><ele>2083.2</ele></trkpt><trkpt lat="42.144388" lon="14.108168"><time>2023-06-30T12:43:46.000Z</time><ele>2083.6</ele></trkpt><trkpt lat="42.144388" lon="14.108167"><time>2023-06-30T12:43:48.000Z</time><ele>2083.6</ele></trkpt><trkpt lat="42.144381" lon="14.108158"><time>2023-06-30T12:43:55.000Z</time><ele>2083.8</ele></trkpt><trkpt lat="42.144381" lon="14.108172"><time>2023-06-30T12:44:04.000Z</time><ele>2083.8</ele></trkpt><trkpt lat="42.144381" lon="14.108172"><time>2023-06-30T12:44:06.000Z</time><ele>2083.8</ele></trkpt><trkpt lat="42.144381" lon="14.108172"><time>2023-06-30T12:44:13.000Z</time><ele>2084.6</ele></trkpt><trkpt lat="42.144364" lon="14.10817"><time>2023-06-30T12:44:21.000Z</time><ele>2085.8</ele></trkpt><trkpt lat="42.144287" lon="14.108154"><time>2023-06-30T12:44:26.000Z</time><ele>2085.8</ele></trkpt><trkpt lat="42.144167" lon="14.108137"><time>2023-06-30T12:44:32.000Z</time><ele>2085.4</ele></trkpt><trkpt lat="42.144141" lon="14.108139"><time>2023-06-30T12:44:34.000Z</time><ele>2085.6</ele></trkpt><trkpt lat="42.14409" lon="14.108138"><time>2023-06-30T12:44:38.000Z</time><ele>2086</ele></trkpt><trkpt lat="42.144043" lon="14.108147"><time>2023-06-30T12:44:43.000Z</time><ele>2086.6</ele></trkpt><trkpt lat="42.144034" lon="14.108141"><time>2023-06-30T12:44:44.000Z</time><ele>2086.6</ele></trkpt><trkpt lat="42.143971" lon="14.108109"><time>2023-06-30T12:44:50.000Z</time><ele>2086.2</ele></trkpt><trkpt lat="42.143933" lon="14.108101"><time>2023-06-30T12:44:53.000Z</time><ele>2085.8</ele></trkpt><trkpt lat="42.143914" lon="14.108094"><time>2023-06-30T12:44:55.000Z</time><ele>2085.4</ele></trkpt><trkpt lat="42.143883" lon="14.108085"><time>2023-06-30T12:44:58.000Z</time><ele>2084.8</ele></trkpt><trkpt lat="42.143869" lon="14.108082"><time>2023-06-30T12:44:59.000Z</time><ele>2084.6</ele></trkpt><trkpt lat="42.143857" lon="14.108079"><time>2023-06-30T12:45:00.000Z</time><ele>2084.6</ele></trkpt><trkpt lat="42.143844" lon="14.108075"><time>2023-06-30T12:45:01.000Z</time><ele>2084.6</ele></trkpt><trkpt lat="42.14376" lon="14.108062"><time>2023-06-30T12:45:07.000Z</time><ele>2084.8</ele></trkpt><trkpt lat="42.143749" lon="14.108063"><time>2023-06-30T12:45:08.000Z</time><ele>2084.8</ele></trkpt><trkpt lat="42.143681" lon="14.108103"><time>2023-06-30T12:45:14.000Z</time><ele>2085</ele></trkpt><trkpt lat="42.143634" lon="14.108127"><time>2023-06-30T12:45:17.000Z</time><ele>2085.2</ele></trkpt><trkpt lat="42.143588" lon="14.108125"><time>2023-06-30T12:45:20.000Z</time><ele>2085.4</ele></trkpt><trkpt lat="42.143495" lon="14.108171"><time>2023-06-30T12:45:28.000Z</time><ele>2085.2</ele></trkpt><trkpt lat="42.143393" lon="14.108261"><time>2023-06-30T12:45:38.000Z</time><ele>2085.4</ele></trkpt><trkpt lat="42.143387" lon="14.108257"><time>2023-06-30T12:45:40.000Z</time><ele>2085.6</ele></trkpt><trkpt lat="42.143385" lon="14.108256"><time>2023-06-30T12:45:41.000Z</time><ele>2085.8</ele></trkpt><trkpt lat="42.143383" lon="14.108254"><time>2023-06-30T12:45:43.000Z</time><ele>2086</ele></trkpt><trkpt lat="42.143383" lon="14.108259"><time>2023-06-30T12:45:52.000Z</time><ele>2086.4</ele></trkpt><trkpt lat="42.143373" lon="14.108234"><time>2023-06-30T12:46:00.000Z</time><ele>2087</ele></trkpt><trkpt lat="42.14337" lon="14.108225"><time>2023-06-30T12:46:01.000Z</time><ele>2087.4</ele></trkpt><trkpt lat="42.143368" lon="14.108215"><time>2023-06-30T12:46:03.000Z</time><ele>2087.6</ele></trkpt><trkpt lat="42.143365" lon="14.1082"><time>2023-06-30T12:46:06.000Z</time><ele>2088</ele></trkpt><trkpt lat="42.143365" lon="14.108196"><time>2023-06-30T12:46:09.000Z</time><ele>2088</ele></trkpt><trkpt lat="42.143368" lon="14.108213"><time>2023-06-30T12:46:12.000Z</time><ele>2087.6</ele></trkpt><trkpt lat="42.143367" lon="14.108237"><time>2023-06-30T12:46:18.000Z</time><ele>2086.8</ele></trkpt><trkpt lat="42.143367" lon="14.108245"><time>2023-06-30T12:46:31.000Z</time><ele>2087</ele></trkpt><trkpt lat="42.143318" lon="14.108285"><time>2023-06-30T12:46:36.000Z</time><ele>2087.4</ele></trkpt><trkpt lat="42.143265" lon="14.108327"><time>2023-06-30T12:46:41.000Z</time><ele>2087.8</ele></trkpt><trkpt lat="42.143257" lon="14.108331"><time>2023-06-30T12:46:42.000Z</time><ele>2088</ele></trkpt><trkpt lat="42.143242" lon="14.10834"><time>2023-06-30T12:46:44.000Z</time><ele>2088</ele></trkpt><trkpt lat="42.143233" lon="14.108351"><time>2023-06-30T12:46:46.000Z</time><ele>2088.2</ele></trkpt><trkpt lat="42.143204" lon="14.108385"><time>2023-06-30T12:46:50.000Z</time><ele>2088</ele></trkpt><trkpt lat="42.1432" lon="14.108396"><time>2023-06-30T12:46:51.000Z</time><ele>2087.8</ele></trkpt><trkpt lat="42.143145" lon="14.10846"><time>2023-06-30T12:46:59.000Z</time><ele>2087.6</ele></trkpt><trkpt lat="42.14312" lon="14.108471"><time>2023-06-30T12:47:01.000Z</time><ele>2087.8</ele></trkpt><trkpt lat="42.143089" lon="14.108489"><time>2023-06-30T12:47:04.000Z</time><ele>2087.8</ele></trkpt><trkpt lat="42.143084" lon="14.108494"><time>2023-06-30T12:47:05.000Z</time><ele>2087.6</ele></trkpt><trkpt lat="42.142989" lon="14.108578"><time>2023-06-30T12:47:15.000Z</time><ele>2087</ele></trkpt><trkpt lat="42.142982" lon="14.108584"><time>2023-06-30T12:47:16.000Z</time><ele>2086.8</ele></trkpt><trkpt lat="42.142964" lon="14.108611"><time>2023-06-30T12:47:18.000Z</time><ele>2086.6</ele></trkpt><trkpt lat="42.14295" lon="14.108645"><time>2023-06-30T12:47:21.000Z</time><ele>2086.4</ele></trkpt><trkpt lat="42.142891" lon="14.10875"><time>2023-06-30T12:47:30.000Z</time><ele>2087.4</ele></trkpt><trkpt lat="42.142871" lon="14.108809"><time>2023-06-30T12:47:34.000Z</time><ele>2087.4</ele></trkpt><trkpt lat="42.142861" lon="14.108841"><time>2023-06-30T12:47:37.000Z</time><ele>2087.6</ele></trkpt><trkpt lat="42.142854" lon="14.108858"><time>2023-06-30T12:47:39.000Z</time><ele>2087.8</ele></trkpt><trkpt lat="42.142822" lon="14.108918"><time>2023-06-30T12:47:46.000Z</time><ele>2088.2</ele></trkpt><trkpt lat="42.142818" lon="14.108925"><time>2023-06-30T12:47:48.000Z</time><ele>2088.4</ele></trkpt><trkpt lat="42.142818" lon="14.108925"><time>2023-06-30T12:47:51.000Z</time><ele>2088.6</ele></trkpt><trkpt lat="42.142818" lon="14.108928"><time>2023-06-30T12:47:53.000Z</time><ele>2088.8</ele></trkpt><trkpt lat="42.1428" lon="14.108954"><time>2023-06-30T12:48:01.000Z</time><ele>2088.8</ele></trkpt><trkpt lat="42.142761" lon="14.109003"><time>2023-06-30T12:48:08.000Z</time><ele>2088.4</ele></trkpt><trkpt lat="42.142711" lon="14.109095"><time>2023-06-30T12:48:15.000Z</time><ele>2088.2</ele></trkpt><trkpt lat="42.142671" lon="14.10917"><time>2023-06-30T12:48:21.000Z</time><ele>2088.2</ele></trkpt><trkpt lat="42.142644" lon="14.109207"><time>2023-06-30T12:48:24.000Z</time><ele>2088.2</ele></trkpt><trkpt lat="42.142633" lon="14.109249"><time>2023-06-30T12:48:27.000Z</time><ele>2088.4</ele></trkpt><trkpt lat="42.142629" lon="14.109267"><time>2023-06-30T12:48:28.000Z</time><ele>2088.4</ele></trkpt><trkpt lat="42.142612" lon="14.109322"><time>2023-06-30T12:48:32.000Z</time><ele>2088.8</ele></trkpt><trkpt lat="42.142602" lon="14.109354"><time>2023-06-30T12:48:34.000Z</time><ele>2089</ele></trkpt><trkpt lat="42.142594" lon="14.10938"><time>2023-06-30T12:48:36.000Z</time><ele>2089</ele></trkpt><trkpt lat="42.142544" lon="14.109468"><time>2023-06-30T12:48:42.000Z</time><ele>2089.2</ele></trkpt><trkpt lat="42.142524" lon="14.109495"><time>2023-06-30T12:48:44.000Z</time><ele>2089.2</ele></trkpt><trkpt lat="42.142455" lon="14.109601"><time>2023-06-30T12:48:52.000Z</time><ele>2088.6</ele></trkpt><trkpt lat="42.142373" lon="14.109704"><time>2023-06-30T12:49:00.000Z</time><ele>2087.8</ele></trkpt><trkpt lat="42.142294" lon="14.109801"><time>2023-06-30T12:49:07.000Z</time><ele>2087.2</ele></trkpt><trkpt lat="42.142249" lon="14.109899"><time>2023-06-30T12:49:14.000Z</time><ele>2087.4</ele></trkpt><trkpt lat="42.142245" lon="14.109908"><time>2023-06-30T12:49:15.000Z</time><ele>2087.4</ele></trkpt><trkpt lat="42.142185" lon="14.110001"><time>2023-06-30T12:49:23.000Z</time><ele>2087</ele></trkpt><trkpt lat="42.142175" lon="14.110008"><time>2023-06-30T12:49:24.000Z</time><ele>2087</ele></trkpt><trkpt lat="42.142142" lon="14.11003"><time>2023-06-30T12:49:26.000Z</time><ele>2086.8</ele></trkpt><trkpt lat="42.142073" lon="14.11009"><time>2023-06-30T12:49:32.000Z</time><ele>2085.6</ele></trkpt><trkpt lat="42.14206" lon="14.1101"><time>2023-06-30T12:49:33.000Z</time><ele>2085.6</ele></trkpt><trkpt lat="42.141972" lon="14.110186"><time>2023-06-30T12:49:41.000Z</time><ele>2084.8</ele></trkpt><trkpt lat="42.141961" lon="14.110198"><time>2023-06-30T12:49:42.000Z</time><ele>2084.6</ele></trkpt><trkpt lat="42.141953" lon="14.110209"><time>2023-06-30T12:49:43.000Z</time><ele>2084.6</ele></trkpt><trkpt lat="42.141928" lon="14.110253"><time>2023-06-30T12:49:46.000Z</time><ele>2084.6</ele></trkpt><trkpt lat="42.141915" lon="14.110264"><time>2023-06-30T12:49:47.000Z</time><ele>2084.6</ele></trkpt><trkpt lat="42.141883" lon="14.110303"><time>2023-06-30T12:49:50.000Z</time><ele>2084.8</ele></trkpt><trkpt lat="42.141801" lon="14.110376"><time>2023-06-30T12:49:57.000Z</time><ele>2085.2</ele></trkpt><trkpt lat="42.141721" lon="14.110456"><time>2023-06-30T12:50:04.000Z</time><ele>2085.6</ele></trkpt><trkpt lat="42.141704" lon="14.110477"><time>2023-06-30T12:50:06.000Z</time><ele>2085.6</ele></trkpt><trkpt lat="42.141677" lon="14.11051"><time>2023-06-30T12:50:09.000Z</time><ele>2086</ele></trkpt><trkpt lat="42.141658" lon="14.110546"><time>2023-06-30T12:50:12.000Z</time><ele>2086.4</ele></trkpt><trkpt lat="42.14165" lon="14.110558"><time>2023-06-30T12:50:13.000Z</time><ele>2086.6</ele></trkpt><trkpt lat="42.141643" lon="14.110571"><time>2023-06-30T12:50:14.000Z</time><ele>2086.6</ele></trkpt><trkpt lat="42.141561" lon="14.110656"><time>2023-06-30T12:50:22.000Z</time><ele>2087.2</ele></trkpt><trkpt lat="42.141505" lon="14.11073"><time>2023-06-30T12:50:31.000Z</time><ele>2087.4</ele></trkpt><trkpt lat="42.141453" lon="14.110761"><time>2023-06-30T12:50:39.000Z</time><ele>2087.6</ele></trkpt><trkpt lat="42.141441" lon="14.110763"><time>2023-06-30T12:50:41.000Z</time><ele>2087.6</ele></trkpt><trkpt lat="42.141375" lon="14.110763"><time>2023-06-30T12:50:46.000Z</time><ele>2087.4</ele></trkpt><trkpt lat="42.141291" lon="14.110793"><time>2023-06-30T12:50:54.000Z</time><ele>2087.2</ele></trkpt><trkpt lat="42.141282" lon="14.110797"><time>2023-06-30T12:50:55.000Z</time><ele>2087.2</ele></trkpt><trkpt lat="42.14117" lon="14.110822"><time>2023-06-30T12:51:04.000Z</time><ele>2087.6</ele></trkpt><trkpt lat="42.14114" lon="14.110826"><time>2023-06-30T12:51:06.000Z</time><ele>2087.6</ele></trkpt><trkpt lat="42.141018" lon="14.110835"><time>2023-06-30T12:51:16.000Z</time><ele>2088.8</ele></trkpt><trkpt lat="42.140949" lon="14.110828"><time>2023-06-30T12:51:23.000Z</time><ele>2089.6</ele></trkpt><trkpt lat="42.140928" lon="14.110821"><time>2023-06-30T12:51:25.000Z</time><ele>2089.8</ele></trkpt><trkpt lat="42.140908" lon="14.110813"><time>2023-06-30T12:51:27.000Z</time><ele>2090.2</ele></trkpt><trkpt lat="42.140872" lon="14.110807"><time>2023-06-30T12:51:30.000Z</time><ele>2090.6</ele></trkpt><trkpt lat="42.140843" lon="14.110816"><time>2023-06-30T12:51:33.000Z</time><ele>2090.8</ele></trkpt><trkpt lat="42.140799" lon="14.110822"><time>2023-06-30T12:51:37.000Z</time><ele>2091.4</ele></trkpt><trkpt lat="42.140779" lon="14.110831"><time>2023-06-30T12:51:39.000Z</time><ele>2092</ele></trkpt><trkpt lat="42.140721" lon="14.110861"><time>2023-06-30T12:51:45.000Z</time><ele>2092.4</ele></trkpt><trkpt lat="42.140698" lon="14.110867"><time>2023-06-30T12:51:48.000Z</time><ele>2092.6</ele></trkpt><trkpt lat="42.140666" lon="14.110859"><time>2023-06-30T12:51:52.000Z</time><ele>2093</ele></trkpt><trkpt lat="42.140662" lon="14.110863"><time>2023-06-30T12:51:53.000Z</time><ele>2093.2</ele></trkpt><trkpt lat="42.140633" lon="14.110859"><time>2023-06-30T12:51:57.000Z</time><ele>2094.2</ele></trkpt><trkpt lat="42.14058" lon="14.110863"><time>2023-06-30T12:52:02.000Z</time><ele>2094.8</ele></trkpt><trkpt lat="42.140567" lon="14.110877"><time>2023-06-30T12:52:04.000Z</time><ele>2095.2</ele></trkpt><trkpt lat="42.140551" lon="14.110892"><time>2023-06-30T12:52:08.000Z</time><ele>2095.4</ele></trkpt><trkpt lat="42.140516" lon="14.110901"><time>2023-06-30T12:52:19.000Z</time><ele>2095.6</ele></trkpt><trkpt lat="42.140502" lon="14.110904"><time>2023-06-30T12:52:21.000Z</time><ele>2095.6</ele></trkpt><trkpt lat="42.14044" lon="14.110922"><time>2023-06-30T12:52:28.000Z</time><ele>2096.4</ele></trkpt><trkpt lat="42.140428" lon="14.110925"><time>2023-06-30T12:52:29.000Z</time><ele>2096.4</ele></trkpt><trkpt lat="42.140383" lon="14.11093"><time>2023-06-30T12:52:34.000Z</time><ele>2097.4</ele></trkpt><trkpt lat="42.140366" lon="14.11093"><time>2023-06-30T12:52:36.000Z</time><ele>2097.8</ele></trkpt><trkpt lat="42.140334" lon="14.110943"><time>2023-06-30T12:52:39.000Z</time><ele>2098.4</ele></trkpt><trkpt lat="42.140286" lon="14.110945"><time>2023-06-30T12:52:44.000Z</time><ele>2099</ele></trkpt><trkpt lat="42.140272" lon="14.110942"><time>2023-06-30T12:52:46.000Z</time><ele>2099.4</ele></trkpt><trkpt lat="42.14026" lon="14.110941"><time>2023-06-30T12:52:47.000Z</time><ele>2099.6</ele></trkpt><trkpt lat="42.140241" lon="14.110952"><time>2023-06-30T12:52:49.000Z</time><ele>2100</ele></trkpt><trkpt lat="42.140211" lon="14.110967"><time>2023-06-30T12:52:52.000Z</time><ele>2100.6</ele></trkpt><trkpt lat="42.140203" lon="14.11097"><time>2023-06-30T12:52:53.000Z</time><ele>2100.8</ele></trkpt><trkpt lat="42.140167" lon="14.110977"><time>2023-06-30T12:52:57.000Z</time><ele>2101</ele></trkpt><trkpt lat="42.140149" lon="14.110988"><time>2023-06-30T12:53:00.000Z</time><ele>2101.4</ele></trkpt><trkpt lat="42.140091" lon="14.110973"><time>2023-06-30T12:53:08.000Z</time><ele>2100.8</ele></trkpt><trkpt lat="42.140075" lon="14.110955"><time>2023-06-30T12:53:10.000Z</time><ele>2100.2</ele></trkpt><trkpt lat="42.140049" lon="14.110905"><time>2023-06-30T12:53:14.000Z</time><ele>2099.8</ele></trkpt><trkpt lat="42.140047" lon="14.110882"><time>2023-06-30T12:53:16.000Z</time><ele>2099.8</ele></trkpt><trkpt lat="42.140029" lon="14.110831"><time>2023-06-30T12:53:20.000Z</time><ele>2100</ele></trkpt><trkpt lat="42.139969" lon="14.110725"><time>2023-06-30T12:53:28.000Z</time><ele>2100.4</ele></trkpt><trkpt lat="42.139853" lon="14.110649"><time>2023-06-30T12:53:37.000Z</time><ele>2100.2</ele></trkpt><trkpt lat="42.139785" lon="14.110595"><time>2023-06-30T12:53:45.000Z</time><ele>2101.2</ele></trkpt><trkpt lat="42.13974" lon="14.110595"><time>2023-06-30T12:53:49.000Z</time><ele>2101.4</ele></trkpt><trkpt lat="42.139717" lon="14.110586"><time>2023-06-30T12:53:51.000Z</time><ele>2101.4</ele></trkpt><trkpt lat="42.139609" lon="14.110555"><time>2023-06-30T12:53:59.000Z</time><ele>2101.2</ele></trkpt><trkpt lat="42.139574" lon="14.110542"><time>2023-06-30T12:54:02.000Z</time><ele>2101.4</ele></trkpt><trkpt lat="42.139541" lon="14.110526"><time>2023-06-30T12:54:04.000Z</time><ele>2101.6</ele></trkpt><trkpt lat="42.139451" lon="14.110477"><time>2023-06-30T12:54:11.000Z</time><ele>2102.2</ele></trkpt><trkpt lat="42.139432" lon="14.110485"><time>2023-06-30T12:54:13.000Z</time><ele>2102.4</ele></trkpt><trkpt lat="42.139404" lon="14.110463"><time>2023-06-30T12:54:16.000Z</time><ele>2102.8</ele></trkpt><trkpt lat="42.139389" lon="14.110449"><time>2023-06-30T12:54:18.000Z</time><ele>2103</ele></trkpt><trkpt lat="42.139376" lon="14.110419"><time>2023-06-30T12:54:21.000Z</time><ele>2103.6</ele></trkpt><trkpt lat="42.139362" lon="14.110402"><time>2023-06-30T12:54:23.000Z</time><ele>2104</ele></trkpt><trkpt lat="42.139333" lon="14.110384"><time>2023-06-30T12:54:26.000Z</time><ele>2104.6</ele></trkpt><trkpt lat="42.13923" lon="14.110331"><time>2023-06-30T12:54:35.000Z</time><ele>2104.6</ele></trkpt><trkpt lat="42.139202" lon="14.110305"><time>2023-06-30T12:54:38.000Z</time><ele>2104.8</ele></trkpt><trkpt lat="42.139187" lon="14.110296"><time>2023-06-30T12:54:39.000Z</time><ele>2105</ele></trkpt><trkpt lat="42.139135" lon="14.110257"><time>2023-06-30T12:54:43.000Z</time><ele>2105.6</ele></trkpt><trkpt lat="42.139087" lon="14.110245"><time>2023-06-30T12:54:46.000Z</time><ele>2106</ele></trkpt><trkpt lat="42.139051" lon="14.11025"><time>2023-06-30T12:54:49.000Z</time><ele>2106.4</ele></trkpt><trkpt lat="42.138983" lon="14.11023"><time>2023-06-30T12:54:56.000Z</time><ele>2107</ele></trkpt><trkpt lat="42.138978" lon="14.110226"><time>2023-06-30T12:54:57.000Z</time><ele>2107.2</ele></trkpt><trkpt lat="42.13897" lon="14.110221"><time>2023-06-30T12:54:58.000Z</time><ele>2107.4</ele></trkpt><trkpt lat="42.138903" lon="14.1102"><time>2023-06-30T12:55:04.000Z</time><ele>2107.6</ele></trkpt><trkpt lat="42.138892" lon="14.110199"><time>2023-06-30T12:55:05.000Z</time><ele>2107.6</ele></trkpt><trkpt lat="42.138868" lon="14.110197"><time>2023-06-30T12:55:07.000Z</time><ele>2107.6</ele></trkpt><trkpt lat="42.138822" lon="14.110185"><time>2023-06-30T12:55:11.000Z</time><ele>2107.8</ele></trkpt><trkpt lat="42.138773" lon="14.110165"><time>2023-06-30T12:55:15.000Z</time><ele>2108.2</ele></trkpt><trkpt lat="42.138732" lon="14.110157"><time>2023-06-30T12:55:18.000Z</time><ele>2108.6</ele></trkpt><trkpt lat="42.138708" lon="14.110159"><time>2023-06-30T12:55:20.000Z</time><ele>2108.6</ele></trkpt><trkpt lat="42.138675" lon="14.110164"><time>2023-06-30T12:55:23.000Z</time><ele>2108.4</ele></trkpt><trkpt lat="42.138654" lon="14.110156"><time>2023-06-30T12:55:25.000Z</time><ele>2108.2</ele></trkpt><trkpt lat="42.13861" lon="14.110139"><time>2023-06-30T12:55:29.000Z</time><ele>2108.2</ele></trkpt><trkpt lat="42.138493" lon="14.110101"><time>2023-06-30T12:55:39.000Z</time><ele>2109</ele></trkpt><trkpt lat="42.138471" lon="14.1101"><time>2023-06-30T12:55:41.000Z</time><ele>2109.2</ele></trkpt><trkpt lat="42.138396" lon="14.110086"><time>2023-06-30T12:55:47.000Z</time><ele>2110</ele></trkpt><trkpt lat="42.138363" lon="14.110086"><time>2023-06-30T12:55:50.000Z</time><ele>2110.4</ele></trkpt><trkpt lat="42.138343" lon="14.110089"><time>2023-06-30T12:55:52.000Z</time><ele>2110.4</ele></trkpt><trkpt lat="42.138309" lon="14.11009"><time>2023-06-30T12:55:55.000Z</time><ele>2110.6</ele></trkpt><trkpt lat="42.138194" lon="14.110094"><time>2023-06-30T12:56:04.000Z</time><ele>2110.6</ele></trkpt><trkpt lat="42.138181" lon="14.110093"><time>2023-06-30T12:56:05.000Z</time><ele>2110.8</ele></trkpt><trkpt lat="42.138097" lon="14.110095"><time>2023-06-30T12:56:13.000Z</time><ele>2111.4</ele></trkpt><trkpt lat="42.138087" lon="14.110091"><time>2023-06-30T12:56:14.000Z</time><ele>2111.4</ele></trkpt><trkpt lat="42.137984" lon="14.110064"><time>2023-06-30T12:56:22.000Z</time><ele>2112.2</ele></trkpt><trkpt lat="42.137893" lon="14.110073"><time>2023-06-30T12:56:29.000Z</time><ele>2112.6</ele></trkpt><trkpt lat="42.137868" lon="14.110078"><time>2023-06-30T12:56:31.000Z</time><ele>2112.6</ele></trkpt><trkpt lat="42.137846" lon="14.110081"><time>2023-06-30T12:56:33.000Z</time><ele>2113</ele></trkpt><trkpt lat="42.137785" lon="14.110067"><time>2023-06-30T12:56:37.000Z</time><ele>2113.6</ele></trkpt><trkpt lat="42.137776" lon="14.110055"><time>2023-06-30T12:56:38.000Z</time><ele>2113.6</ele></trkpt><trkpt lat="42.137711" lon="14.11005"><time>2023-06-30T12:56:44.000Z</time><ele>2113.8</ele></trkpt><trkpt lat="42.137577" lon="14.11007"><time>2023-06-30T12:56:53.000Z</time><ele>2114.2</ele></trkpt><trkpt lat="42.137459" lon="14.110073"><time>2023-06-30T12:57:04.000Z</time><ele>2114.6</ele></trkpt><trkpt lat="42.137451" lon="14.110072"><time>2023-06-30T12:57:05.000Z</time><ele>2114.6</ele></trkpt><trkpt lat="42.137443" lon="14.110074"><time>2023-06-30T12:57:06.000Z</time><ele>2114.6</ele></trkpt><trkpt lat="42.137388" lon="14.110077"><time>2023-06-30T12:57:11.000Z</time><ele>2114.6</ele></trkpt><trkpt lat="42.137274" lon="14.110111"><time>2023-06-30T12:57:20.000Z</time><ele>2115.6</ele></trkpt><trkpt lat="42.137171" lon="14.11016"><time>2023-06-30T12:57:28.000Z</time><ele>2115.8</ele></trkpt><trkpt lat="42.1371" lon="14.11019"><time>2023-06-30T12:57:35.000Z</time><ele>2115.4</ele></trkpt><trkpt lat="42.137029" lon="14.110248"><time>2023-06-30T12:57:42.000Z</time><ele>2115.8</ele></trkpt><trkpt lat="42.137024" lon="14.110254"><time>2023-06-30T12:57:43.000Z</time><ele>2116</ele></trkpt><trkpt lat="42.137017" lon="14.110255"><time>2023-06-30T12:57:44.000Z</time><ele>2116</ele></trkpt><trkpt lat="42.136951" lon="14.110265"><time>2023-06-30T12:57:50.000Z</time><ele>2116.4</ele></trkpt><trkpt lat="42.136908" lon="14.110284"><time>2023-06-30T12:57:54.000Z</time><ele>2116.6</ele></trkpt><trkpt lat="42.136883" lon="14.110294"><time>2023-06-30T12:57:56.000Z</time><ele>2116.8</ele></trkpt><trkpt lat="42.136814" lon="14.110328"><time>2023-06-30T12:58:03.000Z</time><ele>2117</ele></trkpt><trkpt lat="42.136764" lon="14.110351"><time>2023-06-30T12:58:08.000Z</time><ele>2117.8</ele></trkpt><trkpt lat="42.136757" lon="14.110349"><time>2023-06-30T12:58:10.000Z</time><ele>2118.2</ele></trkpt><trkpt lat="42.136665" lon="14.110403"><time>2023-06-30T12:58:17.000Z</time><ele>2118.8</ele></trkpt><trkpt lat="42.136614" lon="14.110431"><time>2023-06-30T12:58:20.000Z</time><ele>2119</ele></trkpt><trkpt lat="42.136578" lon="14.110443"><time>2023-06-30T12:58:23.000Z</time><ele>2119</ele></trkpt><trkpt lat="42.136547" lon="14.110474"><time>2023-06-30T12:58:26.000Z</time><ele>2118.8</ele></trkpt><trkpt lat="42.13648" lon="14.110521"><time>2023-06-30T12:58:33.000Z</time><ele>2118.6</ele></trkpt><trkpt lat="42.136467" lon="14.110529"><time>2023-06-30T12:58:36.000Z</time><ele>2118.8</ele></trkpt><trkpt lat="42.136448" lon="14.110529"><time>2023-06-30T12:58:38.000Z</time><ele>2118.8</ele></trkpt><trkpt lat="42.136371" lon="14.110607"><time>2023-06-30T12:58:46.000Z</time><ele>2119.4</ele></trkpt><trkpt lat="42.136355" lon="14.110622"><time>2023-06-30T12:58:48.000Z</time><ele>2119.4</ele></trkpt><trkpt lat="42.136331" lon="14.110633"><time>2023-06-30T12:58:52.000Z</time><ele>2119.2</ele></trkpt><trkpt lat="42.136277" lon="14.110697"><time>2023-06-30T12:58:59.000Z</time><ele>2119.8</ele></trkpt><trkpt lat="42.136231" lon="14.110737"><time>2023-06-30T12:59:04.000Z</time><ele>2119.8</ele></trkpt><trkpt lat="42.136213" lon="14.110743"><time>2023-06-30T12:59:06.000Z</time><ele>2119.8</ele></trkpt><trkpt lat="42.136202" lon="14.110746"><time>2023-06-30T12:59:08.000Z</time><ele>2119.8</ele></trkpt><trkpt lat="42.136196" lon="14.11075"><time>2023-06-30T12:59:09.000Z</time><ele>2120</ele></trkpt><trkpt lat="42.13617" lon="14.110761"><time>2023-06-30T12:59:12.000Z</time><ele>2120.4</ele></trkpt><trkpt lat="42.136158" lon="14.110769"><time>2023-06-30T12:59:13.000Z</time><ele>2120.6</ele></trkpt><trkpt lat="42.1361" lon="14.110818"><time>2023-06-30T12:59:19.000Z</time><ele>2120.6</ele></trkpt><trkpt lat="42.135994" lon="14.110888"><time>2023-06-30T12:59:28.000Z</time><ele>2120.4</ele></trkpt><trkpt lat="42.135921" lon="14.110937"><time>2023-06-30T12:59:34.000Z</time><ele>2121.2</ele></trkpt><trkpt lat="42.135893" lon="14.110987"><time>2023-06-30T12:59:37.000Z</time><ele>2121.6</ele></trkpt><trkpt lat="42.135853" lon="14.111019"><time>2023-06-30T12:59:41.000Z</time><ele>2121.8</ele></trkpt><trkpt lat="42.135835" lon="14.111024"><time>2023-06-30T12:59:43.000Z</time><ele>2121.8</ele></trkpt><trkpt lat="42.135738" lon="14.11108"><time>2023-06-30T12:59:51.000Z</time><ele>2122</ele></trkpt><trkpt lat="42.135631" lon="14.111139"><time>2023-06-30T12:59:59.000Z</time><ele>2122.4</ele></trkpt><trkpt lat="42.135614" lon="14.111152"><time>2023-06-30T13:00:00.000Z</time><ele>2122.4</ele></trkpt><trkpt lat="42.135513" lon="14.111223"><time>2023-06-30T13:00:09.000Z</time><ele>2122.8</ele></trkpt><trkpt lat="42.135446" lon="14.111257"><time>2023-06-30T13:00:14.000Z</time><ele>2123.4</ele></trkpt><trkpt lat="42.135356" lon="14.111285"><time>2023-06-30T13:00:21.000Z</time><ele>2124</ele></trkpt><trkpt lat="42.13535" lon="14.111296"><time>2023-06-30T13:00:22.000Z</time><ele>2124</ele></trkpt><trkpt lat="42.135329" lon="14.111321"><time>2023-06-30T13:00:24.000Z</time><ele>2124.4</ele></trkpt><trkpt lat="42.1353" lon="14.111369"><time>2023-06-30T13:00:28.000Z</time><ele>2125.2</ele></trkpt><trkpt lat="42.135288" lon="14.111404"><time>2023-06-30T13:00:31.000Z</time><ele>2125.8</ele></trkpt><trkpt lat="42.13528" lon="14.111421"><time>2023-06-30T13:00:33.000Z</time><ele>2126.2</ele></trkpt><trkpt lat="42.135256" lon="14.111456"><time>2023-06-30T13:00:36.000Z</time><ele>2127</ele></trkpt><trkpt lat="42.135218" lon="14.111498"><time>2023-06-30T13:00:41.000Z</time><ele>2128</ele></trkpt><trkpt lat="42.135211" lon="14.111504"><time>2023-06-30T13:00:42.000Z</time><ele>2128.2</ele></trkpt><trkpt lat="42.135163" lon="14.111536"><time>2023-06-30T13:00:47.000Z</time><ele>2129.2</ele></trkpt><trkpt lat="42.135129" lon="14.111556"><time>2023-06-30T13:00:51.000Z</time><ele>2129.8</ele></trkpt><trkpt lat="42.135118" lon="14.111558"><time>2023-06-30T13:00:52.000Z</time><ele>2129.8</ele></trkpt><trkpt lat="42.13503" lon="14.111543"><time>2023-06-30T13:00:59.000Z</time><ele>2130.2</ele></trkpt><trkpt lat="42.134931" lon="14.111539"><time>2023-06-30T13:01:08.000Z</time><ele>2130.2</ele></trkpt><trkpt lat="42.134915" lon="14.111546"><time>2023-06-30T13:01:09.000Z</time><ele>2130.2</ele></trkpt><trkpt lat="42.134833" lon="14.111577"><time>2023-06-30T13:01:17.000Z</time><ele>2130.4</ele></trkpt><trkpt lat="42.134807" lon="14.111597"><time>2023-06-30T13:01:20.000Z</time><ele>2130.2</ele></trkpt><trkpt lat="42.134775" lon="14.111613"><time>2023-06-30T13:01:24.000Z</time><ele>2130.2</ele></trkpt><trkpt lat="42.134768" lon="14.111613"><time>2023-06-30T13:01:25.000Z</time><ele>2130.2</ele></trkpt><trkpt lat="42.134757" lon="14.111618"><time>2023-06-30T13:01:26.000Z</time><ele>2130.2</ele></trkpt><trkpt lat="42.134669" lon="14.111638"><time>2023-06-30T13:01:34.000Z</time><ele>2130.8</ele></trkpt><trkpt lat="42.134586" lon="14.111669"><time>2023-06-30T13:01:42.000Z</time><ele>2130.8</ele></trkpt><trkpt lat="42.134495" lon="14.111705"><time>2023-06-30T13:01:51.000Z</time><ele>2131.2</ele></trkpt><trkpt lat="42.134414" lon="14.111737"><time>2023-06-30T13:01:58.000Z</time><ele>2131.6</ele></trkpt><trkpt lat="42.134342" lon="14.111782"><time>2023-06-30T13:02:07.000Z</time><ele>2132.2</ele></trkpt><trkpt lat="42.134327" lon="14.111804"><time>2023-06-30T13:02:09.000Z</time><ele>2132.4</ele></trkpt><trkpt lat="42.13428" lon="14.111844"><time>2023-06-30T13:02:14.000Z</time><ele>2132.8</ele></trkpt><trkpt lat="42.134229" lon="14.111869"><time>2023-06-30T13:02:19.000Z</time><ele>2133.4</ele></trkpt><trkpt lat="42.134206" lon="14.111893"><time>2023-06-30T13:02:22.000Z</time><ele>2133.8</ele></trkpt><trkpt lat="42.134187" lon="14.11191"><time>2023-06-30T13:02:25.000Z</time><ele>2133.8</ele></trkpt><trkpt lat="42.13414" lon="14.111947"><time>2023-06-30T13:02:31.000Z</time><ele>2134.4</ele></trkpt><trkpt lat="42.134069" lon="14.111993"><time>2023-06-30T13:02:39.000Z</time><ele>2135.4</ele></trkpt><trkpt lat="42.133971" lon="14.112045"><time>2023-06-30T13:02:48.000Z</time><ele>2136.4</ele></trkpt><trkpt lat="42.133957" lon="14.112047"><time>2023-06-30T13:02:52.000Z</time><ele>2137</ele></trkpt><trkpt lat="42.13395" lon="14.112045"><time>2023-06-30T13:02:54.000Z</time><ele>2137.2</ele></trkpt><trkpt lat="42.133916" lon="14.112067"><time>2023-06-30T13:02:58.000Z</time><ele>2137.6</ele></trkpt><trkpt lat="42.133886" lon="14.112084"><time>2023-06-30T13:03:01.000Z</time><ele>2137.8</ele></trkpt><trkpt lat="42.133842" lon="14.112122"><time>2023-06-30T13:03:07.000Z</time><ele>2138.2</ele></trkpt><trkpt lat="42.133836" lon="14.112129"><time>2023-06-30T13:03:08.000Z</time><ele>2138.2</ele></trkpt><trkpt lat="42.133817" lon="14.112142"><time>2023-06-30T13:03:12.000Z</time><ele>2138.2</ele></trkpt><trkpt lat="42.133806" lon="14.112142"><time>2023-06-30T13:03:13.000Z</time><ele>2138</ele></trkpt><trkpt lat="42.133765" lon="14.112158"><time>2023-06-30T13:03:18.000Z</time><ele>2138.6</ele></trkpt><trkpt lat="42.133759" lon="14.112159"><time>2023-06-30T13:03:19.000Z</time><ele>2138.8</ele></trkpt><trkpt lat="42.133711" lon="14.112189"><time>2023-06-30T13:03:25.000Z</time><ele>2139.2</ele></trkpt><trkpt lat="42.133676" lon="14.112191"><time>2023-06-30T13:03:29.000Z</time><ele>2139.6</ele></trkpt><trkpt lat="42.133666" lon="14.112179"><time>2023-06-30T13:03:31.000Z</time><ele>2139.8</ele></trkpt><trkpt lat="42.133658" lon="14.112179"><time>2023-06-30T13:03:32.000Z</time><ele>2140</ele></trkpt><trkpt lat="42.133646" lon="14.112183"><time>2023-06-30T13:03:33.000Z</time><ele>2140</ele></trkpt><trkpt lat="42.133609" lon="14.112202"><time>2023-06-30T13:03:37.000Z</time><ele>2140.4</ele></trkpt><trkpt lat="42.133589" lon="14.11221"><time>2023-06-30T13:03:39.000Z</time><ele>2140.4</ele></trkpt><trkpt lat="42.133528" lon="14.112253"><time>2023-06-30T13:03:47.000Z</time><ele>2141</ele></trkpt><trkpt lat="42.133514" lon="14.112256"><time>2023-06-30T13:03:49.000Z</time><ele>2141</ele></trkpt><trkpt lat="42.133499" lon="14.112268"><time>2023-06-30T13:03:52.000Z</time><ele>2141.4</ele></trkpt><trkpt lat="42.133488" lon="14.112277"><time>2023-06-30T13:03:54.000Z</time><ele>2141.4</ele></trkpt><trkpt lat="42.133439" lon="14.112288"><time>2023-06-30T13:04:00.000Z</time><ele>2141.4</ele></trkpt><trkpt lat="42.13342" lon="14.112291"><time>2023-06-30T13:04:02.000Z</time><ele>2142</ele></trkpt><trkpt lat="42.133358" lon="14.112303"><time>2023-06-30T13:04:08.000Z</time><ele>2143</ele></trkpt><trkpt lat="42.133341" lon="14.112311"><time>2023-06-30T13:04:10.000Z</time><ele>2143.2</ele></trkpt><trkpt lat="42.133308" lon="14.112329"><time>2023-06-30T13:04:14.000Z</time><ele>2143.2</ele></trkpt><trkpt lat="42.1333" lon="14.112333"><time>2023-06-30T13:04:15.000Z</time><ele>2143</ele></trkpt><trkpt lat="42.133266" lon="14.112345"><time>2023-06-30T13:04:20.000Z</time><ele>2143.2</ele></trkpt><trkpt lat="42.133251" lon="14.112358"><time>2023-06-30T13:04:23.000Z</time><ele>2143.2</ele></trkpt><trkpt lat="42.133221" lon="14.112372"><time>2023-06-30T13:04:26.000Z</time><ele>2143.2</ele></trkpt><trkpt lat="42.133157" lon="14.112386"><time>2023-06-30T13:04:33.000Z</time><ele>2144.2</ele></trkpt><trkpt lat="42.133137" lon="14.1124"><time>2023-06-30T13:04:35.000Z</time><ele>2144.6</ele></trkpt><trkpt lat="42.133087" lon="14.112419"><time>2023-06-30T13:04:40.000Z</time><ele>2145.6</ele></trkpt><trkpt lat="42.133075" lon="14.112426"><time>2023-06-30T13:04:41.000Z</time><ele>2145.6</ele></trkpt><trkpt lat="42.13303" lon="14.11244"><time>2023-06-30T13:04:47.000Z</time><ele>2146.2</ele></trkpt><trkpt lat="42.133018" lon="14.11244"><time>2023-06-30T13:04:48.000Z</time><ele>2146.4</ele></trkpt><trkpt lat="42.133005" lon="14.112442"><time>2023-06-30T13:04:49.000Z</time><ele>2146.6</ele></trkpt><trkpt lat="42.132966" lon="14.112464"><time>2023-06-30T13:04:54.000Z</time><ele>2147.6</ele></trkpt><trkpt lat="42.132958" lon="14.112471"><time>2023-06-30T13:04:55.000Z</time><ele>2147.8</ele></trkpt><trkpt lat="42.132912" lon="14.112491"><time>2023-06-30T13:05:01.000Z</time><ele>2148.6</ele></trkpt><trkpt lat="42.132898" lon="14.112493"><time>2023-06-30T13:05:03.000Z</time><ele>2149.2</ele></trkpt><trkpt lat="42.132883" lon="14.112485"><time>2023-06-30T13:05:06.000Z</time><ele>2149.4</ele></trkpt><trkpt lat="42.132872" lon="14.112488"><time>2023-06-30T13:05:08.000Z</time><ele>2149.8</ele></trkpt><trkpt lat="42.132839" lon="14.112508"><time>2023-06-30T13:05:13.000Z</time><ele>2151</ele></trkpt><trkpt lat="42.132835" lon="14.112514"><time>2023-06-30T13:05:14.000Z</time><ele>2151.4</ele></trkpt><trkpt lat="42.13282" lon="14.112513"><time>2023-06-30T13:05:17.000Z</time><ele>2151.6</ele></trkpt><trkpt lat="42.132794" lon="14.112519"><time>2023-06-30T13:05:20.000Z</time><ele>2152</ele></trkpt><trkpt lat="42.13275" lon="14.112543"><time>2023-06-30T13:05:27.000Z</time><ele>2152.8</ele></trkpt><trkpt lat="42.132735" lon="14.112551"><time>2023-06-30T13:05:31.000Z</time><ele>2153.2</ele></trkpt><trkpt lat="42.132728" lon="14.112558"><time>2023-06-30T13:05:33.000Z</time><ele>2153.6</ele></trkpt><trkpt lat="42.132705" lon="14.112578"><time>2023-06-30T13:05:38.000Z</time><ele>2154.4</ele></trkpt><trkpt lat="42.132696" lon="14.112588"><time>2023-06-30T13:05:40.000Z</time><ele>2154.8</ele></trkpt><trkpt lat="42.132673" lon="14.112604"><time>2023-06-30T13:05:44.000Z</time><ele>2155.6</ele></trkpt><trkpt lat="42.132656" lon="14.112617"><time>2023-06-30T13:05:47.000Z</time><ele>2156.2</ele></trkpt><trkpt lat="42.132634" lon="14.112621"><time>2023-06-30T13:05:50.000Z</time><ele>2156.8</ele></trkpt><trkpt lat="42.132618" lon="14.112644"><time>2023-06-30T13:05:53.000Z</time><ele>2156.8</ele></trkpt><trkpt lat="42.132573" lon="14.112682"><time>2023-06-30T13:05:59.000Z</time><ele>2157.2</ele></trkpt><trkpt lat="42.132565" lon="14.112681"><time>2023-06-30T13:06:00.000Z</time><ele>2157.2</ele></trkpt><trkpt lat="42.132547" lon="14.112684"><time>2023-06-30T13:06:02.000Z</time><ele>2157.6</ele></trkpt><trkpt lat="42.132537" lon="14.112694"><time>2023-06-30T13:06:03.000Z</time><ele>2157.8</ele></trkpt><trkpt lat="42.132497" lon="14.112726"><time>2023-06-30T13:06:08.000Z</time><ele>2158.4</ele></trkpt><trkpt lat="42.132475" lon="14.112742"><time>2023-06-30T13:06:11.000Z</time><ele>2159</ele></trkpt><trkpt lat="42.132437" lon="14.112764"><time>2023-06-30T13:06:15.000Z</time><ele>2159.6</ele></trkpt><trkpt lat="42.132404" lon="14.112749"><time>2023-06-30T13:06:20.000Z</time><ele>2160</ele></trkpt><trkpt lat="42.132388" lon="14.112753"><time>2023-06-30T13:06:22.000Z</time><ele>2160.2</ele></trkpt><trkpt lat="42.132377" lon="14.112753"><time>2023-06-30T13:06:25.000Z</time><ele>2160.2</ele></trkpt><trkpt lat="42.132353" lon="14.112762"><time>2023-06-30T13:06:27.000Z</time><ele>2160.2</ele></trkpt><trkpt lat="42.132284" lon="14.11276"><time>2023-06-30T13:06:34.000Z</time><ele>2160</ele></trkpt><trkpt lat="42.132272" lon="14.112765"><time>2023-06-30T13:06:37.000Z</time><ele>2160.2</ele></trkpt><trkpt lat="42.132272" lon="14.112767"><time>2023-06-30T13:06:42.000Z</time><ele>2160.4</ele></trkpt><trkpt lat="42.132269" lon="14.112771"><time>2023-06-30T13:06:45.000Z</time><ele>2160.4</ele></trkpt><trkpt lat="42.132237" lon="14.112775"><time>2023-06-30T13:06:49.000Z</time><ele>2160</ele></trkpt><trkpt lat="42.132226" lon="14.112778"><time>2023-06-30T13:06:50.000Z</time><ele>2160</ele></trkpt><trkpt lat="42.132112" lon="14.112782"><time>2023-06-30T13:06:58.000Z</time><ele>2159.2</ele></trkpt><trkpt lat="42.132086" lon="14.112783"><time>2023-06-30T13:07:00.000Z</time><ele>2159</ele></trkpt><trkpt lat="42.13202" lon="14.112784"><time>2023-06-30T13:07:05.000Z</time><ele>2158.6</ele></trkpt><trkpt lat="42.131988" lon="14.112785"><time>2023-06-30T13:07:08.000Z</time><ele>2158</ele></trkpt><trkpt lat="42.131936" lon="14.112785"><time>2023-06-30T13:07:12.000Z</time><ele>2157.6</ele></trkpt><trkpt lat="42.131871" lon="14.112789"><time>2023-06-30T13:07:17.000Z</time><ele>2157.4</ele></trkpt><trkpt lat="42.131849" lon="14.112789"><time>2023-06-30T13:07:19.000Z</time><ele>2157.2</ele></trkpt><trkpt lat="42.131831" lon="14.112787"><time>2023-06-30T13:07:21.000Z</time><ele>2157</ele></trkpt><trkpt lat="42.13182" lon="14.112785"><time>2023-06-30T13:07:22.000Z</time><ele>2156.8</ele></trkpt><trkpt lat="42.131734" lon="14.112785"><time>2023-06-30T13:07:30.000Z</time><ele>2156.2</ele></trkpt><trkpt lat="42.131689" lon="14.112787"><time>2023-06-30T13:07:35.000Z</time><ele>2155.8</ele></trkpt><trkpt lat="42.131641" lon="14.112795"><time>2023-06-30T13:07:39.000Z</time><ele>2155.4</ele></trkpt><trkpt lat="42.131523" lon="14.112807"><time>2023-06-30T13:07:48.000Z</time><ele>2154.8</ele></trkpt><trkpt lat="42.131509" lon="14.112809"><time>2023-06-30T13:07:49.000Z</time><ele>2154.8</ele></trkpt><trkpt lat="42.131496" lon="14.112808"><time>2023-06-30T13:07:50.000Z</time><ele>2154.8</ele></trkpt><trkpt lat="42.131472" lon="14.112799"><time>2023-06-30T13:07:53.000Z</time><ele>2154.6</ele></trkpt><trkpt lat="42.131439" lon="14.1128"><time>2023-06-30T13:07:56.000Z</time><ele>2154.4</ele></trkpt><trkpt lat="42.131427" lon="14.112803"><time>2023-06-30T13:07:57.000Z</time><ele>2154.4</ele></trkpt><trkpt lat="42.131413" lon="14.112794"><time>2023-06-30T13:07:59.000Z</time><ele>2154.2</ele></trkpt><trkpt lat="42.131402" lon="14.112783"><time>2023-06-30T13:08:01.000Z</time><ele>2154.2</ele></trkpt><trkpt lat="42.131298" lon="14.112784"><time>2023-06-30T13:08:09.000Z</time><ele>2154</ele></trkpt><trkpt lat="42.131279" lon="14.112802"><time>2023-06-30T13:08:11.000Z</time><ele>2153.6</ele></trkpt><trkpt lat="42.13127" lon="14.1128"><time>2023-06-30T13:08:12.000Z</time><ele>2153.4</ele></trkpt><trkpt lat="42.131249" lon="14.112785"><time>2023-06-30T13:08:14.000Z</time><ele>2153.4</ele></trkpt><trkpt lat="42.131242" lon="14.112774"><time>2023-06-30T13:08:15.000Z</time><ele>2153.2</ele></trkpt><trkpt lat="42.131179" lon="14.112753"><time>2023-06-30T13:08:21.000Z</time><ele>2153.6</ele></trkpt><trkpt lat="42.131166" lon="14.112758"><time>2023-06-30T13:08:22.000Z</time><ele>2153.6</ele></trkpt><trkpt lat="42.1311" lon="14.112782"><time>2023-06-30T13:08:27.000Z</time><ele>2153</ele></trkpt><trkpt lat="42.131075" lon="14.112778"><time>2023-06-30T13:08:29.000Z</time><ele>2152.8</ele></trkpt><trkpt lat="42.131062" lon="14.11277"><time>2023-06-30T13:08:30.000Z</time><ele>2152.6</ele></trkpt><trkpt lat="42.131007" lon="14.112757"><time>2023-06-30T13:08:34.000Z</time><ele>2152.6</ele></trkpt><trkpt lat="42.130881" lon="14.112725"><time>2023-06-30T13:08:44.000Z</time><ele>2152</ele></trkpt><trkpt lat="42.130801" lon="14.112716"><time>2023-06-30T13:08:51.000Z</time><ele>2151.6</ele></trkpt><trkpt lat="42.130792" lon="14.112721"><time>2023-06-30T13:08:52.000Z</time><ele>2151.4</ele></trkpt><trkpt lat="42.130712" lon="14.112715"><time>2023-06-30T13:08:59.000Z</time><ele>2150.4</ele></trkpt><trkpt lat="42.13068" lon="14.112712"><time>2023-06-30T13:09:02.000Z</time><ele>2149.8</ele></trkpt><trkpt lat="42.130629" lon="14.112679"><time>2023-06-30T13:09:07.000Z</time><ele>2149.4</ele></trkpt><trkpt lat="42.13059" lon="14.112672"><time>2023-06-30T13:09:10.000Z</time><ele>2149.2</ele></trkpt><trkpt lat="42.130552" lon="14.112677"><time>2023-06-30T13:09:15.000Z</time><ele>2148.4</ele></trkpt><trkpt lat="42.130541" lon="14.112675"><time>2023-06-30T13:09:17.000Z</time><ele>2148</ele></trkpt><trkpt lat="42.130517" lon="14.112663"><time>2023-06-30T13:09:19.000Z</time><ele>2147.8</ele></trkpt><trkpt lat="42.130472" lon="14.112654"><time>2023-06-30T13:09:22.000Z</time><ele>2147.2</ele></trkpt><trkpt lat="42.13044" lon="14.112644"><time>2023-06-30T13:09:25.000Z</time><ele>2146.8</ele></trkpt><trkpt lat="42.130435" lon="14.112642"><time>2023-06-30T13:09:26.000Z</time><ele>2146.6</ele></trkpt><trkpt lat="42.130424" lon="14.112639"><time>2023-06-30T13:09:28.000Z</time><ele>2146.2</ele></trkpt><trkpt lat="42.130398" lon="14.112629"><time>2023-06-30T13:09:31.000Z</time><ele>2145.6</ele></trkpt><trkpt lat="42.130373" lon="14.112622"><time>2023-06-30T13:09:34.000Z</time><ele>2145.2</ele></trkpt><trkpt lat="42.130358" lon="14.11261"><time>2023-06-30T13:09:36.000Z</time><ele>2144.6</ele></trkpt><trkpt lat="42.130349" lon="14.112601"><time>2023-06-30T13:09:37.000Z</time><ele>2144.4</ele></trkpt><trkpt lat="42.13034" lon="14.112597"><time>2023-06-30T13:09:38.000Z</time><ele>2144.2</ele></trkpt><trkpt lat="42.130331" lon="14.112591"><time>2023-06-30T13:09:39.000Z</time><ele>2144</ele></trkpt><trkpt lat="42.130313" lon="14.11258"><time>2023-06-30T13:09:43.000Z</time><ele>2143.6</ele></trkpt><trkpt lat="42.130307" lon="14.112579"><time>2023-06-30T13:09:44.000Z</time><ele>2143.4</ele></trkpt><trkpt lat="42.1303" lon="14.112579"><time>2023-06-30T13:09:45.000Z</time><ele>2143.2</ele></trkpt><trkpt lat="42.130285" lon="14.112569"><time>2023-06-30T13:09:47.000Z</time><ele>2142.8</ele></trkpt><trkpt lat="42.130271" lon="14.112549"><time>2023-06-30T13:09:49.000Z</time><ele>2142.6</ele></trkpt><trkpt lat="42.130265" lon="14.11254"><time>2023-06-30T13:09:50.000Z</time><ele>2142.6</ele></trkpt><trkpt lat="42.130253" lon="14.112537"><time>2023-06-30T13:09:51.000Z</time><ele>2142.6</ele></trkpt><trkpt lat="42.130222" lon="14.112528"><time>2023-06-30T13:09:55.000Z</time><ele>2142.2</ele></trkpt><trkpt lat="42.130187" lon="14.11252"><time>2023-06-30T13:09:59.000Z</time><ele>2141.8</ele></trkpt><trkpt lat="42.130117" lon="14.112497"><time>2023-06-30T13:10:05.000Z</time><ele>2141</ele></trkpt><trkpt lat="42.130102" lon="14.112485"><time>2023-06-30T13:10:07.000Z</time><ele>2140.8</ele></trkpt><trkpt lat="42.130096" lon="14.112482"><time>2023-06-30T13:10:08.000Z</time><ele>2140.6</ele></trkpt><trkpt lat="42.130058" lon="14.11248"><time>2023-06-30T13:10:12.000Z</time><ele>2139.6</ele></trkpt><trkpt lat="42.130046" lon="14.112478"><time>2023-06-30T13:10:13.000Z</time><ele>2139.4</ele></trkpt><trkpt lat="42.129995" lon="14.112482"><time>2023-06-30T13:10:17.000Z</time><ele>2138.6</ele></trkpt><trkpt lat="42.129974" lon="14.112469"><time>2023-06-30T13:10:19.000Z</time><ele>2138.2</ele></trkpt><trkpt lat="42.129926" lon="14.112454"><time>2023-06-30T13:10:25.000Z</time><ele>2137.4</ele></trkpt><trkpt lat="42.129918" lon="14.112455"><time>2023-06-30T13:10:26.000Z</time><ele>2137.2</ele></trkpt><trkpt lat="42.129907" lon="14.112448"><time>2023-06-30T13:10:27.000Z</time><ele>2137</ele></trkpt><trkpt lat="42.12986" lon="14.112425"><time>2023-06-30T13:10:31.000Z</time><ele>2136.8</ele></trkpt><trkpt lat="42.129831" lon="14.112418"><time>2023-06-30T13:10:34.000Z</time><ele>2136.4</ele></trkpt><trkpt lat="42.129769" lon="14.112414"><time>2023-06-30T13:10:39.000Z</time><ele>2135.8</ele></trkpt><trkpt lat="42.129748" lon="14.112412"><time>2023-06-30T13:10:41.000Z</time><ele>2135.2</ele></trkpt><trkpt lat="42.129735" lon="14.112405"><time>2023-06-30T13:10:42.000Z</time><ele>2135</ele></trkpt><trkpt lat="42.129706" lon="14.112399"><time>2023-06-30T13:10:44.000Z</time><ele>2134.6</ele></trkpt><trkpt lat="42.129681" lon="14.112389"><time>2023-06-30T13:10:46.000Z</time><ele>2134.4</ele></trkpt><trkpt lat="42.12967" lon="14.112385"><time>2023-06-30T13:10:47.000Z</time><ele>2134</ele></trkpt><trkpt lat="42.129659" lon="14.112385"><time>2023-06-30T13:10:48.000Z</time><ele>2134</ele></trkpt><trkpt lat="42.129618" lon="14.112377"><time>2023-06-30T13:10:52.000Z</time><ele>2133.6</ele></trkpt><trkpt lat="42.129609" lon="14.11237"><time>2023-06-30T13:10:53.000Z</time><ele>2133.4</ele></trkpt><trkpt lat="42.12959" lon="14.112361"><time>2023-06-30T13:10:55.000Z</time><ele>2133.2</ele></trkpt><trkpt lat="42.129579" lon="14.112358"><time>2023-06-30T13:10:56.000Z</time><ele>2133</ele></trkpt><trkpt lat="42.129552" lon="14.112352"><time>2023-06-30T13:10:58.000Z</time><ele>2132.6</ele></trkpt><trkpt lat="42.129505" lon="14.11235"><time>2023-06-30T13:11:02.000Z</time><ele>2132</ele></trkpt><trkpt lat="42.129493" lon="14.112348"><time>2023-06-30T13:11:03.000Z</time><ele>2131.8</ele></trkpt><trkpt lat="42.129483" lon="14.112347"><time>2023-06-30T13:11:04.000Z</time><ele>2131.6</ele></trkpt><trkpt lat="42.129365" lon="14.112308"><time>2023-06-30T13:11:14.000Z</time><ele>2131.6</ele></trkpt><trkpt lat="42.129311" lon="14.112303"><time>2023-06-30T13:11:18.000Z</time><ele>2131.6</ele></trkpt><trkpt lat="42.129301" lon="14.112307"><time>2023-06-30T13:11:19.000Z</time><ele>2131.6</ele></trkpt><trkpt lat="42.129263" lon="14.112329"><time>2023-06-30T13:11:22.000Z</time><ele>2131.8</ele></trkpt><trkpt lat="42.129237" lon="14.112341"><time>2023-06-30T13:11:24.000Z</time><ele>2131.8</ele></trkpt><trkpt lat="42.129188" lon="14.112356"><time>2023-06-30T13:11:29.000Z</time><ele>2131.2</ele></trkpt><trkpt lat="42.129102" lon="14.112361"><time>2023-06-30T13:11:37.000Z</time><ele>2130.8</ele></trkpt><trkpt lat="42.129088" lon="14.112362"><time>2023-06-30T13:11:38.000Z</time><ele>2130.8</ele></trkpt><trkpt lat="42.128998" lon="14.112382"><time>2023-06-30T13:11:44.000Z</time><ele>2130</ele></trkpt><trkpt lat="42.128972" lon="14.112387"><time>2023-06-30T13:11:46.000Z</time><ele>2129.8</ele></trkpt><trkpt lat="42.128944" lon="14.112379"><time>2023-06-30T13:11:49.000Z</time><ele>2129.8</ele></trkpt><trkpt lat="42.128936" lon="14.11238"><time>2023-06-30T13:11:50.000Z</time><ele>2130</ele></trkpt><trkpt lat="42.128924" lon="14.112381"><time>2023-06-30T13:11:51.000Z</time><ele>2130</ele></trkpt><trkpt lat="42.128851" lon="14.112393"><time>2023-06-30T13:11:57.000Z</time><ele>2130.2</ele></trkpt><trkpt lat="42.12881" lon="14.112409"><time>2023-06-30T13:12:01.000Z</time><ele>2129.4</ele></trkpt><trkpt lat="42.12879" lon="14.112421"><time>2023-06-30T13:12:03.000Z</time><ele>2129</ele></trkpt><trkpt lat="42.128774" lon="14.112431"><time>2023-06-30T13:12:04.000Z</time><ele>2128.8</ele></trkpt><trkpt lat="42.128685" lon="14.112457"><time>2023-06-30T13:12:11.000Z</time><ele>2128</ele></trkpt><trkpt lat="42.128657" lon="14.112468"><time>2023-06-30T13:12:13.000Z</time><ele>2127.8</ele></trkpt><trkpt lat="42.128646" lon="14.11247"><time>2023-06-30T13:12:14.000Z</time><ele>2127.8</ele></trkpt><trkpt lat="42.128631" lon="14.112472"><time>2023-06-30T13:12:16.000Z</time><ele>2127.8</ele></trkpt><trkpt lat="42.128616" lon="14.112478"><time>2023-06-30T13:12:18.000Z</time><ele>2127.6</ele></trkpt><trkpt lat="42.128602" lon="14.112498"><time>2023-06-30T13:12:21.000Z</time><ele>2127</ele></trkpt><trkpt lat="42.128581" lon="14.112491"><time>2023-06-30T13:12:24.000Z</time><ele>2126.6</ele></trkpt><trkpt lat="42.128565" lon="14.112496"><time>2023-06-30T13:12:26.000Z</time><ele>2126.6</ele></trkpt><trkpt lat="42.128533" lon="14.112507"><time>2023-06-30T13:12:31.000Z</time><ele>2126.4</ele></trkpt><trkpt lat="42.128501" lon="14.112515"><time>2023-06-30T13:12:34.000Z</time><ele>2126.2</ele></trkpt><trkpt lat="42.12848" lon="14.112523"><time>2023-06-30T13:12:36.000Z</time><ele>2126</ele></trkpt><trkpt lat="42.12842" lon="14.112532"><time>2023-06-30T13:12:42.000Z</time><ele>2125.4</ele></trkpt><trkpt lat="42.128405" lon="14.11253"><time>2023-06-30T13:12:43.000Z</time><ele>2125.2</ele></trkpt><trkpt lat="42.128343" lon="14.112539"><time>2023-06-30T13:12:48.000Z</time><ele>2124.6</ele></trkpt><trkpt lat="42.128325" lon="14.112551"><time>2023-06-30T13:12:50.000Z</time><ele>2124.4</ele></trkpt><trkpt lat="42.128312" lon="14.112561"><time>2023-06-30T13:12:52.000Z</time><ele>2124.2</ele></trkpt><trkpt lat="42.128284" lon="14.112569"><time>2023-06-30T13:12:54.000Z</time><ele>2123.8</ele></trkpt><trkpt lat="42.128239" lon="14.112597"><time>2023-06-30T13:12:56.000Z</time><ele>2123.4</ele></trkpt><trkpt lat="42.128188" lon="14.112628"><time>2023-06-30T13:13:01.000Z</time><ele>2122.6</ele></trkpt><trkpt lat="42.128177" lon="14.112632"><time>2023-06-30T13:13:02.000Z</time><ele>2122.2</ele></trkpt><trkpt lat="42.128104" lon="14.112658"><time>2023-06-30T13:13:08.000Z</time><ele>2121.2</ele></trkpt><trkpt lat="42.128037" lon="14.112688"><time>2023-06-30T13:13:15.000Z</time><ele>2120.2</ele></trkpt><trkpt lat="42.128008" lon="14.112681"><time>2023-06-30T13:13:18.000Z</time><ele>2119.8</ele></trkpt><trkpt lat="42.127973" lon="14.112692"><time>2023-06-30T13:13:21.000Z</time><ele>2119.2</ele></trkpt><trkpt lat="42.127966" lon="14.112696"><time>2023-06-30T13:13:22.000Z</time><ele>2119</ele></trkpt><trkpt lat="42.127949" lon="14.112706"><time>2023-06-30T13:13:24.000Z</time><ele>2118.6</ele></trkpt><trkpt lat="42.127906" lon="14.112695"><time>2023-06-30T13:13:28.000Z</time><ele>2118.2</ele></trkpt><trkpt lat="42.127899" lon="14.112697"><time>2023-06-30T13:13:29.000Z</time><ele>2118</ele></trkpt><trkpt lat="42.12787" lon="14.112706"><time>2023-06-30T13:13:31.000Z</time><ele>2117.6</ele></trkpt><trkpt lat="42.127791" lon="14.112692"><time>2023-06-30T13:13:37.000Z</time><ele>2117.4</ele></trkpt><trkpt lat="42.127709" lon="14.112722"><time>2023-06-30T13:13:43.000Z</time><ele>2117.6</ele></trkpt><trkpt lat="42.12768" lon="14.112735"><time>2023-06-30T13:13:45.000Z</time><ele>2117.6</ele></trkpt><trkpt lat="42.127586" lon="14.112753"><time>2023-06-30T13:13:54.000Z</time><ele>2118</ele></trkpt><trkpt lat="42.127576" lon="14.112759"><time>2023-06-30T13:13:55.000Z</time><ele>2118</ele></trkpt><trkpt lat="42.12749" lon="14.112806"><time>2023-06-30T13:14:01.000Z</time><ele>2118.2</ele></trkpt><trkpt lat="42.127442" lon="14.112831"><time>2023-06-30T13:14:04.000Z</time><ele>2118.2</ele></trkpt><trkpt lat="42.127432" lon="14.112845"><time>2023-06-30T13:14:05.000Z</time><ele>2118.2</ele></trkpt><trkpt lat="42.127408" lon="14.112843"><time>2023-06-30T13:14:09.000Z</time><ele>2118.4</ele></trkpt><trkpt lat="42.12737" lon="14.112846"><time>2023-06-30T13:14:12.000Z</time><ele>2118.8</ele></trkpt><trkpt lat="42.127352" lon="14.112876"><time>2023-06-30T13:14:14.000Z</time><ele>2119.2</ele></trkpt><trkpt lat="42.127347" lon="14.112884"><time>2023-06-30T13:14:16.000Z</time><ele>2119.6</ele></trkpt><trkpt lat="42.12734" lon="14.112878"><time>2023-06-30T13:14:17.000Z</time><ele>2119.8</ele></trkpt><trkpt lat="42.12733" lon="14.112881"><time>2023-06-30T13:14:18.000Z</time><ele>2119.8</ele></trkpt><trkpt lat="42.127303" lon="14.112896"><time>2023-06-30T13:14:21.000Z</time><ele>2120</ele></trkpt><trkpt lat="42.127242" lon="14.112921"><time>2023-06-30T13:14:26.000Z</time><ele>2120.2</ele></trkpt><trkpt lat="42.127191" lon="14.112954"><time>2023-06-30T13:14:32.000Z</time><ele>2119.8</ele></trkpt><trkpt lat="42.127175" lon="14.11295"><time>2023-06-30T13:14:34.000Z</time><ele>2119.6</ele></trkpt><trkpt lat="42.12717" lon="14.112948"><time>2023-06-30T13:14:35.000Z</time><ele>2119.4</ele></trkpt><trkpt lat="42.12716" lon="14.112949"><time>2023-06-30T13:14:37.000Z</time><ele>2119.4</ele></trkpt><trkpt lat="42.127154" lon="14.112958"><time>2023-06-30T13:14:40.000Z</time><ele>2118.8</ele></trkpt><trkpt lat="42.127148" lon="14.112959"><time>2023-06-30T13:14:41.000Z</time><ele>2118.6</ele></trkpt><trkpt lat="42.127134" lon="14.112963"><time>2023-06-30T13:14:42.000Z</time><ele>2118.4</ele></trkpt><trkpt lat="42.127118" lon="14.112988"><time>2023-06-30T13:14:44.000Z</time><ele>2118</ele></trkpt><trkpt lat="42.127092" lon="14.112996"><time>2023-06-30T13:14:47.000Z</time><ele>2117.6</ele></trkpt><trkpt lat="42.127088" lon="14.112995"><time>2023-06-30T13:14:48.000Z</time><ele>2117.6</ele></trkpt><trkpt lat="42.127076" lon="14.112995"><time>2023-06-30T13:14:50.000Z</time><ele>2117.4</ele></trkpt><trkpt lat="42.12706" lon="14.113009"><time>2023-06-30T13:14:52.000Z</time><ele>2117</ele></trkpt><trkpt lat="42.127059" lon="14.113026"><time>2023-06-30T13:14:53.000Z</time><ele>2116.8</ele></trkpt><trkpt lat="42.127052" lon="14.113022"><time>2023-06-30T13:14:56.000Z</time><ele>2116.4</ele></trkpt><trkpt lat="42.127017" lon="14.113035"><time>2023-06-30T13:14:59.000Z</time><ele>2116</ele></trkpt><trkpt lat="42.127003" lon="14.113046"><time>2023-06-30T13:15:00.000Z</time><ele>2116</ele></trkpt><trkpt lat="42.12699" lon="14.113048"><time>2023-06-30T13:15:01.000Z</time><ele>2115.8</ele></trkpt><trkpt lat="42.126943" lon="14.113059"><time>2023-06-30T13:15:06.000Z</time><ele>2115.8</ele></trkpt><trkpt lat="42.126938" lon="14.11306"><time>2023-06-30T13:15:07.000Z</time><ele>2115.8</ele></trkpt><trkpt lat="42.126924" lon="14.113054"><time>2023-06-30T13:15:08.000Z</time><ele>2115.8</ele></trkpt><trkpt lat="42.126917" lon="14.113045"><time>2023-06-30T13:15:09.000Z</time><ele>2115.8</ele></trkpt><trkpt lat="42.126882" lon="14.113051"><time>2023-06-30T13:15:14.000Z</time><ele>2115.4</ele></trkpt><trkpt lat="42.126872" lon="14.113055"><time>2023-06-30T13:15:16.000Z</time><ele>2115</ele></trkpt><trkpt lat="42.126868" lon="14.113056"><time>2023-06-30T13:15:17.000Z</time><ele>2114.8</ele></trkpt><trkpt lat="42.126862" lon="14.11306"><time>2023-06-30T13:15:18.000Z</time><ele>2114.4</ele></trkpt><trkpt lat="42.126823" lon="14.113074"><time>2023-06-30T13:15:22.000Z</time><ele>2113.8</ele></trkpt><trkpt lat="42.126817" lon="14.11308"><time>2023-06-30T13:15:23.000Z</time><ele>2113.8</ele></trkpt><trkpt lat="42.126811" lon="14.113083"><time>2023-06-30T13:15:24.000Z</time><ele>2113.6</ele></trkpt><trkpt lat="42.126782" lon="14.113086"><time>2023-06-30T13:15:28.000Z</time><ele>2113</ele></trkpt><trkpt lat="42.126765" lon="14.113103"><time>2023-06-30T13:15:30.000Z</time><ele>2112.6</ele></trkpt><trkpt lat="42.126715" lon="14.113154"><time>2023-06-30T13:15:35.000Z</time><ele>2111.6</ele></trkpt><trkpt lat="42.126702" lon="14.113163"><time>2023-06-30T13:15:36.000Z</time><ele>2111.4</ele></trkpt><trkpt lat="42.126629" lon="14.113181"><time>2023-06-30T13:15:43.000Z</time><ele>2110.4</ele></trkpt><trkpt lat="42.126619" lon="14.11319"><time>2023-06-30T13:15:45.000Z</time><ele>2110.2</ele></trkpt><trkpt lat="42.126595" lon="14.113193"><time>2023-06-30T13:15:47.000Z</time><ele>2110.2</ele></trkpt><trkpt lat="42.126539" lon="14.11324"><time>2023-06-30T13:15:54.000Z</time><ele>2110.2</ele></trkpt><trkpt lat="42.12647" lon="14.113267"><time>2023-06-30T13:15:59.000Z</time><ele>2110.2</ele></trkpt><trkpt lat="42.126445" lon="14.113285"><time>2023-06-30T13:16:01.000Z</time><ele>2110.2</ele></trkpt><trkpt lat="42.126406" lon="14.113294"><time>2023-06-30T13:16:03.000Z</time><ele>2110.2</ele></trkpt><trkpt lat="42.12638" lon="14.113287"><time>2023-06-30T13:16:05.000Z</time><ele>2110.2</ele></trkpt><trkpt lat="42.126305" lon="14.113314"><time>2023-06-30T13:16:11.000Z</time><ele>2110.8</ele></trkpt><trkpt lat="42.126291" lon="14.113327"><time>2023-06-30T13:16:12.000Z</time><ele>2110.8</ele></trkpt><trkpt lat="42.126186" lon="14.113381"><time>2023-06-30T13:16:20.000Z</time><ele>2111</ele></trkpt><trkpt lat="42.126113" lon="14.113408"><time>2023-06-30T13:16:24.000Z</time><ele>2111.4</ele></trkpt><trkpt lat="42.126044" lon="14.113405"><time>2023-06-30T13:16:28.000Z</time><ele>2111.6</ele></trkpt><trkpt lat="42.126013" lon="14.113435"><time>2023-06-30T13:16:30.000Z</time><ele>2111.6</ele></trkpt><trkpt lat="42.125923" lon="14.113499"><time>2023-06-30T13:16:36.000Z</time><ele>2111.4</ele></trkpt><trkpt lat="42.125902" lon="14.113506"><time>2023-06-30T13:16:38.000Z</time><ele>2111.2</ele></trkpt><trkpt lat="42.125864" lon="14.113528"><time>2023-06-30T13:16:43.000Z</time><ele>2111.2</ele></trkpt><trkpt lat="42.125827" lon="14.113553"><time>2023-06-30T13:16:46.000Z</time><ele>2111.6</ele></trkpt><trkpt lat="42.125785" lon="14.113541"><time>2023-06-30T13:16:50.000Z</time><ele>2111.8</ele></trkpt><trkpt lat="42.125764" lon="14.113527"><time>2023-06-30T13:16:52.000Z</time><ele>2112</ele></trkpt><trkpt lat="42.125722" lon="14.113561"><time>2023-06-30T13:16:55.000Z</time><ele>2112.4</ele></trkpt><trkpt lat="42.125689" lon="14.11358"><time>2023-06-30T13:16:57.000Z</time><ele>2112.6</ele></trkpt><trkpt lat="42.12568" lon="14.113584"><time>2023-06-30T13:16:58.000Z</time><ele>2112.6</ele></trkpt><trkpt lat="42.125675" lon="14.11359"><time>2023-06-30T13:16:59.000Z</time><ele>2112.8</ele></trkpt><trkpt lat="42.125611" lon="14.113617"><time>2023-06-30T13:17:03.000Z</time><ele>2113.4</ele></trkpt><trkpt lat="42.125575" lon="14.113645"><time>2023-06-30T13:17:05.000Z</time><ele>2113.6</ele></trkpt><trkpt lat="42.125558" lon="14.113655"><time>2023-06-30T13:17:06.000Z</time><ele>2113.8</ele></trkpt><trkpt lat="42.125502" lon="14.113688"><time>2023-06-30T13:17:10.000Z</time><ele>2114</ele></trkpt><trkpt lat="42.125468" lon="14.113698"><time>2023-06-30T13:17:13.000Z</time><ele>2114</ele></trkpt><trkpt lat="42.125453" lon="14.113707"><time>2023-06-30T13:17:14.000Z</time><ele>2114.2</ele></trkpt><trkpt lat="42.125426" lon="14.11371"><time>2023-06-30T13:17:17.000Z</time><ele>2114.4</ele></trkpt><trkpt lat="42.125412" lon="14.113724"><time>2023-06-30T13:17:19.000Z</time><ele>2114.6</ele></trkpt><trkpt lat="42.125402" lon="14.113736"><time>2023-06-30T13:17:20.000Z</time><ele>2114.6</ele></trkpt><trkpt lat="42.125391" lon="14.11374"><time>2023-06-30T13:17:21.000Z</time><ele>2114.8</ele></trkpt><trkpt lat="42.125325" lon="14.113783"><time>2023-06-30T13:17:27.000Z</time><ele>2115.2</ele></trkpt><trkpt lat="42.125242" lon="14.11382"><time>2023-06-30T13:17:33.000Z</time><ele>2115.8</ele></trkpt><trkpt lat="42.125198" lon="14.113851"><time>2023-06-30T13:17:37.000Z</time><ele>2116.2</ele></trkpt><trkpt lat="42.125132" lon="14.113897"><time>2023-06-30T13:17:42.000Z</time><ele>2116.2</ele></trkpt><trkpt lat="42.125063" lon="14.11393"><time>2023-06-30T13:17:47.000Z</time><ele>2115.8</ele></trkpt><trkpt lat="42.124988" lon="14.113947"><time>2023-06-30T13:17:54.000Z</time><ele>2115.4</ele></trkpt><trkpt lat="42.12497" lon="14.113937"><time>2023-06-30T13:17:56.000Z</time><ele>2115</ele></trkpt><trkpt lat="42.12495" lon="14.11394"><time>2023-06-30T13:17:58.000Z</time><ele>2114.8</ele></trkpt><trkpt lat="42.124934" lon="14.113917"><time>2023-06-30T13:18:00.000Z</time><ele>2114.6</ele></trkpt><trkpt lat="42.124856" lon="14.113898"><time>2023-06-30T13:18:06.000Z</time><ele>2114</ele></trkpt><trkpt lat="42.124833" lon="14.113894"><time>2023-06-30T13:18:08.000Z</time><ele>2113.6</ele></trkpt><trkpt lat="42.124806" lon="14.113902"><time>2023-06-30T13:18:10.000Z</time><ele>2113.6</ele></trkpt><trkpt lat="42.124772" lon="14.113915"><time>2023-06-30T13:18:12.000Z</time><ele>2113.4</ele></trkpt><trkpt lat="42.124747" lon="14.113919"><time>2023-06-30T13:18:14.000Z</time><ele>2113</ele></trkpt><trkpt lat="42.124725" lon="14.113918"><time>2023-06-30T13:18:16.000Z</time><ele>2112.6</ele></trkpt><trkpt lat="42.124657" lon="14.113939"><time>2023-06-30T13:18:20.000Z</time><ele>2112</ele></trkpt><trkpt lat="42.12463" lon="14.113937"><time>2023-06-30T13:18:23.000Z</time><ele>2111.4</ele></trkpt><trkpt lat="42.124556" lon="14.113925"><time>2023-06-30T13:18:29.000Z</time><ele>2110.4</ele></trkpt><trkpt lat="42.124544" lon="14.11393"><time>2023-06-30T13:18:30.000Z</time><ele>2110.2</ele></trkpt><trkpt lat="42.12451" lon="14.113926"><time>2023-06-30T13:18:33.000Z</time><ele>2110</ele></trkpt><trkpt lat="42.124471" lon="14.11392"><time>2023-06-30T13:18:36.000Z</time><ele>2109.6</ele></trkpt><trkpt lat="42.124409" lon="14.113918"><time>2023-06-30T13:18:41.000Z</time><ele>2109.2</ele></trkpt><trkpt lat="42.124332" lon="14.113923"><time>2023-06-30T13:18:46.000Z</time><ele>2108.8</ele></trkpt><trkpt lat="42.124243" lon="14.113932"><time>2023-06-30T13:18:52.000Z</time><ele>2108.2</ele></trkpt><trkpt lat="42.124179" lon="14.11393"><time>2023-06-30T13:18:57.000Z</time><ele>2107.6</ele></trkpt><trkpt lat="42.124158" lon="14.113932"><time>2023-06-30T13:19:01.000Z</time><ele>2107.6</ele></trkpt><trkpt lat="42.124157" lon="14.113932"><time>2023-06-30T13:19:03.000Z</time><ele>2107.6</ele></trkpt><trkpt lat="42.124108" lon="14.113922"><time>2023-06-30T13:19:10.000Z</time><ele>2107</ele></trkpt><trkpt lat="42.124037" lon="14.11394"><time>2023-06-30T13:19:15.000Z</time><ele>2106.8</ele></trkpt><trkpt lat="42.124028" lon="14.113943"><time>2023-06-30T13:19:16.000Z</time><ele>2106.8</ele></trkpt><trkpt lat="42.123928" lon="14.113944"><time>2023-06-30T13:19:24.000Z</time><ele>2106.6</ele></trkpt><trkpt lat="42.123901" lon="14.11395"><time>2023-06-30T13:19:28.000Z</time><ele>2106.8</ele></trkpt><trkpt lat="42.123899" lon="14.113951"><time>2023-06-30T13:19:29.000Z</time><ele>2106.8</ele></trkpt><trkpt lat="42.123899" lon="14.113951"><time>2023-06-30T13:19:30.000Z</time><ele>2106.8</ele></trkpt><trkpt lat="42.123898" lon="14.113952"><time>2023-06-30T13:19:32.000Z</time><ele>2106.8</ele></trkpt><trkpt lat="42.123896" lon="14.113955"><time>2023-06-30T13:19:35.000Z</time><ele>2106.8</ele></trkpt><trkpt lat="42.123884" lon="14.113961"><time>2023-06-30T13:19:41.000Z</time><ele>2106.6</ele></trkpt><trkpt lat="42.123884" lon="14.113961"><time>2023-06-30T13:19:47.000Z</time><ele>2106.8</ele></trkpt><trkpt lat="42.123884" lon="14.113961"><time>2023-06-30T13:19:51.000Z</time><ele>2106.6</ele></trkpt><trkpt lat="42.123883" lon="14.113961"><time>2023-06-30T13:20:00.000Z</time><ele>2106.2</ele></trkpt><trkpt lat="42.123878" lon="14.113962"><time>2023-06-30T13:20:06.000Z</time><ele>2106</ele></trkpt><trkpt lat="42.123859" lon="14.113968"><time>2023-06-30T13:20:13.000Z</time><ele>2106</ele></trkpt><trkpt lat="42.123831" lon="14.113975"><time>2023-06-30T13:20:34.000Z</time><ele>2106.6</ele></trkpt><trkpt lat="42.12384" lon="14.113961"><time>2023-06-30T13:20:55.000Z</time><ele>2106.2</ele></trkpt><trkpt lat="42.12384" lon="14.113952"><time>2023-06-30T13:21:23.000Z</time><ele>2106.2</ele></trkpt><trkpt lat="42.12384" lon="14.113952"><time>2023-06-30T13:21:25.000Z</time><ele>2106</ele></trkpt><trkpt lat="42.123839" lon="14.113952"><time>2023-06-30T13:21:27.000Z</time><ele>2106</ele></trkpt><trkpt lat="42.123839" lon="14.113952"><time>2023-06-30T13:21:29.000Z</time><ele>2106</ele></trkpt><trkpt lat="42.123839" lon="14.113952"><time>2023-06-30T13:21:31.000Z</time><ele>2105.8</ele></trkpt><trkpt lat="42.123841" lon="14.113951"><time>2023-06-30T13:21:50.000Z</time><ele>2106.4</ele></trkpt><trkpt lat="42.123841" lon="14.113951"><time>2023-06-30T13:21:53.000Z</time><ele>2106.4</ele></trkpt><trkpt lat="42.123854" lon="14.113975"><time>2023-06-30T13:22:15.000Z</time><ele>2106.6</ele></trkpt><trkpt lat="42.123849" lon="14.113982"><time>2023-06-30T13:22:22.000Z</time><ele>2106.4</ele></trkpt><trkpt lat="42.12386" lon="14.113942"><time>2023-06-30T13:22:27.000Z</time><ele>2106.6</ele></trkpt><trkpt lat="42.123861" lon="14.113939"><time>2023-06-30T13:22:29.000Z</time><ele>2106.6</ele></trkpt><trkpt lat="42.123861" lon="14.113939"><time>2023-06-30T13:22:32.000Z</time><ele>2106.4</ele></trkpt><trkpt lat="42.123861" lon="14.113939"><time>2023-06-30T13:22:35.000Z</time><ele>2106.4</ele></trkpt><trkpt lat="42.123861" lon="14.113941"><time>2023-06-30T13:22:39.000Z</time><ele>2106.4</ele></trkpt><trkpt lat="42.123861" lon="14.113946"><time>2023-06-30T13:22:43.000Z</time><ele>2105.8</ele></trkpt><trkpt lat="42.123807" lon="14.113947"><time>2023-06-30T13:22:48.000Z</time><ele>2105.8</ele></trkpt><trkpt lat="42.123756" lon="14.113942"><time>2023-06-30T13:22:51.000Z</time><ele>2105.6</ele></trkpt><trkpt lat="42.123694" lon="14.11395"><time>2023-06-30T13:22:55.000Z</time><ele>2105.8</ele></trkpt><trkpt lat="42.123677" lon="14.113948"><time>2023-06-30T13:22:57.000Z</time><ele>2106</ele></trkpt><trkpt lat="42.123641" lon="14.11396"><time>2023-06-30T13:23:01.000Z</time><ele>2106.4</ele></trkpt><trkpt lat="42.123567" lon="14.113966"><time>2023-06-30T13:23:09.000Z</time><ele>2106.8</ele></trkpt><trkpt lat="42.123492" lon="14.113988"><time>2023-06-30T13:23:16.000Z</time><ele>2107.2</ele></trkpt><trkpt lat="42.123431" lon="14.114001"><time>2023-06-30T13:23:21.000Z</time><ele>2107.6</ele></trkpt><trkpt lat="42.123393" lon="14.114017"><time>2023-06-30T13:23:25.000Z</time><ele>2108</ele></trkpt><trkpt lat="42.123334" lon="14.114043"><time>2023-06-30T13:23:30.000Z</time><ele>2108.2</ele></trkpt><trkpt lat="42.123318" lon="14.114052"><time>2023-06-30T13:23:32.000Z</time><ele>2108.4</ele></trkpt><trkpt lat="42.123307" lon="14.114057"><time>2023-06-30T13:23:33.000Z</time><ele>2108.4</ele></trkpt><trkpt lat="42.123294" lon="14.114062"><time>2023-06-30T13:23:34.000Z</time><ele>2108.8</ele></trkpt><trkpt lat="42.123254" lon="14.114082"><time>2023-06-30T13:23:39.000Z</time><ele>2109</ele></trkpt><trkpt lat="42.123241" lon="14.114076"><time>2023-06-30T13:23:41.000Z</time><ele>2109.4</ele></trkpt><trkpt lat="42.123229" lon="14.114073"><time>2023-06-30T13:23:42.000Z</time><ele>2109.6</ele></trkpt><trkpt lat="42.123206" lon="14.114066"><time>2023-06-30T13:23:44.000Z</time><ele>2109.8</ele></trkpt><trkpt lat="42.123182" lon="14.114068"><time>2023-06-30T13:23:46.000Z</time><ele>2110.4</ele></trkpt><trkpt lat="42.123161" lon="14.114088"><time>2023-06-30T13:23:49.000Z</time><ele>2110.8</ele></trkpt><trkpt lat="42.123129" lon="14.114113"><time>2023-06-30T13:23:53.000Z</time><ele>2111.4</ele></trkpt><trkpt lat="42.123096" lon="14.114138"><time>2023-06-30T13:23:57.000Z</time><ele>2111.8</ele></trkpt><trkpt lat="42.123089" lon="14.114152"><time>2023-06-30T13:23:58.000Z</time><ele>2111.8</ele></trkpt><trkpt lat="42.123073" lon="14.114176"><time>2023-06-30T13:24:00.000Z</time><ele>2111.8</ele></trkpt><trkpt lat="42.123064" lon="14.11418"><time>2023-06-30T13:24:01.000Z</time><ele>2111.8</ele></trkpt><trkpt lat="42.123041" lon="14.114195"><time>2023-06-30T13:24:04.000Z</time><ele>2112</ele></trkpt><trkpt lat="42.123006" lon="14.114206"><time>2023-06-30T13:24:07.000Z</time><ele>2112.2</ele></trkpt><trkpt lat="42.12297" lon="14.114216"><time>2023-06-30T13:24:10.000Z</time><ele>2112.4</ele></trkpt><trkpt lat="42.122962" lon="14.114225"><time>2023-06-30T13:24:11.000Z</time><ele>2112.4</ele></trkpt><trkpt lat="42.122932" lon="14.114256"><time>2023-06-30T13:24:16.000Z</time><ele>2113.4</ele></trkpt><trkpt lat="42.122922" lon="14.114261"><time>2023-06-30T13:24:17.000Z</time><ele>2113.6</ele></trkpt><trkpt lat="42.122891" lon="14.114254"><time>2023-06-30T13:24:21.000Z</time><ele>2114.2</ele></trkpt><trkpt lat="42.122873" lon="14.114247"><time>2023-06-30T13:24:24.000Z</time><ele>2114.6</ele></trkpt><trkpt lat="42.12286" lon="14.114246"><time>2023-06-30T13:24:28.000Z</time><ele>2115.4</ele></trkpt><trkpt lat="42.122849" lon="14.114253"><time>2023-06-30T13:24:30.000Z</time><ele>2115.6</ele></trkpt><trkpt lat="42.122844" lon="14.114257"><time>2023-06-30T13:24:31.000Z</time><ele>2115.8</ele></trkpt><trkpt lat="42.122839" lon="14.114263"><time>2023-06-30T13:24:32.000Z</time><ele>2116</ele></trkpt><trkpt lat="42.122823" lon="14.11426"><time>2023-06-30T13:24:36.000Z</time><ele>2116.8</ele></trkpt><trkpt lat="42.122811" lon="14.11426"><time>2023-06-30T13:24:38.000Z</time><ele>2117</ele></trkpt><trkpt lat="42.122799" lon="14.114264"><time>2023-06-30T13:24:40.000Z</time><ele>2117.4</ele></trkpt><trkpt lat="42.122792" lon="14.114267"><time>2023-06-30T13:24:41.000Z</time><ele>2117.8</ele></trkpt><trkpt lat="42.12279" lon="14.11427"><time>2023-06-30T13:24:42.000Z</time><ele>2117.8</ele></trkpt><trkpt lat="42.122775" lon="14.114269"><time>2023-06-30T13:24:44.000Z</time><ele>2118.4</ele></trkpt><trkpt lat="42.122765" lon="14.11427"><time>2023-06-30T13:24:45.000Z</time><ele>2118.6</ele></trkpt><trkpt lat="42.122754" lon="14.114279"><time>2023-06-30T13:24:47.000Z</time><ele>2118.8</ele></trkpt><trkpt lat="42.12275" lon="14.11428"><time>2023-06-30T13:24:48.000Z</time><ele>2119.2</ele></trkpt><trkpt lat="42.122748" lon="14.114285"><time>2023-06-30T13:24:49.000Z</time><ele>2119.4</ele></trkpt><trkpt lat="42.122739" lon="14.114295"><time>2023-06-30T13:24:51.000Z</time><ele>2119.6</ele></trkpt><trkpt lat="42.122729" lon="14.114309"><time>2023-06-30T13:24:53.000Z</time><ele>2120</ele></trkpt><trkpt lat="42.12272" lon="14.114311"><time>2023-06-30T13:24:55.000Z</time><ele>2120.2</ele></trkpt><trkpt lat="42.122683" lon="14.114305"><time>2023-06-30T13:25:01.000Z</time><ele>2121</ele></trkpt><trkpt lat="42.122677" lon="14.1143"><time>2023-06-30T13:25:02.000Z</time><ele>2121.2</ele></trkpt><trkpt lat="42.122674" lon="14.114297"><time>2023-06-30T13:25:03.000Z</time><ele>2121.4</ele></trkpt><trkpt lat="42.122648" lon="14.114293"><time>2023-06-30T13:25:09.000Z</time><ele>2122.4</ele></trkpt><trkpt lat="42.122642" lon="14.114293"><time>2023-06-30T13:25:10.000Z</time><ele>2122.8</ele></trkpt><trkpt lat="42.122616" lon="14.114318"><time>2023-06-30T13:25:17.000Z</time><ele>2123.8</ele></trkpt><trkpt lat="42.122612" lon="14.114323"><time>2023-06-30T13:25:18.000Z</time><ele>2124.2</ele></trkpt><trkpt lat="42.122597" lon="14.114333"><time>2023-06-30T13:25:21.000Z</time><ele>2125.2</ele></trkpt><trkpt lat="42.122582" lon="14.114337"><time>2023-06-30T13:25:24.000Z</time><ele>2125.8</ele></trkpt><trkpt lat="42.122558" lon="14.114348"><time>2023-06-30T13:25:29.000Z</time><ele>2126.2</ele></trkpt><trkpt lat="42.122549" lon="14.114355"><time>2023-06-30T13:25:33.000Z</time><ele>2127</ele></trkpt><trkpt lat="42.122539" lon="14.114359"><time>2023-06-30T13:25:35.000Z</time><ele>2127.4</ele></trkpt><trkpt lat="42.122498" lon="14.114369"><time>2023-06-30T13:25:42.000Z</time><ele>2128.4</ele></trkpt><trkpt lat="42.122498" lon="14.114366"><time>2023-06-30T13:25:43.000Z</time><ele>2128.8</ele></trkpt><trkpt lat="42.122468" lon="14.11438"><time>2023-06-30T13:25:48.000Z</time><ele>2129.6</ele></trkpt><trkpt lat="42.122449" lon="14.114392"><time>2023-06-30T13:25:50.000Z</time><ele>2129.8</ele></trkpt><trkpt lat="42.122437" lon="14.11441"><time>2023-06-30T13:25:53.000Z</time><ele>2130.6</ele></trkpt><trkpt lat="42.122432" lon="14.114414"><time>2023-06-30T13:25:57.000Z</time><ele>2131.4</ele></trkpt><trkpt lat="42.122416" lon="14.114402"><time>2023-06-30T13:25:59.000Z</time><ele>2131.8</ele></trkpt><trkpt lat="42.122366" lon="14.114414"><time>2023-06-30T13:26:05.000Z</time><ele>2133</ele></trkpt><trkpt lat="42.122342" lon="14.114424"><time>2023-06-30T13:26:12.000Z</time><ele>2134</ele></trkpt><trkpt lat="42.122329" lon="14.114434"><time>2023-06-30T13:26:14.000Z</time><ele>2134.8</ele></trkpt><trkpt lat="42.122314" lon="14.114439"><time>2023-06-30T13:26:18.000Z</time><ele>2135.2</ele></trkpt><trkpt lat="42.122285" lon="14.114441"><time>2023-06-30T13:26:22.000Z</time><ele>2136</ele></trkpt><trkpt lat="42.122282" lon="14.114442"><time>2023-06-30T13:26:23.000Z</time><ele>2136.2</ele></trkpt><trkpt lat="42.122273" lon="14.114447"><time>2023-06-30T13:26:28.000Z</time><ele>2137.2</ele></trkpt><trkpt lat="42.12227" lon="14.114446"><time>2023-06-30T13:26:29.000Z</time><ele>2137.2</ele></trkpt><trkpt lat="42.122263" lon="14.114456"><time>2023-06-30T13:26:34.000Z</time><ele>2138.4</ele></trkpt><trkpt lat="42.122263" lon="14.114457"><time>2023-06-30T13:26:46.000Z</time><ele>2138.6</ele></trkpt><trkpt lat="42.122266" lon="14.114457"><time>2023-06-30T13:26:51.000Z</time><ele>2138.8</ele></trkpt><trkpt lat="42.122267" lon="14.114457"><time>2023-06-30T13:26:55.000Z</time><ele>2138.6</ele></trkpt><trkpt lat="42.122267" lon="14.114457"><time>2023-06-30T13:26:59.000Z</time><ele>2138.6</ele></trkpt><trkpt lat="42.122267" lon="14.114457"><time>2023-06-30T13:27:03.000Z</time><ele>2138.8</ele></trkpt><trkpt lat="42.122271" lon="14.114457"><time>2023-06-30T13:27:08.000Z</time><ele>2139</ele></trkpt><trkpt lat="42.122274" lon="14.114456"><time>2023-06-30T13:27:17.000Z</time><ele>2138.8</ele></trkpt><trkpt lat="42.122275" lon="14.114454"><time>2023-06-30T13:27:22.000Z</time><ele>2138.8</ele></trkpt><trkpt lat="42.122277" lon="14.114454"><time>2023-06-30T13:27:24.000Z</time><ele>2138.8</ele></trkpt><trkpt lat="42.122283" lon="14.114452"><time>2023-06-30T13:27:26.000Z</time><ele>2138.8</ele></trkpt><trkpt lat="42.122288" lon="14.114448"><time>2023-06-30T13:27:29.000Z</time><ele>2138.8</ele></trkpt><trkpt lat="42.12229" lon="14.114446"><time>2023-06-30T13:27:36.000Z</time><ele>2139.4</ele></trkpt><trkpt lat="42.12229" lon="14.114446"><time>2023-06-30T13:27:41.000Z</time><ele>2140.6</ele></trkpt><trkpt lat="42.122226" lon="14.114485"><time>2023-06-30T13:27:46.000Z</time><ele>2141.4</ele></trkpt><trkpt lat="42.122191" lon="14.114496"><time>2023-06-30T13:27:48.000Z</time><ele>2141.8</ele></trkpt><trkpt lat="42.12214" lon="14.114521"><time>2023-06-30T13:27:52.000Z</time><ele>2142.8</ele></trkpt><trkpt lat="42.122129" lon="14.114524"><time>2023-06-30T13:27:53.000Z</time><ele>2143.2</ele></trkpt><trkpt lat="42.122125" lon="14.114526"><time>2023-06-30T13:27:54.000Z</time><ele>2143.4</ele></trkpt><trkpt lat="42.122119" lon="14.114522"><time>2023-06-30T13:27:56.000Z</time><ele>2144</ele></trkpt><trkpt lat="42.122098" lon="14.114534"><time>2023-06-30T13:27:58.000Z</time><ele>2144.2</ele></trkpt><trkpt lat="42.122079" lon="14.11456"><time>2023-06-30T13:28:01.000Z</time><ele>2145</ele></trkpt><trkpt lat="42.122072" lon="14.11456"><time>2023-06-30T13:28:03.000Z</time><ele>2145.2</ele></trkpt><trkpt lat="42.122068" lon="14.114557"><time>2023-06-30T13:28:04.000Z</time><ele>2145.4</ele></trkpt><trkpt lat="42.12205" lon="14.114555"><time>2023-06-30T13:28:07.000Z</time><ele>2146</ele></trkpt><trkpt lat="42.122032" lon="14.114567"><time>2023-06-30T13:28:10.000Z</time><ele>2146.4</ele></trkpt><trkpt lat="42.122018" lon="14.114573"><time>2023-06-30T13:28:12.000Z</time><ele>2146.8</ele></trkpt><trkpt lat="42.121999" lon="14.114569"><time>2023-06-30T13:28:16.000Z</time><ele>2147.4</ele></trkpt><trkpt lat="42.121982" lon="14.114585"><time>2023-06-30T13:28:19.000Z</time><ele>2148.2</ele></trkpt><trkpt lat="42.121969" lon="14.114587"><time>2023-06-30T13:28:21.000Z</time><ele>2148.6</ele></trkpt><trkpt lat="42.12196" lon="14.114595"><time>2023-06-30T13:28:25.000Z</time><ele>2149.2</ele></trkpt><trkpt lat="42.121956" lon="14.114599"><time>2023-06-30T13:28:26.000Z</time><ele>2149.4</ele></trkpt><trkpt lat="42.121955" lon="14.114604"><time>2023-06-30T13:28:27.000Z</time><ele>2149.8</ele></trkpt><trkpt lat="42.121907" lon="14.114629"><time>2023-06-30T13:28:32.000Z</time><ele>2150.8</ele></trkpt><trkpt lat="42.121897" lon="14.114635"><time>2023-06-30T13:28:33.000Z</time><ele>2151</ele></trkpt><trkpt lat="42.121883" lon="14.114655"><time>2023-06-30T13:28:37.000Z</time><ele>2151.6</ele></trkpt><trkpt lat="42.121882" lon="14.114658"><time>2023-06-30T13:28:38.000Z</time><ele>2152</ele></trkpt><trkpt lat="42.121881" lon="14.114663"><time>2023-06-30T13:28:39.000Z</time><ele>2152.2</ele></trkpt><trkpt lat="42.121861" lon="14.114698"><time>2023-06-30T13:28:44.000Z</time><ele>2153</ele></trkpt><trkpt lat="42.121841" lon="14.114713"><time>2023-06-30T13:28:46.000Z</time><ele>2153.6</ele></trkpt><trkpt lat="42.121812" lon="14.114736"><time>2023-06-30T13:28:49.000Z</time><ele>2154.2</ele></trkpt><trkpt lat="42.121791" lon="14.114745"><time>2023-06-30T13:28:53.000Z</time><ele>2154.8</ele></trkpt><trkpt lat="42.12178" lon="14.114747"><time>2023-06-30T13:28:55.000Z</time><ele>2155.2</ele></trkpt><trkpt lat="42.121755" lon="14.114754"><time>2023-06-30T13:29:00.000Z</time><ele>2156.2</ele></trkpt><trkpt lat="42.121739" lon="14.114761"><time>2023-06-30T13:29:05.000Z</time><ele>2157.4</ele></trkpt><trkpt lat="42.121726" lon="14.114753"><time>2023-06-30T13:29:09.000Z</time><ele>2157.8</ele></trkpt><trkpt lat="42.121719" lon="14.114755"><time>2023-06-30T13:29:11.000Z</time><ele>2158.4</ele></trkpt><trkpt lat="42.121701" lon="14.114778"><time>2023-06-30T13:29:18.000Z</time><ele>2159.4</ele></trkpt><trkpt lat="42.121702" lon="14.114781"><time>2023-06-30T13:29:19.000Z</time><ele>2159.6</ele></trkpt><trkpt lat="42.121682" lon="14.114798"><time>2023-06-30T13:29:23.000Z</time><ele>2160.6</ele></trkpt><trkpt lat="42.12168" lon="14.114803"><time>2023-06-30T13:29:24.000Z</time><ele>2160.6</ele></trkpt><trkpt lat="42.121664" lon="14.114825"><time>2023-06-30T13:29:30.000Z</time><ele>2161.6</ele></trkpt><trkpt lat="42.121646" lon="14.114848"><time>2023-06-30T13:29:35.000Z</time><ele>2162.4</ele></trkpt><trkpt lat="42.121637" lon="14.114852"><time>2023-06-30T13:29:37.000Z</time><ele>2162.8</ele></trkpt><trkpt lat="42.121601" lon="14.11486"><time>2023-06-30T13:29:43.000Z</time><ele>2164</ele></trkpt><trkpt lat="42.121567" lon="14.114865"><time>2023-06-30T13:29:50.000Z</time><ele>2165</ele></trkpt><trkpt lat="42.121559" lon="14.114864"><time>2023-06-30T13:29:51.000Z</time><ele>2165.2</ele></trkpt><trkpt lat="42.121524" lon="14.114834"><time>2023-06-30T13:29:57.000Z</time><ele>2166.2</ele></trkpt><trkpt lat="42.121517" lon="14.114832"><time>2023-06-30T13:29:58.000Z</time><ele>2166.6</ele></trkpt><trkpt lat="42.121489" lon="14.114834"><time>2023-06-30T13:30:02.000Z</time><ele>2167.4</ele></trkpt><trkpt lat="42.121471" lon="14.114856"><time>2023-06-30T13:30:07.000Z</time><ele>2168</ele></trkpt><trkpt lat="42.121457" lon="14.114876"><time>2023-06-30T13:30:11.000Z</time><ele>2168.6</ele></trkpt><trkpt lat="42.121434" lon="14.114893"><time>2023-06-30T13:30:18.000Z</time><ele>2169.2</ele></trkpt><trkpt lat="42.121412" lon="14.114897"><time>2023-06-30T13:30:21.000Z</time><ele>2169.8</ele></trkpt><trkpt lat="42.121382" lon="14.114922"><time>2023-06-30T13:30:26.000Z</time><ele>2170.4</ele></trkpt><trkpt lat="42.12137" lon="14.11493"><time>2023-06-30T13:30:28.000Z</time><ele>2170.8</ele></trkpt><trkpt lat="42.121346" lon="14.114951"><time>2023-06-30T13:30:33.000Z</time><ele>2172.2</ele></trkpt><trkpt lat="42.12132" lon="14.11497"><time>2023-06-30T13:30:37.000Z</time><ele>2173</ele></trkpt><trkpt lat="42.121312" lon="14.114983"><time>2023-06-30T13:30:39.000Z</time><ele>2173.6</ele></trkpt><trkpt lat="42.121284" lon="14.114998"><time>2023-06-30T13:30:43.000Z</time><ele>2174.4</ele></trkpt><trkpt lat="42.121268" lon="14.115"><time>2023-06-30T13:30:45.000Z</time><ele>2174.8</ele></trkpt><trkpt lat="42.121256" lon="14.115013"><time>2023-06-30T13:30:47.000Z</time><ele>2175.2</ele></trkpt><trkpt lat="42.121246" lon="14.115032"><time>2023-06-30T13:30:49.000Z</time><ele>2175.8</ele></trkpt><trkpt lat="42.121231" lon="14.115064"><time>2023-06-30T13:30:52.000Z</time><ele>2176.8</ele></trkpt><trkpt lat="42.121228" lon="14.115075"><time>2023-06-30T13:30:53.000Z</time><ele>2176.8</ele></trkpt><trkpt lat="42.121222" lon="14.115107"><time>2023-06-30T13:30:57.000Z</time><ele>2178</ele></trkpt><trkpt lat="42.12122" lon="14.115114"><time>2023-06-30T13:30:58.000Z</time><ele>2178.4</ele></trkpt><trkpt lat="42.121216" lon="14.115145"><time>2023-06-30T13:31:01.000Z</time><ele>2179.2</ele></trkpt><trkpt lat="42.121215" lon="14.115153"><time>2023-06-30T13:31:02.000Z</time><ele>2179.4</ele></trkpt><trkpt lat="42.121222" lon="14.115195"><time>2023-06-30T13:31:06.000Z</time><ele>2180.2</ele></trkpt><trkpt lat="42.121218" lon="14.11522"><time>2023-06-30T13:31:09.000Z</time><ele>2180.4</ele></trkpt><trkpt lat="42.121208" lon="14.11524"><time>2023-06-30T13:31:11.000Z</time><ele>2180.6</ele></trkpt><trkpt lat="42.12119" lon="14.115265"><time>2023-06-30T13:31:13.000Z</time><ele>2181</ele></trkpt><trkpt lat="42.121187" lon="14.115282"><time>2023-06-30T13:31:15.000Z</time><ele>2181.4</ele></trkpt><trkpt lat="42.121184" lon="14.115289"><time>2023-06-30T13:31:16.000Z</time><ele>2181.6</ele></trkpt><trkpt lat="42.121165" lon="14.115306"><time>2023-06-30T13:31:18.000Z</time><ele>2182</ele></trkpt><trkpt lat="42.121152" lon="14.115321"><time>2023-06-30T13:31:20.000Z</time><ele>2182.4</ele></trkpt><trkpt lat="42.121144" lon="14.11533"><time>2023-06-30T13:31:22.000Z</time><ele>2182.8</ele></trkpt><trkpt lat="42.12114" lon="14.115338"><time>2023-06-30T13:31:24.000Z</time><ele>2183.6</ele></trkpt><trkpt lat="42.121128" lon="14.115363"><time>2023-06-30T13:31:28.000Z</time><ele>2184.6</ele></trkpt><trkpt lat="42.121127" lon="14.115361"><time>2023-06-30T13:31:29.000Z</time><ele>2184.8</ele></trkpt><trkpt lat="42.121118" lon="14.115357"><time>2023-06-30T13:31:31.000Z</time><ele>2185.2</ele></trkpt><trkpt lat="42.121109" lon="14.115357"><time>2023-06-30T13:31:33.000Z</time><ele>2185.8</ele></trkpt><trkpt lat="42.121107" lon="14.115361"><time>2023-06-30T13:31:34.000Z</time><ele>2186</ele></trkpt><trkpt lat="42.121104" lon="14.11536"><time>2023-06-30T13:31:38.000Z</time><ele>2187</ele></trkpt><trkpt lat="42.121101" lon="14.115359"><time>2023-06-30T13:31:39.000Z</time><ele>2187</ele></trkpt><trkpt lat="42.121062" lon="14.11538"><time>2023-06-30T13:31:45.000Z</time><ele>2188</ele></trkpt><trkpt lat="42.121038" lon="14.115403"><time>2023-06-30T13:31:50.000Z</time><ele>2189.2</ele></trkpt><trkpt lat="42.121032" lon="14.115415"><time>2023-06-30T13:31:51.000Z</time><ele>2189.2</ele></trkpt><trkpt lat="42.121012" lon="14.115451"><time>2023-06-30T13:31:55.000Z</time><ele>2190.2</ele></trkpt><trkpt lat="42.121008" lon="14.115466"><time>2023-06-30T13:31:57.000Z</time><ele>2190.2</ele></trkpt><trkpt lat="42.121006" lon="14.115473"><time>2023-06-30T13:31:58.000Z</time><ele>2190.4</ele></trkpt><trkpt lat="42.121007" lon="14.115478"><time>2023-06-30T13:31:59.000Z</time><ele>2190.6</ele></trkpt><trkpt lat="42.120997" lon="14.115498"><time>2023-06-30T13:32:02.000Z</time><ele>2191.4</ele></trkpt><trkpt lat="42.120993" lon="14.115534"><time>2023-06-30T13:32:07.000Z</time><ele>2192.4</ele></trkpt><trkpt lat="42.120987" lon="14.115545"><time>2023-06-30T13:32:09.000Z</time><ele>2192.8</ele></trkpt><trkpt lat="42.120961" lon="14.115554"><time>2023-06-30T13:32:15.000Z</time><ele>2193.6</ele></trkpt><trkpt lat="42.120944" lon="14.115578"><time>2023-06-30T13:32:20.000Z</time><ele>2194.6</ele></trkpt><trkpt lat="42.120928" lon="14.115595"><time>2023-06-30T13:32:25.000Z</time><ele>2195.6</ele></trkpt><trkpt lat="42.120924" lon="14.115601"><time>2023-06-30T13:32:27.000Z</time><ele>2196</ele></trkpt><trkpt lat="42.120909" lon="14.115604"><time>2023-06-30T13:32:31.000Z</time><ele>2196.6</ele></trkpt><trkpt lat="42.120907" lon="14.115604"><time>2023-06-30T13:32:32.000Z</time><ele>2197</ele></trkpt><trkpt lat="42.120899" lon="14.115612"><time>2023-06-30T13:32:37.000Z</time><ele>2198</ele></trkpt><trkpt lat="42.120871" lon="14.115654"><time>2023-06-30T13:32:42.000Z</time><ele>2199.2</ele></trkpt><trkpt lat="42.120872" lon="14.115655"><time>2023-06-30T13:32:44.000Z</time><ele>2199.4</ele></trkpt><trkpt lat="42.120863" lon="14.115665"><time>2023-06-30T13:32:49.000Z</time><ele>2200.2</ele></trkpt><trkpt lat="42.120851" lon="14.115665"><time>2023-06-30T13:32:51.000Z</time><ele>2200.6</ele></trkpt><trkpt lat="42.120839" lon="14.115682"><time>2023-06-30T13:32:56.000Z</time><ele>2201.4</ele></trkpt><trkpt lat="42.120837" lon="14.115683"><time>2023-06-30T13:32:57.000Z</time><ele>2201.6</ele></trkpt><trkpt lat="42.120827" lon="14.115702"><time>2023-06-30T13:33:00.000Z</time><ele>2202.4</ele></trkpt><trkpt lat="42.120805" lon="14.115725"><time>2023-06-30T13:33:05.000Z</time><ele>2203.4</ele></trkpt><trkpt lat="42.120805" lon="14.115728"><time>2023-06-30T13:33:06.000Z</time><ele>2203.4</ele></trkpt><trkpt lat="42.120779" lon="14.115787"><time>2023-06-30T13:33:12.000Z</time><ele>2204.4</ele></trkpt><trkpt lat="42.120772" lon="14.115795"><time>2023-06-30T13:33:13.000Z</time><ele>2204.6</ele></trkpt><trkpt lat="42.120758" lon="14.115823"><time>2023-06-30T13:33:17.000Z</time><ele>2205</ele></trkpt><trkpt lat="42.120752" lon="14.115827"><time>2023-06-30T13:33:18.000Z</time><ele>2205.2</ele></trkpt><trkpt lat="42.120733" lon="14.115836"><time>2023-06-30T13:33:21.000Z</time><ele>2205.6</ele></trkpt><trkpt lat="42.120714" lon="14.11588"><time>2023-06-30T13:33:27.000Z</time><ele>2206.6</ele></trkpt><trkpt lat="42.120701" lon="14.115909"><time>2023-06-30T13:33:33.000Z</time><ele>2207.8</ele></trkpt><trkpt lat="42.1207" lon="14.115914"><time>2023-06-30T13:33:34.000Z</time><ele>2207.8</ele></trkpt><trkpt lat="42.120684" lon="14.115942"><time>2023-06-30T13:33:38.000Z</time><ele>2208.8</ele></trkpt><trkpt lat="42.120674" lon="14.115951"><time>2023-06-30T13:33:41.000Z</time><ele>2209.4</ele></trkpt><trkpt lat="42.120663" lon="14.115949"><time>2023-06-30T13:33:44.000Z</time><ele>2209.8</ele></trkpt><trkpt lat="42.120652" lon="14.115931"><time>2023-06-30T13:33:48.000Z</time><ele>2210.2</ele></trkpt><trkpt lat="42.120637" lon="14.115921"><time>2023-06-30T13:33:51.000Z</time><ele>2210.8</ele></trkpt><trkpt lat="42.120619" lon="14.115917"><time>2023-06-30T13:33:56.000Z</time><ele>2212</ele></trkpt><trkpt lat="42.120619" lon="14.115919"><time>2023-06-30T13:33:57.000Z</time><ele>2212</ele></trkpt><trkpt lat="42.120621" lon="14.115919"><time>2023-06-30T13:33:58.000Z</time><ele>2212.4</ele></trkpt><trkpt lat="42.120611" lon="14.11592"><time>2023-06-30T13:34:02.000Z</time><ele>2213</ele></trkpt><trkpt lat="42.120597" lon="14.115926"><time>2023-06-30T13:34:05.000Z</time><ele>2213</ele></trkpt><trkpt lat="42.120574" lon="14.115958"><time>2023-06-30T13:34:10.000Z</time><ele>2213.6</ele></trkpt><trkpt lat="42.120574" lon="14.115963"><time>2023-06-30T13:34:11.000Z</time><ele>2213.6</ele></trkpt><trkpt lat="42.120572" lon="14.115968"><time>2023-06-30T13:34:13.000Z</time><ele>2214</ele></trkpt><trkpt lat="42.120564" lon="14.115974"><time>2023-06-30T13:34:16.000Z</time><ele>2215.2</ele></trkpt><trkpt lat="42.120562" lon="14.115974"><time>2023-06-30T13:34:17.000Z</time><ele>2215.4</ele></trkpt><trkpt lat="42.120522" lon="14.115974"><time>2023-06-30T13:34:26.000Z</time><ele>2216.2</ele></trkpt><trkpt lat="42.120518" lon="14.115977"><time>2023-06-30T13:34:27.000Z</time><ele>2216.8</ele></trkpt><trkpt lat="42.120505" lon="14.115999"><time>2023-06-30T13:34:32.000Z</time><ele>2217.8</ele></trkpt><trkpt lat="42.120501" lon="14.116"><time>2023-06-30T13:34:33.000Z</time><ele>2218</ele></trkpt><trkpt lat="42.120488" lon="14.116012"><time>2023-06-30T13:34:36.000Z</time><ele>2218.8</ele></trkpt><trkpt lat="42.120464" lon="14.116031"><time>2023-06-30T13:34:41.000Z</time><ele>2220</ele></trkpt><trkpt lat="42.120456" lon="14.116041"><time>2023-06-30T13:34:43.000Z</time><ele>2220.4</ele></trkpt><trkpt lat="42.120445" lon="14.116051"><time>2023-06-30T13:34:46.000Z</time><ele>2221.2</ele></trkpt><trkpt lat="42.120433" lon="14.116065"><time>2023-06-30T13:34:48.000Z</time><ele>2221.4</ele></trkpt><trkpt lat="42.120416" lon="14.116074"><time>2023-06-30T13:34:53.000Z</time><ele>2222.4</ele></trkpt><trkpt lat="42.120414" lon="14.116071"><time>2023-06-30T13:34:54.000Z</time><ele>2222.6</ele></trkpt><trkpt lat="42.120388" lon="14.116058"><time>2023-06-30T13:34:59.000Z</time><ele>2223.2</ele></trkpt><trkpt lat="42.120381" lon="14.116059"><time>2023-06-30T13:35:00.000Z</time><ele>2223.4</ele></trkpt><trkpt lat="42.120371" lon="14.116071"><time>2023-06-30T13:35:03.000Z</time><ele>2224</ele></trkpt><trkpt lat="42.120363" lon="14.116084"><time>2023-06-30T13:35:05.000Z</time><ele>2224.4</ele></trkpt><trkpt lat="42.120351" lon="14.116085"><time>2023-06-30T13:35:09.000Z</time><ele>2225.6</ele></trkpt><trkpt lat="42.120346" lon="14.116085"><time>2023-06-30T13:35:10.000Z</time><ele>2225.6</ele></trkpt><trkpt lat="42.120326" lon="14.116088"><time>2023-06-30T13:35:14.000Z</time><ele>2226.6</ele></trkpt><trkpt lat="42.120317" lon="14.116095"><time>2023-06-30T13:35:16.000Z</time><ele>2227.2</ele></trkpt><trkpt lat="42.120313" lon="14.116101"><time>2023-06-30T13:35:17.000Z</time><ele>2227.4</ele></trkpt><trkpt lat="42.120302" lon="14.116104"><time>2023-06-30T13:35:19.000Z</time><ele>2227.8</ele></trkpt><trkpt lat="42.120299" lon="14.116104"><time>2023-06-30T13:35:20.000Z</time><ele>2227.8</ele></trkpt><trkpt lat="42.120285" lon="14.116091"><time>2023-06-30T13:35:23.000Z</time><ele>2228.2</ele></trkpt><trkpt lat="42.120277" lon="14.116085"><time>2023-06-30T13:35:25.000Z</time><ele>2228.6</ele></trkpt><trkpt lat="42.120272" lon="14.116087"><time>2023-06-30T13:35:26.000Z</time><ele>2229</ele></trkpt><trkpt lat="42.12025" lon="14.116091"><time>2023-06-30T13:35:30.000Z</time><ele>2229.8</ele></trkpt><trkpt lat="42.120233" lon="14.116086"><time>2023-06-30T13:35:33.000Z</time><ele>2230.2</ele></trkpt><trkpt lat="42.120203" lon="14.116063"><time>2023-06-30T13:35:39.000Z</time><ele>2231.4</ele></trkpt><trkpt lat="42.12019" lon="14.116038"><time>2023-06-30T13:35:44.000Z</time><ele>2232.6</ele></trkpt><trkpt lat="42.120175" lon="14.116034"><time>2023-06-30T13:35:46.000Z</time><ele>2232.8</ele></trkpt><trkpt lat="42.120145" lon="14.116051"><time>2023-06-30T13:35:51.000Z</time><ele>2233.8</ele></trkpt><trkpt lat="42.120126" lon="14.116059"><time>2023-06-30T13:35:55.000Z</time><ele>2234.2</ele></trkpt><trkpt lat="42.120107" lon="14.116084"><time>2023-06-30T13:35:58.000Z</time><ele>2234.8</ele></trkpt><trkpt lat="42.120103" lon="14.116104"><time>2023-06-30T13:36:01.000Z</time><ele>2235.6</ele></trkpt><trkpt lat="42.1201" lon="14.116111"><time>2023-06-30T13:36:02.000Z</time><ele>2235.8</ele></trkpt><trkpt lat="42.120094" lon="14.116123"><time>2023-06-30T13:36:04.000Z</time><ele>2236.4</ele></trkpt><trkpt lat="42.120088" lon="14.116125"><time>2023-06-30T13:36:06.000Z</time><ele>2236.8</ele></trkpt><trkpt lat="42.120084" lon="14.116109"><time>2023-06-30T13:36:08.000Z</time><ele>2237</ele></trkpt><trkpt lat="42.12008" lon="14.116108"><time>2023-06-30T13:36:09.000Z</time><ele>2237</ele></trkpt><trkpt lat="42.120065" lon="14.116104"><time>2023-06-30T13:36:12.000Z</time><ele>2237.8</ele></trkpt><trkpt lat="42.120059" lon="14.116108"><time>2023-06-30T13:36:13.000Z</time><ele>2238</ele></trkpt><trkpt lat="42.120049" lon="14.116119"><time>2023-06-30T13:36:15.000Z</time><ele>2238.4</ele></trkpt><trkpt lat="42.120031" lon="14.116133"><time>2023-06-30T13:36:18.000Z</time><ele>2239</ele></trkpt><trkpt lat="42.120026" lon="14.116134"><time>2023-06-30T13:36:19.000Z</time><ele>2239</ele></trkpt><trkpt lat="42.120008" lon="14.116129"><time>2023-06-30T13:36:23.000Z</time><ele>2239.6</ele></trkpt><trkpt lat="42.119989" lon="14.116127"><time>2023-06-30T13:36:27.000Z</time><ele>2240</ele></trkpt><trkpt lat="42.119985" lon="14.116128"><time>2023-06-30T13:36:28.000Z</time><ele>2240.2</ele></trkpt><trkpt lat="42.119972" lon="14.116128"><time>2023-06-30T13:36:30.000Z</time><ele>2240.6</ele></trkpt><trkpt lat="42.119941" lon="14.116128"><time>2023-06-30T13:36:34.000Z</time><ele>2241.4</ele></trkpt><trkpt lat="42.119923" lon="14.116127"><time>2023-06-30T13:36:39.000Z</time><ele>2242.6</ele></trkpt><trkpt lat="42.119894" lon="14.116136"><time>2023-06-30T13:36:45.000Z</time><ele>2243.6</ele></trkpt><trkpt lat="42.119886" lon="14.116142"><time>2023-06-30T13:36:46.000Z</time><ele>2243.8</ele></trkpt><trkpt lat="42.119869" lon="14.116146"><time>2023-06-30T13:36:50.000Z</time><ele>2244.6</ele></trkpt><trkpt lat="42.119854" lon="14.116135"><time>2023-06-30T13:36:54.000Z</time><ele>2245</ele></trkpt><trkpt lat="42.119839" lon="14.11612"><time>2023-06-30T13:36:57.000Z</time><ele>2245.6</ele></trkpt><trkpt lat="42.119814" lon="14.116114"><time>2023-06-30T13:37:01.000Z</time><ele>2246.4</ele></trkpt><trkpt lat="42.119802" lon="14.116121"><time>2023-06-30T13:37:03.000Z</time><ele>2247</ele></trkpt><trkpt lat="42.119786" lon="14.116131"><time>2023-06-30T13:37:06.000Z</time><ele>2247.4</ele></trkpt><trkpt lat="42.119767" lon="14.116122"><time>2023-06-30T13:37:09.000Z</time><ele>2248</ele></trkpt><trkpt lat="42.119761" lon="14.116117"><time>2023-06-30T13:37:10.000Z</time><ele>2248.2</ele></trkpt><trkpt lat="42.119719" lon="14.116112"><time>2023-06-30T13:37:17.000Z</time><ele>2249</ele></trkpt><trkpt lat="42.119711" lon="14.116115"><time>2023-06-30T13:37:18.000Z</time><ele>2249.2</ele></trkpt><trkpt lat="42.119685" lon="14.116115"><time>2023-06-30T13:37:22.000Z</time><ele>2250.2</ele></trkpt><trkpt lat="42.119672" lon="14.116114"><time>2023-06-30T13:37:26.000Z</time><ele>2251.4</ele></trkpt><trkpt lat="42.119637" lon="14.116098"><time>2023-06-30T13:37:33.000Z</time><ele>2252.6</ele></trkpt><trkpt lat="42.119632" lon="14.116097"><time>2023-06-30T13:37:34.000Z</time><ele>2252.8</ele></trkpt><trkpt lat="42.119617" lon="14.116102"><time>2023-06-30T13:37:36.000Z</time><ele>2253.2</ele></trkpt><trkpt lat="42.119613" lon="14.116103"><time>2023-06-30T13:37:37.000Z</time><ele>2253.4</ele></trkpt><trkpt lat="42.119611" lon="14.116107"><time>2023-06-30T13:37:38.000Z</time><ele>2253.6</ele></trkpt><trkpt lat="42.119595" lon="14.116112"><time>2023-06-30T13:37:42.000Z</time><ele>2254</ele></trkpt><trkpt lat="42.119575" lon="14.116091"><time>2023-06-30T13:37:47.000Z</time><ele>2254.6</ele></trkpt><trkpt lat="42.119555" lon="14.116099"><time>2023-06-30T13:37:50.000Z</time><ele>2255.2</ele></trkpt><trkpt lat="42.119538" lon="14.116104"><time>2023-06-30T13:37:54.000Z</time><ele>2255.8</ele></trkpt><trkpt lat="42.119521" lon="14.116092"><time>2023-06-30T13:37:57.000Z</time><ele>2256.4</ele></trkpt><trkpt lat="42.119515" lon="14.116076"><time>2023-06-30T13:38:00.000Z</time><ele>2256.8</ele></trkpt><trkpt lat="42.119502" lon="14.116066"><time>2023-06-30T13:38:03.000Z</time><ele>2257.4</ele></trkpt><trkpt lat="42.119485" lon="14.116049"><time>2023-06-30T13:38:06.000Z</time><ele>2257.8</ele></trkpt><trkpt lat="42.119465" lon="14.116035"><time>2023-06-30T13:38:10.000Z</time><ele>2258.4</ele></trkpt><trkpt lat="42.119455" lon="14.116032"><time>2023-06-30T13:38:12.000Z</time><ele>2259.2</ele></trkpt><trkpt lat="42.119433" lon="14.116023"><time>2023-06-30T13:38:20.000Z</time><ele>2260.2</ele></trkpt><trkpt lat="42.119433" lon="14.116023"><time>2023-06-30T13:38:22.000Z</time><ele>2260.2</ele></trkpt><trkpt lat="42.119395" lon="14.116029"><time>2023-06-30T13:38:30.000Z</time><ele>2261.2</ele></trkpt><trkpt lat="42.119391" lon="14.116032"><time>2023-06-30T13:38:31.000Z</time><ele>2261.4</ele></trkpt><trkpt lat="42.119362" lon="14.116047"><time>2023-06-30T13:38:36.000Z</time><ele>2262.4</ele></trkpt><trkpt lat="42.119338" lon="14.116065"><time>2023-06-30T13:38:41.000Z</time><ele>2263.6</ele></trkpt><trkpt lat="42.119294" lon="14.11607"><time>2023-06-30T13:38:49.000Z</time><ele>2265</ele></trkpt><trkpt lat="42.119282" lon="14.116057"><time>2023-06-30T13:38:53.000Z</time><ele>2265.6</ele></trkpt><trkpt lat="42.119274" lon="14.11605"><time>2023-06-30T13:38:55.000Z</time><ele>2266</ele></trkpt><trkpt lat="42.119266" lon="14.116042"><time>2023-06-30T13:38:57.000Z</time><ele>2266.4</ele></trkpt><trkpt lat="42.119245" lon="14.116027"><time>2023-06-30T13:39:03.000Z</time><ele>2267</ele></trkpt><trkpt lat="42.119239" lon="14.116026"><time>2023-06-30T13:39:04.000Z</time><ele>2267.2</ele></trkpt><trkpt lat="42.119211" lon="14.116026"><time>2023-06-30T13:39:10.000Z</time><ele>2268.2</ele></trkpt><trkpt lat="42.11921" lon="14.116017"><time>2023-06-30T13:39:12.000Z</time><ele>2268.6</ele></trkpt><trkpt lat="42.119215" lon="14.115999"><time>2023-06-30T13:39:15.000Z</time><ele>2269.2</ele></trkpt><trkpt lat="42.119199" lon="14.115978"><time>2023-06-30T13:39:19.000Z</time><ele>2270.2</ele></trkpt><trkpt lat="42.119196" lon="14.115977"><time>2023-06-30T13:39:20.000Z</time><ele>2270.4</ele></trkpt><trkpt lat="42.119188" lon="14.115966"><time>2023-06-30T13:39:25.000Z</time><ele>2271.2</ele></trkpt><trkpt lat="42.119175" lon="14.115939"><time>2023-06-30T13:39:31.000Z</time><ele>2271.6</ele></trkpt><trkpt lat="42.119148" lon="14.115944"><time>2023-06-30T13:39:36.000Z</time><ele>2272.6</ele></trkpt><trkpt lat="42.119147" lon="14.115946"><time>2023-06-30T13:39:37.000Z</time><ele>2272.6</ele></trkpt><trkpt lat="42.119134" lon="14.115945"><time>2023-06-30T13:39:42.000Z</time><ele>2273.4</ele></trkpt><trkpt lat="42.119125" lon="14.115941"><time>2023-06-30T13:39:44.000Z</time><ele>2273.8</ele></trkpt><trkpt lat="42.119098" lon="14.115956"><time>2023-06-30T13:39:51.000Z</time><ele>2274.4</ele></trkpt><trkpt lat="42.119088" lon="14.115953"><time>2023-06-30T13:39:54.000Z</time><ele>2274.8</ele></trkpt><trkpt lat="42.119069" lon="14.115945"><time>2023-06-30T13:39:58.000Z</time><ele>2275.4</ele></trkpt><trkpt lat="42.119053" lon="14.11595"><time>2023-06-30T13:40:02.000Z</time><ele>2276</ele></trkpt><trkpt lat="42.119025" lon="14.115945"><time>2023-06-30T13:40:07.000Z</time><ele>2277</ele></trkpt><trkpt lat="42.119013" lon="14.115934"><time>2023-06-30T13:40:10.000Z</time><ele>2277.4</ele></trkpt><trkpt lat="42.118994" lon="14.115933"><time>2023-06-30T13:40:14.000Z</time><ele>2278</ele></trkpt><trkpt lat="42.118974" lon="14.115939"><time>2023-06-30T13:40:18.000Z</time><ele>2279</ele></trkpt><trkpt lat="42.11897" lon="14.11594"><time>2023-06-30T13:40:19.000Z</time><ele>2279.2</ele></trkpt><trkpt lat="42.118941" lon="14.115965"><time>2023-06-30T13:40:25.000Z</time><ele>2280.2</ele></trkpt><trkpt lat="42.118914" lon="14.115964"><time>2023-06-30T13:40:31.000Z</time><ele>2281.2</ele></trkpt><trkpt lat="42.118896" lon="14.115962"><time>2023-06-30T13:40:34.000Z</time><ele>2281.6</ele></trkpt><trkpt lat="42.118865" lon="14.115955"><time>2023-06-30T13:40:39.000Z</time><ele>2282.4</ele></trkpt><trkpt lat="42.118813" lon="14.11595"><time>2023-06-30T13:40:46.000Z</time><ele>2283.6</ele></trkpt><trkpt lat="42.118793" lon="14.115969"><time>2023-06-30T13:40:51.000Z</time><ele>2284.6</ele></trkpt><trkpt lat="42.118786" lon="14.115962"><time>2023-06-30T13:40:54.000Z</time><ele>2284.8</ele></trkpt><trkpt lat="42.118769" lon="14.115966"><time>2023-06-30T13:40:59.000Z</time><ele>2285.8</ele></trkpt><trkpt lat="42.118769" lon="14.115967"><time>2023-06-30T13:41:03.000Z</time><ele>2286.4</ele></trkpt><trkpt lat="42.118769" lon="14.115967"><time>2023-06-30T13:41:11.000Z</time><ele>2286.8</ele></trkpt><trkpt lat="42.118769" lon="14.115967"><time>2023-06-30T13:41:15.000Z</time><ele>2286.8</ele></trkpt><trkpt lat="42.118769" lon="14.115968"><time>2023-06-30T13:41:22.000Z</time><ele>2286.6</ele></trkpt><trkpt lat="42.118759" lon="14.115971"><time>2023-06-30T13:41:36.000Z</time><ele>2286.4</ele></trkpt><trkpt lat="42.118756" lon="14.115975"><time>2023-06-30T13:41:41.000Z</time><ele>2286.2</ele></trkpt><trkpt lat="42.118759" lon="14.115977"><time>2023-06-30T13:41:56.000Z</time><ele>2286.8</ele></trkpt><trkpt lat="42.118764" lon="14.115977"><time>2023-06-30T13:42:02.000Z</time><ele>2286.8</ele></trkpt><trkpt lat="42.118764" lon="14.115977"><time>2023-06-30T13:42:04.000Z</time><ele>2287</ele></trkpt><trkpt lat="42.118765" lon="14.115977"><time>2023-06-30T13:42:08.000Z</time><ele>2287</ele></trkpt><trkpt lat="42.118754" lon="14.115971"><time>2023-06-30T13:42:45.000Z</time><ele>2287.8</ele></trkpt><trkpt lat="42.118749" lon="14.115971"><time>2023-06-30T13:42:52.000Z</time><ele>2287.6</ele></trkpt><trkpt lat="42.118749" lon="14.115971"><time>2023-06-30T13:43:00.000Z</time><ele>2287.4</ele></trkpt><trkpt lat="42.118748" lon="14.115971"><time>2023-06-30T13:43:08.000Z</time><ele>2286.8</ele></trkpt><trkpt lat="42.118748" lon="14.115972"><time>2023-06-30T13:43:13.000Z</time><ele>2287</ele></trkpt><trkpt lat="42.118743" lon="14.115967"><time>2023-06-30T13:43:31.000Z</time><ele>2287.6</ele></trkpt><trkpt lat="42.118743" lon="14.115967"><time>2023-06-30T13:43:32.000Z</time><ele>2287.4</ele></trkpt><trkpt lat="42.118743" lon="14.115967"><time>2023-06-30T13:43:36.000Z</time><ele>2287.4</ele></trkpt><trkpt lat="42.118743" lon="14.115956"><time>2023-06-30T13:43:40.000Z</time><ele>2287.4</ele></trkpt><trkpt lat="42.118743" lon="14.115956"><time>2023-06-30T13:43:42.000Z</time><ele>2287.6</ele></trkpt><trkpt lat="42.118743" lon="14.115956"><time>2023-06-30T13:43:44.000Z</time><ele>2287.6</ele></trkpt><trkpt lat="42.118744" lon="14.115956"><time>2023-06-30T13:43:50.000Z</time><ele>2288</ele></trkpt><trkpt lat="42.118744" lon="14.115956"><time>2023-06-30T13:43:54.000Z</time><ele>2288.4</ele></trkpt><trkpt lat="42.118745" lon="14.115958"><time>2023-06-30T13:44:07.000Z</time><ele>2288.6</ele></trkpt><trkpt lat="42.118745" lon="14.115957"><time>2023-06-30T13:44:20.000Z</time><ele>2289</ele></trkpt><trkpt lat="42.118748" lon="14.115957"><time>2023-06-30T13:44:31.000Z</time><ele>2289</ele></trkpt><trkpt lat="42.118732" lon="14.115966"><time>2023-06-30T13:44:37.000Z</time><ele>2290</ele></trkpt><trkpt lat="42.118723" lon="14.115971"><time>2023-06-30T13:44:38.000Z</time><ele>2290.2</ele></trkpt><trkpt lat="42.118718" lon="14.115977"><time>2023-06-30T13:44:39.000Z</time><ele>2290.4</ele></trkpt><trkpt lat="42.118678" lon="14.115986"><time>2023-06-30T13:44:42.000Z</time><ele>2291.2</ele></trkpt><trkpt lat="42.118646" lon="14.115991"><time>2023-06-30T13:44:45.000Z</time><ele>2292.2</ele></trkpt><trkpt lat="42.118647" lon="14.115984"><time>2023-06-30T13:44:46.000Z</time><ele>2292.6</ele></trkpt><trkpt lat="42.118625" lon="14.115985"><time>2023-06-30T13:44:52.000Z</time><ele>2293.2</ele></trkpt><trkpt lat="42.118615" lon="14.116"><time>2023-06-30T13:44:55.000Z</time><ele>2293.6</ele></trkpt><trkpt lat="42.118603" lon="14.115997"><time>2023-06-30T13:45:01.000Z</time><ele>2294.2</ele></trkpt><trkpt lat="42.1186" lon="14.115992"><time>2023-06-30T13:45:02.000Z</time><ele>2294.2</ele></trkpt><trkpt lat="42.118598" lon="14.115989"><time>2023-06-30T13:45:03.000Z</time><ele>2294.6</ele></trkpt><trkpt lat="42.118587" lon="14.115974"><time>2023-06-30T13:45:07.000Z</time><ele>2295</ele></trkpt><trkpt lat="42.118578" lon="14.115965"><time>2023-06-30T13:45:08.000Z</time><ele>2295</ele></trkpt><trkpt lat="42.118567" lon="14.11595"><time>2023-06-30T13:45:10.000Z</time><ele>2295.8</ele></trkpt><trkpt lat="42.11857" lon="14.11594"><time>2023-06-30T13:45:11.000Z</time><ele>2296</ele></trkpt><trkpt lat="42.118565" lon="14.115921"><time>2023-06-30T13:45:14.000Z</time><ele>2296.8</ele></trkpt><trkpt lat="42.118556" lon="14.11592"><time>2023-06-30T13:45:15.000Z</time><ele>2296.8</ele></trkpt><trkpt lat="42.118543" lon="14.115912"><time>2023-06-30T13:45:17.000Z</time><ele>2297.2</ele></trkpt><trkpt lat="42.118533" lon="14.115908"><time>2023-06-30T13:45:18.000Z</time><ele>2297.4</ele></trkpt><trkpt lat="42.118524" lon="14.115906"><time>2023-06-30T13:45:20.000Z</time><ele>2298</ele></trkpt><trkpt lat="42.118514" lon="14.115907"><time>2023-06-30T13:45:25.000Z</time><ele>2299</ele></trkpt><trkpt lat="42.118502" lon="14.115914"><time>2023-06-30T13:45:27.000Z</time><ele>2299</ele></trkpt><trkpt lat="42.118491" lon="14.115915"><time>2023-06-30T13:45:30.000Z</time><ele>2299.4</ele></trkpt><trkpt lat="42.118486" lon="14.115918"><time>2023-06-30T13:45:31.000Z</time><ele>2299.6</ele></trkpt><trkpt lat="42.118467" lon="14.115928"><time>2023-06-30T13:45:36.000Z</time><ele>2300</ele></trkpt><trkpt lat="42.118465" lon="14.115928"><time>2023-06-30T13:45:37.000Z</time><ele>2300.2</ele></trkpt><trkpt lat="42.118455" lon="14.115922"><time>2023-06-30T13:45:39.000Z</time><ele>2300.4</ele></trkpt><trkpt lat="42.118452" lon="14.115919"><time>2023-06-30T13:45:40.000Z</time><ele>2300.4</ele></trkpt><trkpt lat="42.118449" lon="14.115915"><time>2023-06-30T13:45:41.000Z</time><ele>2300.6</ele></trkpt><trkpt lat="42.118437" lon="14.115905"><time>2023-06-30T13:45:45.000Z</time><ele>2301.2</ele></trkpt><trkpt lat="42.118429" lon="14.115887"><time>2023-06-30T13:45:49.000Z</time><ele>2301.8</ele></trkpt><trkpt lat="42.118424" lon="14.115876"><time>2023-06-30T13:45:51.000Z</time><ele>2302.4</ele></trkpt><trkpt lat="42.118424" lon="14.11587"><time>2023-06-30T13:45:57.000Z</time><ele>2303.2</ele></trkpt><trkpt lat="42.118424" lon="14.11587"><time>2023-06-30T13:45:59.000Z</time><ele>2303.2</ele></trkpt><trkpt lat="42.118424" lon="14.11587"><time>2023-06-30T13:46:02.000Z</time><ele>2303.6</ele></trkpt><trkpt lat="42.118424" lon="14.11587"><time>2023-06-30T13:46:04.000Z</time><ele>2303.8</ele></trkpt><trkpt lat="42.118424" lon="14.11587"><time>2023-06-30T13:46:08.000Z</time><ele>2304.6</ele></trkpt><trkpt lat="42.11832" lon="14.115908"><time>2023-06-30T13:46:24.000Z</time><ele>2304.8</ele></trkpt><trkpt lat="42.118254" lon="14.115908"><time>2023-06-30T13:46:28.000Z</time><ele>2305</ele></trkpt><trkpt lat="42.118243" lon="14.115912"><time>2023-06-30T13:46:29.000Z</time><ele>2305</ele></trkpt><trkpt lat="42.118237" lon="14.115909"><time>2023-06-30T13:46:31.000Z</time><ele>2305</ele></trkpt><trkpt lat="42.118227" lon="14.115904"><time>2023-06-30T13:46:33.000Z</time><ele>2305.2</ele></trkpt><trkpt lat="42.118216" lon="14.11589"><time>2023-06-30T13:46:36.000Z</time><ele>2305.2</ele></trkpt><trkpt lat="42.118203" lon="14.115892"><time>2023-06-30T13:46:37.000Z</time><ele>2305.4</ele></trkpt><trkpt lat="42.118201" lon="14.11589"><time>2023-06-30T13:46:38.000Z</time><ele>2305.6</ele></trkpt><trkpt lat="42.118195" lon="14.115894"><time>2023-06-30T13:46:39.000Z</time><ele>2305.6</ele></trkpt><trkpt lat="42.118182" lon="14.115897"><time>2023-06-30T13:46:41.000Z</time><ele>2306</ele></trkpt><trkpt lat="42.118169" lon="14.115903"><time>2023-06-30T13:46:43.000Z</time><ele>2306.2</ele></trkpt><trkpt lat="42.118159" lon="14.115906"><time>2023-06-30T13:46:44.000Z</time><ele>2306.2</ele></trkpt><trkpt lat="42.118149" lon="14.115909"><time>2023-06-30T13:46:45.000Z</time><ele>2306.4</ele></trkpt><trkpt lat="42.118112" lon="14.115915"><time>2023-06-30T13:46:48.000Z</time><ele>2306.4</ele></trkpt><trkpt lat="42.118082" lon="14.11591"><time>2023-06-30T13:46:51.000Z</time><ele>2306.6</ele></trkpt><trkpt lat="42.11808" lon="14.115912"><time>2023-06-30T13:46:52.000Z</time><ele>2306.6</ele></trkpt><trkpt lat="42.118073" lon="14.115914"><time>2023-06-30T13:46:54.000Z</time><ele>2306.8</ele></trkpt><trkpt lat="42.118062" lon="14.115914"><time>2023-06-30T13:46:57.000Z</time><ele>2307.2</ele></trkpt><trkpt lat="42.118061" lon="14.115915"><time>2023-06-30T13:46:58.000Z</time><ele>2307.4</ele></trkpt><trkpt lat="42.118046" lon="14.115925"><time>2023-06-30T13:47:01.000Z</time><ele>2307.8</ele></trkpt><trkpt lat="42.118021" lon="14.115931"><time>2023-06-30T13:47:03.000Z</time><ele>2308</ele></trkpt><trkpt lat="42.118002" lon="14.115929"><time>2023-06-30T13:47:04.000Z</time><ele>2308.2</ele></trkpt><trkpt lat="42.117985" lon="14.115934"><time>2023-06-30T13:47:06.000Z</time><ele>2308.2</ele></trkpt><trkpt lat="42.11798" lon="14.115938"><time>2023-06-30T13:47:07.000Z</time><ele>2308.4</ele></trkpt><trkpt lat="42.117957" lon="14.11595"><time>2023-06-30T13:47:10.000Z</time><ele>2308.8</ele></trkpt><trkpt lat="42.117948" lon="14.115953"><time>2023-06-30T13:47:11.000Z</time><ele>2309</ele></trkpt><trkpt lat="42.117937" lon="14.115957"><time>2023-06-30T13:47:12.000Z</time><ele>2309.2</ele></trkpt><trkpt lat="42.117927" lon="14.115964"><time>2023-06-30T13:47:14.000Z</time><ele>2309.6</ele></trkpt><trkpt lat="42.117923" lon="14.115968"><time>2023-06-30T13:47:15.000Z</time><ele>2309.8</ele></trkpt><trkpt lat="42.117921" lon="14.115971"><time>2023-06-30T13:47:16.000Z</time><ele>2310</ele></trkpt><trkpt lat="42.117908" lon="14.115968"><time>2023-06-30T13:47:18.000Z</time><ele>2310.2</ele></trkpt><trkpt lat="42.117889" lon="14.115971"><time>2023-06-30T13:47:22.000Z</time><ele>2311</ele></trkpt><trkpt lat="42.117881" lon="14.115987"><time>2023-06-30T13:47:26.000Z</time><ele>2312.2</ele></trkpt><trkpt lat="42.117859" lon="14.115992"><time>2023-06-30T13:47:30.000Z</time><ele>2313</ele></trkpt><trkpt lat="42.117853" lon="14.115994"><time>2023-06-30T13:47:31.000Z</time><ele>2313.2</ele></trkpt><trkpt lat="42.117846" lon="14.115992"><time>2023-06-30T13:47:33.000Z</time><ele>2313.4</ele></trkpt><trkpt lat="42.117841" lon="14.116002"><time>2023-06-30T13:47:34.000Z</time><ele>2313.6</ele></trkpt><trkpt lat="42.117829" lon="14.116016"><time>2023-06-30T13:47:40.000Z</time><ele>2314.2</ele></trkpt><trkpt lat="42.117817" lon="14.116024"><time>2023-06-30T13:47:43.000Z</time><ele>2315</ele></trkpt><trkpt lat="42.11781" lon="14.116024"><time>2023-06-30T13:47:44.000Z</time><ele>2315.2</ele></trkpt><trkpt lat="42.117777" lon="14.116023"><time>2023-06-30T13:47:49.000Z</time><ele>2316</ele></trkpt><trkpt lat="42.117771" lon="14.116028"><time>2023-06-30T13:47:51.000Z</time><ele>2316.4</ele></trkpt><trkpt lat="42.117765" lon="14.116036"><time>2023-06-30T13:47:54.000Z</time><ele>2317</ele></trkpt><trkpt lat="42.117737" lon="14.11605"><time>2023-06-30T13:47:59.000Z</time><ele>2317.6</ele></trkpt><trkpt lat="42.117734" lon="14.116053"><time>2023-06-30T13:48:00.000Z</time><ele>2317.8</ele></trkpt><trkpt lat="42.11771" lon="14.116052"><time>2023-06-30T13:48:04.000Z</time><ele>2318.6</ele></trkpt><trkpt lat="42.117688" lon="14.116056"><time>2023-06-30T13:48:09.000Z</time><ele>2319.6</ele></trkpt><trkpt lat="42.117681" lon="14.116058"><time>2023-06-30T13:48:10.000Z</time><ele>2319.8</ele></trkpt><trkpt lat="42.117665" lon="14.116069"><time>2023-06-30T13:48:15.000Z</time><ele>2320.4</ele></trkpt><trkpt lat="42.117659" lon="14.116068"><time>2023-06-30T13:48:16.000Z</time><ele>2320.8</ele></trkpt><trkpt lat="42.117614" lon="14.116071"><time>2023-06-30T13:48:24.000Z</time><ele>2322.2</ele></trkpt><trkpt lat="42.117607" lon="14.116072"><time>2023-06-30T13:48:25.000Z</time><ele>2322.4</ele></trkpt><trkpt lat="42.117591" lon="14.11608"><time>2023-06-30T13:48:30.000Z</time><ele>2323.2</ele></trkpt><trkpt lat="42.11759" lon="14.116085"><time>2023-06-30T13:48:31.000Z</time><ele>2323.2</ele></trkpt><trkpt lat="42.117559" lon="14.116067"><time>2023-06-30T13:48:38.000Z</time><ele>2324.2</ele></trkpt><trkpt lat="42.117529" lon="14.116081"><time>2023-06-30T13:48:44.000Z</time><ele>2325.2</ele></trkpt><trkpt lat="42.117526" lon="14.116079"><time>2023-06-30T13:48:45.000Z</time><ele>2325.6</ele></trkpt><trkpt lat="42.117514" lon="14.116075"><time>2023-06-30T13:48:49.000Z</time><ele>2326.4</ele></trkpt><trkpt lat="42.117508" lon="14.116085"><time>2023-06-30T13:48:52.000Z</time><ele>2326.8</ele></trkpt><trkpt lat="42.117503" lon="14.116096"><time>2023-06-30T13:48:59.000Z</time><ele>2327.4</ele></trkpt><trkpt lat="42.117499" lon="14.116097"><time>2023-06-30T13:49:01.000Z</time><ele>2327.6</ele></trkpt><trkpt lat="42.117429" lon="14.116122"><time>2023-06-30T13:49:08.000Z</time><ele>2328.4</ele></trkpt><trkpt lat="42.117404" lon="14.116119"><time>2023-06-30T13:49:11.000Z</time><ele>2329.2</ele></trkpt><trkpt lat="42.117395" lon="14.116127"><time>2023-06-30T13:49:14.000Z</time><ele>2329.6</ele></trkpt><trkpt lat="42.117393" lon="14.116137"><time>2023-06-30T13:49:18.000Z</time><ele>2330</ele></trkpt><trkpt lat="42.117379" lon="14.116151"><time>2023-06-30T13:49:23.000Z</time><ele>2330.8</ele></trkpt><trkpt lat="42.117376" lon="14.116156"><time>2023-06-30T13:49:25.000Z</time><ele>2331.2</ele></trkpt><trkpt lat="42.117353" lon="14.116174"><time>2023-06-30T13:49:29.000Z</time><ele>2331.8</ele></trkpt><trkpt lat="42.117345" lon="14.116187"><time>2023-06-30T13:49:32.000Z</time><ele>2332.4</ele></trkpt><trkpt lat="42.117323" lon="14.116202"><time>2023-06-30T13:49:38.000Z</time><ele>2333</ele></trkpt><trkpt lat="42.11731" lon="14.11621"><time>2023-06-30T13:49:40.000Z</time><ele>2333.4</ele></trkpt><trkpt lat="42.117303" lon="14.116226"><time>2023-06-30T13:49:43.000Z</time><ele>2334</ele></trkpt><trkpt lat="42.117271" lon="14.116259"><time>2023-06-30T13:49:50.000Z</time><ele>2335.2</ele></trkpt><trkpt lat="42.117254" lon="14.116278"><time>2023-06-30T13:49:53.000Z</time><ele>2335.4</ele></trkpt><trkpt lat="42.117251" lon="14.116283"><time>2023-06-30T13:49:54.000Z</time><ele>2335.6</ele></trkpt><trkpt lat="42.11725" lon="14.116285"><time>2023-06-30T13:49:55.000Z</time><ele>2335.6</ele></trkpt><trkpt lat="42.117235" lon="14.116295"><time>2023-06-30T13:49:59.000Z</time><ele>2336.2</ele></trkpt><trkpt lat="42.117218" lon="14.11632"><time>2023-06-30T13:50:05.000Z</time><ele>2337.4</ele></trkpt><trkpt lat="42.117205" lon="14.116332"><time>2023-06-30T13:50:09.000Z</time><ele>2338</ele></trkpt><trkpt lat="42.117192" lon="14.116336"><time>2023-06-30T13:50:12.000Z</time><ele>2338.4</ele></trkpt><trkpt lat="42.117172" lon="14.116346"><time>2023-06-30T13:50:16.000Z</time><ele>2339</ele></trkpt><trkpt lat="42.117152" lon="14.116352"><time>2023-06-30T13:50:19.000Z</time><ele>2339.6</ele></trkpt><trkpt lat="42.117125" lon="14.116371"><time>2023-06-30T13:50:23.000Z</time><ele>2340.4</ele></trkpt><trkpt lat="42.117119" lon="14.116375"><time>2023-06-30T13:50:24.000Z</time><ele>2340.6</ele></trkpt><trkpt lat="42.117114" lon="14.11638"><time>2023-06-30T13:50:25.000Z</time><ele>2340.8</ele></trkpt><trkpt lat="42.117077" lon="14.116426"><time>2023-06-30T13:50:31.000Z</time><ele>2341.6</ele></trkpt><trkpt lat="42.117065" lon="14.116437"><time>2023-06-30T13:50:34.000Z</time><ele>2341.8</ele></trkpt><trkpt lat="42.117053" lon="14.116445"><time>2023-06-30T13:50:36.000Z</time><ele>2342.2</ele></trkpt><trkpt lat="42.117032" lon="14.116489"><time>2023-06-30T13:50:42.000Z</time><ele>2342.8</ele></trkpt><trkpt lat="42.117018" lon="14.116504"><time>2023-06-30T13:50:44.000Z</time><ele>2343.2</ele></trkpt><trkpt lat="42.116987" lon="14.116546"><time>2023-06-30T13:50:49.000Z</time><ele>2343.8</ele></trkpt><trkpt lat="42.116962" lon="14.116564"><time>2023-06-30T13:50:52.000Z</time><ele>2344</ele></trkpt><trkpt lat="42.116957" lon="14.116569"><time>2023-06-30T13:50:53.000Z</time><ele>2344.2</ele></trkpt><trkpt lat="42.116907" lon="14.116615"><time>2023-06-30T13:51:00.000Z</time><ele>2345</ele></trkpt><trkpt lat="42.116906" lon="14.116625"><time>2023-06-30T13:51:01.000Z</time><ele>2345.2</ele></trkpt><trkpt lat="42.116861" lon="14.116676"><time>2023-06-30T13:51:08.000Z</time><ele>2345.8</ele></trkpt><trkpt lat="42.116862" lon="14.116682"><time>2023-06-30T13:51:09.000Z</time><ele>2346.2</ele></trkpt><trkpt lat="42.116826" lon="14.116697"><time>2023-06-30T13:51:14.000Z</time><ele>2347</ele></trkpt><trkpt lat="42.116823" lon="14.116699"><time>2023-06-30T13:51:15.000Z</time><ele>2347.2</ele></trkpt><trkpt lat="42.116776" lon="14.116741"><time>2023-06-30T13:51:22.000Z</time><ele>2348.4</ele></trkpt><trkpt lat="42.11677" lon="14.116751"><time>2023-06-30T13:51:23.000Z</time><ele>2348.6</ele></trkpt><trkpt lat="42.116765" lon="14.116762"><time>2023-06-30T13:51:25.000Z</time><ele>2349</ele></trkpt><trkpt lat="42.116759" lon="14.116766"><time>2023-06-30T13:51:26.000Z</time><ele>2349.4</ele></trkpt><trkpt lat="42.116748" lon="14.116782"><time>2023-06-30T13:51:29.000Z</time><ele>2349.8</ele></trkpt><trkpt lat="42.116746" lon="14.116783"><time>2023-06-30T13:51:30.000Z</time><ele>2350</ele></trkpt><trkpt lat="42.116727" lon="14.116794"><time>2023-06-30T13:51:33.000Z</time><ele>2350.4</ele></trkpt><trkpt lat="42.116707" lon="14.116799"><time>2023-06-30T13:51:36.000Z</time><ele>2351</ele></trkpt><trkpt lat="42.116699" lon="14.116815"><time>2023-06-30T13:51:39.000Z</time><ele>2351.4</ele></trkpt><trkpt lat="42.116689" lon="14.116825"><time>2023-06-30T13:51:42.000Z</time><ele>2352</ele></trkpt><trkpt lat="42.116689" lon="14.116833"><time>2023-06-30T13:51:45.000Z</time><ele>2352.6</ele></trkpt><trkpt lat="42.116682" lon="14.116834"><time>2023-06-30T13:51:48.000Z</time><ele>2353.4</ele></trkpt><trkpt lat="42.11667" lon="14.116837"><time>2023-06-30T13:51:50.000Z</time><ele>2353.8</ele></trkpt><trkpt lat="42.116646" lon="14.116851"><time>2023-06-30T13:51:55.000Z</time><ele>2354.4</ele></trkpt><trkpt lat="42.11663" lon="14.116847"><time>2023-06-30T13:51:58.000Z</time><ele>2355.2</ele></trkpt><trkpt lat="42.116623" lon="14.116851"><time>2023-06-30T13:52:01.000Z</time><ele>2356</ele></trkpt><trkpt lat="42.116619" lon="14.116852"><time>2023-06-30T13:52:03.000Z</time><ele>2356.4</ele></trkpt><trkpt lat="42.116609" lon="14.116862"><time>2023-06-30T13:52:07.000Z</time><ele>2357</ele></trkpt><trkpt lat="42.116599" lon="14.116867"><time>2023-06-30T13:52:10.000Z</time><ele>2357.4</ele></trkpt><trkpt lat="42.11659" lon="14.116869"><time>2023-06-30T13:52:14.000Z</time><ele>2358.4</ele></trkpt><trkpt lat="42.116587" lon="14.116871"><time>2023-06-30T13:52:15.000Z</time><ele>2358.6</ele></trkpt><trkpt lat="42.116572" lon="14.116885"><time>2023-06-30T13:52:20.000Z</time><ele>2359.6</ele></trkpt><trkpt lat="42.116569" lon="14.116888"><time>2023-06-30T13:52:21.000Z</time><ele>2359.6</ele></trkpt><trkpt lat="42.116559" lon="14.116911"><time>2023-06-30T13:52:27.000Z</time><ele>2360.6</ele></trkpt><trkpt lat="42.116555" lon="14.116911"><time>2023-06-30T13:52:28.000Z</time><ele>2360.8</ele></trkpt><trkpt lat="42.116535" lon="14.116924"><time>2023-06-30T13:52:32.000Z</time><ele>2361.8</ele></trkpt><trkpt lat="42.116522" lon="14.116931"><time>2023-06-30T13:52:34.000Z</time><ele>2362.2</ele></trkpt><trkpt lat="42.116516" lon="14.116943"><time>2023-06-30T13:52:36.000Z</time><ele>2362.4</ele></trkpt><trkpt lat="42.116512" lon="14.116978"><time>2023-06-30T13:52:41.000Z</time><ele>2362.6</ele></trkpt><trkpt lat="42.116505" lon="14.117002"><time>2023-06-30T13:52:44.000Z</time><ele>2362.4</ele></trkpt><trkpt lat="42.116504" lon="14.11701"><time>2023-06-30T13:52:45.000Z</time><ele>2362.2</ele></trkpt><trkpt lat="42.116503" lon="14.117025"><time>2023-06-30T13:52:47.000Z</time><ele>2362.2</ele></trkpt><trkpt lat="42.116484" lon="14.117036"><time>2023-06-30T13:52:50.000Z</time><ele>2362.6</ele></trkpt><trkpt lat="42.116476" lon="14.117048"><time>2023-06-30T13:52:52.000Z</time><ele>2362.8</ele></trkpt><trkpt lat="42.116474" lon="14.117053"><time>2023-06-30T13:52:53.000Z</time><ele>2363</ele></trkpt><trkpt lat="42.116469" lon="14.11708"><time>2023-06-30T13:52:55.000Z</time><ele>2363</ele></trkpt><trkpt lat="42.116463" lon="14.117092"><time>2023-06-30T13:52:58.000Z</time><ele>2363</ele></trkpt><trkpt lat="42.116462" lon="14.117094"><time>2023-06-30T13:53:01.000Z</time><ele>2363</ele></trkpt><trkpt lat="42.116446" lon="14.117105"><time>2023-06-30T13:53:04.000Z</time><ele>2363</ele></trkpt><trkpt lat="42.116436" lon="14.117116"><time>2023-06-30T13:53:07.000Z</time><ele>2363.8</ele></trkpt><trkpt lat="42.116433" lon="14.117116"><time>2023-06-30T13:53:08.000Z</time><ele>2364</ele></trkpt><trkpt lat="42.116417" lon="14.117138"><time>2023-06-30T13:53:15.000Z</time><ele>2364.8</ele></trkpt><trkpt lat="42.116417" lon="14.11715"><time>2023-06-30T13:53:17.000Z</time><ele>2365.2</ele></trkpt><trkpt lat="42.116416" lon="14.11718"><time>2023-06-30T13:53:22.000Z</time><ele>2366</ele></trkpt><trkpt lat="42.116412" lon="14.117197"><time>2023-06-30T13:53:25.000Z</time><ele>2366.2</ele></trkpt><trkpt lat="42.116402" lon="14.117214"><time>2023-06-30T13:53:28.000Z</time><ele>2366.6</ele></trkpt><trkpt lat="42.116399" lon="14.117223"><time>2023-06-30T13:53:29.000Z</time><ele>2366.6</ele></trkpt><trkpt lat="42.116397" lon="14.11723"><time>2023-06-30T13:53:30.000Z</time><ele>2366.8</ele></trkpt><trkpt lat="42.116398" lon="14.11724"><time>2023-06-30T13:53:32.000Z</time><ele>2366.8</ele></trkpt><trkpt lat="42.116393" lon="14.117254"><time>2023-06-30T13:53:34.000Z</time><ele>2367.2</ele></trkpt><trkpt lat="42.116384" lon="14.117263"><time>2023-06-30T13:53:36.000Z</time><ele>2367.4</ele></trkpt><trkpt lat="42.116375" lon="14.117269"><time>2023-06-30T13:53:37.000Z</time><ele>2367.6</ele></trkpt><trkpt lat="42.116366" lon="14.117289"><time>2023-06-30T13:53:40.000Z</time><ele>2368.2</ele></trkpt><trkpt lat="42.116361" lon="14.117295"><time>2023-06-30T13:53:42.000Z</time><ele>2368.4</ele></trkpt><trkpt lat="42.11636" lon="14.117299"><time>2023-06-30T13:53:43.000Z</time><ele>2368.8</ele></trkpt><trkpt lat="42.116359" lon="14.117302"><time>2023-06-30T13:53:44.000Z</time><ele>2369</ele></trkpt><trkpt lat="42.116363" lon="14.117305"><time>2023-06-30T13:53:45.000Z</time><ele>2369.4</ele></trkpt><trkpt lat="42.116361" lon="14.117305"><time>2023-06-30T13:53:46.000Z</time><ele>2369.6</ele></trkpt><trkpt lat="42.116361" lon="14.117306"><time>2023-06-30T13:53:47.000Z</time><ele>2369.8</ele></trkpt><trkpt lat="42.116347" lon="14.117311"><time>2023-06-30T13:53:51.000Z</time><ele>2370.4</ele></trkpt><trkpt lat="42.116341" lon="14.117325"><time>2023-06-30T13:53:53.000Z</time><ele>2370.8</ele></trkpt><trkpt lat="42.116345" lon="14.117354"><time>2023-06-30T13:53:57.000Z</time><ele>2371.4</ele></trkpt><trkpt lat="42.116344" lon="14.117358"><time>2023-06-30T13:53:58.000Z</time><ele>2371.6</ele></trkpt><trkpt lat="42.116335" lon="14.117372"><time>2023-06-30T13:54:01.000Z</time><ele>2372</ele></trkpt><trkpt lat="42.116332" lon="14.117381"><time>2023-06-30T13:54:03.000Z</time><ele>2372.2</ele></trkpt><trkpt lat="42.11633" lon="14.117386"><time>2023-06-30T13:54:04.000Z</time><ele>2372.2</ele></trkpt><trkpt lat="42.116329" lon="14.117393"><time>2023-06-30T13:54:06.000Z</time><ele>2372.6</ele></trkpt><trkpt lat="42.116322" lon="14.117414"><time>2023-06-30T13:54:10.000Z</time><ele>2373.2</ele></trkpt><trkpt lat="42.116319" lon="14.117423"><time>2023-06-30T13:54:11.000Z</time><ele>2373.4</ele></trkpt><trkpt lat="42.116304" lon="14.117462"><time>2023-06-30T13:54:17.000Z</time><ele>2374.2</ele></trkpt><trkpt lat="42.116302" lon="14.117471"><time>2023-06-30T13:54:19.000Z</time><ele>2374.6</ele></trkpt><trkpt lat="42.11628" lon="14.11749"><time>2023-06-30T13:54:24.000Z</time><ele>2375.4</ele></trkpt><trkpt lat="42.116274" lon="14.117497"><time>2023-06-30T13:54:26.000Z</time><ele>2375.8</ele></trkpt><trkpt lat="42.11625" lon="14.117524"><time>2023-06-30T13:54:31.000Z</time><ele>2376.4</ele></trkpt><trkpt lat="42.116251" lon="14.117533"><time>2023-06-30T13:54:33.000Z</time><ele>2376.6</ele></trkpt><trkpt lat="42.116251" lon="14.11755"><time>2023-06-30T13:54:38.000Z</time><ele>2377</ele></trkpt><trkpt lat="42.116244" lon="14.117556"><time>2023-06-30T13:54:39.000Z</time><ele>2377.4</ele></trkpt><trkpt lat="42.116232" lon="14.117573"><time>2023-06-30T13:54:43.000Z</time><ele>2378</ele></trkpt><trkpt lat="42.116222" lon="14.117617"><time>2023-06-30T13:54:50.000Z</time><ele>2378.6</ele></trkpt><trkpt lat="42.116221" lon="14.117617"><time>2023-06-30T13:54:51.000Z</time><ele>2378.8</ele></trkpt><trkpt lat="42.116205" lon="14.117643"><time>2023-06-30T13:54:57.000Z</time><ele>2380</ele></trkpt><trkpt lat="42.116204" lon="14.117674"><time>2023-06-30T13:55:02.000Z</time><ele>2381</ele></trkpt><trkpt lat="42.1162" lon="14.11768"><time>2023-06-30T13:55:03.000Z</time><ele>2381</ele></trkpt><trkpt lat="42.116173" lon="14.117713"><time>2023-06-30T13:55:10.000Z</time><ele>2382</ele></trkpt><trkpt lat="42.116156" lon="14.117717"><time>2023-06-30T13:55:12.000Z</time><ele>2382.8</ele></trkpt><trkpt lat="42.116145" lon="14.117721"><time>2023-06-30T13:55:14.000Z</time><ele>2383.4</ele></trkpt><trkpt lat="42.116148" lon="14.117718"><time>2023-06-30T13:55:17.000Z</time><ele>2384.4</ele></trkpt><trkpt lat="42.116143" lon="14.117712"><time>2023-06-30T13:55:19.000Z</time><ele>2384.8</ele></trkpt><trkpt lat="42.116127" lon="14.117725"><time>2023-06-30T13:55:22.000Z</time><ele>2385.6</ele></trkpt><trkpt lat="42.116124" lon="14.117728"><time>2023-06-30T13:55:24.000Z</time><ele>2385.6</ele></trkpt><trkpt lat="42.116106" lon="14.117764"><time>2023-06-30T13:55:31.000Z</time><ele>2386.6</ele></trkpt><trkpt lat="42.116106" lon="14.117769"><time>2023-06-30T13:55:32.000Z</time><ele>2386.8</ele></trkpt><trkpt lat="42.116094" lon="14.117826"><time>2023-06-30T13:55:40.000Z</time><ele>2387.8</ele></trkpt><trkpt lat="42.116093" lon="14.117833"><time>2023-06-30T13:55:41.000Z</time><ele>2388</ele></trkpt><trkpt lat="42.116086" lon="14.117893"><time>2023-06-30T13:55:48.000Z</time><ele>2389</ele></trkpt><trkpt lat="42.11608" lon="14.117902"><time>2023-06-30T13:55:50.000Z</time><ele>2389.4</ele></trkpt><trkpt lat="42.116081" lon="14.117922"><time>2023-06-30T13:55:53.000Z</time><ele>2390</ele></trkpt><trkpt lat="42.116068" lon="14.117934"><time>2023-06-30T13:55:56.000Z</time><ele>2390.4</ele></trkpt><trkpt lat="42.116064" lon="14.117942"><time>2023-06-30T13:55:57.000Z</time><ele>2390.4</ele></trkpt><trkpt lat="42.116059" lon="14.117965"><time>2023-06-30T13:56:00.000Z</time><ele>2391</ele></trkpt><trkpt lat="42.116056" lon="14.117971"><time>2023-06-30T13:56:01.000Z</time><ele>2391.2</ele></trkpt><trkpt lat="42.116055" lon="14.117977"><time>2023-06-30T13:56:02.000Z</time><ele>2391.4</ele></trkpt><trkpt lat="42.11604" lon="14.118003"><time>2023-06-30T13:56:05.000Z</time><ele>2392</ele></trkpt><trkpt lat="42.116031" lon="14.118022"><time>2023-06-30T13:56:07.000Z</time><ele>2392.4</ele></trkpt><trkpt lat="42.11602" lon="14.118041"><time>2023-06-30T13:56:09.000Z</time><ele>2392.4</ele></trkpt><trkpt lat="42.116017" lon="14.118051"><time>2023-06-30T13:56:10.000Z</time><ele>2392.6</ele></trkpt><trkpt lat="42.116016" lon="14.118059"><time>2023-06-30T13:56:11.000Z</time><ele>2392.6</ele></trkpt><trkpt lat="42.116006" lon="14.11807"><time>2023-06-30T13:56:13.000Z</time><ele>2393</ele></trkpt><trkpt lat="42.116003" lon="14.118078"><time>2023-06-30T13:56:14.000Z</time><ele>2393.4</ele></trkpt><trkpt lat="42.115999" lon="14.118086"><time>2023-06-30T13:56:15.000Z</time><ele>2393.8</ele></trkpt><trkpt lat="42.115977" lon="14.118104"><time>2023-06-30T13:56:18.000Z</time><ele>2394.8</ele></trkpt><trkpt lat="42.115963" lon="14.118122"><time>2023-06-30T13:56:21.000Z</time><ele>2395.8</ele></trkpt><trkpt lat="42.115958" lon="14.118141"><time>2023-06-30T13:56:24.000Z</time><ele>2396.6</ele></trkpt><trkpt lat="42.115955" lon="14.118147"><time>2023-06-30T13:56:25.000Z</time><ele>2396.8</ele></trkpt><trkpt lat="42.115953" lon="14.118151"><time>2023-06-30T13:56:26.000Z</time><ele>2397</ele></trkpt><trkpt lat="42.115961" lon="14.118183"><time>2023-06-30T13:56:31.000Z</time><ele>2398</ele></trkpt><trkpt lat="42.115964" lon="14.118212"><time>2023-06-30T13:56:34.000Z</time><ele>2399</ele></trkpt><trkpt lat="42.115959" lon="14.118219"><time>2023-06-30T13:56:35.000Z</time><ele>2399.2</ele></trkpt><trkpt lat="42.115948" lon="14.118242"><time>2023-06-30T13:56:39.000Z</time><ele>2400.2</ele></trkpt><trkpt lat="42.115945" lon="14.118253"><time>2023-06-30T13:56:41.000Z</time><ele>2400.8</ele></trkpt><trkpt lat="42.115938" lon="14.118265"><time>2023-06-30T13:56:43.000Z</time><ele>2401.4</ele></trkpt><trkpt lat="42.115932" lon="14.118297"><time>2023-06-30T13:56:48.000Z</time><ele>2402.4</ele></trkpt><trkpt lat="42.115926" lon="14.118341"><time>2023-06-30T13:56:54.000Z</time><ele>2403.6</ele></trkpt><trkpt lat="42.115915" lon="14.118356"><time>2023-06-30T13:56:56.000Z</time><ele>2404</ele></trkpt><trkpt lat="42.115908" lon="14.118379"><time>2023-06-30T13:56:59.000Z</time><ele>2404.8</ele></trkpt><trkpt lat="42.115907" lon="14.11843"><time>2023-06-30T13:57:04.000Z</time><ele>2405.6</ele></trkpt><trkpt lat="42.115909" lon="14.11844"><time>2023-06-30T13:57:05.000Z</time><ele>2405.8</ele></trkpt><trkpt lat="42.115892" lon="14.118498"><time>2023-06-30T13:57:11.000Z</time><ele>2406.8</ele></trkpt><trkpt lat="42.115883" lon="14.118533"><time>2023-06-30T13:57:14.000Z</time><ele>2407.6</ele></trkpt><trkpt lat="42.115881" lon="14.118553"><time>2023-06-30T13:57:16.000Z</time><ele>2408</ele></trkpt><trkpt lat="42.115838" lon="14.118586"><time>2023-06-30T13:58:25.000Z</time><ele>2411.4</ele></trkpt><trkpt lat="42.115824" lon="14.118655"><time>2023-06-30T13:58:36.000Z</time><ele>2411.2</ele></trkpt><trkpt lat="42.115832" lon="14.118637"><time>2023-06-30T13:58:43.000Z</time><ele>2411.6</ele></trkpt><trkpt lat="42.115834" lon="14.11864"><time>2023-06-30T13:58:50.000Z</time><ele>2411.8</ele></trkpt><trkpt lat="42.115847" lon="14.118651"><time>2023-06-30T13:58:54.000Z</time><ele>2412.2</ele></trkpt><trkpt lat="42.115857" lon="14.118667"><time>2023-06-30T13:58:56.000Z</time><ele>2412.4</ele></trkpt><trkpt lat="42.115856" lon="14.11867"><time>2023-06-30T13:58:57.000Z</time><ele>2412.4</ele></trkpt><trkpt lat="42.115873" lon="14.11869"><time>2023-06-30T13:59:03.000Z</time><ele>2412.6</ele></trkpt><trkpt lat="42.115888" lon="14.118735"><time>2023-06-30T13:59:07.000Z</time><ele>2413.4</ele></trkpt><trkpt lat="42.115899" lon="14.118763"><time>2023-06-30T13:59:09.000Z</time><ele>2413.8</ele></trkpt><trkpt lat="42.115884" lon="14.118812"><time>2023-06-30T13:59:14.000Z</time><ele>2414.4</ele></trkpt><trkpt lat="42.115882" lon="14.118855"><time>2023-06-30T13:59:18.000Z</time><ele>2414.8</ele></trkpt><trkpt lat="42.11588" lon="14.118877"><time>2023-06-30T13:59:20.000Z</time><ele>2415</ele></trkpt><trkpt lat="42.115872" lon="14.118919"><time>2023-06-30T13:59:25.000Z</time><ele>2415.2</ele></trkpt><trkpt lat="42.115869" lon="14.118943"><time>2023-06-30T13:59:28.000Z</time><ele>2415.4</ele></trkpt><trkpt lat="42.11587" lon="14.118961"><time>2023-06-30T13:59:30.000Z</time><ele>2415.6</ele></trkpt><trkpt lat="42.115866" lon="14.118984"><time>2023-06-30T13:59:32.000Z</time><ele>2416</ele></trkpt><trkpt lat="42.115838" lon="14.118992"><time>2023-06-30T13:59:35.000Z</time><ele>2416.8</ele></trkpt><trkpt lat="42.115832" lon="14.118985"><time>2023-06-30T13:59:38.000Z</time><ele>2417.6</ele></trkpt><trkpt lat="42.115829" lon="14.119"><time>2023-06-30T13:59:40.000Z</time><ele>2418</ele></trkpt><trkpt lat="42.115829" lon="14.119028"><time>2023-06-30T13:59:44.000Z</time><ele>2419</ele></trkpt><trkpt lat="42.115824" lon="14.119031"><time>2023-06-30T13:59:45.000Z</time><ele>2419.2</ele></trkpt><trkpt lat="42.115824" lon="14.119047"><time>2023-06-30T13:59:47.000Z</time><ele>2419.4</ele></trkpt><trkpt lat="42.115815" lon="14.119058"><time>2023-06-30T13:59:50.000Z</time><ele>2420</ele></trkpt><trkpt lat="42.115805" lon="14.119063"><time>2023-06-30T13:59:52.000Z</time><ele>2420.4</ele></trkpt><trkpt lat="42.11581" lon="14.119069"><time>2023-06-30T13:59:53.000Z</time><ele>2420.6</ele></trkpt><trkpt lat="42.115806" lon="14.11908"><time>2023-06-30T13:59:54.000Z</time><ele>2420.6</ele></trkpt><trkpt lat="42.115803" lon="14.119083"><time>2023-06-30T13:59:55.000Z</time><ele>2420.8</ele></trkpt><trkpt lat="42.115791" lon="14.119094"><time>2023-06-30T13:59:57.000Z</time><ele>2421.4</ele></trkpt><trkpt lat="42.115772" lon="14.119108"><time>2023-06-30T14:00:00.000Z</time><ele>2422</ele></trkpt><trkpt lat="42.115761" lon="14.119129"><time>2023-06-30T14:00:04.000Z</time><ele>2422.4</ele></trkpt><trkpt lat="42.11575" lon="14.119129"><time>2023-06-30T14:00:06.000Z</time><ele>2422.6</ele></trkpt><trkpt lat="42.115745" lon="14.119136"><time>2023-06-30T14:00:08.000Z</time><ele>2423</ele></trkpt><trkpt lat="42.115744" lon="14.119144"><time>2023-06-30T14:00:10.000Z</time><ele>2423.4</ele></trkpt><trkpt lat="42.115744" lon="14.119148"><time>2023-06-30T14:00:11.000Z</time><ele>2423.4</ele></trkpt><trkpt lat="42.115743" lon="14.119151"><time>2023-06-30T14:00:12.000Z</time><ele>2423.4</ele></trkpt><trkpt lat="42.11573" lon="14.119192"><time>2023-06-30T14:00:18.000Z</time><ele>2424.4</ele></trkpt><trkpt lat="42.115729" lon="14.119201"><time>2023-06-30T14:00:19.000Z</time><ele>2424.8</ele></trkpt><trkpt lat="42.115723" lon="14.119204"><time>2023-06-30T14:00:21.000Z</time><ele>2425.4</ele></trkpt><trkpt lat="42.115719" lon="14.119206"><time>2023-06-30T14:00:22.000Z</time><ele>2425.8</ele></trkpt><trkpt lat="42.115714" lon="14.119207"><time>2023-06-30T14:00:23.000Z</time><ele>2425.8</ele></trkpt><trkpt lat="42.115723" lon="14.119226"><time>2023-06-30T14:00:26.000Z</time><ele>2426</ele></trkpt><trkpt lat="42.11572" lon="14.119231"><time>2023-06-30T14:00:27.000Z</time><ele>2426</ele></trkpt><trkpt lat="42.115704" lon="14.119233"><time>2023-06-30T14:00:29.000Z</time><ele>2426</ele></trkpt><trkpt lat="42.115677" lon="14.119246"><time>2023-06-30T14:00:33.000Z</time><ele>2427.2</ele></trkpt><trkpt lat="42.115654" lon="14.119227"><time>2023-06-30T14:00:37.000Z</time><ele>2428.4</ele></trkpt><trkpt lat="42.115646" lon="14.119225"><time>2023-06-30T14:00:39.000Z</time><ele>2428.8</ele></trkpt><trkpt lat="42.115649" lon="14.119241"><time>2023-06-30T14:00:44.000Z</time><ele>2429</ele></trkpt><trkpt lat="42.115638" lon="14.119251"><time>2023-06-30T14:00:47.000Z</time><ele>2429.6</ele></trkpt><trkpt lat="42.115631" lon="14.119262"><time>2023-06-30T14:00:51.000Z</time><ele>2430.2</ele></trkpt><trkpt lat="42.115631" lon="14.119262"><time>2023-06-30T14:00:53.000Z</time><ele>2430.2</ele></trkpt><trkpt lat="42.115631" lon="14.119262"><time>2023-06-30T14:00:56.000Z</time><ele>2430.2</ele></trkpt><trkpt lat="42.115631" lon="14.119262"><time>2023-06-30T14:00:59.000Z</time><ele>2430.6</ele></trkpt><trkpt lat="42.115631" lon="14.119262"><time>2023-06-30T14:01:04.000Z</time><ele>2431.6</ele></trkpt><trkpt lat="42.11561" lon="14.119264"><time>2023-06-30T14:01:15.000Z</time><ele>2433</ele></trkpt><trkpt lat="42.115601" lon="14.119277"><time>2023-06-30T14:01:20.000Z</time><ele>2434.2</ele></trkpt><trkpt lat="42.115578" lon="14.1193"><time>2023-06-30T14:01:26.000Z</time><ele>2435</ele></trkpt><trkpt lat="42.115565" lon="14.119312"><time>2023-06-30T14:01:28.000Z</time><ele>2435.2</ele></trkpt><trkpt lat="42.115544" lon="14.119344"><time>2023-06-30T14:01:36.000Z</time><ele>2436.4</ele></trkpt><trkpt lat="42.115524" lon="14.119344"><time>2023-06-30T14:01:41.000Z</time><ele>2437.4</ele></trkpt><trkpt lat="42.115504" lon="14.119343"><time>2023-06-30T14:01:49.000Z</time><ele>2438.4</ele></trkpt><trkpt lat="42.115495" lon="14.119333"><time>2023-06-30T14:01:58.000Z</time><ele>2439.6</ele></trkpt><trkpt lat="42.115478" lon="14.119333"><time>2023-06-30T14:02:03.000Z</time><ele>2440.8</ele></trkpt><trkpt lat="42.115464" lon="14.119345"><time>2023-06-30T14:02:09.000Z</time><ele>2441.8</ele></trkpt><trkpt lat="42.115441" lon="14.119362"><time>2023-06-30T14:02:14.000Z</time><ele>2443</ele></trkpt><trkpt lat="42.115394" lon="14.119385"><time>2023-06-30T14:02:27.000Z</time><ele>2444</ele></trkpt><trkpt lat="42.115386" lon="14.119402"><time>2023-06-30T14:02:31.000Z</time><ele>2444.6</ele></trkpt><trkpt lat="42.115381" lon="14.119416"><time>2023-06-30T14:02:34.000Z</time><ele>2445</ele></trkpt><trkpt lat="42.115378" lon="14.119425"><time>2023-06-30T14:02:38.000Z</time><ele>2445.8</ele></trkpt><trkpt lat="42.115376" lon="14.119431"><time>2023-06-30T14:02:40.000Z</time><ele>2446</ele></trkpt><trkpt lat="42.115353" lon="14.119447"><time>2023-06-30T14:02:46.000Z</time><ele>2447.2</ele></trkpt><trkpt lat="42.115339" lon="14.119462"><time>2023-06-30T14:02:49.000Z</time><ele>2447.6</ele></trkpt><trkpt lat="42.115325" lon="14.119487"><time>2023-06-30T14:02:55.000Z</time><ele>2448.2</ele></trkpt><trkpt lat="42.115307" lon="14.119503"><time>2023-06-30T14:03:00.000Z</time><ele>2449.2</ele></trkpt><trkpt lat="42.115282" lon="14.119526"><time>2023-06-30T14:03:07.000Z</time><ele>2450</ele></trkpt><trkpt lat="42.115238" lon="14.119609"><time>2023-06-30T14:03:12.000Z</time><ele>2450.4</ele></trkpt><trkpt lat="42.115227" lon="14.119648"><time>2023-06-30T14:03:14.000Z</time><ele>2450.4</ele></trkpt><trkpt lat="42.115207" lon="14.11972"><time>2023-06-30T14:03:18.000Z</time><ele>2450.6</ele></trkpt><trkpt lat="42.115206" lon="14.119737"><time>2023-06-30T14:03:20.000Z</time><ele>2451</ele></trkpt><trkpt lat="42.1152" lon="14.119768"><time>2023-06-30T14:03:23.000Z</time><ele>2451.4</ele></trkpt><trkpt lat="42.115186" lon="14.119804"><time>2023-06-30T14:03:28.000Z</time><ele>2452</ele></trkpt><trkpt lat="42.115167" lon="14.119848"><time>2023-06-30T14:03:34.000Z</time><ele>2452.6</ele></trkpt><trkpt lat="42.115159" lon="14.119875"><time>2023-06-30T14:03:37.000Z</time><ele>2452.8</ele></trkpt><trkpt lat="42.115159" lon="14.119885"><time>2023-06-30T14:03:38.000Z</time><ele>2452.8</ele></trkpt><trkpt lat="42.115157" lon="14.119907"><time>2023-06-30T14:03:40.000Z</time><ele>2453</ele></trkpt><trkpt lat="42.115153" lon="14.119935"><time>2023-06-30T14:03:43.000Z</time><ele>2453</ele></trkpt><trkpt lat="42.115151" lon="14.119955"><time>2023-06-30T14:03:45.000Z</time><ele>2453</ele></trkpt><trkpt lat="42.115147" lon="14.119984"><time>2023-06-30T14:03:48.000Z</time><ele>2453</ele></trkpt><trkpt lat="42.115144" lon="14.119997"><time>2023-06-30T14:03:50.000Z</time><ele>2453</ele></trkpt><trkpt lat="42.115141" lon="14.120015"><time>2023-06-30T14:03:54.000Z</time><ele>2453.4</ele></trkpt><trkpt lat="42.11514" lon="14.120016"><time>2023-06-30T14:03:56.000Z</time><ele>2454</ele></trkpt><trkpt lat="42.11514" lon="14.120018"><time>2023-06-30T14:04:03.000Z</time><ele>2454.4</ele></trkpt><trkpt lat="42.11514" lon="14.120018"><time>2023-06-30T14:04:09.000Z</time><ele>2454.2</ele></trkpt><trkpt lat="42.11514" lon="14.120018"><time>2023-06-30T14:04:13.000Z</time><ele>2454.2</ele></trkpt><trkpt lat="42.115139" lon="14.120019"><time>2023-06-30T14:04:18.000Z</time><ele>2454.2</ele></trkpt><trkpt lat="42.115127" lon="14.120053"><time>2023-06-30T14:04:24.000Z</time><ele>2454.8</ele></trkpt><trkpt lat="42.11512" lon="14.120099"><time>2023-06-30T14:04:26.000Z</time><ele>2455.2</ele></trkpt><trkpt lat="42.115111" lon="14.120165"><time>2023-06-30T14:04:29.000Z</time><ele>2455.2</ele></trkpt><trkpt lat="42.115093" lon="14.120256"><time>2023-06-30T14:04:33.000Z</time><ele>2455.8</ele></trkpt><trkpt lat="42.115088" lon="14.120289"><time>2023-06-30T14:04:37.000Z</time><ele>2456</ele></trkpt><trkpt lat="42.11507" lon="14.120323"><time>2023-06-30T14:04:41.000Z</time><ele>2456.2</ele></trkpt><trkpt lat="42.115059" lon="14.120347"><time>2023-06-30T14:04:46.000Z</time><ele>2456.8</ele></trkpt><trkpt lat="42.115056" lon="14.120349"><time>2023-06-30T14:04:49.000Z</time><ele>2457.2</ele></trkpt><trkpt lat="42.115067" lon="14.120387"><time>2023-06-30T14:04:57.000Z</time><ele>2457.4</ele></trkpt><trkpt lat="42.115091" lon="14.120457"><time>2023-06-30T14:05:05.000Z</time><ele>2457.6</ele></trkpt><trkpt lat="42.115103" lon="14.120486"><time>2023-06-30T14:05:13.000Z</time><ele>2458</ele></trkpt><trkpt lat="42.115106" lon="14.120493"><time>2023-06-30T14:05:20.000Z</time><ele>2458.2</ele></trkpt><trkpt lat="42.115106" lon="14.120493"><time>2023-06-30T14:05:24.000Z</time><ele>2458.4</ele></trkpt><trkpt lat="42.115108" lon="14.120492"><time>2023-06-30T14:05:40.000Z</time><ele>2458.2</ele></trkpt><trkpt lat="42.115108" lon="14.120492"><time>2023-06-30T14:05:43.000Z</time><ele>2458</ele></trkpt><trkpt lat="42.115108" lon="14.120492"><time>2023-06-30T14:05:44.000Z</time><ele>2458</ele></trkpt><trkpt lat="42.115108" lon="14.120492"><time>2023-06-30T14:05:46.000Z</time><ele>2458</ele></trkpt><trkpt lat="42.115108" lon="14.120492"><time>2023-06-30T14:05:51.000Z</time><ele>2459</ele></trkpt><trkpt lat="42.115108" lon="14.120492"><time>2023-06-30T14:05:53.000Z</time><ele>2459.2</ele></trkpt><trkpt lat="42.115133" lon="14.120595"><time>2023-06-30T14:06:08.000Z</time><ele>2459</ele></trkpt><trkpt lat="42.115135" lon="14.120617"><time>2023-06-30T14:06:09.000Z</time><ele>2459</ele></trkpt><trkpt lat="42.115142" lon="14.12072"><time>2023-06-30T14:06:15.000Z</time><ele>2458.2</ele></trkpt><trkpt lat="42.115141" lon="14.120734"><time>2023-06-30T14:06:17.000Z</time><ele>2458</ele></trkpt><trkpt lat="42.115145" lon="14.12076"><time>2023-06-30T14:06:21.000Z</time><ele>2457.8</ele></trkpt><trkpt lat="42.115146" lon="14.120766"><time>2023-06-30T14:06:22.000Z</time><ele>2457.6</ele></trkpt><trkpt lat="42.115149" lon="14.120781"><time>2023-06-30T14:06:24.000Z</time><ele>2457.4</ele></trkpt><trkpt lat="42.115148" lon="14.120786"><time>2023-06-30T14:06:25.000Z</time><ele>2457.2</ele></trkpt><trkpt lat="42.115146" lon="14.120802"><time>2023-06-30T14:06:27.000Z</time><ele>2457.2</ele></trkpt><trkpt lat="42.115156" lon="14.120814"><time>2023-06-30T14:06:29.000Z</time><ele>2457.2</ele></trkpt><trkpt lat="42.115164" lon="14.120818"><time>2023-06-30T14:06:31.000Z</time><ele>2457.2</ele></trkpt><trkpt lat="42.115168" lon="14.120819"><time>2023-06-30T14:06:33.000Z</time><ele>2457.4</ele></trkpt><trkpt lat="42.115177" lon="14.120822"><time>2023-06-30T14:06:37.000Z</time><ele>2457.8</ele></trkpt><trkpt lat="42.115177" lon="14.12083"><time>2023-06-30T14:06:49.000Z</time><ele>2457.6</ele></trkpt><trkpt lat="42.115177" lon="14.120819"><time>2023-06-30T14:06:59.000Z</time><ele>2457.4</ele></trkpt><trkpt lat="42.11519" lon="14.120766"><time>2023-06-30T14:07:11.000Z</time><ele>2458.4</ele></trkpt><trkpt lat="42.115192" lon="14.120765"><time>2023-06-30T14:07:31.000Z</time><ele>2458.4</ele></trkpt><trkpt lat="42.115159" lon="14.120869"><time>2023-06-30T14:07:51.000Z</time><ele>2458.4</ele></trkpt><trkpt lat="42.115139" lon="14.12095"><time>2023-06-30T14:07:55.000Z</time><ele>2458.4</ele></trkpt><trkpt lat="42.115143" lon="14.121017"><time>2023-06-30T14:08:01.000Z</time><ele>2457</ele></trkpt><trkpt lat="42.115138" lon="14.121048"><time>2023-06-30T14:08:04.000Z</time><ele>2456.4</ele></trkpt><trkpt lat="42.115135" lon="14.121133"><time>2023-06-30T14:08:13.000Z</time><ele>2456.2</ele></trkpt><trkpt lat="42.115133" lon="14.121183"><time>2023-06-30T14:08:17.000Z</time><ele>2455.8</ele></trkpt><trkpt lat="42.115132" lon="14.121242"><time>2023-06-30T14:08:23.000Z</time><ele>2454.8</ele></trkpt><trkpt lat="42.115136" lon="14.121249"><time>2023-06-30T14:08:24.000Z</time><ele>2454.6</ele></trkpt><trkpt lat="42.115138" lon="14.121287"><time>2023-06-30T14:08:27.000Z</time><ele>2453.4</ele></trkpt><trkpt lat="42.115143" lon="14.121324"><time>2023-06-30T14:08:31.000Z</time><ele>2453</ele></trkpt><trkpt lat="42.115145" lon="14.121326"><time>2023-06-30T14:08:32.000Z</time><ele>2453</ele></trkpt><trkpt lat="42.115146" lon="14.121325"><time>2023-06-30T14:08:40.000Z</time><ele>2454</ele></trkpt><trkpt lat="42.115146" lon="14.121319"><time>2023-06-30T14:08:45.000Z</time><ele>2453.8</ele></trkpt><trkpt lat="42.115146" lon="14.121319"><time>2023-06-30T14:08:52.000Z</time><ele>2454.2</ele></trkpt><trkpt lat="42.115146" lon="14.12132"><time>2023-06-30T14:08:58.000Z</time><ele>2454.2</ele></trkpt><trkpt lat="42.115145" lon="14.121321"><time>2023-06-30T14:09:07.000Z</time><ele>2453.6</ele></trkpt><trkpt lat="42.115144" lon="14.121324"><time>2023-06-30T14:09:17.000Z</time><ele>2453.2</ele></trkpt><trkpt lat="42.115143" lon="14.121342"><time>2023-06-30T14:09:31.000Z</time><ele>2454.4</ele></trkpt><trkpt lat="42.115145" lon="14.121356"><time>2023-06-30T14:09:38.000Z</time><ele>2453.2</ele></trkpt><trkpt lat="42.115163" lon="14.121419"><time>2023-06-30T14:09:42.000Z</time><ele>2453.2</ele></trkpt><trkpt lat="42.115187" lon="14.12143"><time>2023-06-30T14:09:45.000Z</time><ele>2454</ele></trkpt><trkpt lat="42.115201" lon="14.121425"><time>2023-06-30T14:09:48.000Z</time><ele>2454</ele></trkpt><trkpt lat="42.115044" lon="14.121599"><time>2023-06-30T14:13:41.000Z</time><ele>2452.4</ele></trkpt><trkpt lat="42.115165" lon="14.121433"><time>2023-06-30T14:13:47.000Z</time><ele>2452.2</ele></trkpt><trkpt lat="42.115187" lon="14.121407"><time>2023-06-30T14:13:48.000Z</time><ele>2452</ele></trkpt><trkpt lat="42.115165" lon="14.121427"><time>2023-06-30T14:13:53.000Z</time><ele>2452.2</ele></trkpt><trkpt lat="42.115164" lon="14.121528"><time>2023-06-30T14:13:58.000Z</time><ele>2452</ele></trkpt><trkpt lat="42.115187" lon="14.121534"><time>2023-06-30T14:14:00.000Z</time><ele>2452</ele></trkpt><trkpt lat="42.115247" lon="14.121509"><time>2023-06-30T14:14:06.000Z</time><ele>2452.2</ele></trkpt><trkpt lat="42.115228" lon="14.121501"><time>2023-06-30T14:14:12.000Z</time><ele>2452.4</ele></trkpt><trkpt lat="42.115244" lon="14.121483"><time>2023-06-30T14:14:17.000Z</time><ele>2452.6</ele></trkpt><trkpt lat="42.115271" lon="14.121466"><time>2023-06-30T14:14:21.000Z</time><ele>2452.8</ele></trkpt><trkpt lat="42.115287" lon="14.121446"><time>2023-06-30T14:14:22.000Z</time><ele>2453</ele></trkpt><trkpt lat="42.115286" lon="14.121452"><time>2023-06-30T14:14:27.000Z</time><ele>2452.4</ele></trkpt><trkpt lat="42.11528" lon="14.121466"><time>2023-06-30T14:14:31.000Z</time><ele>2452.2</ele></trkpt><trkpt lat="42.115251" lon="14.121505"><time>2023-06-30T14:14:35.000Z</time><ele>2452.4</ele></trkpt><trkpt lat="42.115226" lon="14.121528"><time>2023-06-30T14:14:40.000Z</time><ele>2452.6</ele></trkpt><trkpt lat="42.115211" lon="14.121536"><time>2023-06-30T14:14:43.000Z</time><ele>2452.6</ele></trkpt><trkpt lat="42.115174" lon="14.121552"><time>2023-06-30T14:14:51.000Z</time><ele>2452.2</ele></trkpt><trkpt lat="42.115133" lon="14.121575"><time>2023-06-30T14:14:56.000Z</time><ele>2451.8</ele></trkpt><trkpt lat="42.115097" lon="14.121626"><time>2023-06-30T14:15:03.000Z</time><ele>2452</ele></trkpt><trkpt lat="42.115099" lon="14.121625"><time>2023-06-30T14:15:08.000Z</time><ele>2451.8</ele></trkpt><trkpt lat="42.115138" lon="14.121633"><time>2023-06-30T14:15:13.000Z</time><ele>2451.8</ele></trkpt><trkpt lat="42.115156" lon="14.1216"><time>2023-06-30T14:15:16.000Z</time><ele>2451.8</ele></trkpt><trkpt lat="42.115159" lon="14.121591"><time>2023-06-30T14:15:21.000Z</time><ele>2451.6</ele></trkpt><trkpt lat="42.115167" lon="14.121569"><time>2023-06-30T14:15:26.000Z</time><ele>2452</ele></trkpt><trkpt lat="42.115205" lon="14.121538"><time>2023-06-30T14:15:30.000Z</time><ele>2452.2</ele></trkpt><trkpt lat="42.115287" lon="14.121537"><time>2023-06-30T14:15:36.000Z</time><ele>2452.6</ele></trkpt><trkpt lat="42.115287" lon="14.121551"><time>2023-06-30T14:15:37.000Z</time><ele>2452.4</ele></trkpt><trkpt lat="42.11526" lon="14.121576"><time>2023-06-30T14:15:41.000Z</time><ele>2452.4</ele></trkpt><trkpt lat="42.115267" lon="14.121555"><time>2023-06-30T14:15:43.000Z</time><ele>2452.4</ele></trkpt><trkpt lat="42.115279" lon="14.121523"><time>2023-06-30T14:15:45.000Z</time><ele>2452.6</ele></trkpt><trkpt lat="42.115247" lon="14.121573"><time>2023-06-30T14:15:47.000Z</time><ele>2452.4</ele></trkpt><trkpt lat="42.115256" lon="14.121578"><time>2023-06-30T14:15:49.000Z</time><ele>2452.4</ele></trkpt><trkpt lat="42.115282" lon="14.121585"><time>2023-06-30T14:15:54.000Z</time><ele>2452.2</ele></trkpt><trkpt lat="42.115348" lon="14.12149"><time>2023-06-30T14:16:01.000Z</time><ele>2452.4</ele></trkpt><trkpt lat="42.115382" lon="14.12144"><time>2023-06-30T14:16:07.000Z</time><ele>2452.6</ele></trkpt><trkpt lat="42.115367" lon="14.121449"><time>2023-06-30T14:16:11.000Z</time><ele>2452.8</ele></trkpt><trkpt lat="42.11539" lon="14.121405"><time>2023-06-30T14:16:14.000Z</time><ele>2452.8</ele></trkpt><trkpt lat="42.115375" lon="14.121358"><time>2023-06-30T14:16:18.000Z</time><ele>2452.6</ele></trkpt><trkpt lat="42.115362" lon="14.121323"><time>2023-06-30T14:16:23.000Z</time><ele>2453.2</ele></trkpt><trkpt lat="42.115315" lon="14.121357"><time>2023-06-30T14:16:29.000Z</time><ele>2453.2</ele></trkpt><trkpt lat="42.115319" lon="14.121379"><time>2023-06-30T14:16:37.000Z</time><ele>2453</ele></trkpt><trkpt lat="42.115313" lon="14.121395"><time>2023-06-30T14:16:38.000Z</time><ele>2453</ele></trkpt><trkpt lat="42.115299" lon="14.121426"><time>2023-06-30T14:16:44.000Z</time><ele>2453</ele></trkpt><trkpt lat="42.115305" lon="14.121482"><time>2023-06-30T14:16:50.000Z</time><ele>2453</ele></trkpt><trkpt lat="42.115309" lon="14.121529"><time>2023-06-30T14:16:54.000Z</time><ele>2453</ele></trkpt><trkpt lat="42.115311" lon="14.121538"><time>2023-06-30T14:16:55.000Z</time><ele>2453</ele></trkpt><trkpt lat="42.115288" lon="14.121608"><time>2023-06-30T14:17:00.000Z</time><ele>2453</ele></trkpt><trkpt lat="42.115248" lon="14.12168"><time>2023-06-30T14:17:05.000Z</time><ele>2453.2</ele></trkpt><trkpt lat="42.115226" lon="14.12166"><time>2023-06-30T14:17:08.000Z</time><ele>2453.4</ele></trkpt><trkpt lat="42.115223" lon="14.121663"><time>2023-06-30T14:17:09.000Z</time><ele>2453.4</ele></trkpt><trkpt lat="42.115192" lon="14.121702"><time>2023-06-30T14:17:13.000Z</time><ele>2453.6</ele></trkpt><trkpt lat="42.115181" lon="14.121715"><time>2023-06-30T14:17:15.000Z</time><ele>2453.6</ele></trkpt><trkpt lat="42.115164" lon="14.121722"><time>2023-06-30T14:17:17.000Z</time><ele>2453.6</ele></trkpt><trkpt lat="42.115168" lon="14.121768"><time>2023-06-30T14:17:24.000Z</time><ele>2453.8</ele></trkpt><trkpt lat="42.115187" lon="14.121786"><time>2023-06-30T14:17:28.000Z</time><ele>2453.4</ele></trkpt><trkpt lat="42.115185" lon="14.121797"><time>2023-06-30T14:17:29.000Z</time><ele>2453.4</ele></trkpt><trkpt lat="42.115199" lon="14.121729"><time>2023-06-30T14:17:33.000Z</time><ele>2453.2</ele></trkpt><trkpt lat="42.115176" lon="14.121752"><time>2023-06-30T14:17:37.000Z</time><ele>2453.4</ele></trkpt><trkpt lat="42.115182" lon="14.12179"><time>2023-06-30T14:17:41.000Z</time><ele>2453.2</ele></trkpt><trkpt lat="42.115172" lon="14.121868"><time>2023-06-30T14:17:45.000Z</time><ele>2453.2</ele></trkpt><trkpt lat="42.115167" lon="14.121855"><time>2023-06-30T14:17:48.000Z</time><ele>2453.4</ele></trkpt><trkpt lat="42.115164" lon="14.121838"><time>2023-06-30T14:17:49.000Z</time><ele>2453.4</ele></trkpt><trkpt lat="42.115139" lon="14.121858"><time>2023-06-30T14:17:54.000Z</time><ele>2452.8</ele></trkpt><trkpt lat="42.115161" lon="14.121822"><time>2023-06-30T14:17:59.000Z</time><ele>2452.6</ele></trkpt><trkpt lat="42.115136" lon="14.121774"><time>2023-06-30T14:18:04.000Z</time><ele>2452.6</ele></trkpt><trkpt lat="42.115112" lon="14.12182"><time>2023-06-30T14:18:13.000Z</time><ele>2452.6</ele></trkpt><trkpt lat="42.115107" lon="14.121807"><time>2023-06-30T14:18:15.000Z</time><ele>2452.6</ele></trkpt><trkpt lat="42.115126" lon="14.121792"><time>2023-06-30T14:18:20.000Z</time><ele>2452.6</ele></trkpt><trkpt lat="42.115132" lon="14.121732"><time>2023-06-30T14:18:30.000Z</time><ele>2452.6</ele></trkpt><trkpt lat="42.115118" lon="14.121738"><time>2023-06-30T14:18:32.000Z</time><ele>2452.6</ele></trkpt><trkpt lat="42.115103" lon="14.121718"><time>2023-06-30T14:18:37.000Z</time><ele>2452.6</ele></trkpt><trkpt lat="42.115118" lon="14.12169"><time>2023-06-30T14:18:42.000Z</time><ele>2452.6</ele></trkpt><trkpt lat="42.115098" lon="14.121698"><time>2023-06-30T14:18:46.000Z</time><ele>2452.6</ele></trkpt><trkpt lat="42.115082" lon="14.121683"><time>2023-06-30T14:18:51.000Z</time><ele>2452.6</ele></trkpt><trkpt lat="42.115074" lon="14.121702"><time>2023-06-30T14:18:52.000Z</time><ele>2452.6</ele></trkpt><trkpt lat="42.115063" lon="14.121758"><time>2023-06-30T14:18:56.000Z</time><ele>2452.6</ele></trkpt><trkpt lat="42.11507" lon="14.121758"><time>2023-06-30T14:18:58.000Z</time><ele>2452.6</ele></trkpt><trkpt lat="42.115122" lon="14.121705"><time>2023-06-30T14:19:03.000Z</time><ele>2452.6</ele></trkpt><trkpt lat="42.115152" lon="14.121737"><time>2023-06-30T14:19:08.000Z</time><ele>2452.6</ele></trkpt><trkpt lat="42.115126" lon="14.121785"><time>2023-06-30T14:19:15.000Z</time><ele>2452.6</ele></trkpt><trkpt lat="42.115141" lon="14.121702"><time>2023-06-30T14:19:22.000Z</time><ele>2452.6</ele></trkpt><trkpt lat="42.115145" lon="14.121703"><time>2023-06-30T14:19:26.000Z</time><ele>2452.6</ele></trkpt><trkpt lat="42.115168" lon="14.121645"><time>2023-06-30T14:19:31.000Z</time><ele>2452.6</ele></trkpt><trkpt lat="42.115206" lon="14.121583"><time>2023-06-30T14:19:35.000Z</time><ele>2452.6</ele></trkpt><trkpt lat="42.115272" lon="14.121507"><time>2023-06-30T14:19:40.000Z</time><ele>2452.6</ele></trkpt><trkpt lat="42.115239" lon="14.121521"><time>2023-06-30T14:19:45.000Z</time><ele>2452.6</ele></trkpt><trkpt lat="42.115211" lon="14.121528"><time>2023-06-30T14:19:50.000Z</time><ele>2452.6</ele></trkpt><trkpt lat="42.115225" lon="14.121507"><time>2023-06-30T14:19:56.000Z</time><ele>2452.6</ele></trkpt><trkpt lat="42.115235" lon="14.121488"><time>2023-06-30T14:20:00.000Z</time><ele>2452.6</ele></trkpt><trkpt lat="42.115224" lon="14.121463"><time>2023-06-30T14:20:04.000Z</time><ele>2452.6</ele></trkpt><trkpt lat="42.115276" lon="14.121454"><time>2023-06-30T14:20:10.000Z</time><ele>2452.6</ele></trkpt><trkpt lat="42.115239" lon="14.121488"><time>2023-06-30T14:20:14.000Z</time><ele>2452.6</ele></trkpt><trkpt lat="42.11521" lon="14.121532"><time>2023-06-30T14:20:17.000Z</time><ele>2452.6</ele></trkpt><trkpt lat="42.115189" lon="14.121601"><time>2023-06-30T14:20:22.000Z</time><ele>2452.6</ele></trkpt><trkpt lat="42.115193" lon="14.121587"><time>2023-06-30T14:20:23.000Z</time><ele>2452.6</ele></trkpt><trkpt lat="42.115267" lon="14.121591"><time>2023-06-30T14:20:26.000Z</time><ele>2452.6</ele></trkpt><trkpt lat="42.115294" lon="14.121579"><time>2023-06-30T14:20:30.000Z</time><ele>2452.6</ele></trkpt><trkpt lat="42.11528" lon="14.121564"><time>2023-06-30T14:20:36.000Z</time><ele>2452.6</ele></trkpt><trkpt lat="42.115281" lon="14.121505"><time>2023-06-30T14:20:40.000Z</time><ele>2452.6</ele></trkpt><trkpt lat="42.115287" lon="14.121588"><time>2023-06-30T14:20:47.000Z</time><ele>2452.6</ele></trkpt><trkpt lat="42.115229" lon="14.121639"><time>2023-06-30T14:20:52.000Z</time><ele>2452.6</ele></trkpt><trkpt lat="42.115215" lon="14.121632"><time>2023-06-30T14:20:54.000Z</time><ele>2452.6</ele></trkpt><trkpt lat="42.115213" lon="14.121575"><time>2023-06-30T14:21:05.000Z</time><ele>2452.6</ele></trkpt><trkpt lat="42.115192" lon="14.121566"><time>2023-06-30T14:21:08.000Z</time><ele>2452.6</ele></trkpt><trkpt lat="42.115172" lon="14.121593"><time>2023-06-30T14:21:13.000Z</time><ele>2452.6</ele></trkpt><trkpt lat="42.115173" lon="14.12161"><time>2023-06-30T14:21:20.000Z</time><ele>2452.6</ele></trkpt><trkpt lat="42.11515" lon="14.121611"><time>2023-06-30T14:21:22.000Z</time><ele>2452.6</ele></trkpt><trkpt lat="42.11514" lon="14.121611"><time>2023-06-30T14:21:23.000Z</time><ele>2452.6</ele></trkpt><trkpt lat="42.115097" lon="14.121596"><time>2023-06-30T14:21:28.000Z</time><ele>2452.6</ele></trkpt><trkpt lat="42.115106" lon="14.121577"><time>2023-06-30T14:21:29.000Z</time><ele>2452.6</ele></trkpt><trkpt lat="42.115084" lon="14.121615"><time>2023-06-30T14:21:35.000Z</time><ele>2452.6</ele></trkpt><trkpt lat="42.115115" lon="14.121602"><time>2023-06-30T14:21:42.000Z</time><ele>2452.6</ele></trkpt><trkpt lat="42.115192" lon="14.12152"><time>2023-06-30T14:21:48.000Z</time><ele>2452.6</ele></trkpt><trkpt lat="42.115293" lon="14.121542"><time>2023-06-30T14:21:52.000Z</time><ele>2452.6</ele></trkpt><trkpt lat="42.115205" lon="14.121748"><time>2023-06-30T14:22:00.000Z</time><ele>2452.6</ele></trkpt><trkpt lat="42.115211" lon="14.121792"><time>2023-06-30T14:22:06.000Z</time><ele>2452.6</ele></trkpt><trkpt lat="42.115229" lon="14.121631"><time>2023-06-30T14:22:14.000Z</time><ele>2452.6</ele></trkpt><trkpt lat="42.115199" lon="14.121595"><time>2023-06-30T14:22:16.000Z</time><ele>2452.6</ele></trkpt><trkpt lat="42.115222" lon="14.121585"><time>2023-06-30T14:22:18.000Z</time><ele>2452.6</ele></trkpt><trkpt lat="42.115243" lon="14.121582"><time>2023-06-30T14:22:19.000Z</time><ele>2452.6</ele></trkpt><trkpt lat="42.115289" lon="14.121549"><time>2023-06-30T14:22:24.000Z</time><ele>2452.6</ele></trkpt><trkpt lat="42.115272" lon="14.121519"><time>2023-06-30T14:22:28.000Z</time><ele>2452.6</ele></trkpt><trkpt lat="42.115246" lon="14.121509"><time>2023-06-30T14:22:35.000Z</time><ele>2452.6</ele></trkpt><trkpt lat="42.115246" lon="14.121492"><time>2023-06-30T14:22:37.000Z</time><ele>2452.6</ele></trkpt><trkpt lat="42.115233" lon="14.121492"><time>2023-06-30T14:22:38.000Z</time><ele>2453</ele></trkpt><trkpt lat="42.115229" lon="14.121494"><time>2023-06-30T14:22:39.000Z</time><ele>2453.2</ele></trkpt><trkpt lat="42.115214" lon="14.121511"><time>2023-06-30T14:22:40.000Z</time><ele>2453.2</ele></trkpt><trkpt lat="42.115207" lon="14.121482"><time>2023-06-30T14:22:44.000Z</time><ele>2453.2</ele></trkpt><trkpt lat="42.115192" lon="14.121478"><time>2023-06-30T14:22:45.000Z</time><ele>2453.2</ele></trkpt><trkpt lat="42.115214" lon="14.121464"><time>2023-06-30T14:22:46.000Z</time><ele>2453.2</ele></trkpt><trkpt lat="42.115253" lon="14.121458"><time>2023-06-30T14:22:48.000Z</time><ele>2453.2</ele></trkpt><trkpt lat="42.115289" lon="14.121472"><time>2023-06-30T14:22:53.000Z</time><ele>2453.4</ele></trkpt><trkpt lat="42.115273" lon="14.121529"><time>2023-06-30T14:22:56.000Z</time><ele>2453.6</ele></trkpt><trkpt lat="42.115264" lon="14.121675"><time>2023-06-30T14:23:02.000Z</time><ele>2453.2</ele></trkpt><trkpt lat="42.115229" lon="14.12171"><time>2023-06-30T14:23:08.000Z</time><ele>2453</ele></trkpt><trkpt lat="42.11522" lon="14.121708"><time>2023-06-30T14:23:12.000Z</time><ele>2453</ele></trkpt><trkpt lat="42.115217" lon="14.121713"><time>2023-06-30T14:23:13.000Z</time><ele>2453</ele></trkpt><trkpt lat="42.115245" lon="14.121701"><time>2023-06-30T14:23:15.000Z</time><ele>2453</ele></trkpt><trkpt lat="42.115249" lon="14.121686"><time>2023-06-30T14:23:16.000Z</time><ele>2453</ele></trkpt><trkpt lat="42.115259" lon="14.121618"><time>2023-06-30T14:23:21.000Z</time><ele>2453.4</ele></trkpt><trkpt lat="42.115389" lon="14.121426"><time>2023-06-30T14:23:33.000Z</time><ele>2454.2</ele></trkpt><trkpt lat="42.115387" lon="14.121414"><time>2023-06-30T14:23:34.000Z</time><ele>2454.4</ele></trkpt><trkpt lat="42.115395" lon="14.121274"><time>2023-06-30T14:23:56.000Z</time><ele>2454.6</ele></trkpt><trkpt lat="42.115328" lon="14.121303"><time>2023-06-30T14:23:58.000Z</time><ele>2454.4</ele></trkpt><trkpt lat="42.115208" lon="14.121342"><time>2023-06-30T14:24:03.000Z</time><ele>2454</ele></trkpt><trkpt lat="42.115168" lon="14.121448"><time>2023-06-30T14:24:08.000Z</time><ele>2453.8</ele></trkpt><trkpt lat="42.115174" lon="14.121451"><time>2023-06-30T14:24:12.000Z</time><ele>2453.6</ele></trkpt><trkpt lat="42.115184" lon="14.121468"><time>2023-06-30T14:24:17.000Z</time><ele>2453.8</ele></trkpt><trkpt lat="42.115209" lon="14.121461"><time>2023-06-30T14:24:20.000Z</time><ele>2454</ele></trkpt><trkpt lat="42.115182" lon="14.121482"><time>2023-06-30T14:24:24.000Z</time><ele>2454</ele></trkpt><trkpt lat="42.115165" lon="14.121518"><time>2023-06-30T14:24:29.000Z</time><ele>2454</ele></trkpt><trkpt lat="42.11517" lon="14.121514"><time>2023-06-30T14:24:39.000Z</time><ele>2454</ele></trkpt><trkpt lat="42.115205" lon="14.121524"><time>2023-06-30T14:24:44.000Z</time><ele>2454</ele></trkpt><trkpt lat="42.115193" lon="14.12155"><time>2023-06-30T14:24:49.000Z</time><ele>2453.8</ele></trkpt><trkpt lat="42.115158" lon="14.121597"><time>2023-06-30T14:24:55.000Z</time><ele>2454</ele></trkpt><trkpt lat="42.115161" lon="14.121536"><time>2023-06-30T14:24:59.000Z</time><ele>2454.2</ele></trkpt><trkpt lat="42.115182" lon="14.121527"><time>2023-06-30T14:25:02.000Z</time><ele>2454.2</ele></trkpt><trkpt lat="42.115193" lon="14.121541"><time>2023-06-30T14:25:06.000Z</time><ele>2454.4</ele></trkpt><trkpt lat="42.115191" lon="14.121576"><time>2023-06-30T14:25:11.000Z</time><ele>2454.4</ele></trkpt><trkpt lat="42.115189" lon="14.121574"><time>2023-06-30T14:25:15.000Z</time><ele>2454.6</ele></trkpt><trkpt lat="42.115162" lon="14.121545"><time>2023-06-30T14:25:21.000Z</time><ele>2454.6</ele></trkpt><trkpt lat="42.115193" lon="14.121531"><time>2023-06-30T14:25:27.000Z</time><ele>2454.6</ele></trkpt><trkpt lat="42.115184" lon="14.121708"><time>2023-06-30T14:25:30.000Z</time><ele>2454.6</ele></trkpt><trkpt lat="42.115189" lon="14.121753"><time>2023-06-30T14:25:31.000Z</time><ele>2454.6</ele></trkpt><trkpt lat="42.11523" lon="14.121922"><time>2023-06-30T14:25:37.000Z</time><ele>2454.6</ele></trkpt><trkpt lat="42.115217" lon="14.122075"><time>2023-06-30T14:25:42.000Z</time><ele>2454.8</ele></trkpt><trkpt lat="42.115225" lon="14.122046"><time>2023-06-30T14:25:43.000Z</time><ele>2454.6</ele></trkpt><trkpt lat="42.11522" lon="14.122081"><time>2023-06-30T14:25:46.000Z</time><ele>2454.6</ele></trkpt><trkpt lat="42.115227" lon="14.122032"><time>2023-06-30T14:25:47.000Z</time><ele>2454.6</ele></trkpt><trkpt lat="42.115222" lon="14.121995"><time>2023-06-30T14:25:48.000Z</time><ele>2454.6</ele></trkpt><trkpt lat="42.115238" lon="14.121961"><time>2023-06-30T14:25:49.000Z</time><ele>2454.6</ele></trkpt><trkpt lat="42.11525" lon="14.12191"><time>2023-06-30T14:25:51.000Z</time><ele>2454.4</ele></trkpt><trkpt lat="42.115252" lon="14.121804"><time>2023-06-30T14:25:57.000Z</time><ele>2454.2</ele></trkpt><trkpt lat="42.115217" lon="14.121833"><time>2023-06-30T14:26:01.000Z</time><ele>2454.4</ele></trkpt><trkpt lat="42.115211" lon="14.121822"><time>2023-06-30T14:26:02.000Z</time><ele>2454.4</ele></trkpt><trkpt lat="42.1152" lon="14.121817"><time>2023-06-30T14:26:03.000Z</time><ele>2454.4</ele></trkpt><trkpt lat="42.115095" lon="14.121837"><time>2023-06-30T14:26:10.000Z</time><ele>2454.4</ele></trkpt><trkpt lat="42.115122" lon="14.121829"><time>2023-06-30T14:26:12.000Z</time><ele>2454.4</ele></trkpt><trkpt lat="42.115132" lon="14.121817"><time>2023-06-30T14:26:13.000Z</time><ele>2454.4</ele></trkpt><trkpt lat="42.115137" lon="14.121868"><time>2023-06-30T14:26:15.000Z</time><ele>2454</ele></trkpt><trkpt lat="42.115138" lon="14.121917"><time>2023-06-30T14:26:18.000Z</time><ele>2453.8</ele></trkpt><trkpt lat="42.115158" lon="14.121939"><time>2023-06-30T14:26:22.000Z</time><ele>2453.8</ele></trkpt><trkpt lat="42.115158" lon="14.12193"><time>2023-06-30T14:26:23.000Z</time><ele>2453.8</ele></trkpt><trkpt lat="42.115161" lon="14.121921"><time>2023-06-30T14:26:24.000Z</time><ele>2453.8</ele></trkpt><trkpt lat="42.115154" lon="14.121907"><time>2023-06-30T14:26:28.000Z</time><ele>2453.6</ele></trkpt><trkpt lat="42.115161" lon="14.121861"><time>2023-06-30T14:26:31.000Z</time><ele>2453.6</ele></trkpt><trkpt lat="42.115166" lon="14.121839"><time>2023-06-30T14:26:32.000Z</time><ele>2453.6</ele></trkpt><trkpt lat="42.115162" lon="14.121819"><time>2023-06-30T14:26:33.000Z</time><ele>2453.6</ele></trkpt><trkpt lat="42.115154" lon="14.121811"><time>2023-06-30T14:26:34.000Z</time><ele>2453.8</ele></trkpt><trkpt lat="42.115118" lon="14.121761"><time>2023-06-30T14:26:37.000Z</time><ele>2454.4</ele></trkpt><trkpt lat="42.115124" lon="14.121632"><time>2023-06-30T14:26:40.000Z</time><ele>2454.6</ele></trkpt><trkpt lat="42.115093" lon="14.121661"><time>2023-06-30T14:26:44.000Z</time><ele>2455</ele></trkpt><trkpt lat="42.115082" lon="14.121675"><time>2023-06-30T14:26:45.000Z</time><ele>2455</ele></trkpt><trkpt lat="42.11509" lon="14.121697"><time>2023-06-30T14:26:53.000Z</time><ele>2455</ele></trkpt><trkpt lat="42.115112" lon="14.121718"><time>2023-06-30T14:27:02.000Z</time><ele>2455</ele></trkpt><trkpt lat="42.115135" lon="14.121698"><time>2023-06-30T14:27:04.000Z</time><ele>2455</ele></trkpt><trkpt lat="42.115143" lon="14.121696"><time>2023-06-30T14:27:05.000Z</time><ele>2455</ele></trkpt><trkpt lat="42.115144" lon="14.121701"><time>2023-06-30T14:27:06.000Z</time><ele>2455</ele></trkpt><trkpt lat="42.115144" lon="14.121702"><time>2023-06-30T14:27:07.000Z</time><ele>2455</ele></trkpt><trkpt lat="42.11509" lon="14.121891"><time>2023-06-30T14:27:25.000Z</time><ele>2455</ele></trkpt><trkpt lat="42.115115" lon="14.121951"><time>2023-06-30T14:27:37.000Z</time><ele>2455</ele></trkpt><trkpt lat="42.115246" lon="14.122226"><time>2023-06-30T14:27:49.000Z</time><ele>2455</ele></trkpt><trkpt lat="42.115239" lon="14.122298"><time>2023-06-30T14:27:51.000Z</time><ele>2455</ele></trkpt><trkpt lat="42.115222" lon="14.122348"><time>2023-06-30T14:27:52.000Z</time><ele>2455</ele></trkpt><trkpt lat="42.115204" lon="14.122445"><time>2023-06-30T14:27:54.000Z</time><ele>2454.8</ele></trkpt><trkpt lat="42.115176" lon="14.122522"><time>2023-06-30T14:27:56.000Z</time><ele>2454.8</ele></trkpt><trkpt lat="42.115225" lon="14.122542"><time>2023-06-30T14:27:59.000Z</time><ele>2454.8</ele></trkpt><trkpt lat="42.115204" lon="14.122585"><time>2023-06-30T14:28:03.000Z</time><ele>2454.6</ele></trkpt><trkpt lat="42.11517" lon="14.122681"><time>2023-06-30T14:28:06.000Z</time><ele>2454.6</ele></trkpt><trkpt lat="42.115244" lon="14.122681"><time>2023-06-30T14:28:11.000Z</time><ele>2454.4</ele></trkpt><trkpt lat="42.115238" lon="14.122734"><time>2023-06-30T14:28:19.000Z</time><ele>2454.4</ele></trkpt><trkpt lat="42.115269" lon="14.122497"><time>2023-06-30T14:28:30.000Z</time><ele>2454.4</ele></trkpt><trkpt lat="42.115278" lon="14.122253"><time>2023-06-30T14:28:35.000Z</time><ele>2454.2</ele></trkpt><trkpt lat="42.115301" lon="14.122123"><time>2023-06-30T14:28:37.000Z</time><ele>2453.8</ele></trkpt><trkpt lat="42.115294" lon="14.122142"><time>2023-06-30T14:28:38.000Z</time><ele>2453.8</ele></trkpt><trkpt lat="42.11527" lon="14.121962"><time>2023-06-30T14:28:43.000Z</time><ele>2453.6</ele></trkpt><trkpt lat="42.115233" lon="14.121959"><time>2023-06-30T14:28:44.000Z</time><ele>2453.6</ele></trkpt><trkpt lat="42.115116" lon="14.121996"><time>2023-06-30T14:28:48.000Z</time><ele>2453.6</ele></trkpt><trkpt lat="42.115128" lon="14.122039"><time>2023-06-30T14:28:55.000Z</time><ele>2453.8</ele></trkpt><trkpt lat="42.115164" lon="14.122065"><time>2023-06-30T14:29:02.000Z</time><ele>2454</ele></trkpt><trkpt lat="42.115185" lon="14.122009"><time>2023-06-30T14:29:03.000Z</time><ele>2454</ele></trkpt><trkpt lat="42.115187" lon="14.121865"><time>2023-06-30T14:29:05.000Z</time><ele>2454</ele></trkpt><trkpt lat="42.115215" lon="14.121714"><time>2023-06-30T14:29:09.000Z</time><ele>2454</ele></trkpt><trkpt lat="42.115181" lon="14.121698"><time>2023-06-30T14:29:15.000Z</time><ele>2454</ele></trkpt><trkpt lat="42.115232" lon="14.12162"><time>2023-06-30T14:29:18.000Z</time><ele>2453.8</ele></trkpt><trkpt lat="42.115242" lon="14.121598"><time>2023-06-30T14:29:20.000Z</time><ele>2453.8</ele></trkpt><trkpt lat="42.115252" lon="14.121572"><time>2023-06-30T14:29:21.000Z</time><ele>2453.8</ele></trkpt><trkpt lat="42.115231" lon="14.121592"><time>2023-06-30T14:29:23.000Z</time><ele>2453.8</ele></trkpt><trkpt lat="42.115179" lon="14.121682"><time>2023-06-30T14:29:27.000Z</time><ele>2454</ele></trkpt><trkpt lat="42.115276" lon="14.121696"><time>2023-06-30T14:29:34.000Z</time><ele>2454</ele></trkpt><trkpt lat="42.115289" lon="14.121624"><time>2023-06-30T14:29:35.000Z</time><ele>2454.2</ele></trkpt><trkpt lat="42.115294" lon="14.121584"><time>2023-06-30T14:29:36.000Z</time><ele>2453</ele></trkpt><trkpt lat="42.115235" lon="14.121597"><time>2023-06-30T14:29:38.000Z</time><ele>2453</ele></trkpt><trkpt lat="42.115161" lon="14.121603"><time>2023-06-30T14:29:40.000Z</time><ele>2453</ele></trkpt><trkpt lat="42.115135" lon="14.12158"><time>2023-06-30T14:29:41.000Z</time><ele>2453</ele></trkpt><trkpt lat="42.115061" lon="14.121614"><time>2023-06-30T14:29:43.000Z</time><ele>2453.2</ele></trkpt><trkpt lat="42.115004" lon="14.121615"><time>2023-06-30T14:29:51.000Z</time><ele>2453.4</ele></trkpt><trkpt lat="42.1151" lon="14.121724"><time>2023-06-30T14:30:00.000Z</time><ele>2453.2</ele></trkpt><trkpt lat="42.115112" lon="14.121762"><time>2023-06-30T14:30:05.000Z</time><ele>2453.2</ele></trkpt><trkpt lat="42.115109" lon="14.121802"><time>2023-06-30T14:30:07.000Z</time><ele>2453.2</ele></trkpt><trkpt lat="42.115132" lon="14.12174"><time>2023-06-30T14:30:18.000Z</time><ele>2452.8</ele></trkpt><trkpt lat="42.115137" lon="14.121717"><time>2023-06-30T14:30:19.000Z</time><ele>2452.8</ele></trkpt><trkpt lat="42.115091" lon="14.121717"><time>2023-06-30T14:30:27.000Z</time><ele>2453</ele></trkpt><trkpt lat="42.115075" lon="14.121733"><time>2023-06-30T14:30:30.000Z</time><ele>2452.6</ele></trkpt><trkpt lat="42.115059" lon="14.121745"><time>2023-06-30T14:30:36.000Z</time><ele>2452.4</ele></trkpt><trkpt lat="42.115107" lon="14.121633"><time>2023-06-30T14:30:42.000Z</time><ele>2452.2</ele></trkpt><trkpt lat="42.115111" lon="14.121653"><time>2023-06-30T14:30:44.000Z</time><ele>2452.4</ele></trkpt><trkpt lat="42.115109" lon="14.121633"><time>2023-06-30T14:30:45.000Z</time><ele>2452.4</ele></trkpt><trkpt lat="42.115138" lon="14.121576"><time>2023-06-30T14:30:47.000Z</time><ele>2452.2</ele></trkpt><trkpt lat="42.115144" lon="14.121532"><time>2023-06-30T14:30:49.000Z</time><ele>2452.2</ele></trkpt><trkpt lat="42.115186" lon="14.121535"><time>2023-06-30T14:30:52.000Z</time><ele>2452.2</ele></trkpt><trkpt lat="42.11522" lon="14.121518"><time>2023-06-30T14:30:54.000Z</time><ele>2452.2</ele></trkpt><trkpt lat="42.115273" lon="14.121473"><time>2023-06-30T14:30:59.000Z</time><ele>2452.2</ele></trkpt><trkpt lat="42.115285" lon="14.121481"><time>2023-06-30T14:31:01.000Z</time><ele>2451.8</ele></trkpt><trkpt lat="42.115276" lon="14.121499"><time>2023-06-30T14:31:04.000Z</time><ele>2451.8</ele></trkpt><trkpt lat="42.115276" lon="14.121483"><time>2023-06-30T14:31:07.000Z</time><ele>2451.6</ele></trkpt><trkpt lat="42.115314" lon="14.121466"><time>2023-06-30T14:31:12.000Z</time><ele>2451.4</ele></trkpt><trkpt lat="42.115287" lon="14.121473"><time>2023-06-30T14:31:16.000Z</time><ele>2451.4</ele></trkpt><trkpt lat="42.115293" lon="14.121473"><time>2023-06-30T14:31:19.000Z</time><ele>2451.4</ele></trkpt><trkpt lat="42.115314" lon="14.121455"><time>2023-06-30T14:31:26.000Z</time><ele>2451.4</ele></trkpt><trkpt lat="42.115335" lon="14.121424"><time>2023-06-30T14:31:39.000Z</time><ele>2451.4</ele></trkpt><trkpt lat="42.115316" lon="14.121425"><time>2023-06-30T14:31:41.000Z</time><ele>2451.4</ele></trkpt><trkpt lat="42.1153" lon="14.121428"><time>2023-06-30T14:31:43.000Z</time><ele>2451.4</ele></trkpt><trkpt lat="42.115263" lon="14.121432"><time>2023-06-30T14:31:46.000Z</time><ele>2451.2</ele></trkpt><trkpt lat="42.1152" lon="14.121387"><time>2023-06-30T14:31:50.000Z</time><ele>2450.8</ele></trkpt><trkpt lat="42.115201" lon="14.121377"><time>2023-06-30T14:31:54.000Z</time><ele>2451.2</ele></trkpt><trkpt lat="42.115172" lon="14.121339"><time>2023-06-30T14:31:58.000Z</time><ele>2451.8</ele></trkpt><trkpt lat="42.115157" lon="14.121302"><time>2023-06-30T14:32:01.000Z</time><ele>2451.8</ele></trkpt><trkpt lat="42.115155" lon="14.121192"><time>2023-06-30T14:32:08.000Z</time><ele>2451.8</ele></trkpt><trkpt lat="42.115153" lon="14.121048"><time>2023-06-30T14:32:19.000Z</time><ele>2451.8</ele></trkpt><trkpt lat="42.115161" lon="14.121004"><time>2023-06-30T14:32:24.000Z</time><ele>2453</ele></trkpt><trkpt lat="42.115159" lon="14.120984"><time>2023-06-30T14:32:26.000Z</time><ele>2454.6</ele></trkpt><trkpt lat="42.115158" lon="14.120931"><time>2023-06-30T14:32:30.000Z</time><ele>2455.6</ele></trkpt><trkpt lat="42.115164" lon="14.120825"><time>2023-06-30T14:32:37.000Z</time><ele>2456</ele></trkpt><trkpt lat="42.11517" lon="14.120813"><time>2023-06-30T14:32:38.000Z</time><ele>2456.2</ele></trkpt><trkpt lat="42.115173" lon="14.120786"><time>2023-06-30T14:32:40.000Z</time><ele>2456.8</ele></trkpt><trkpt lat="42.115166" lon="14.120693"><time>2023-06-30T14:32:45.000Z</time><ele>2457.4</ele></trkpt><trkpt lat="42.115166" lon="14.12064"><time>2023-06-30T14:32:48.000Z</time><ele>2457.2</ele></trkpt><trkpt lat="42.115161" lon="14.120606"><time>2023-06-30T14:32:50.000Z</time><ele>2457</ele></trkpt><trkpt lat="42.115153" lon="14.120575"><time>2023-06-30T14:32:52.000Z</time><ele>2456.8</ele></trkpt><trkpt lat="42.11515" lon="14.120524"><time>2023-06-30T14:32:55.000Z</time><ele>2456.8</ele></trkpt><trkpt lat="42.115139" lon="14.120465"><time>2023-06-30T14:32:59.000Z</time><ele>2457</ele></trkpt><trkpt lat="42.115135" lon="14.120419"><time>2023-06-30T14:33:02.000Z</time><ele>2457</ele></trkpt><trkpt lat="42.115123" lon="14.12038"><time>2023-06-30T14:33:04.000Z</time><ele>2457</ele></trkpt><trkpt lat="42.115133" lon="14.120266"><time>2023-06-30T14:33:11.000Z</time><ele>2456</ele></trkpt><trkpt lat="42.115141" lon="14.120253"><time>2023-06-30T14:33:12.000Z</time><ele>2455.6</ele></trkpt><trkpt lat="42.115169" lon="14.120138"><time>2023-06-30T14:33:20.000Z</time><ele>2454.8</ele></trkpt><trkpt lat="42.11518" lon="14.120109"><time>2023-06-30T14:33:22.000Z</time><ele>2454.8</ele></trkpt><trkpt lat="42.115194" lon="14.120021"><time>2023-06-30T14:33:27.000Z</time><ele>2455</ele></trkpt><trkpt lat="42.115208" lon="14.119964"><time>2023-06-30T14:33:30.000Z</time><ele>2454.4</ele></trkpt><trkpt lat="42.115238" lon="14.119847"><time>2023-06-30T14:33:37.000Z</time><ele>2453.8</ele></trkpt><trkpt lat="42.115256" lon="14.119808"><time>2023-06-30T14:33:40.000Z</time><ele>2453.2</ele></trkpt><trkpt lat="42.115271" lon="14.119753"><time>2023-06-30T14:33:44.000Z</time><ele>2452</ele></trkpt><trkpt lat="42.115277" lon="14.119736"><time>2023-06-30T14:33:46.000Z</time><ele>2451.4</ele></trkpt><trkpt lat="42.115281" lon="14.119716"><time>2023-06-30T14:33:48.000Z</time><ele>2451</ele></trkpt><trkpt lat="42.115284" lon="14.119705"><time>2023-06-30T14:33:49.000Z</time><ele>2450.8</ele></trkpt><trkpt lat="42.115298" lon="14.119667"><time>2023-06-30T14:33:52.000Z</time><ele>2450.4</ele></trkpt><trkpt lat="42.115305" lon="14.119637"><time>2023-06-30T14:33:54.000Z</time><ele>2450</ele></trkpt><trkpt lat="42.115309" lon="14.119623"><time>2023-06-30T14:33:55.000Z</time><ele>2449.8</ele></trkpt><trkpt lat="42.115337" lon="14.119579"><time>2023-06-30T14:33:59.000Z</time><ele>2448.6</ele></trkpt><trkpt lat="42.115351" lon="14.119565"><time>2023-06-30T14:34:01.000Z</time><ele>2448</ele></trkpt><trkpt lat="42.115361" lon="14.119561"><time>2023-06-30T14:34:02.000Z</time><ele>2447.6</ele></trkpt><trkpt lat="42.115377" lon="14.119545"><time>2023-06-30T14:34:04.000Z</time><ele>2447</ele></trkpt><trkpt lat="42.11539" lon="14.119529"><time>2023-06-30T14:34:07.000Z</time><ele>2446.4</ele></trkpt><trkpt lat="42.115395" lon="14.119527"><time>2023-06-30T14:34:08.000Z</time><ele>2446</ele></trkpt><trkpt lat="42.115416" lon="14.119511"><time>2023-06-30T14:34:11.000Z</time><ele>2445.2</ele></trkpt><trkpt lat="42.11542" lon="14.119498"><time>2023-06-30T14:34:13.000Z</time><ele>2444.6</ele></trkpt><trkpt lat="42.115422" lon="14.119491"><time>2023-06-30T14:34:14.000Z</time><ele>2444.2</ele></trkpt><trkpt lat="42.11543" lon="14.119488"><time>2023-06-30T14:34:15.000Z</time><ele>2444</ele></trkpt><trkpt lat="42.115449" lon="14.119479"><time>2023-06-30T14:34:17.000Z</time><ele>2443.4</ele></trkpt><trkpt lat="42.115458" lon="14.11947"><time>2023-06-30T14:34:19.000Z</time><ele>2442.8</ele></trkpt><trkpt lat="42.115461" lon="14.119466"><time>2023-06-30T14:34:20.000Z</time><ele>2442.6</ele></trkpt><trkpt lat="42.115465" lon="14.119449"><time>2023-06-30T14:34:23.000Z</time><ele>2441.6</ele></trkpt><trkpt lat="42.115465" lon="14.119445"><time>2023-06-30T14:34:24.000Z</time><ele>2441.4</ele></trkpt><trkpt lat="42.115466" lon="14.119441"><time>2023-06-30T14:34:25.000Z</time><ele>2441</ele></trkpt><trkpt lat="42.115472" lon="14.119439"><time>2023-06-30T14:34:27.000Z</time><ele>2440.6</ele></trkpt><trkpt lat="42.115479" lon="14.119437"><time>2023-06-30T14:34:28.000Z</time><ele>2440.2</ele></trkpt><trkpt lat="42.115502" lon="14.119396"><time>2023-06-30T14:34:34.000Z</time><ele>2439.4</ele></trkpt><trkpt lat="42.115508" lon="14.119392"><time>2023-06-30T14:34:35.000Z</time><ele>2439.2</ele></trkpt><trkpt lat="42.11552" lon="14.119368"><time>2023-06-30T14:34:38.000Z</time><ele>2438.4</ele></trkpt><trkpt lat="42.115525" lon="14.119356"><time>2023-06-30T14:34:39.000Z</time><ele>2438.2</ele></trkpt><trkpt lat="42.115532" lon="14.119347"><time>2023-06-30T14:34:40.000Z</time><ele>2438</ele></trkpt><trkpt lat="42.115536" lon="14.119338"><time>2023-06-30T14:34:41.000Z</time><ele>2437.8</ele></trkpt><trkpt lat="42.115547" lon="14.119343"><time>2023-06-30T14:34:45.000Z</time><ele>2436.8</ele></trkpt><trkpt lat="42.115546" lon="14.119362"><time>2023-06-30T14:34:47.000Z</time><ele>2436</ele></trkpt><trkpt lat="42.115548" lon="14.11938"><time>2023-06-30T14:34:49.000Z</time><ele>2435.6</ele></trkpt><trkpt lat="42.115574" lon="14.119375"><time>2023-06-30T14:34:53.000Z</time><ele>2434.6</ele></trkpt><trkpt lat="42.115582" lon="14.119364"><time>2023-06-30T14:34:55.000Z</time><ele>2434</ele></trkpt><trkpt lat="42.115594" lon="14.119356"><time>2023-06-30T14:34:57.000Z</time><ele>2433.4</ele></trkpt><trkpt lat="42.115616" lon="14.119321"><time>2023-06-30T14:35:02.000Z</time><ele>2432.4</ele></trkpt><trkpt lat="42.115625" lon="14.119301"><time>2023-06-30T14:35:06.000Z</time><ele>2431.4</ele></trkpt><trkpt lat="42.115648" lon="14.119301"><time>2023-06-30T14:35:10.000Z</time><ele>2430.6</ele></trkpt><trkpt lat="42.115651" lon="14.119298"><time>2023-06-30T14:35:11.000Z</time><ele>2430.2</ele></trkpt><trkpt lat="42.115656" lon="14.119288"><time>2023-06-30T14:35:13.000Z</time><ele>2429.4</ele></trkpt><trkpt lat="42.115661" lon="14.119288"><time>2023-06-30T14:35:14.000Z</time><ele>2429</ele></trkpt><trkpt lat="42.115667" lon="14.119287"><time>2023-06-30T14:35:15.000Z</time><ele>2428.8</ele></trkpt><trkpt lat="42.115681" lon="14.119282"><time>2023-06-30T14:35:19.000Z</time><ele>2428</ele></trkpt><trkpt lat="42.115691" lon="14.119286"><time>2023-06-30T14:35:20.000Z</time><ele>2427.8</ele></trkpt><trkpt lat="42.115707" lon="14.119268"><time>2023-06-30T14:35:23.000Z</time><ele>2427.6</ele></trkpt><trkpt lat="42.11571" lon="14.119259"><time>2023-06-30T14:35:24.000Z</time><ele>2427.4</ele></trkpt><trkpt lat="42.115738" lon="14.119224"><time>2023-06-30T14:35:28.000Z</time><ele>2427.2</ele></trkpt><trkpt lat="42.11575" lon="14.119211"><time>2023-06-30T14:35:30.000Z</time><ele>2426.2</ele></trkpt><trkpt lat="42.115752" lon="14.119206"><time>2023-06-30T14:35:31.000Z</time><ele>2425.6</ele></trkpt><trkpt lat="42.115756" lon="14.1192"><time>2023-06-30T14:35:32.000Z</time><ele>2425.2</ele></trkpt><trkpt lat="42.115764" lon="14.119189"><time>2023-06-30T14:35:34.000Z</time><ele>2424.8</ele></trkpt><trkpt lat="42.115777" lon="14.119168"><time>2023-06-30T14:35:37.000Z</time><ele>2424.2</ele></trkpt><trkpt lat="42.11578" lon="14.119161"><time>2023-06-30T14:35:38.000Z</time><ele>2424.2</ele></trkpt><trkpt lat="42.115785" lon="14.119156"><time>2023-06-30T14:35:39.000Z</time><ele>2423.8</ele></trkpt><trkpt lat="42.115793" lon="14.119135"><time>2023-06-30T14:35:42.000Z</time><ele>2423</ele></trkpt><trkpt lat="42.115805" lon="14.119104"><time>2023-06-30T14:35:46.000Z</time><ele>2422.6</ele></trkpt><trkpt lat="42.115815" lon="14.119087"><time>2023-06-30T14:35:48.000Z</time><ele>2421.8</ele></trkpt><trkpt lat="42.11582" lon="14.119078"><time>2023-06-30T14:35:49.000Z</time><ele>2420.4</ele></trkpt><trkpt lat="42.115833" lon="14.119061"><time>2023-06-30T14:35:51.000Z</time><ele>2420.4</ele></trkpt><trkpt lat="42.115865" lon="14.11903"><time>2023-06-30T14:35:56.000Z</time><ele>2419.6</ele></trkpt><trkpt lat="42.115882" lon="14.119023"><time>2023-06-30T14:35:58.000Z</time><ele>2418.8</ele></trkpt><trkpt lat="42.115909" lon="14.119"><time>2023-06-30T14:36:01.000Z</time><ele>2417.6</ele></trkpt><trkpt lat="42.115921" lon="14.118948"><time>2023-06-30T14:36:04.000Z</time><ele>2417.2</ele></trkpt><trkpt lat="42.115923" lon="14.118928"><time>2023-06-30T14:36:05.000Z</time><ele>2416.8</ele></trkpt><trkpt lat="42.115927" lon="14.118909"><time>2023-06-30T14:36:06.000Z</time><ele>2416.6</ele></trkpt><trkpt lat="42.11593" lon="14.118878"><time>2023-06-30T14:36:08.000Z</time><ele>2416</ele></trkpt><trkpt lat="42.11593" lon="14.118861"><time>2023-06-30T14:36:09.000Z</time><ele>2415.4</ele></trkpt><trkpt lat="42.115934" lon="14.118815"><time>2023-06-30T14:36:12.000Z</time><ele>2414.6</ele></trkpt><trkpt lat="42.115933" lon="14.118798"><time>2023-06-30T14:36:13.000Z</time><ele>2414.4</ele></trkpt><trkpt lat="42.115942" lon="14.118732"><time>2023-06-30T14:36:18.000Z</time><ele>2413.2</ele></trkpt><trkpt lat="42.115946" lon="14.118691"><time>2023-06-30T14:36:21.000Z</time><ele>2412.2</ele></trkpt><trkpt lat="42.115945" lon="14.118653"><time>2023-06-30T14:36:23.000Z</time><ele>2411.6</ele></trkpt><trkpt lat="42.115942" lon="14.118636"><time>2023-06-30T14:36:24.000Z</time><ele>2411.2</ele></trkpt><trkpt lat="42.11595" lon="14.11855"><time>2023-06-30T14:36:29.000Z</time><ele>2410.2</ele></trkpt><trkpt lat="42.115953" lon="14.118538"><time>2023-06-30T14:36:30.000Z</time><ele>2409.8</ele></trkpt><trkpt lat="42.115963" lon="14.118494"><time>2023-06-30T14:36:33.000Z</time><ele>2409.2</ele></trkpt><trkpt lat="42.115963" lon="14.118476"><time>2023-06-30T14:36:34.000Z</time><ele>2409.2</ele></trkpt><trkpt lat="42.115963" lon="14.118457"><time>2023-06-30T14:36:35.000Z</time><ele>2409.2</ele></trkpt><trkpt lat="42.115962" lon="14.118419"><time>2023-06-30T14:36:37.000Z</time><ele>2408.6</ele></trkpt><trkpt lat="42.115966" lon="14.118405"><time>2023-06-30T14:36:38.000Z</time><ele>2408.4</ele></trkpt><trkpt lat="42.115979" lon="14.118376"><time>2023-06-30T14:36:41.000Z</time><ele>2407.2</ele></trkpt><trkpt lat="42.115987" lon="14.118367"><time>2023-06-30T14:36:42.000Z</time><ele>2406.8</ele></trkpt><trkpt lat="42.115995" lon="14.118342"><time>2023-06-30T14:36:44.000Z</time><ele>2406</ele></trkpt><trkpt lat="42.115999" lon="14.118323"><time>2023-06-30T14:36:46.000Z</time><ele>2405.4</ele></trkpt><trkpt lat="42.116006" lon="14.118315"><time>2023-06-30T14:36:47.000Z</time><ele>2405</ele></trkpt><trkpt lat="42.116011" lon="14.118308"><time>2023-06-30T14:36:48.000Z</time><ele>2404.8</ele></trkpt><trkpt lat="42.116017" lon="14.118273"><time>2023-06-30T14:36:51.000Z</time><ele>2403.6</ele></trkpt><trkpt lat="42.116022" lon="14.118246"><time>2023-06-30T14:36:53.000Z</time><ele>2403.2</ele></trkpt><trkpt lat="42.116023" lon="14.11823"><time>2023-06-30T14:36:54.000Z</time><ele>2403</ele></trkpt><trkpt lat="42.116027" lon="14.118207"><time>2023-06-30T14:36:56.000Z</time><ele>2402.6</ele></trkpt><trkpt lat="42.116029" lon="14.118164"><time>2023-06-30T14:37:00.000Z</time><ele>2401.4</ele></trkpt><trkpt lat="42.116046" lon="14.118145"><time>2023-06-30T14:37:03.000Z</time><ele>2400.6</ele></trkpt><trkpt lat="42.116053" lon="14.118132"><time>2023-06-30T14:37:04.000Z</time><ele>2400.4</ele></trkpt><trkpt lat="42.116065" lon="14.118113"><time>2023-06-30T14:37:06.000Z</time><ele>2400</ele></trkpt><trkpt lat="42.116077" lon="14.118101"><time>2023-06-30T14:37:08.000Z</time><ele>2399.2</ele></trkpt><trkpt lat="42.116089" lon="14.11808"><time>2023-06-30T14:37:10.000Z</time><ele>2398.8</ele></trkpt><trkpt lat="42.116096" lon="14.118064"><time>2023-06-30T14:37:12.000Z</time><ele>2398</ele></trkpt><trkpt lat="42.116104" lon="14.118049"><time>2023-06-30T14:37:14.000Z</time><ele>2397.4</ele></trkpt><trkpt lat="42.116119" lon="14.118023"><time>2023-06-30T14:37:16.000Z</time><ele>2396.8</ele></trkpt><trkpt lat="42.116123" lon="14.118011"><time>2023-06-30T14:37:17.000Z</time><ele>2396.6</ele></trkpt><trkpt lat="42.116128" lon="14.117974"><time>2023-06-30T14:37:20.000Z</time><ele>2395.8</ele></trkpt><trkpt lat="42.116132" lon="14.117956"><time>2023-06-30T14:37:22.000Z</time><ele>2395.2</ele></trkpt><trkpt lat="42.116134" lon="14.117948"><time>2023-06-30T14:37:23.000Z</time><ele>2395</ele></trkpt><trkpt lat="42.116135" lon="14.117944"><time>2023-06-30T14:37:24.000Z</time><ele>2394.8</ele></trkpt><trkpt lat="42.116136" lon="14.117942"><time>2023-06-30T14:37:25.000Z</time><ele>2394.6</ele></trkpt><trkpt lat="42.116158" lon="14.117892"><time>2023-06-30T14:37:30.000Z</time><ele>2393.6</ele></trkpt><trkpt lat="42.11616" lon="14.117883"><time>2023-06-30T14:37:31.000Z</time><ele>2393.4</ele></trkpt><trkpt lat="42.116157" lon="14.117847"><time>2023-06-30T14:37:34.000Z</time><ele>2392.8</ele></trkpt><trkpt lat="42.116153" lon="14.117833"><time>2023-06-30T14:37:35.000Z</time><ele>2392.6</ele></trkpt><trkpt lat="42.116156" lon="14.117784"><time>2023-06-30T14:37:39.000Z</time><ele>2391.4</ele></trkpt><trkpt lat="42.116158" lon="14.117776"><time>2023-06-30T14:37:40.000Z</time><ele>2391.2</ele></trkpt><trkpt lat="42.116166" lon="14.117747"><time>2023-06-30T14:37:44.000Z</time><ele>2390.4</ele></trkpt><trkpt lat="42.116166" lon="14.117734"><time>2023-06-30T14:37:46.000Z</time><ele>2390</ele></trkpt><trkpt lat="42.11617" lon="14.117724"><time>2023-06-30T14:37:47.000Z</time><ele>2389.8</ele></trkpt><trkpt lat="42.116172" lon="14.117716"><time>2023-06-30T14:37:49.000Z</time><ele>2389.2</ele></trkpt><trkpt lat="42.116174" lon="14.117712"><time>2023-06-30T14:37:50.000Z</time><ele>2389</ele></trkpt><trkpt lat="42.116176" lon="14.117698"><time>2023-06-30T14:37:52.000Z</time><ele>2388.6</ele></trkpt><trkpt lat="42.116176" lon="14.117693"><time>2023-06-30T14:37:53.000Z</time><ele>2388.4</ele></trkpt><trkpt lat="42.116176" lon="14.117692"><time>2023-06-30T14:37:54.000Z</time><ele>2388.2</ele></trkpt><trkpt lat="42.116177" lon="14.11769"><time>2023-06-30T14:37:55.000Z</time><ele>2388.2</ele></trkpt><trkpt lat="42.116194" lon="14.117681"><time>2023-06-30T14:37:59.000Z</time><ele>2387.6</ele></trkpt><trkpt lat="42.116201" lon="14.117682"><time>2023-06-30T14:38:01.000Z</time><ele>2387</ele></trkpt><trkpt lat="42.116217" lon="14.117674"><time>2023-06-30T14:38:04.000Z</time><ele>2385.6</ele></trkpt><trkpt lat="42.11622" lon="14.117669"><time>2023-06-30T14:38:05.000Z</time><ele>2385.4</ele></trkpt><trkpt lat="42.116226" lon="14.117664"><time>2023-06-30T14:38:06.000Z</time><ele>2384.8</ele></trkpt><trkpt lat="42.116231" lon="14.117658"><time>2023-06-30T14:38:07.000Z</time><ele>2384.6</ele></trkpt><trkpt lat="42.116237" lon="14.11765"><time>2023-06-30T14:38:09.000Z</time><ele>2384.4</ele></trkpt><trkpt lat="42.116241" lon="14.117639"><time>2023-06-30T14:38:12.000Z</time><ele>2383.4</ele></trkpt><trkpt lat="42.116271" lon="14.117575"><time>2023-06-30T14:38:18.000Z</time><ele>2382.2</ele></trkpt><trkpt lat="42.116273" lon="14.117549"><time>2023-06-30T14:38:20.000Z</time><ele>2381</ele></trkpt><trkpt lat="42.116279" lon="14.117535"><time>2023-06-30T14:38:22.000Z</time><ele>2380.4</ele></trkpt><trkpt lat="42.116296" lon="14.117525"><time>2023-06-30T14:38:24.000Z</time><ele>2380</ele></trkpt><trkpt lat="42.116336" lon="14.117472"><time>2023-06-30T14:38:29.000Z</time><ele>2378.8</ele></trkpt><trkpt lat="42.116347" lon="14.117456"><time>2023-06-30T14:38:31.000Z</time><ele>2377.8</ele></trkpt><trkpt lat="42.116368" lon="14.117404"><time>2023-06-30T14:38:36.000Z</time><ele>2376.4</ele></trkpt><trkpt lat="42.116382" lon="14.117379"><time>2023-06-30T14:38:39.000Z</time><ele>2375.4</ele></trkpt><trkpt lat="42.11639" lon="14.117371"><time>2023-06-30T14:38:40.000Z</time><ele>2375</ele></trkpt><trkpt lat="42.116398" lon="14.117341"><time>2023-06-30T14:38:43.000Z</time><ele>2374.2</ele></trkpt><trkpt lat="42.11641" lon="14.117335"><time>2023-06-30T14:38:46.000Z</time><ele>2373</ele></trkpt><trkpt lat="42.116425" lon="14.117334"><time>2023-06-30T14:38:48.000Z</time><ele>2372.8</ele></trkpt><trkpt lat="42.116428" lon="14.117329"><time>2023-06-30T14:38:49.000Z</time><ele>2372.4</ele></trkpt><trkpt lat="42.116433" lon="14.117311"><time>2023-06-30T14:38:52.000Z</time><ele>2371.8</ele></trkpt><trkpt lat="42.116438" lon="14.117295"><time>2023-06-30T14:38:54.000Z</time><ele>2371.4</ele></trkpt><trkpt lat="42.116453" lon="14.117268"><time>2023-06-30T14:38:57.000Z</time><ele>2370.6</ele></trkpt><trkpt lat="42.116452" lon="14.117259"><time>2023-06-30T14:38:58.000Z</time><ele>2370.4</ele></trkpt><trkpt lat="42.116456" lon="14.117247"><time>2023-06-30T14:39:00.000Z</time><ele>2369.6</ele></trkpt><trkpt lat="42.116475" lon="14.117217"><time>2023-06-30T14:39:04.000Z</time><ele>2368.4</ele></trkpt><trkpt lat="42.116479" lon="14.117208"><time>2023-06-30T14:39:05.000Z</time><ele>2368.2</ele></trkpt><trkpt lat="42.116483" lon="14.117199"><time>2023-06-30T14:39:06.000Z</time><ele>2367.8</ele></trkpt><trkpt lat="42.116483" lon="14.117191"><time>2023-06-30T14:39:07.000Z</time><ele>2367.4</ele></trkpt><trkpt lat="42.116479" lon="14.117175"><time>2023-06-30T14:39:09.000Z</time><ele>2367</ele></trkpt><trkpt lat="42.116481" lon="14.117161"><time>2023-06-30T14:39:11.000Z</time><ele>2366.8</ele></trkpt><trkpt lat="42.116484" lon="14.117154"><time>2023-06-30T14:39:12.000Z</time><ele>2366.8</ele></trkpt><trkpt lat="42.116491" lon="14.117132"><time>2023-06-30T14:39:15.000Z</time><ele>2366.2</ele></trkpt><trkpt lat="42.116501" lon="14.117113"><time>2023-06-30T14:39:20.000Z</time><ele>2365</ele></trkpt><trkpt lat="42.116503" lon="14.1171"><time>2023-06-30T14:39:22.000Z</time><ele>2365</ele></trkpt><trkpt lat="42.116532" lon="14.117048"><time>2023-06-30T14:39:29.000Z</time><ele>2365.2</ele></trkpt><trkpt lat="42.116566" lon="14.116989"><time>2023-06-30T14:39:35.000Z</time><ele>2364.6</ele></trkpt><trkpt lat="42.11659" lon="14.116969"><time>2023-06-30T14:39:40.000Z</time><ele>2364.2</ele></trkpt><trkpt lat="42.1166" lon="14.116964"><time>2023-06-30T14:39:41.000Z</time><ele>2364</ele></trkpt><trkpt lat="42.116607" lon="14.116959"><time>2023-06-30T14:39:42.000Z</time><ele>2363.8</ele></trkpt><trkpt lat="42.116613" lon="14.116953"><time>2023-06-30T14:39:43.000Z</time><ele>2363.6</ele></trkpt><trkpt lat="42.116622" lon="14.11694"><time>2023-06-30T14:39:45.000Z</time><ele>2362.8</ele></trkpt><trkpt lat="42.116637" lon="14.116924"><time>2023-06-30T14:39:49.000Z</time><ele>2362.2</ele></trkpt><trkpt lat="42.116639" lon="14.116919"><time>2023-06-30T14:39:50.000Z</time><ele>2361.8</ele></trkpt><trkpt lat="42.116642" lon="14.116918"><time>2023-06-30T14:39:51.000Z</time><ele>2361.4</ele></trkpt><trkpt lat="42.116663" lon="14.116895"><time>2023-06-30T14:39:55.000Z</time><ele>2360.4</ele></trkpt><trkpt lat="42.116666" lon="14.116888"><time>2023-06-30T14:39:56.000Z</time><ele>2360.2</ele></trkpt><trkpt lat="42.116669" lon="14.116883"><time>2023-06-30T14:39:57.000Z</time><ele>2360.2</ele></trkpt><trkpt lat="42.116689" lon="14.116871"><time>2023-06-30T14:40:01.000Z</time><ele>2359.4</ele></trkpt><trkpt lat="42.116696" lon="14.116855"><time>2023-06-30T14:40:03.000Z</time><ele>2359.2</ele></trkpt><trkpt lat="42.116702" lon="14.116843"><time>2023-06-30T14:40:06.000Z</time><ele>2358.2</ele></trkpt><trkpt lat="42.116707" lon="14.11684"><time>2023-06-30T14:40:08.000Z</time><ele>2357.6</ele></trkpt><trkpt lat="42.116711" lon="14.116844"><time>2023-06-30T14:40:10.000Z</time><ele>2357</ele></trkpt><trkpt lat="42.116732" lon="14.116857"><time>2023-06-30T14:40:14.000Z</time><ele>2356.2</ele></trkpt><trkpt lat="42.116737" lon="14.116848"><time>2023-06-30T14:40:15.000Z</time><ele>2356</ele></trkpt><trkpt lat="42.116744" lon="14.116841"><time>2023-06-30T14:40:16.000Z</time><ele>2356</ele></trkpt><trkpt lat="42.116769" lon="14.116817"><time>2023-06-30T14:40:19.000Z</time><ele>2355.6</ele></trkpt><trkpt lat="42.116785" lon="14.116792"><time>2023-06-30T14:40:22.000Z</time><ele>2354.6</ele></trkpt><trkpt lat="42.116804" lon="14.116766"><time>2023-06-30T14:40:25.000Z</time><ele>2353.4</ele></trkpt><trkpt lat="42.116812" lon="14.116757"><time>2023-06-30T14:40:26.000Z</time><ele>2353.2</ele></trkpt><trkpt lat="42.116848" lon="14.116735"><time>2023-06-30T14:40:29.000Z</time><ele>2352</ele></trkpt><trkpt lat="42.116869" lon="14.116706"><time>2023-06-30T14:40:32.000Z</time><ele>2351.2</ele></trkpt><trkpt lat="42.116879" lon="14.1167"><time>2023-06-30T14:40:33.000Z</time><ele>2351</ele></trkpt><trkpt lat="42.116892" lon="14.11669"><time>2023-06-30T14:40:34.000Z</time><ele>2350.6</ele></trkpt><trkpt lat="42.116932" lon="14.116651"><time>2023-06-30T14:40:38.000Z</time><ele>2349.8</ele></trkpt><trkpt lat="42.116943" lon="14.11664"><time>2023-06-30T14:40:39.000Z</time><ele>2349.8</ele></trkpt><trkpt lat="42.116979" lon="14.116608"><time>2023-06-30T14:40:42.000Z</time><ele>2349.2</ele></trkpt><trkpt lat="42.116998" lon="14.116587"><time>2023-06-30T14:40:44.000Z</time><ele>2348.8</ele></trkpt><trkpt lat="42.117047" lon="14.116527"><time>2023-06-30T14:40:49.000Z</time><ele>2348</ele></trkpt><trkpt lat="42.117057" lon="14.116512"><time>2023-06-30T14:40:50.000Z</time><ele>2347.8</ele></trkpt><trkpt lat="42.117068" lon="14.116498"><time>2023-06-30T14:40:51.000Z</time><ele>2347.8</ele></trkpt><trkpt lat="42.117077" lon="14.116486"><time>2023-06-30T14:40:52.000Z</time><ele>2347.6</ele></trkpt><trkpt lat="42.117137" lon="14.116399"><time>2023-06-30T14:41:00.000Z</time><ele>2346.6</ele></trkpt><trkpt lat="42.11714" lon="14.116388"><time>2023-06-30T14:41:02.000Z</time><ele>2346.2</ele></trkpt><trkpt lat="42.117163" lon="14.116377"><time>2023-06-30T14:41:06.000Z</time><ele>2345.6</ele></trkpt><trkpt lat="42.117168" lon="14.116376"><time>2023-06-30T14:41:07.000Z</time><ele>2345.4</ele></trkpt><trkpt lat="42.117181" lon="14.116368"><time>2023-06-30T14:41:09.000Z</time><ele>2345</ele></trkpt><trkpt lat="42.117194" lon="14.116358"><time>2023-06-30T14:41:11.000Z</time><ele>2344.4</ele></trkpt><trkpt lat="42.117201" lon="14.116354"><time>2023-06-30T14:41:12.000Z</time><ele>2344.2</ele></trkpt><trkpt lat="42.117226" lon="14.116343"><time>2023-06-30T14:41:15.000Z</time><ele>2343.8</ele></trkpt><trkpt lat="42.117234" lon="14.116339"><time>2023-06-30T14:41:16.000Z</time><ele>2343.4</ele></trkpt><trkpt lat="42.11725" lon="14.116333"><time>2023-06-30T14:41:19.000Z</time><ele>2342.4</ele></trkpt><trkpt lat="42.117268" lon="14.116327"><time>2023-06-30T14:41:21.000Z</time><ele>2341.8</ele></trkpt><trkpt lat="42.117286" lon="14.116311"><time>2023-06-30T14:41:23.000Z</time><ele>2341.2</ele></trkpt><trkpt lat="42.117309" lon="14.116275"><time>2023-06-30T14:41:26.000Z</time><ele>2340.4</ele></trkpt><trkpt lat="42.117319" lon="14.116262"><time>2023-06-30T14:41:27.000Z</time><ele>2340.4</ele></trkpt><trkpt lat="42.117388" lon="14.116219"><time>2023-06-30T14:41:33.000Z</time><ele>2340.4</ele></trkpt><trkpt lat="42.117411" lon="14.116202"><time>2023-06-30T14:41:35.000Z</time><ele>2340.2</ele></trkpt><trkpt lat="42.117442" lon="14.116181"><time>2023-06-30T14:41:38.000Z</time><ele>2339.2</ele></trkpt><trkpt lat="42.117455" lon="14.116176"><time>2023-06-30T14:41:39.000Z</time><ele>2339.2</ele></trkpt><trkpt lat="42.117467" lon="14.11617"><time>2023-06-30T14:41:40.000Z</time><ele>2339</ele></trkpt><trkpt lat="42.117492" lon="14.116148"><time>2023-06-30T14:41:44.000Z</time><ele>2338.2</ele></trkpt><trkpt lat="42.117497" lon="14.116145"><time>2023-06-30T14:41:46.000Z</time><ele>2337.6</ele></trkpt><trkpt lat="42.117498" lon="14.116146"><time>2023-06-30T14:41:47.000Z</time><ele>2337.4</ele></trkpt><trkpt lat="42.117501" lon="14.116144"><time>2023-06-30T14:41:49.000Z</time><ele>2337</ele></trkpt><trkpt lat="42.117513" lon="14.116144"><time>2023-06-30T14:41:51.000Z</time><ele>2336.2</ele></trkpt><trkpt lat="42.117531" lon="14.116146"><time>2023-06-30T14:41:53.000Z</time><ele>2335.8</ele></trkpt><trkpt lat="42.117547" lon="14.116128"><time>2023-06-30T14:41:56.000Z</time><ele>2335</ele></trkpt><trkpt lat="42.117555" lon="14.116126"><time>2023-06-30T14:41:58.000Z</time><ele>2333.8</ele></trkpt><trkpt lat="42.117563" lon="14.116129"><time>2023-06-30T14:42:00.000Z</time><ele>2332.8</ele></trkpt><trkpt lat="42.11757" lon="14.116129"><time>2023-06-30T14:42:01.000Z</time><ele>2332.6</ele></trkpt><trkpt lat="42.117574" lon="14.116125"><time>2023-06-30T14:42:02.000Z</time><ele>2332.2</ele></trkpt><trkpt lat="42.117587" lon="14.116117"><time>2023-06-30T14:42:05.000Z</time><ele>2332</ele></trkpt><trkpt lat="42.117597" lon="14.116124"><time>2023-06-30T14:42:07.000Z</time><ele>2331.4</ele></trkpt><trkpt lat="42.117602" lon="14.116125"><time>2023-06-30T14:42:08.000Z</time><ele>2331.2</ele></trkpt><trkpt lat="42.117613" lon="14.116112"><time>2023-06-30T14:42:12.000Z</time><ele>2330.2</ele></trkpt><trkpt lat="42.117625" lon="14.116116"><time>2023-06-30T14:42:15.000Z</time><ele>2329.6</ele></trkpt><trkpt lat="42.117632" lon="14.116119"><time>2023-06-30T14:42:16.000Z</time><ele>2329.2</ele></trkpt><trkpt lat="42.117652" lon="14.116117"><time>2023-06-30T14:42:21.000Z</time><ele>2328</ele></trkpt><trkpt lat="42.117662" lon="14.116109"><time>2023-06-30T14:42:24.000Z</time><ele>2327.4</ele></trkpt><trkpt lat="42.117671" lon="14.116098"><time>2023-06-30T14:42:26.000Z</time><ele>2326.6</ele></trkpt><trkpt lat="42.117688" lon="14.116077"><time>2023-06-30T14:42:29.000Z</time><ele>2325.6</ele></trkpt><trkpt lat="42.117696" lon="14.116075"><time>2023-06-30T14:42:30.000Z</time><ele>2325.4</ele></trkpt><trkpt lat="42.11771" lon="14.116065"><time>2023-06-30T14:42:32.000Z</time><ele>2324.8</ele></trkpt><trkpt lat="42.117718" lon="14.116061"><time>2023-06-30T14:42:33.000Z</time><ele>2324.4</ele></trkpt><trkpt lat="42.117729" lon="14.11606"><time>2023-06-30T14:42:34.000Z</time><ele>2324.2</ele></trkpt><trkpt lat="42.117748" lon="14.116058"><time>2023-06-30T14:42:36.000Z</time><ele>2323.6</ele></trkpt><trkpt lat="42.117763" lon="14.116053"><time>2023-06-30T14:42:38.000Z</time><ele>2323</ele></trkpt><trkpt lat="42.117794" lon="14.116043"><time>2023-06-30T14:42:43.000Z</time><ele>2322</ele></trkpt><trkpt lat="42.117803" lon="14.116045"><time>2023-06-30T14:42:44.000Z</time><ele>2321.6</ele></trkpt><trkpt lat="42.117827" lon="14.116036"><time>2023-06-30T14:42:47.000Z</time><ele>2320.8</ele></trkpt><trkpt lat="42.117855" lon="14.116027"><time>2023-06-30T14:42:50.000Z</time><ele>2319.8</ele></trkpt><trkpt lat="42.117862" lon="14.116021"><time>2023-06-30T14:42:51.000Z</time><ele>2319.6</ele></trkpt><trkpt lat="42.11788" lon="14.11601"><time>2023-06-30T14:42:54.000Z</time><ele>2319</ele></trkpt><trkpt lat="42.1179" lon="14.116009"><time>2023-06-30T14:42:56.000Z</time><ele>2318.4</ele></trkpt><trkpt lat="42.117912" lon="14.116001"><time>2023-06-30T14:42:57.000Z</time><ele>2318</ele></trkpt><trkpt lat="42.117935" lon="14.115974"><time>2023-06-30T14:42:59.000Z</time><ele>2317.4</ele></trkpt><trkpt lat="42.117982" lon="14.115944"><time>2023-06-30T14:43:02.000Z</time><ele>2316.2</ele></trkpt><trkpt lat="42.117994" lon="14.115943"><time>2023-06-30T14:43:03.000Z</time><ele>2316</ele></trkpt><trkpt lat="42.118035" lon="14.115947"><time>2023-06-30T14:43:06.000Z</time><ele>2315.2</ele></trkpt><trkpt lat="42.118044" lon="14.11595"><time>2023-06-30T14:43:07.000Z</time><ele>2315</ele></trkpt><trkpt lat="42.118079" lon="14.115964"><time>2023-06-30T14:43:10.000Z</time><ele>2314.2</ele></trkpt><trkpt lat="42.11809" lon="14.115964"><time>2023-06-30T14:43:11.000Z</time><ele>2314.2</ele></trkpt><trkpt lat="42.118163" lon="14.115941"><time>2023-06-30T14:43:17.000Z</time><ele>2313</ele></trkpt><trkpt lat="42.118178" lon="14.115942"><time>2023-06-30T14:43:18.000Z</time><ele>2313</ele></trkpt><trkpt lat="42.118212" lon="14.115948"><time>2023-06-30T14:43:20.000Z</time><ele>2312.6</ele></trkpt><trkpt lat="42.118288" lon="14.115934"><time>2023-06-30T14:43:25.000Z</time><ele>2312</ele></trkpt><trkpt lat="42.118351" lon="14.115927"><time>2023-06-30T14:43:28.000Z</time><ele>2311.8</ele></trkpt><trkpt lat="42.118366" lon="14.115914"><time>2023-06-30T14:43:29.000Z</time><ele>2311.8</ele></trkpt><trkpt lat="42.118386" lon="14.115888"><time>2023-06-30T14:43:31.000Z</time><ele>2311.8</ele></trkpt><trkpt lat="42.118411" lon="14.115864"><time>2023-06-30T14:43:34.000Z</time><ele>2312.2</ele></trkpt><trkpt lat="42.118416" lon="14.115855"><time>2023-06-30T14:43:36.000Z</time><ele>2312.4</ele></trkpt><trkpt lat="42.118434" lon="14.115853"><time>2023-06-30T14:43:39.000Z</time><ele>2312.2</ele></trkpt><trkpt lat="42.118436" lon="14.115857"><time>2023-06-30T14:43:40.000Z</time><ele>2312</ele></trkpt><trkpt lat="42.118433" lon="14.115867"><time>2023-06-30T14:43:42.000Z</time><ele>2311.6</ele></trkpt><trkpt lat="42.118428" lon="14.115881"><time>2023-06-30T14:43:44.000Z</time><ele>2311.2</ele></trkpt><trkpt lat="42.118428" lon="14.115888"><time>2023-06-30T14:43:45.000Z</time><ele>2311</ele></trkpt><trkpt lat="42.11843" lon="14.115895"><time>2023-06-30T14:43:46.000Z</time><ele>2310.8</ele></trkpt><trkpt lat="42.118435" lon="14.115915"><time>2023-06-30T14:43:48.000Z</time><ele>2309.8</ele></trkpt><trkpt lat="42.118441" lon="14.115924"><time>2023-06-30T14:43:49.000Z</time><ele>2309.6</ele></trkpt><trkpt lat="42.118455" lon="14.115944"><time>2023-06-30T14:43:51.000Z</time><ele>2309</ele></trkpt><trkpt lat="42.118472" lon="14.115942"><time>2023-06-30T14:43:53.000Z</time><ele>2308.6</ele></trkpt><trkpt lat="42.118497" lon="14.115936"><time>2023-06-30T14:43:56.000Z</time><ele>2307.8</ele></trkpt><trkpt lat="42.118503" lon="14.115933"><time>2023-06-30T14:43:57.000Z</time><ele>2307.4</ele></trkpt><trkpt lat="42.118514" lon="14.115928"><time>2023-06-30T14:44:00.000Z</time><ele>2307</ele></trkpt><trkpt lat="42.118521" lon="14.115934"><time>2023-06-30T14:44:02.000Z</time><ele>2306.4</ele></trkpt><trkpt lat="42.118524" lon="14.115937"><time>2023-06-30T14:44:03.000Z</time><ele>2306.2</ele></trkpt><trkpt lat="42.118535" lon="14.115956"><time>2023-06-30T14:44:06.000Z</time><ele>2305.4</ele></trkpt><trkpt lat="42.118548" lon="14.115962"><time>2023-06-30T14:44:09.000Z</time><ele>2304.2</ele></trkpt><trkpt lat="42.118551" lon="14.115968"><time>2023-06-30T14:44:10.000Z</time><ele>2304</ele></trkpt><trkpt lat="42.118578" lon="14.115998"><time>2023-06-30T14:44:14.000Z</time><ele>2303.2</ele></trkpt><trkpt lat="42.118602" lon="14.11601"><time>2023-06-30T14:44:16.000Z</time><ele>2302.2</ele></trkpt><trkpt lat="42.118616" lon="14.115997"><time>2023-06-30T14:44:18.000Z</time><ele>2301</ele></trkpt><trkpt lat="42.11864" lon="14.115988"><time>2023-06-30T14:44:21.000Z</time><ele>2300.2</ele></trkpt><trkpt lat="42.118645" lon="14.11599"><time>2023-06-30T14:44:22.000Z</time><ele>2299.8</ele></trkpt><trkpt lat="42.118671" lon="14.116023"><time>2023-06-30T14:44:26.000Z</time><ele>2299.2</ele></trkpt><trkpt lat="42.118701" lon="14.116009"><time>2023-06-30T14:44:29.000Z</time><ele>2298.6</ele></trkpt><trkpt lat="42.118736" lon="14.115998"><time>2023-06-30T14:44:33.000Z</time><ele>2297.2</ele></trkpt><trkpt lat="42.118761" lon="14.115992"><time>2023-06-30T14:44:37.000Z</time><ele>2296.2</ele></trkpt><trkpt lat="42.118769" lon="14.115993"><time>2023-06-30T14:44:38.000Z</time><ele>2296</ele></trkpt><trkpt lat="42.118775" lon="14.115994"><time>2023-06-30T14:44:39.000Z</time><ele>2295.6</ele></trkpt><trkpt lat="42.118791" lon="14.115994"><time>2023-06-30T14:44:41.000Z</time><ele>2294.6</ele></trkpt><trkpt lat="42.1188" lon="14.115991"><time>2023-06-30T14:44:42.000Z</time><ele>2294.4</ele></trkpt><trkpt lat="42.118828" lon="14.115977"><time>2023-06-30T14:44:45.000Z</time><ele>2293.6</ele></trkpt><trkpt lat="42.11884" lon="14.115973"><time>2023-06-30T14:44:47.000Z</time><ele>2293.2</ele></trkpt><trkpt lat="42.118852" lon="14.115976"><time>2023-06-30T14:44:48.000Z</time><ele>2293</ele></trkpt><trkpt lat="42.118866" lon="14.115979"><time>2023-06-30T14:44:49.000Z</time><ele>2292.6</ele></trkpt><trkpt lat="42.118905" lon="14.115987"><time>2023-06-30T14:44:52.000Z</time><ele>2291.2</ele></trkpt><trkpt lat="42.11892" lon="14.115987"><time>2023-06-30T14:44:53.000Z</time><ele>2290.8</ele></trkpt><trkpt lat="42.118949" lon="14.115984"><time>2023-06-30T14:44:55.000Z</time><ele>2290</ele></trkpt><trkpt lat="42.118995" lon="14.115965"><time>2023-06-30T14:45:00.000Z</time><ele>2289</ele></trkpt><trkpt lat="42.118999" lon="14.115964"><time>2023-06-30T14:45:01.000Z</time><ele>2288.6</ele></trkpt><trkpt lat="42.119019" lon="14.115964"><time>2023-06-30T14:45:04.000Z</time><ele>2288</ele></trkpt><trkpt lat="42.119023" lon="14.115965"><time>2023-06-30T14:45:05.000Z</time><ele>2287.8</ele></trkpt><trkpt lat="42.119038" lon="14.115968"><time>2023-06-30T14:45:08.000Z</time><ele>2287.2</ele></trkpt><trkpt lat="42.119048" lon="14.115976"><time>2023-06-30T14:45:10.000Z</time><ele>2286.8</ele></trkpt><trkpt lat="42.119059" lon="14.11598"><time>2023-06-30T14:45:11.000Z</time><ele>2286.6</ele></trkpt><trkpt lat="42.11908" lon="14.115975"><time>2023-06-30T14:45:13.000Z</time><ele>2286.4</ele></trkpt><trkpt lat="42.119102" lon="14.115987"><time>2023-06-30T14:45:16.000Z</time><ele>2285.6</ele></trkpt><trkpt lat="42.119111" lon="14.115991"><time>2023-06-30T14:45:17.000Z</time><ele>2285.4</ele></trkpt><trkpt lat="42.119129" lon="14.115981"><time>2023-06-30T14:45:19.000Z</time><ele>2284.4</ele></trkpt><trkpt lat="42.119137" lon="14.115978"><time>2023-06-30T14:45:20.000Z</time><ele>2284</ele></trkpt><trkpt lat="42.119153" lon="14.115973"><time>2023-06-30T14:45:23.000Z</time><ele>2283.2</ele></trkpt><trkpt lat="42.119174" lon="14.115988"><time>2023-06-30T14:45:26.000Z</time><ele>2282</ele></trkpt><trkpt lat="42.119188" lon="14.11598"><time>2023-06-30T14:45:28.000Z</time><ele>2281.6</ele></trkpt><trkpt lat="42.119197" lon="14.115975"><time>2023-06-30T14:45:30.000Z</time><ele>2280.8</ele></trkpt><trkpt lat="42.119203" lon="14.115973"><time>2023-06-30T14:45:31.000Z</time><ele>2280.6</ele></trkpt><trkpt lat="42.119214" lon="14.115974"><time>2023-06-30T14:45:33.000Z</time><ele>2280.2</ele></trkpt><trkpt lat="42.119219" lon="14.115979"><time>2023-06-30T14:45:35.000Z</time><ele>2280</ele></trkpt><trkpt lat="42.119225" lon="14.115989"><time>2023-06-30T14:45:37.000Z</time><ele>2279.8</ele></trkpt><trkpt lat="42.119238" lon="14.115994"><time>2023-06-30T14:45:39.000Z</time><ele>2279</ele></trkpt><trkpt lat="42.119244" lon="14.115997"><time>2023-06-30T14:45:40.000Z</time><ele>2278.6</ele></trkpt><trkpt lat="42.119246" lon="14.116014"><time>2023-06-30T14:45:44.000Z</time><ele>2277.4</ele></trkpt><trkpt lat="42.119255" lon="14.116024"><time>2023-06-30T14:45:46.000Z</time><ele>2277.2</ele></trkpt><trkpt lat="42.119272" lon="14.116021"><time>2023-06-30T14:45:50.000Z</time><ele>2276.2</ele></trkpt><trkpt lat="42.119276" lon="14.116024"><time>2023-06-30T14:45:51.000Z</time><ele>2276</ele></trkpt><trkpt lat="42.119283" lon="14.116031"><time>2023-06-30T14:45:52.000Z</time><ele>2275.8</ele></trkpt><trkpt lat="42.119291" lon="14.116038"><time>2023-06-30T14:45:53.000Z</time><ele>2275.8</ele></trkpt><trkpt lat="42.119303" lon="14.116051"><time>2023-06-30T14:45:55.000Z</time><ele>2275</ele></trkpt><trkpt lat="42.119308" lon="14.116061"><time>2023-06-30T14:45:59.000Z</time><ele>2274.2</ele></trkpt><trkpt lat="42.11931" lon="14.116063"><time>2023-06-30T14:46:00.000Z</time><ele>2274</ele></trkpt><trkpt lat="42.119309" lon="14.116054"><time>2023-06-30T14:46:03.000Z</time><ele>2274</ele></trkpt><trkpt lat="42.119296" lon="14.116032"><time>2023-06-30T14:46:05.000Z</time><ele>2274.4</ele></trkpt><trkpt lat="42.119293" lon="14.116012"><time>2023-06-30T14:46:07.000Z</time><ele>2275</ele></trkpt><trkpt lat="42.119319" lon="14.115999"><time>2023-06-30T14:46:11.000Z</time><ele>2275.4</ele></trkpt><trkpt lat="42.119345" lon="14.115946"><time>2023-06-30T14:46:16.000Z</time><ele>2274.8</ele></trkpt><trkpt lat="42.11936" lon="14.115896"><time>2023-06-30T14:46:22.000Z</time><ele>2274.4</ele></trkpt><trkpt lat="42.119373" lon="14.115883"><time>2023-06-30T14:46:26.000Z</time><ele>2273.8</ele></trkpt><trkpt lat="42.119377" lon="14.115884"><time>2023-06-30T14:46:27.000Z</time><ele>2273.6</ele></trkpt><trkpt lat="42.119391" lon="14.115881"><time>2023-06-30T14:46:29.000Z</time><ele>2272.8</ele></trkpt><trkpt lat="42.119401" lon="14.115845"><time>2023-06-30T14:46:32.000Z</time><ele>2271.8</ele></trkpt><trkpt lat="42.11941" lon="14.115838"><time>2023-06-30T14:46:33.000Z</time><ele>2271.4</ele></trkpt><trkpt lat="42.119422" lon="14.115838"><time>2023-06-30T14:46:34.000Z</time><ele>2271.2</ele></trkpt><trkpt lat="42.119434" lon="14.115834"><time>2023-06-30T14:46:35.000Z</time><ele>2271.2</ele></trkpt><trkpt lat="42.119442" lon="14.115829"><time>2023-06-30T14:46:36.000Z</time><ele>2271.2</ele></trkpt><trkpt lat="42.119464" lon="14.115832"><time>2023-06-30T14:46:38.000Z</time><ele>2270</ele></trkpt><trkpt lat="42.119476" lon="14.115839"><time>2023-06-30T14:46:39.000Z</time><ele>2269.4</ele></trkpt><trkpt lat="42.119505" lon="14.115843"><time>2023-06-30T14:46:41.000Z</time><ele>2268.8</ele></trkpt><trkpt lat="42.119541" lon="14.115836"><time>2023-06-30T14:46:44.000Z</time><ele>2267.8</ele></trkpt><trkpt lat="42.119555" lon="14.115831"><time>2023-06-30T14:46:45.000Z</time><ele>2267.2</ele></trkpt><trkpt lat="42.119566" lon="14.115821"><time>2023-06-30T14:46:46.000Z</time><ele>2266.8</ele></trkpt><trkpt lat="42.119608" lon="14.115796"><time>2023-06-30T14:46:51.000Z</time><ele>2265.6</ele></trkpt><trkpt lat="42.119617" lon="14.115794"><time>2023-06-30T14:46:52.000Z</time><ele>2265</ele></trkpt><trkpt lat="42.119623" lon="14.115791"><time>2023-06-30T14:46:53.000Z</time><ele>2264.6</ele></trkpt><trkpt lat="42.119629" lon="14.115788"><time>2023-06-30T14:46:54.000Z</time><ele>2264.4</ele></trkpt><trkpt lat="42.119635" lon="14.115784"><time>2023-06-30T14:46:55.000Z</time><ele>2264</ele></trkpt><trkpt lat="42.119643" lon="14.115765"><time>2023-06-30T14:46:58.000Z</time><ele>2263.6</ele></trkpt><trkpt lat="42.119648" lon="14.115758"><time>2023-06-30T14:47:00.000Z</time><ele>2263.2</ele></trkpt><trkpt lat="42.119653" lon="14.11576"><time>2023-06-30T14:47:02.000Z</time><ele>2262.6</ele></trkpt><trkpt lat="42.119663" lon="14.115773"><time>2023-06-30T14:47:04.000Z</time><ele>2262.2</ele></trkpt><trkpt lat="42.119669" lon="14.115778"><time>2023-06-30T14:47:05.000Z</time><ele>2262.2</ele></trkpt><trkpt lat="42.119691" lon="14.115782"><time>2023-06-30T14:47:10.000Z</time><ele>2261.8</ele></trkpt><trkpt lat="42.119696" lon="14.115783"><time>2023-06-30T14:47:12.000Z</time><ele>2261.4</ele></trkpt><trkpt lat="42.1197" lon="14.115794"><time>2023-06-30T14:47:14.000Z</time><ele>2261</ele></trkpt><trkpt lat="42.119708" lon="14.115806"><time>2023-06-30T14:47:20.000Z</time><ele>2260.6</ele></trkpt><trkpt lat="42.119708" lon="14.115806"><time>2023-06-30T14:47:22.000Z</time><ele>2260.6</ele></trkpt><trkpt lat="42.119708" lon="14.115807"><time>2023-06-30T14:47:36.000Z</time><ele>2260.4</ele></trkpt><trkpt lat="42.119708" lon="14.115809"><time>2023-06-30T14:47:40.000Z</time><ele>2260</ele></trkpt><trkpt lat="42.119736" lon="14.115819"><time>2023-06-30T14:47:57.000Z</time><ele>2259.2</ele></trkpt><trkpt lat="42.119743" lon="14.115823"><time>2023-06-30T14:48:01.000Z</time><ele>2259</ele></trkpt><trkpt lat="42.119754" lon="14.115826"><time>2023-06-30T14:48:11.000Z</time><ele>2257.8</ele></trkpt><trkpt lat="42.119761" lon="14.115829"><time>2023-06-30T14:48:17.000Z</time><ele>2256.8</ele></trkpt><trkpt lat="42.119769" lon="14.115835"><time>2023-06-30T14:48:26.000Z</time><ele>2255.8</ele></trkpt><trkpt lat="42.119778" lon="14.11585"><time>2023-06-30T14:48:39.000Z</time><ele>2254.6</ele></trkpt><trkpt lat="42.119784" lon="14.115852"><time>2023-06-30T14:48:42.000Z</time><ele>2254.4</ele></trkpt><trkpt lat="42.119798" lon="14.115857"><time>2023-06-30T14:48:48.000Z</time><ele>2253.4</ele></trkpt><trkpt lat="42.119802" lon="14.115861"><time>2023-06-30T14:48:54.000Z</time><ele>2252.4</ele></trkpt><trkpt lat="42.119808" lon="14.115872"><time>2023-06-30T14:49:00.000Z</time><ele>2251.2</ele></trkpt><trkpt lat="42.119885" lon="14.115909"><time>2023-06-30T14:49:26.000Z</time><ele>2251.2</ele></trkpt><trkpt lat="42.119888" lon="14.115913"><time>2023-06-30T14:49:30.000Z</time><ele>2251.2</ele></trkpt><trkpt lat="42.119895" lon="14.115915"><time>2023-06-30T14:49:32.000Z</time><ele>2250.8</ele></trkpt><trkpt lat="42.119897" lon="14.115917"><time>2023-06-30T14:49:33.000Z</time><ele>2250.8</ele></trkpt><trkpt lat="42.119903" lon="14.11592"><time>2023-06-30T14:49:35.000Z</time><ele>2250.6</ele></trkpt><trkpt lat="42.119908" lon="14.115922"><time>2023-06-30T14:49:37.000Z</time><ele>2250.2</ele></trkpt><trkpt lat="42.119911" lon="14.115923"><time>2023-06-30T14:49:39.000Z</time><ele>2249.8</ele></trkpt><trkpt lat="42.119913" lon="14.115924"><time>2023-06-30T14:49:40.000Z</time><ele>2249.8</ele></trkpt><trkpt lat="42.119918" lon="14.115928"><time>2023-06-30T14:49:44.000Z</time><ele>2249.2</ele></trkpt><trkpt lat="42.119927" lon="14.115937"><time>2023-06-30T14:49:47.000Z</time><ele>2248.8</ele></trkpt><trkpt lat="42.119941" lon="14.115944"><time>2023-06-30T14:49:50.000Z</time><ele>2248.2</ele></trkpt><trkpt lat="42.119946" lon="14.115947"><time>2023-06-30T14:49:51.000Z</time><ele>2248.2</ele></trkpt><trkpt lat="42.120004" lon="14.115973"><time>2023-06-30T14:49:55.000Z</time><ele>2247.8</ele></trkpt><trkpt lat="42.120031" lon="14.115982"><time>2023-06-30T14:49:57.000Z</time><ele>2247</ele></trkpt><trkpt lat="42.120076" lon="14.116009"><time>2023-06-30T14:50:00.000Z</time><ele>2246.6</ele></trkpt><trkpt lat="42.120105" lon="14.116031"><time>2023-06-30T14:50:02.000Z</time><ele>2246.2</ele></trkpt><trkpt lat="42.120113" lon="14.116038"><time>2023-06-30T14:50:03.000Z</time><ele>2246</ele></trkpt><trkpt lat="42.120144" lon="14.116052"><time>2023-06-30T14:50:06.000Z</time><ele>2245.2</ele></trkpt><trkpt lat="42.120159" lon="14.116051"><time>2023-06-30T14:50:08.000Z</time><ele>2245</ele></trkpt><trkpt lat="42.120165" lon="14.116051"><time>2023-06-30T14:50:09.000Z</time><ele>2244.8</ele></trkpt><trkpt lat="42.120171" lon="14.11605"><time>2023-06-30T14:50:10.000Z</time><ele>2244.6</ele></trkpt><trkpt lat="42.120187" lon="14.116061"><time>2023-06-30T14:50:12.000Z</time><ele>2244.2</ele></trkpt><trkpt lat="42.120192" lon="14.116067"><time>2023-06-30T14:50:13.000Z</time><ele>2244</ele></trkpt><trkpt lat="42.120199" lon="14.116077"><time>2023-06-30T14:50:14.000Z</time><ele>2243.8</ele></trkpt><trkpt lat="42.120227" lon="14.116104"><time>2023-06-30T14:50:18.000Z</time><ele>2242.8</ele></trkpt><trkpt lat="42.120231" lon="14.116105"><time>2023-06-30T14:50:19.000Z</time><ele>2242.4</ele></trkpt><trkpt lat="42.120229" lon="14.116105"><time>2023-06-30T14:50:20.000Z</time><ele>2242</ele></trkpt><trkpt lat="42.120228" lon="14.116107"><time>2023-06-30T14:50:21.000Z</time><ele>2241.6</ele></trkpt><trkpt lat="42.120228" lon="14.116107"><time>2023-06-30T14:50:22.000Z</time><ele>2241.4</ele></trkpt><trkpt lat="42.120228" lon="14.116108"><time>2023-06-30T14:50:23.000Z</time><ele>2241.2</ele></trkpt><trkpt lat="42.120228" lon="14.116108"><time>2023-06-30T14:50:24.000Z</time><ele>2241.2</ele></trkpt><trkpt lat="42.120227" lon="14.116108"><time>2023-06-30T14:50:25.000Z</time><ele>2241.2</ele></trkpt><trkpt lat="42.120225" lon="14.116102"><time>2023-06-30T14:50:29.000Z</time><ele>2241</ele></trkpt><trkpt lat="42.120226" lon="14.116099"><time>2023-06-30T14:50:30.000Z</time><ele>2241</ele></trkpt><trkpt lat="42.120223" lon="14.1161"><time>2023-06-30T14:50:50.000Z</time><ele>2241.6</ele></trkpt><trkpt lat="42.120223" lon="14.1161"><time>2023-06-30T14:50:52.000Z</time><ele>2241.8</ele></trkpt><trkpt lat="42.120223" lon="14.116099"><time>2023-06-30T14:50:56.000Z</time><ele>2242.2</ele></trkpt><trkpt lat="42.120222" lon="14.116099"><time>2023-06-30T14:50:59.000Z</time><ele>2241.8</ele></trkpt><trkpt lat="42.120223" lon="14.116098"><time>2023-06-30T14:51:12.000Z</time><ele>2241.4</ele></trkpt><trkpt lat="42.120242" lon="14.116096"><time>2023-06-30T14:51:50.000Z</time><ele>2241.2</ele></trkpt><trkpt lat="42.120391" lon="14.1161"><time>2023-06-30T14:52:20.000Z</time><ele>2241.2</ele></trkpt><trkpt lat="42.120392" lon="14.116097"><time>2023-06-30T14:52:30.000Z</time><ele>2241.2</ele></trkpt><trkpt lat="42.120392" lon="14.116097"><time>2023-06-30T14:52:31.000Z</time><ele>2241.2</ele></trkpt><trkpt lat="42.120392" lon="14.116097"><time>2023-06-30T14:52:37.000Z</time><ele>2236</ele></trkpt><trkpt lat="42.120421" lon="14.116093"><time>2023-06-30T14:52:43.000Z</time><ele>2235.4</ele></trkpt><trkpt lat="42.12043" lon="14.11609"><time>2023-06-30T14:52:45.000Z</time><ele>2235</ele></trkpt><trkpt lat="42.120451" lon="14.11608"><time>2023-06-30T14:52:51.000Z</time><ele>2234.4</ele></trkpt><trkpt lat="42.12045" lon="14.116077"><time>2023-06-30T14:52:52.000Z</time><ele>2234.4</ele></trkpt><trkpt lat="42.120458" lon="14.116061"><time>2023-06-30T14:52:56.000Z</time><ele>2233.8</ele></trkpt><trkpt lat="42.120468" lon="14.11605"><time>2023-06-30T14:52:58.000Z</time><ele>2233.8</ele></trkpt><trkpt lat="42.120481" lon="14.11603"><time>2023-06-30T14:53:02.000Z</time><ele>2232.8</ele></trkpt><trkpt lat="42.120512" lon="14.116017"><time>2023-06-30T14:53:06.000Z</time><ele>2231.8</ele></trkpt><trkpt lat="42.120519" lon="14.116011"><time>2023-06-30T14:53:07.000Z</time><ele>2231.6</ele></trkpt><trkpt lat="42.120547" lon="14.115989"><time>2023-06-30T14:53:11.000Z</time><ele>2230.6</ele></trkpt><trkpt lat="42.120567" lon="14.115986"><time>2023-06-30T14:53:13.000Z</time><ele>2230.2</ele></trkpt><trkpt lat="42.120586" lon="14.115992"><time>2023-06-30T14:53:15.000Z</time><ele>2229.4</ele></trkpt><trkpt lat="42.120615" lon="14.115982"><time>2023-06-30T14:53:18.000Z</time><ele>2228</ele></trkpt><trkpt lat="42.120618" lon="14.115973"><time>2023-06-30T14:53:19.000Z</time><ele>2227.8</ele></trkpt><trkpt lat="42.120632" lon="14.115944"><time>2023-06-30T14:53:23.000Z</time><ele>2226.8</ele></trkpt><trkpt lat="42.120635" lon="14.115939"><time>2023-06-30T14:53:24.000Z</time><ele>2226.6</ele></trkpt><trkpt lat="42.120646" lon="14.115937"><time>2023-06-30T14:53:26.000Z</time><ele>2226</ele></trkpt><trkpt lat="42.120656" lon="14.115944"><time>2023-06-30T14:53:27.000Z</time><ele>2225.6</ele></trkpt><trkpt lat="42.120666" lon="14.115947"><time>2023-06-30T14:53:28.000Z</time><ele>2225.4</ele></trkpt><trkpt lat="42.120677" lon="14.115948"><time>2023-06-30T14:53:30.000Z</time><ele>2224.4</ele></trkpt><trkpt lat="42.120696" lon="14.115957"><time>2023-06-30T14:53:32.000Z</time><ele>2223.8</ele></trkpt><trkpt lat="42.120706" lon="14.115955"><time>2023-06-30T14:53:33.000Z</time><ele>2223.4</ele></trkpt><trkpt lat="42.120727" lon="14.115934"><time>2023-06-30T14:53:36.000Z</time><ele>2222.8</ele></trkpt><trkpt lat="42.120737" lon="14.115925"><time>2023-06-30T14:53:37.000Z</time><ele>2222.2</ele></trkpt><trkpt lat="42.120747" lon="14.115901"><time>2023-06-30T14:53:39.000Z</time><ele>2221.4</ele></trkpt><trkpt lat="42.120753" lon="14.11589"><time>2023-06-30T14:53:40.000Z</time><ele>2220.8</ele></trkpt><trkpt lat="42.120764" lon="14.115881"><time>2023-06-30T14:53:41.000Z</time><ele>2220.6</ele></trkpt><trkpt lat="42.120796" lon="14.115841"><time>2023-06-30T14:53:44.000Z</time><ele>2219.8</ele></trkpt><trkpt lat="42.120806" lon="14.115823"><time>2023-06-30T14:53:45.000Z</time><ele>2219</ele></trkpt><trkpt lat="42.120814" lon="14.115808"><time>2023-06-30T14:53:46.000Z</time><ele>2218.6</ele></trkpt><trkpt lat="42.120831" lon="14.115763"><time>2023-06-30T14:53:50.000Z</time><ele>2217.4</ele></trkpt><trkpt lat="42.120836" lon="14.115755"><time>2023-06-30T14:53:52.000Z</time><ele>2217.2</ele></trkpt><trkpt lat="42.120842" lon="14.115742"><time>2023-06-30T14:53:55.000Z</time><ele>2216.8</ele></trkpt><trkpt lat="42.120852" lon="14.115736"><time>2023-06-30T14:53:57.000Z</time><ele>2216.4</ele></trkpt><trkpt lat="42.120856" lon="14.11573"><time>2023-06-30T14:53:59.000Z</time><ele>2215.8</ele></trkpt><trkpt lat="42.12086" lon="14.115723"><time>2023-06-30T14:54:00.000Z</time><ele>2215.8</ele></trkpt><trkpt lat="42.120869" lon="14.115716"><time>2023-06-30T14:54:02.000Z</time><ele>2215</ele></trkpt><trkpt lat="42.120898" lon="14.115697"><time>2023-06-30T14:54:05.000Z</time><ele>2213.8</ele></trkpt><trkpt lat="42.12091" lon="14.115674"><time>2023-06-30T14:54:07.000Z</time><ele>2213.2</ele></trkpt><trkpt lat="42.120916" lon="14.115653"><time>2023-06-30T14:54:10.000Z</time><ele>2212.6</ele></trkpt><trkpt lat="42.120919" lon="14.115653"><time>2023-06-30T14:54:11.000Z</time><ele>2212.2</ele></trkpt><trkpt lat="42.120937" lon="14.11565"><time>2023-06-30T14:54:13.000Z</time><ele>2211.4</ele></trkpt><trkpt lat="42.120959" lon="14.115639"><time>2023-06-30T14:54:15.000Z</time><ele>2210.6</ele></trkpt><trkpt lat="42.120963" lon="14.115633"><time>2023-06-30T14:54:16.000Z</time><ele>2210.2</ele></trkpt><trkpt lat="42.120971" lon="14.115608"><time>2023-06-30T14:54:19.000Z</time><ele>2209</ele></trkpt><trkpt lat="42.120975" lon="14.115602"><time>2023-06-30T14:54:20.000Z</time><ele>2208.6</ele></trkpt><trkpt lat="42.120992" lon="14.115588"><time>2023-06-30T14:54:22.000Z</time><ele>2207.6</ele></trkpt><trkpt lat="42.121023" lon="14.115547"><time>2023-06-30T14:54:26.000Z</time><ele>2206.2</ele></trkpt><trkpt lat="42.121032" lon="14.115523"><time>2023-06-30T14:54:28.000Z</time><ele>2205.4</ele></trkpt><trkpt lat="42.121039" lon="14.115515"><time>2023-06-30T14:54:29.000Z</time><ele>2205.2</ele></trkpt><trkpt lat="42.121056" lon="14.11548"><time>2023-06-30T14:54:31.000Z</time><ele>2204.4</ele></trkpt><trkpt lat="42.121064" lon="14.115459"><time>2023-06-30T14:54:32.000Z</time><ele>2204.2</ele></trkpt><trkpt lat="42.12107" lon="14.115444"><time>2023-06-30T14:54:33.000Z</time><ele>2203.8</ele></trkpt><trkpt lat="42.121072" lon="14.115431"><time>2023-06-30T14:54:34.000Z</time><ele>2203.6</ele></trkpt><trkpt lat="42.121074" lon="14.115423"><time>2023-06-30T14:54:35.000Z</time><ele>2203.2</ele></trkpt><trkpt lat="42.121079" lon="14.115414"><time>2023-06-30T14:54:36.000Z</time><ele>2203</ele></trkpt><trkpt lat="42.121085" lon="14.115404"><time>2023-06-30T14:54:37.000Z</time><ele>2202.8</ele></trkpt><trkpt lat="42.121093" lon="14.115395"><time>2023-06-30T14:54:39.000Z</time><ele>2202</ele></trkpt><trkpt lat="42.121104" lon="14.11539"><time>2023-06-30T14:54:41.000Z</time><ele>2201.2</ele></trkpt><trkpt lat="42.121124" lon="14.115384"><time>2023-06-30T14:54:43.000Z</time><ele>2200.6</ele></trkpt><trkpt lat="42.121131" lon="14.115382"><time>2023-06-30T14:54:44.000Z</time><ele>2200.2</ele></trkpt><trkpt lat="42.121144" lon="14.115384"><time>2023-06-30T14:54:46.000Z</time><ele>2199.8</ele></trkpt><trkpt lat="42.121168" lon="14.115373"><time>2023-06-30T14:54:49.000Z</time><ele>2199</ele></trkpt><trkpt lat="42.121175" lon="14.115355"><time>2023-06-30T14:54:51.000Z</time><ele>2198.2</ele></trkpt><trkpt lat="42.12118" lon="14.115345"><time>2023-06-30T14:54:52.000Z</time><ele>2198</ele></trkpt><trkpt lat="42.121189" lon="14.115334"><time>2023-06-30T14:54:53.000Z</time><ele>2197.8</ele></trkpt><trkpt lat="42.121202" lon="14.115311"><time>2023-06-30T14:54:55.000Z</time><ele>2196.8</ele></trkpt><trkpt lat="42.121207" lon="14.115298"><time>2023-06-30T14:54:56.000Z</time><ele>2196.4</ele></trkpt><trkpt lat="42.12121" lon="14.115282"><time>2023-06-30T14:54:57.000Z</time><ele>2196</ele></trkpt><trkpt lat="42.121218" lon="14.115271"><time>2023-06-30T14:54:58.000Z</time><ele>2195.6</ele></trkpt><trkpt lat="42.121242" lon="14.115199"><time>2023-06-30T14:55:02.000Z</time><ele>2194.2</ele></trkpt><trkpt lat="42.121239" lon="14.115181"><time>2023-06-30T14:55:03.000Z</time><ele>2194</ele></trkpt><trkpt lat="42.121239" lon="14.115161"><time>2023-06-30T14:55:04.000Z</time><ele>2193.8</ele></trkpt><trkpt lat="42.121244" lon="14.115122"><time>2023-06-30T14:55:06.000Z</time><ele>2193</ele></trkpt><trkpt lat="42.121262" lon="14.115077"><time>2023-06-30T14:55:09.000Z</time><ele>2192</ele></trkpt><trkpt lat="42.121269" lon="14.115063"><time>2023-06-30T14:55:10.000Z</time><ele>2191.6</ele></trkpt><trkpt lat="42.121296" lon="14.115037"><time>2023-06-30T14:55:13.000Z</time><ele>2190.4</ele></trkpt><trkpt lat="42.121315" lon="14.115021"><time>2023-06-30T14:55:15.000Z</time><ele>2189.4</ele></trkpt><trkpt lat="42.12132" lon="14.115012"><time>2023-06-30T14:55:16.000Z</time><ele>2188.8</ele></trkpt><trkpt lat="42.121328" lon="14.115003"><time>2023-06-30T14:55:17.000Z</time><ele>2188.4</ele></trkpt><trkpt lat="42.12136" lon="14.114982"><time>2023-06-30T14:55:20.000Z</time><ele>2187.4</ele></trkpt><trkpt lat="42.121384" lon="14.114958"><time>2023-06-30T14:55:22.000Z</time><ele>2186.8</ele></trkpt><trkpt lat="42.121396" lon="14.114946"><time>2023-06-30T14:55:23.000Z</time><ele>2186.6</ele></trkpt><trkpt lat="42.121406" lon="14.114935"><time>2023-06-30T14:55:24.000Z</time><ele>2186</ele></trkpt><trkpt lat="42.121444" lon="14.114915"><time>2023-06-30T14:55:27.000Z</time><ele>2184.6</ele></trkpt><trkpt lat="42.121469" lon="14.114904"><time>2023-06-30T14:55:29.000Z</time><ele>2183.6</ele></trkpt><trkpt lat="42.121489" lon="14.11489"><time>2023-06-30T14:55:31.000Z</time><ele>2182.8</ele></trkpt><trkpt lat="42.121497" lon="14.114884"><time>2023-06-30T14:55:32.000Z</time><ele>2182.4</ele></trkpt><trkpt lat="42.121521" lon="14.114886"><time>2023-06-30T14:55:34.000Z</time><ele>2181.8</ele></trkpt><trkpt lat="42.121537" lon="14.11489"><time>2023-06-30T14:55:35.000Z</time><ele>2181.4</ele></trkpt><trkpt lat="42.121564" lon="14.114885"><time>2023-06-30T14:55:37.000Z</time><ele>2180.6</ele></trkpt><trkpt lat="42.121576" lon="14.114878"><time>2023-06-30T14:55:38.000Z</time><ele>2180</ele></trkpt><trkpt lat="42.121622" lon="14.114872"><time>2023-06-30T14:55:41.000Z</time><ele>2178.6</ele></trkpt><trkpt lat="42.121645" lon="14.114855"><time>2023-06-30T14:55:43.000Z</time><ele>2177.8</ele></trkpt><trkpt lat="42.121658" lon="14.114844"><time>2023-06-30T14:55:44.000Z</time><ele>2177.4</ele></trkpt><trkpt lat="42.121678" lon="14.114821"><time>2023-06-30T14:55:46.000Z</time><ele>2176.4</ele></trkpt><trkpt lat="42.121695" lon="14.114805"><time>2023-06-30T14:55:48.000Z</time><ele>2175.8</ele></trkpt><trkpt lat="42.121717" lon="14.114791"><time>2023-06-30T14:55:50.000Z</time><ele>2175</ele></trkpt><trkpt lat="42.121739" lon="14.114781"><time>2023-06-30T14:55:53.000Z</time><ele>2174.2</ele></trkpt><trkpt lat="42.121745" lon="14.114783"><time>2023-06-30T14:55:54.000Z</time><ele>2174</ele></trkpt><trkpt lat="42.12175" lon="14.114787"><time>2023-06-30T14:55:55.000Z</time><ele>2173.8</ele></trkpt><trkpt lat="42.121763" lon="14.114795"><time>2023-06-30T14:55:57.000Z</time><ele>2173</ele></trkpt><trkpt lat="42.121769" lon="14.114789"><time>2023-06-30T14:55:58.000Z</time><ele>2172.6</ele></trkpt><trkpt lat="42.121776" lon="14.114786"><time>2023-06-30T14:55:59.000Z</time><ele>2172</ele></trkpt><trkpt lat="42.121779" lon="14.11478"><time>2023-06-30T14:56:00.000Z</time><ele>2171.6</ele></trkpt><trkpt lat="42.121784" lon="14.114774"><time>2023-06-30T14:56:01.000Z</time><ele>2171.2</ele></trkpt><trkpt lat="42.121806" lon="14.114763"><time>2023-06-30T14:56:03.000Z</time><ele>2170.8</ele></trkpt><trkpt lat="42.121818" lon="14.114753"><time>2023-06-30T14:56:04.000Z</time><ele>2170.4</ele></trkpt><trkpt lat="42.121839" lon="14.114729"><time>2023-06-30T14:56:07.000Z</time><ele>2169</ele></trkpt><trkpt lat="42.121854" lon="14.11472"><time>2023-06-30T14:56:09.000Z</time><ele>2168.4</ele></trkpt><trkpt lat="42.121861" lon="14.114713"><time>2023-06-30T14:56:10.000Z</time><ele>2168.4</ele></trkpt><trkpt lat="42.121869" lon="14.114703"><time>2023-06-30T14:56:11.000Z</time><ele>2168</ele></trkpt><trkpt lat="42.121899" lon="14.114675"><time>2023-06-30T14:56:15.000Z</time><ele>2167</ele></trkpt><trkpt lat="42.121914" lon="14.114672"><time>2023-06-30T14:56:16.000Z</time><ele>2166.6</ele></trkpt><trkpt lat="42.121924" lon="14.114669"><time>2023-06-30T14:56:17.000Z</time><ele>2166.2</ele></trkpt><trkpt lat="42.121937" lon="14.114667"><time>2023-06-30T14:56:18.000Z</time><ele>2166</ele></trkpt><trkpt lat="42.121944" lon="14.114663"><time>2023-06-30T14:56:19.000Z</time><ele>2165.6</ele></trkpt><trkpt lat="42.121964" lon="14.114641"><time>2023-06-30T14:56:22.000Z</time><ele>2164.4</ele></trkpt><trkpt lat="42.121972" lon="14.114636"><time>2023-06-30T14:56:23.000Z</time><ele>2164</ele></trkpt><trkpt lat="42.121995" lon="14.114624"><time>2023-06-30T14:56:26.000Z</time><ele>2163</ele></trkpt><trkpt lat="42.122009" lon="14.114621"><time>2023-06-30T14:56:27.000Z</time><ele>2162.6</ele></trkpt><trkpt lat="42.122031" lon="14.114609"><time>2023-06-30T14:56:29.000Z</time><ele>2162</ele></trkpt><trkpt lat="42.122042" lon="14.114609"><time>2023-06-30T14:56:30.000Z</time><ele>2162</ele></trkpt><trkpt lat="42.122078" lon="14.114601"><time>2023-06-30T14:56:33.000Z</time><ele>2161</ele></trkpt><trkpt lat="42.122083" lon="14.114593"><time>2023-06-30T14:56:34.000Z</time><ele>2160.4</ele></trkpt><trkpt lat="42.122086" lon="14.114586"><time>2023-06-30T14:56:35.000Z</time><ele>2160.2</ele></trkpt><trkpt lat="42.12209" lon="14.11458"><time>2023-06-30T14:56:36.000Z</time><ele>2159.8</ele></trkpt><trkpt lat="42.122098" lon="14.114569"><time>2023-06-30T14:56:38.000Z</time><ele>2159.4</ele></trkpt><trkpt lat="42.122101" lon="14.114567"><time>2023-06-30T14:56:39.000Z</time><ele>2159.2</ele></trkpt><trkpt lat="42.122134" lon="14.114559"><time>2023-06-30T14:56:42.000Z</time><ele>2158.2</ele></trkpt><trkpt lat="42.122154" lon="14.114536"><time>2023-06-30T14:56:45.000Z</time><ele>2157.2</ele></trkpt><trkpt lat="42.122161" lon="14.114527"><time>2023-06-30T14:56:46.000Z</time><ele>2156.8</ele></trkpt><trkpt lat="42.12217" lon="14.114522"><time>2023-06-30T14:56:47.000Z</time><ele>2156.6</ele></trkpt><trkpt lat="42.122212" lon="14.114506"><time>2023-06-30T14:56:50.000Z</time><ele>2156</ele></trkpt><trkpt lat="42.122218" lon="14.114502"><time>2023-06-30T14:56:51.000Z</time><ele>2155.6</ele></trkpt><trkpt lat="42.122246" lon="14.114488"><time>2023-06-30T14:56:54.000Z</time><ele>2154.4</ele></trkpt><trkpt lat="42.122262" lon="14.114468"><time>2023-06-30T14:56:57.000Z</time><ele>2153.8</ele></trkpt><trkpt lat="42.122269" lon="14.114464"><time>2023-06-30T14:56:59.000Z</time><ele>2153.4</ele></trkpt><trkpt lat="42.1223" lon="14.114473"><time>2023-06-30T14:57:02.000Z</time><ele>2152.4</ele></trkpt><trkpt lat="42.12231" lon="14.114474"><time>2023-06-30T14:57:03.000Z</time><ele>2152</ele></trkpt><trkpt lat="42.12232" lon="14.114472"><time>2023-06-30T14:57:04.000Z</time><ele>2151.6</ele></trkpt><trkpt lat="42.122325" lon="14.114467"><time>2023-06-30T14:57:05.000Z</time><ele>2151.2</ele></trkpt><trkpt lat="42.122334" lon="14.114461"><time>2023-06-30T14:57:07.000Z</time><ele>2150.8</ele></trkpt><trkpt lat="42.122359" lon="14.11446"><time>2023-06-30T14:57:10.000Z</time><ele>2150.2</ele></trkpt><trkpt lat="42.122366" lon="14.11446"><time>2023-06-30T14:57:11.000Z</time><ele>2150</ele></trkpt><trkpt lat="42.122381" lon="14.11445"><time>2023-06-30T14:57:13.000Z</time><ele>2149.2</ele></trkpt><trkpt lat="42.122387" lon="14.11445"><time>2023-06-30T14:57:14.000Z</time><ele>2148.8</ele></trkpt><trkpt lat="42.122401" lon="14.114454"><time>2023-06-30T14:57:15.000Z</time><ele>2148.4</ele></trkpt><trkpt lat="42.122425" lon="14.114452"><time>2023-06-30T14:57:17.000Z</time><ele>2147.8</ele></trkpt><trkpt lat="42.122436" lon="14.114442"><time>2023-06-30T14:57:18.000Z</time><ele>2147.4</ele></trkpt><trkpt lat="42.122454" lon="14.114413"><time>2023-06-30T14:57:21.000Z</time><ele>2146.6</ele></trkpt><trkpt lat="42.122471" lon="14.114402"><time>2023-06-30T14:57:23.000Z</time><ele>2146</ele></trkpt><trkpt lat="42.122476" lon="14.114398"><time>2023-06-30T14:57:24.000Z</time><ele>2145.6</ele></trkpt><trkpt lat="42.122494" lon="14.11438"><time>2023-06-30T14:57:27.000Z</time><ele>2145</ele></trkpt><trkpt lat="42.122519" lon="14.114371"><time>2023-06-30T14:57:30.000Z</time><ele>2143.8</ele></trkpt><trkpt lat="42.122527" lon="14.114365"><time>2023-06-30T14:57:31.000Z</time><ele>2143.6</ele></trkpt><trkpt lat="42.122546" lon="14.11435"><time>2023-06-30T14:57:33.000Z</time><ele>2142.8</ele></trkpt><trkpt lat="42.122586" lon="14.114322"><time>2023-06-30T14:57:37.000Z</time><ele>2141.4</ele></trkpt><trkpt lat="42.122618" lon="14.114307"><time>2023-06-30T14:57:39.000Z</time><ele>2140.8</ele></trkpt><trkpt lat="42.122632" lon="14.1143"><time>2023-06-30T14:57:40.000Z</time><ele>2140.4</ele></trkpt><trkpt lat="42.122667" lon="14.11429"><time>2023-06-30T14:57:43.000Z</time><ele>2139.2</ele></trkpt><trkpt lat="42.122695" lon="14.114299"><time>2023-06-30T14:57:46.000Z</time><ele>2138.4</ele></trkpt><trkpt lat="42.122706" lon="14.114304"><time>2023-06-30T14:57:47.000Z</time><ele>2138</ele></trkpt><trkpt lat="42.12273" lon="14.114306"><time>2023-06-30T14:57:49.000Z</time><ele>2137.4</ele></trkpt><trkpt lat="42.122753" lon="14.114285"><time>2023-06-30T14:57:51.000Z</time><ele>2137</ele></trkpt><trkpt lat="42.12279" lon="14.114268"><time>2023-06-30T14:57:54.000Z</time><ele>2136.2</ele></trkpt><trkpt lat="42.122803" lon="14.114266"><time>2023-06-30T14:57:55.000Z</time><ele>2135.6</ele></trkpt><trkpt lat="42.122814" lon="14.114263"><time>2023-06-30T14:57:56.000Z</time><ele>2135</ele></trkpt><trkpt lat="42.122827" lon="14.114262"><time>2023-06-30T14:57:57.000Z</time><ele>2134.6</ele></trkpt><trkpt lat="42.122835" lon="14.114262"><time>2023-06-30T14:57:58.000Z</time><ele>2134.4</ele></trkpt><trkpt lat="42.122864" lon="14.114264"><time>2023-06-30T14:58:01.000Z</time><ele>2133.2</ele></trkpt><trkpt lat="42.122888" lon="14.114273"><time>2023-06-30T14:58:04.000Z</time><ele>2132.4</ele></trkpt><trkpt lat="42.122897" lon="14.114275"><time>2023-06-30T14:58:05.000Z</time><ele>2132.2</ele></trkpt><trkpt lat="42.122918" lon="14.114282"><time>2023-06-30T14:58:07.000Z</time><ele>2131.2</ele></trkpt><trkpt lat="42.122951" lon="14.114274"><time>2023-06-30T14:58:09.000Z</time><ele>2130.6</ele></trkpt><trkpt lat="42.122984" lon="14.114256"><time>2023-06-30T14:58:11.000Z</time><ele>2130</ele></trkpt><trkpt lat="42.12305" lon="14.114226"><time>2023-06-30T14:58:15.000Z</time><ele>2129</ele></trkpt><trkpt lat="42.123062" lon="14.114212"><time>2023-06-30T14:58:16.000Z</time><ele>2128.6</ele></trkpt><trkpt lat="42.123087" lon="14.114185"><time>2023-06-30T14:58:18.000Z</time><ele>2128</ele></trkpt><trkpt lat="42.123098" lon="14.114172"><time>2023-06-30T14:58:19.000Z</time><ele>2127.8</ele></trkpt><trkpt lat="42.123142" lon="14.114131"><time>2023-06-30T14:58:22.000Z</time><ele>2127.4</ele></trkpt><trkpt lat="42.12317" lon="14.114106"><time>2023-06-30T14:58:24.000Z</time><ele>2127.2</ele></trkpt><trkpt lat="42.123181" lon="14.114095"><time>2023-06-30T14:58:25.000Z</time><ele>2127</ele></trkpt><trkpt lat="42.123193" lon="14.114092"><time>2023-06-30T14:58:26.000Z</time><ele>2126.6</ele></trkpt><trkpt lat="42.123251" lon="14.114094"><time>2023-06-30T14:58:30.000Z</time><ele>2125.8</ele></trkpt><trkpt lat="42.123261" lon="14.114088"><time>2023-06-30T14:58:31.000Z</time><ele>2125.6</ele></trkpt><trkpt lat="42.123339" lon="14.114058"><time>2023-06-30T14:58:35.000Z</time><ele>2124.6</ele></trkpt><trkpt lat="42.123361" lon="14.114055"><time>2023-06-30T14:58:36.000Z</time><ele>2124.4</ele></trkpt><trkpt lat="42.123434" lon="14.114031"><time>2023-06-30T14:58:40.000Z</time><ele>2123.6</ele></trkpt><trkpt lat="42.12345" lon="14.114026"><time>2023-06-30T14:58:41.000Z</time><ele>2123.6</ele></trkpt><trkpt lat="42.123487" lon="14.11402"><time>2023-06-30T14:58:43.000Z</time><ele>2123.4</ele></trkpt><trkpt lat="42.123501" lon="14.114015"><time>2023-06-30T14:58:44.000Z</time><ele>2123.4</ele></trkpt><trkpt lat="42.123561" lon="14.114003"><time>2023-06-30T14:58:48.000Z</time><ele>2122.8</ele></trkpt><trkpt lat="42.123582" lon="14.114008"><time>2023-06-30T14:58:50.000Z</time><ele>2122.4</ele></trkpt><trkpt lat="42.123606" lon="14.114002"><time>2023-06-30T14:58:52.000Z</time><ele>2122.2</ele></trkpt><trkpt lat="42.123658" lon="14.113987"><time>2023-06-30T14:58:56.000Z</time><ele>2122</ele></trkpt><trkpt lat="42.123777" lon="14.113973"><time>2023-06-30T14:59:04.000Z</time><ele>2121.2</ele></trkpt><trkpt lat="42.123794" lon="14.11397"><time>2023-06-30T14:59:05.000Z</time><ele>2121.2</ele></trkpt><trkpt lat="42.123812" lon="14.113967"><time>2023-06-30T14:59:06.000Z</time><ele>2121</ele></trkpt><trkpt lat="42.12383" lon="14.113964"><time>2023-06-30T14:59:07.000Z</time><ele>2121</ele></trkpt><trkpt lat="42.123905" lon="14.113957"><time>2023-06-30T14:59:12.000Z</time><ele>2121.2</ele></trkpt><trkpt lat="42.123908" lon="14.113955"><time>2023-06-30T14:59:13.000Z</time><ele>2121</ele></trkpt><trkpt lat="42.12395" lon="14.113943"><time>2023-06-30T14:59:17.000Z</time><ele>2120.8</ele></trkpt><trkpt lat="42.124033" lon="14.113936"><time>2023-06-30T14:59:22.000Z</time><ele>2121.6</ele></trkpt><trkpt lat="42.124051" lon="14.113935"><time>2023-06-30T14:59:23.000Z</time><ele>2121.6</ele></trkpt><trkpt lat="42.124177" lon="14.113937"><time>2023-06-30T14:59:30.000Z</time><ele>2121.6</ele></trkpt><trkpt lat="42.124217" lon="14.113943"><time>2023-06-30T14:59:32.000Z</time><ele>2121.8</ele></trkpt><trkpt lat="42.124232" lon="14.113942"><time>2023-06-30T14:59:33.000Z</time><ele>2122</ele></trkpt><trkpt lat="42.12429" lon="14.113943"><time>2023-06-30T14:59:37.000Z</time><ele>2121.8</ele></trkpt><trkpt lat="42.124346" lon="14.113948"><time>2023-06-30T14:59:40.000Z</time><ele>2122</ele></trkpt><trkpt lat="42.12438" lon="14.11395"><time>2023-06-30T14:59:42.000Z</time><ele>2122.4</ele></trkpt><trkpt lat="42.124437" lon="14.113953"><time>2023-06-30T14:59:46.000Z</time><ele>2122.6</ele></trkpt><trkpt lat="42.124551" lon="14.11394"><time>2023-06-30T14:59:54.000Z</time><ele>2123.4</ele></trkpt><trkpt lat="42.124577" lon="14.113947"><time>2023-06-30T14:59:56.000Z</time><ele>2123.8</ele></trkpt><trkpt lat="42.124592" lon="14.11395"><time>2023-06-30T14:59:57.000Z</time><ele>2123.8</ele></trkpt><trkpt lat="42.124606" lon="14.113954"><time>2023-06-30T14:59:58.000Z</time><ele>2123.8</ele></trkpt><trkpt lat="42.124619" lon="14.113954"><time>2023-06-30T14:59:59.000Z</time><ele>2124</ele></trkpt><trkpt lat="42.124659" lon="14.113958"><time>2023-06-30T15:00:02.000Z</time><ele>2124.4</ele></trkpt><trkpt lat="42.12469" lon="14.113957"><time>2023-06-30T15:00:05.000Z</time><ele>2124.6</ele></trkpt><trkpt lat="42.124717" lon="14.113957"><time>2023-06-30T15:00:08.000Z</time><ele>2125.2</ele></trkpt><trkpt lat="42.124744" lon="14.113944"><time>2023-06-30T15:00:10.000Z</time><ele>2125.8</ele></trkpt><trkpt lat="42.124756" lon="14.113943"><time>2023-06-30T15:00:11.000Z</time><ele>2126</ele></trkpt><trkpt lat="42.124771" lon="14.113942"><time>2023-06-30T15:00:13.000Z</time><ele>2126.4</ele></trkpt><trkpt lat="42.12478" lon="14.113943"><time>2023-06-30T15:00:14.000Z</time><ele>2126.8</ele></trkpt><trkpt lat="42.12479" lon="14.113941"><time>2023-06-30T15:00:15.000Z</time><ele>2126.8</ele></trkpt><trkpt lat="42.124831" lon="14.113929"><time>2023-06-30T15:00:19.000Z</time><ele>2127.4</ele></trkpt><trkpt lat="42.124847" lon="14.113934"><time>2023-06-30T15:00:20.000Z</time><ele>2127.6</ele></trkpt><trkpt lat="42.124862" lon="14.113935"><time>2023-06-30T15:00:21.000Z</time><ele>2127.8</ele></trkpt><trkpt lat="42.124879" lon="14.113937"><time>2023-06-30T15:00:22.000Z</time><ele>2128</ele></trkpt><trkpt lat="42.124899" lon="14.113941"><time>2023-06-30T15:00:23.000Z</time><ele>2128.2</ele></trkpt><trkpt lat="42.124914" lon="14.113943"><time>2023-06-30T15:00:24.000Z</time><ele>2128.4</ele></trkpt><trkpt lat="42.124932" lon="14.113947"><time>2023-06-30T15:00:25.000Z</time><ele>2128.6</ele></trkpt><trkpt lat="42.125002" lon="14.11395"><time>2023-06-30T15:00:29.000Z</time><ele>2128.8</ele></trkpt><trkpt lat="42.125015" lon="14.11395"><time>2023-06-30T15:00:30.000Z</time><ele>2129</ele></trkpt><trkpt lat="42.125027" lon="14.113949"><time>2023-06-30T15:00:31.000Z</time><ele>2129</ele></trkpt><trkpt lat="42.125097" lon="14.113926"><time>2023-06-30T15:00:35.000Z</time><ele>2129.6</ele></trkpt><trkpt lat="42.125158" lon="14.113902"><time>2023-06-30T15:00:39.000Z</time><ele>2130</ele></trkpt><trkpt lat="42.125182" lon="14.113885"><time>2023-06-30T15:00:41.000Z</time><ele>2130</ele></trkpt><trkpt lat="42.125235" lon="14.113861"><time>2023-06-30T15:00:45.000Z</time><ele>2129.8</ele></trkpt><trkpt lat="42.125292" lon="14.113829"><time>2023-06-30T15:00:49.000Z</time><ele>2129.6</ele></trkpt><trkpt lat="42.12544" lon="14.113764"><time>2023-06-30T15:00:59.000Z</time><ele>2129</ele></trkpt><trkpt lat="42.125464" lon="14.113745"><time>2023-06-30T15:01:01.000Z</time><ele>2128.8</ele></trkpt><trkpt lat="42.125474" lon="14.113743"><time>2023-06-30T15:01:02.000Z</time><ele>2128.6</ele></trkpt><trkpt lat="42.125515" lon="14.113727"><time>2023-06-30T15:01:05.000Z</time><ele>2128.6</ele></trkpt><trkpt lat="42.125535" lon="14.113718"><time>2023-06-30T15:01:07.000Z</time><ele>2128.2</ele></trkpt><trkpt lat="42.125556" lon="14.113712"><time>2023-06-30T15:01:09.000Z</time><ele>2128</ele></trkpt><trkpt lat="42.125583" lon="14.113691"><time>2023-06-30T15:01:12.000Z</time><ele>2127.4</ele></trkpt><trkpt lat="42.125644" lon="14.11368"><time>2023-06-30T15:01:17.000Z</time><ele>2126.8</ele></trkpt><trkpt lat="42.125673" lon="14.113667"><time>2023-06-30T15:01:19.000Z</time><ele>2126.8</ele></trkpt><trkpt lat="42.125742" lon="14.11362"><time>2023-06-30T15:01:24.000Z</time><ele>2126.2</ele></trkpt><trkpt lat="42.125786" lon="14.1136"><time>2023-06-30T15:01:26.000Z</time><ele>2126</ele></trkpt><trkpt lat="42.125823" lon="14.11359"><time>2023-06-30T15:01:28.000Z</time><ele>2125.8</ele></trkpt><trkpt lat="42.125894" lon="14.113544"><time>2023-06-30T15:01:33.000Z</time><ele>2125.2</ele></trkpt><trkpt lat="42.125963" lon="14.113514"><time>2023-06-30T15:01:38.000Z</time><ele>2124.8</ele></trkpt><trkpt lat="42.126005" lon="14.1135"><time>2023-06-30T15:01:40.000Z</time><ele>2124.8</ele></trkpt><trkpt lat="42.126015" lon="14.11349"><time>2023-06-30T15:01:41.000Z</time><ele>2124.8</ele></trkpt><trkpt lat="42.126077" lon="14.113458"><time>2023-06-30T15:01:45.000Z</time><ele>2125</ele></trkpt><trkpt lat="42.126221" lon="14.113397"><time>2023-06-30T15:01:55.000Z</time><ele>2124.6</ele></trkpt><trkpt lat="42.126275" lon="14.113357"><time>2023-06-30T15:02:00.000Z</time><ele>2124.4</ele></trkpt><trkpt lat="42.126301" lon="14.113342"><time>2023-06-30T15:02:02.000Z</time><ele>2124.4</ele></trkpt><trkpt lat="42.126448" lon="14.113275"><time>2023-06-30T15:02:12.000Z</time><ele>2124</ele></trkpt><trkpt lat="42.126461" lon="14.113273"><time>2023-06-30T15:02:13.000Z</time><ele>2123.8</ele></trkpt><trkpt lat="42.126508" lon="14.113252"><time>2023-06-30T15:02:17.000Z</time><ele>2123.8</ele></trkpt><trkpt lat="42.126528" lon="14.113246"><time>2023-06-30T15:02:19.000Z</time><ele>2124.2</ele></trkpt><trkpt lat="42.126588" lon="14.113227"><time>2023-06-30T15:02:24.000Z</time><ele>2124</ele></trkpt><trkpt lat="42.126657" lon="14.1132"><time>2023-06-30T15:02:29.000Z</time><ele>2124.4</ele></trkpt><trkpt lat="42.126689" lon="14.113166"><time>2023-06-30T15:02:32.000Z</time><ele>2124.6</ele></trkpt><trkpt lat="42.126701" lon="14.11316"><time>2023-06-30T15:02:34.000Z</time><ele>2125</ele></trkpt><trkpt lat="42.126729" lon="14.113148"><time>2023-06-30T15:02:37.000Z</time><ele>2125.6</ele></trkpt><trkpt lat="42.126741" lon="14.113139"><time>2023-06-30T15:02:38.000Z</time><ele>2126</ele></trkpt><trkpt lat="42.126764" lon="14.113121"><time>2023-06-30T15:02:40.000Z</time><ele>2126.4</ele></trkpt><trkpt lat="42.126786" lon="14.113109"><time>2023-06-30T15:02:42.000Z</time><ele>2126.8</ele></trkpt><trkpt lat="42.126802" lon="14.1131"><time>2023-06-30T15:02:44.000Z</time><ele>2127.2</ele></trkpt><trkpt lat="42.126812" lon="14.113097"><time>2023-06-30T15:02:45.000Z</time><ele>2127.4</ele></trkpt><trkpt lat="42.126841" lon="14.113082"><time>2023-06-30T15:02:48.000Z</time><ele>2128</ele></trkpt><trkpt lat="42.126857" lon="14.113082"><time>2023-06-30T15:02:50.000Z</time><ele>2128.2</ele></trkpt><trkpt lat="42.126879" lon="14.113083"><time>2023-06-30T15:02:52.000Z</time><ele>2128.8</ele></trkpt><trkpt lat="42.126902" lon="14.113079"><time>2023-06-30T15:02:54.000Z</time><ele>2129.2</ele></trkpt><trkpt lat="42.126948" lon="14.113057"><time>2023-06-30T15:02:59.000Z</time><ele>2129.8</ele></trkpt><trkpt lat="42.127013" lon="14.113033"><time>2023-06-30T15:03:03.000Z</time><ele>2130</ele></trkpt><trkpt lat="42.127024" lon="14.113021"><time>2023-06-30T15:03:04.000Z</time><ele>2130</ele></trkpt><trkpt lat="42.127045" lon="14.113014"><time>2023-06-30T15:03:07.000Z</time><ele>2130</ele></trkpt><trkpt lat="42.127058" lon="14.113008"><time>2023-06-30T15:03:09.000Z</time><ele>2130.2</ele></trkpt><trkpt lat="42.127068" lon="14.112997"><time>2023-06-30T15:03:10.000Z</time><ele>2130.4</ele></trkpt><trkpt lat="42.127073" lon="14.112992"><time>2023-06-30T15:03:11.000Z</time><ele>2130.4</ele></trkpt><trkpt lat="42.127094" lon="14.11298"><time>2023-06-30T15:03:13.000Z</time><ele>2130.8</ele></trkpt><trkpt lat="42.127103" lon="14.112978"><time>2023-06-30T15:03:14.000Z</time><ele>2131</ele></trkpt><trkpt lat="42.12711" lon="14.112977"><time>2023-06-30T15:03:16.000Z</time><ele>2131.6</ele></trkpt><trkpt lat="42.127118" lon="14.112977"><time>2023-06-30T15:03:17.000Z</time><ele>2131.8</ele></trkpt><trkpt lat="42.127139" lon="14.112962"><time>2023-06-30T15:03:21.000Z</time><ele>2132.4</ele></trkpt><trkpt lat="42.127149" lon="14.11296"><time>2023-06-30T15:03:22.000Z</time><ele>2132.6</ele></trkpt><trkpt lat="42.12718" lon="14.112961"><time>2023-06-30T15:03:25.000Z</time><ele>2133.2</ele></trkpt><trkpt lat="42.127188" lon="14.112961"><time>2023-06-30T15:03:26.000Z</time><ele>2133.4</ele></trkpt><trkpt lat="42.127195" lon="14.112962"><time>2023-06-30T15:03:28.000Z</time><ele>2133.6</ele></trkpt><trkpt lat="42.127205" lon="14.112959"><time>2023-06-30T15:03:35.000Z</time><ele>2133.8</ele></trkpt><trkpt lat="42.12722" lon="14.112967"><time>2023-06-30T15:03:42.000Z</time><ele>2133.6</ele></trkpt><trkpt lat="42.127224" lon="14.112969"><time>2023-06-30T15:03:46.000Z</time><ele>2133.8</ele></trkpt><trkpt lat="42.127224" lon="14.112969"><time>2023-06-30T15:03:52.000Z</time><ele>2134</ele></trkpt><trkpt lat="42.127224" lon="14.112968"><time>2023-06-30T15:03:56.000Z</time><ele>2134</ele></trkpt><trkpt lat="42.127227" lon="14.112965"><time>2023-06-30T15:04:07.000Z</time><ele>2133.8</ele></trkpt><trkpt lat="42.127227" lon="14.112965"><time>2023-06-30T15:04:09.000Z</time><ele>2133.8</ele></trkpt><trkpt lat="42.127228" lon="14.112964"><time>2023-06-30T15:04:14.000Z</time><ele>2133.8</ele></trkpt><trkpt lat="42.127228" lon="14.112963"><time>2023-06-30T15:04:19.000Z</time><ele>2133.8</ele></trkpt><trkpt lat="42.127232" lon="14.112963"><time>2023-06-30T15:04:23.000Z</time><ele>2133.8</ele></trkpt><trkpt lat="42.127235" lon="14.112957"><time>2023-06-30T15:04:46.000Z</time><ele>2133.2</ele></trkpt><trkpt lat="42.127234" lon="14.112952"><time>2023-06-30T15:04:56.000Z</time><ele>2133.2</ele></trkpt><trkpt lat="42.127234" lon="14.112952"><time>2023-06-30T15:05:01.000Z</time><ele>2133.2</ele></trkpt><trkpt lat="42.127234" lon="14.112952"><time>2023-06-30T15:05:03.000Z</time><ele>2133.2</ele></trkpt><trkpt lat="42.127264" lon="14.11293"><time>2023-06-30T15:05:24.000Z</time><ele>2133.2</ele></trkpt><trkpt lat="42.127338" lon="14.112907"><time>2023-06-30T15:05:32.000Z</time><ele>2133.2</ele></trkpt><trkpt lat="42.127365" lon="14.112896"><time>2023-06-30T15:05:35.000Z</time><ele>2133.2</ele></trkpt><trkpt lat="42.127379" lon="14.112878"><time>2023-06-30T15:05:38.000Z</time><ele>2133.2</ele></trkpt><trkpt lat="42.12741" lon="14.112867"><time>2023-06-30T15:05:42.000Z</time><ele>2133.2</ele></trkpt><trkpt lat="42.127419" lon="14.112866"><time>2023-06-30T15:05:43.000Z</time><ele>2133.2</ele></trkpt><trkpt lat="42.127445" lon="14.112865"><time>2023-06-30T15:05:45.000Z</time><ele>2133.2</ele></trkpt><trkpt lat="42.12746" lon="14.112859"><time>2023-06-30T15:05:46.000Z</time><ele>2132.4</ele></trkpt><trkpt lat="42.127481" lon="14.112846"><time>2023-06-30T15:05:48.000Z</time><ele>2131.8</ele></trkpt><trkpt lat="42.127492" lon="14.112842"><time>2023-06-30T15:05:49.000Z</time><ele>2131.4</ele></trkpt><trkpt lat="42.127513" lon="14.112829"><time>2023-06-30T15:05:51.000Z</time><ele>2131</ele></trkpt><trkpt lat="42.127533" lon="14.112818"><time>2023-06-30T15:05:53.000Z</time><ele>2130.8</ele></trkpt><trkpt lat="42.127585" lon="14.112774"><time>2023-06-30T15:05:59.000Z</time><ele>2130.6</ele></trkpt><trkpt lat="42.12769" lon="14.112751"><time>2023-06-30T15:06:06.000Z</time><ele>2130.8</ele></trkpt><trkpt lat="42.127812" lon="14.112722"><time>2023-06-30T15:06:14.000Z</time><ele>2130.2</ele></trkpt><trkpt lat="42.127827" lon="14.112718"><time>2023-06-30T15:06:15.000Z</time><ele>2130.2</ele></trkpt><trkpt lat="42.127841" lon="14.112715"><time>2023-06-30T15:06:16.000Z</time><ele>2130.2</ele></trkpt><trkpt lat="42.127869" lon="14.112716"><time>2023-06-30T15:06:18.000Z</time><ele>2130.2</ele></trkpt><trkpt lat="42.127925" lon="14.112717"><time>2023-06-30T15:06:22.000Z</time><ele>2130.2</ele></trkpt><trkpt lat="42.127958" lon="14.112702"><time>2023-06-30T15:06:26.000Z</time><ele>2130.4</ele></trkpt><trkpt lat="42.127977" lon="14.112693"><time>2023-06-30T15:06:28.000Z</time><ele>2130.4</ele></trkpt><trkpt lat="42.128019" lon="14.112673"><time>2023-06-30T15:06:34.000Z</time><ele>2131.4</ele></trkpt><trkpt lat="42.128052" lon="14.112677"><time>2023-06-30T15:06:37.000Z</time><ele>2131.8</ele></trkpt><trkpt lat="42.128063" lon="14.112674"><time>2023-06-30T15:06:38.000Z</time><ele>2132</ele></trkpt><trkpt lat="42.128092" lon="14.112665"><time>2023-06-30T15:06:40.000Z</time><ele>2132.4</ele></trkpt><trkpt lat="42.128096" lon="14.112662"><time>2023-06-30T15:06:41.000Z</time><ele>2132.4</ele></trkpt><trkpt lat="42.128127" lon="14.112657"><time>2023-06-30T15:06:44.000Z</time><ele>2132.8</ele></trkpt><trkpt lat="42.128141" lon="14.112655"><time>2023-06-30T15:06:46.000Z</time><ele>2133</ele></trkpt><trkpt lat="42.128167" lon="14.112649"><time>2023-06-30T15:06:49.000Z</time><ele>2133.6</ele></trkpt><trkpt lat="42.128179" lon="14.112643"><time>2023-06-30T15:06:50.000Z</time><ele>2133.8</ele></trkpt><trkpt lat="42.128201" lon="14.112636"><time>2023-06-30T15:06:52.000Z</time><ele>2134</ele></trkpt><trkpt lat="42.128252" lon="14.112634"><time>2023-06-30T15:06:57.000Z</time><ele>2134.8</ele></trkpt><trkpt lat="42.128283" lon="14.112632"><time>2023-06-30T15:06:59.000Z</time><ele>2135</ele></trkpt><trkpt lat="42.128332" lon="14.112615"><time>2023-06-30T15:07:03.000Z</time><ele>2135.6</ele></trkpt><trkpt lat="42.128343" lon="14.112612"><time>2023-06-30T15:07:04.000Z</time><ele>2135.8</ele></trkpt><trkpt lat="42.128369" lon="14.11261"><time>2023-06-30T15:07:07.000Z</time><ele>2136.2</ele></trkpt><trkpt lat="42.128376" lon="14.112607"><time>2023-06-30T15:07:08.000Z</time><ele>2136.4</ele></trkpt><trkpt lat="42.128382" lon="14.112601"><time>2023-06-30T15:07:09.000Z</time><ele>2136.4</ele></trkpt><trkpt lat="42.128424" lon="14.112568"><time>2023-06-30T15:07:14.000Z</time><ele>2137</ele></trkpt><trkpt lat="42.128436" lon="14.11256"><time>2023-06-30T15:07:15.000Z</time><ele>2137.2</ele></trkpt><trkpt lat="42.128486" lon="14.112554"><time>2023-06-30T15:07:21.000Z</time><ele>2137.8</ele></trkpt><trkpt lat="42.128492" lon="14.112552"><time>2023-06-30T15:07:22.000Z</time><ele>2137.8</ele></trkpt><trkpt lat="42.128507" lon="14.112548"><time>2023-06-30T15:07:24.000Z</time><ele>2138</ele></trkpt><trkpt lat="42.128519" lon="14.112544"><time>2023-06-30T15:07:27.000Z</time><ele>2138.6</ele></trkpt><trkpt lat="42.128539" lon="14.112543"><time>2023-06-30T15:07:29.000Z</time><ele>2138.6</ele></trkpt><trkpt lat="42.128554" lon="14.112539"><time>2023-06-30T15:07:30.000Z</time><ele>2138.8</ele></trkpt><trkpt lat="42.128592" lon="14.112528"><time>2023-06-30T15:07:34.000Z</time><ele>2138.8</ele></trkpt><trkpt lat="42.12861" lon="14.112512"><time>2023-06-30T15:07:37.000Z</time><ele>2139</ele></trkpt><trkpt lat="42.128634" lon="14.112511"><time>2023-06-30T15:07:40.000Z</time><ele>2139.4</ele></trkpt><trkpt lat="42.128712" lon="14.112491"><time>2023-06-30T15:07:48.000Z</time><ele>2140</ele></trkpt><trkpt lat="42.128768" lon="14.112475"><time>2023-06-30T15:07:53.000Z</time><ele>2140</ele></trkpt><trkpt lat="42.128776" lon="14.112473"><time>2023-06-30T15:07:54.000Z</time><ele>2140.2</ele></trkpt><trkpt lat="42.128789" lon="14.112469"><time>2023-06-30T15:07:55.000Z</time><ele>2140.4</ele></trkpt><trkpt lat="42.1288" lon="14.112465"><time>2023-06-30T15:07:56.000Z</time><ele>2140.4</ele></trkpt><trkpt lat="42.128814" lon="14.11246"><time>2023-06-30T15:07:57.000Z</time><ele>2140.4</ele></trkpt><trkpt lat="42.128861" lon="14.112437"><time>2023-06-30T15:08:03.000Z</time><ele>2141.2</ele></trkpt><trkpt lat="42.128868" lon="14.112432"><time>2023-06-30T15:08:04.000Z</time><ele>2141.2</ele></trkpt><trkpt lat="42.128885" lon="14.112422"><time>2023-06-30T15:08:06.000Z</time><ele>2141.4</ele></trkpt><trkpt lat="42.128897" lon="14.112414"><time>2023-06-30T15:08:08.000Z</time><ele>2142</ele></trkpt><trkpt lat="42.128904" lon="14.112411"><time>2023-06-30T15:08:09.000Z</time><ele>2142.4</ele></trkpt><trkpt lat="42.128948" lon="14.1124"><time>2023-06-30T15:08:13.000Z</time><ele>2142.6</ele></trkpt><trkpt lat="42.12899" lon="14.112393"><time>2023-06-30T15:08:16.000Z</time><ele>2142.2</ele></trkpt><trkpt lat="42.129019" lon="14.112377"><time>2023-06-30T15:08:19.000Z</time><ele>2142</ele></trkpt><trkpt lat="42.129033" lon="14.112373"><time>2023-06-30T15:08:21.000Z</time><ele>2141.8</ele></trkpt><trkpt lat="42.129043" lon="14.112371"><time>2023-06-30T15:08:22.000Z</time><ele>2141.8</ele></trkpt><trkpt lat="42.129087" lon="14.112358"><time>2023-06-30T15:08:26.000Z</time><ele>2142</ele></trkpt><trkpt lat="42.129123" lon="14.112341"><time>2023-06-30T15:08:29.000Z</time><ele>2142.4</ele></trkpt><trkpt lat="42.129203" lon="14.112327"><time>2023-06-30T15:08:35.000Z</time><ele>2143.2</ele></trkpt><trkpt lat="42.129231" lon="14.112317"><time>2023-06-30T15:08:37.000Z</time><ele>2143.4</ele></trkpt><trkpt lat="42.129244" lon="14.112312"><time>2023-06-30T15:08:38.000Z</time><ele>2143.4</ele></trkpt><trkpt lat="42.129253" lon="14.112314"><time>2023-06-30T15:08:39.000Z</time><ele>2143.4</ele></trkpt><trkpt lat="42.129294" lon="14.112317"><time>2023-06-30T15:08:43.000Z</time><ele>2144</ele></trkpt><trkpt lat="42.129349" lon="14.112319"><time>2023-06-30T15:08:47.000Z</time><ele>2144.4</ele></trkpt><trkpt lat="42.129387" lon="14.112309"><time>2023-06-30T15:08:50.000Z</time><ele>2144.4</ele></trkpt><trkpt lat="42.129403" lon="14.112317"><time>2023-06-30T15:08:51.000Z</time><ele>2144.2</ele></trkpt><trkpt lat="42.129482" lon="14.112343"><time>2023-06-30T15:08:57.000Z</time><ele>2144.2</ele></trkpt><trkpt lat="42.129495" lon="14.11235"><time>2023-06-30T15:08:58.000Z</time><ele>2144.2</ele></trkpt><trkpt lat="42.129522" lon="14.112356"><time>2023-06-30T15:09:00.000Z</time><ele>2144.4</ele></trkpt><trkpt lat="42.12956" lon="14.112357"><time>2023-06-30T15:09:04.000Z</time><ele>2144.6</ele></trkpt><trkpt lat="42.129597" lon="14.112357"><time>2023-06-30T15:09:07.000Z</time><ele>2145</ele></trkpt><trkpt lat="42.129629" lon="14.112366"><time>2023-06-30T15:09:10.000Z</time><ele>2145.4</ele></trkpt><trkpt lat="42.129643" lon="14.11237"><time>2023-06-30T15:09:11.000Z</time><ele>2145.6</ele></trkpt><trkpt lat="42.129748" lon="14.112399"><time>2023-06-30T15:09:18.000Z</time><ele>2146.6</ele></trkpt><trkpt lat="42.129759" lon="14.112398"><time>2023-06-30T15:09:19.000Z</time><ele>2146.6</ele></trkpt><trkpt lat="42.12978" lon="14.112402"><time>2023-06-30T15:09:21.000Z</time><ele>2146.8</ele></trkpt><trkpt lat="42.129845" lon="14.112413"><time>2023-06-30T15:09:27.000Z</time><ele>2147.8</ele></trkpt><trkpt lat="42.129895" lon="14.112424"><time>2023-06-30T15:09:33.000Z</time><ele>2149</ele></trkpt><trkpt lat="42.129914" lon="14.112433"><time>2023-06-30T15:09:35.000Z</time><ele>2149.4</ele></trkpt><trkpt lat="42.129964" lon="14.112434"><time>2023-06-30T15:09:40.000Z</time><ele>2150</ele></trkpt><trkpt lat="42.129986" lon="14.112454"><time>2023-06-30T15:09:43.000Z</time><ele>2150.6</ele></trkpt><trkpt lat="42.130046" lon="14.112491"><time>2023-06-30T15:09:48.000Z</time><ele>2151.2</ele></trkpt><trkpt lat="42.130087" lon="14.112497"><time>2023-06-30T15:09:52.000Z</time><ele>2152</ele></trkpt><trkpt lat="42.130105" lon="14.112501"><time>2023-06-30T15:09:54.000Z</time><ele>2152.4</ele></trkpt><trkpt lat="42.130114" lon="14.112503"><time>2023-06-30T15:09:56.000Z</time><ele>2152.6</ele></trkpt><trkpt lat="42.130124" lon="14.112508"><time>2023-06-30T15:09:57.000Z</time><ele>2152.8</ele></trkpt><trkpt lat="42.130148" lon="14.112516"><time>2023-06-30T15:09:59.000Z</time><ele>2153.4</ele></trkpt><trkpt lat="42.130225" lon="14.112541"><time>2023-06-30T15:10:06.000Z</time><ele>2154.4</ele></trkpt><trkpt lat="42.130231" lon="14.112544"><time>2023-06-30T15:10:07.000Z</time><ele>2154.6</ele></trkpt><trkpt lat="42.130241" lon="14.11254"><time>2023-06-30T15:10:08.000Z</time><ele>2154.6</ele></trkpt><trkpt lat="42.13028" lon="14.112543"><time>2023-06-30T15:10:12.000Z</time><ele>2155.4</ele></trkpt><trkpt lat="42.130296" lon="14.112553"><time>2023-06-30T15:10:14.000Z</time><ele>2155.8</ele></trkpt><trkpt lat="42.130344" lon="14.112572"><time>2023-06-30T15:10:20.000Z</time><ele>2156.6</ele></trkpt><trkpt lat="42.130352" lon="14.112576"><time>2023-06-30T15:10:21.000Z</time><ele>2156.6</ele></trkpt><trkpt lat="42.130358" lon="14.112581"><time>2023-06-30T15:10:22.000Z</time><ele>2157</ele></trkpt><trkpt lat="42.130379" lon="14.112592"><time>2023-06-30T15:10:24.000Z</time><ele>2157.4</ele></trkpt><trkpt lat="42.130392" lon="14.112602"><time>2023-06-30T15:10:26.000Z</time><ele>2157.6</ele></trkpt><trkpt lat="42.130417" lon="14.112611"><time>2023-06-30T15:10:28.000Z</time><ele>2158</ele></trkpt><trkpt lat="42.130453" lon="14.112614"><time>2023-06-30T15:10:32.000Z</time><ele>2158.8</ele></trkpt><trkpt lat="42.130461" lon="14.112617"><time>2023-06-30T15:10:33.000Z</time><ele>2159.4</ele></trkpt><trkpt lat="42.130466" lon="14.112621"><time>2023-06-30T15:10:34.000Z</time><ele>2159.6</ele></trkpt><trkpt lat="42.130475" lon="14.112624"><time>2023-06-30T15:10:35.000Z</time><ele>2159.8</ele></trkpt><trkpt lat="42.130511" lon="14.112636"><time>2023-06-30T15:10:38.000Z</time><ele>2160.4</ele></trkpt><trkpt lat="42.130519" lon="14.112639"><time>2023-06-30T15:10:39.000Z</time><ele>2160.6</ele></trkpt><trkpt lat="42.130528" lon="14.112643"><time>2023-06-30T15:10:40.000Z</time><ele>2160.6</ele></trkpt><trkpt lat="42.130539" lon="14.112649"><time>2023-06-30T15:10:41.000Z</time><ele>2160.8</ele></trkpt><trkpt lat="42.130575" lon="14.112659"><time>2023-06-30T15:10:44.000Z</time><ele>2161.2</ele></trkpt><trkpt lat="42.130596" lon="14.112663"><time>2023-06-30T15:10:46.000Z</time><ele>2161.6</ele></trkpt><trkpt lat="42.13063" lon="14.112666"><time>2023-06-30T15:10:50.000Z</time><ele>2162.2</ele></trkpt><trkpt lat="42.130635" lon="14.112667"><time>2023-06-30T15:10:51.000Z</time><ele>2162.8</ele></trkpt><trkpt lat="42.130697" lon="14.112713"><time>2023-06-30T15:10:57.000Z</time><ele>2163.8</ele></trkpt><trkpt lat="42.130708" lon="14.112719"><time>2023-06-30T15:10:58.000Z</time><ele>2163.8</ele></trkpt><trkpt lat="42.130816" lon="14.11274"><time>2023-06-30T15:11:08.000Z</time><ele>2164.8</ele></trkpt><trkpt lat="42.130827" lon="14.112738"><time>2023-06-30T15:11:09.000Z</time><ele>2164.8</ele></trkpt><trkpt lat="42.1309" lon="14.11275"><time>2023-06-30T15:11:15.000Z</time><ele>2165.8</ele></trkpt><trkpt lat="42.130941" lon="14.112755"><time>2023-06-30T15:11:19.000Z</time><ele>2166</ele></trkpt><trkpt lat="42.131005" lon="14.112772"><time>2023-06-30T15:11:24.000Z</time><ele>2166.8</ele></trkpt><trkpt lat="42.131092" lon="14.112802"><time>2023-06-30T15:11:30.000Z</time><ele>2167</ele></trkpt><trkpt lat="42.131132" lon="14.112799"><time>2023-06-30T15:11:33.000Z</time><ele>2167.2</ele></trkpt><trkpt lat="42.131189" lon="14.112785"><time>2023-06-30T15:11:37.000Z</time><ele>2167.6</ele></trkpt><trkpt lat="42.13122" lon="14.112783"><time>2023-06-30T15:11:39.000Z</time><ele>2167.6</ele></trkpt><trkpt lat="42.131254" lon="14.112784"><time>2023-06-30T15:11:42.000Z</time><ele>2167.8</ele></trkpt><trkpt lat="42.131263" lon="14.112789"><time>2023-06-30T15:11:43.000Z</time><ele>2167.8</ele></trkpt><trkpt lat="42.13129" lon="14.112795"><time>2023-06-30T15:11:45.000Z</time><ele>2167.8</ele></trkpt><trkpt lat="42.131306" lon="14.112796"><time>2023-06-30T15:11:46.000Z</time><ele>2167.8</ele></trkpt><trkpt lat="42.131404" lon="14.112803"><time>2023-06-30T15:11:54.000Z</time><ele>2168.2</ele></trkpt><trkpt lat="42.131538" lon="14.112816"><time>2023-06-30T15:12:04.000Z</time><ele>2168.4</ele></trkpt><trkpt lat="42.131625" lon="14.112809"><time>2023-06-30T15:12:10.000Z</time><ele>2169</ele></trkpt><trkpt lat="42.131722" lon="14.112799"><time>2023-06-30T15:12:16.000Z</time><ele>2169.6</ele></trkpt><trkpt lat="42.13176" lon="14.112797"><time>2023-06-30T15:12:19.000Z</time><ele>2169.8</ele></trkpt><trkpt lat="42.131805" lon="14.112797"><time>2023-06-30T15:12:23.000Z</time><ele>2170.2</ele></trkpt><trkpt lat="42.13185" lon="14.11279"><time>2023-06-30T15:12:26.000Z</time><ele>2170.6</ele></trkpt><trkpt lat="42.131946" lon="14.11279"><time>2023-06-30T15:12:33.000Z</time><ele>2171.2</ele></trkpt><trkpt lat="42.131963" lon="14.112791"><time>2023-06-30T15:12:34.000Z</time><ele>2171.2</ele></trkpt><trkpt lat="42.132072" lon="14.112782"><time>2023-06-30T15:12:41.000Z</time><ele>2172.2</ele></trkpt><trkpt lat="42.132111" lon="14.112788"><time>2023-06-30T15:12:44.000Z</time><ele>2172.4</ele></trkpt><trkpt lat="42.132166" lon="14.112795"><time>2023-06-30T15:12:49.000Z</time><ele>2172.6</ele></trkpt><trkpt lat="42.132193" lon="14.112795"><time>2023-06-30T15:12:51.000Z</time><ele>2173</ele></trkpt><trkpt lat="42.132206" lon="14.112795"><time>2023-06-30T15:12:52.000Z</time><ele>2173.2</ele></trkpt><trkpt lat="42.132273" lon="14.112785"><time>2023-06-30T15:12:58.000Z</time><ele>2174.2</ele></trkpt><trkpt lat="42.132283" lon="14.112784"><time>2023-06-30T15:12:59.000Z</time><ele>2174.2</ele></trkpt><trkpt lat="42.132292" lon="14.112783"><time>2023-06-30T15:13:00.000Z</time><ele>2174.4</ele></trkpt><trkpt lat="42.132357" lon="14.112781"><time>2023-06-30T15:13:05.000Z</time><ele>2174.6</ele></trkpt><trkpt lat="42.132388" lon="14.112777"><time>2023-06-30T15:13:08.000Z</time><ele>2174.6</ele></trkpt><trkpt lat="42.132471" lon="14.112744"><time>2023-06-30T15:13:16.000Z</time><ele>2174.4</ele></trkpt><trkpt lat="42.132481" lon="14.11274"><time>2023-06-30T15:13:17.000Z</time><ele>2174.4</ele></trkpt><trkpt lat="42.132566" lon="14.112708"><time>2023-06-30T15:13:24.000Z</time><ele>2173</ele></trkpt><trkpt lat="42.132595" lon="14.112694"><time>2023-06-30T15:13:26.000Z</time><ele>2172.6</ele></trkpt><trkpt lat="42.132674" lon="14.112649"><time>2023-06-30T15:13:32.000Z</time><ele>2172</ele></trkpt><trkpt lat="42.132683" lon="14.11264"><time>2023-06-30T15:13:33.000Z</time><ele>2172</ele></trkpt><trkpt lat="42.132711" lon="14.112613"><time>2023-06-30T15:13:38.000Z</time><ele>2171.6</ele></trkpt><trkpt lat="42.132714" lon="14.112608"><time>2023-06-30T15:13:39.000Z</time><ele>2171.4</ele></trkpt><trkpt lat="42.13273" lon="14.112606"><time>2023-06-30T15:13:42.000Z</time><ele>2171</ele></trkpt><trkpt lat="42.132738" lon="14.112603"><time>2023-06-30T15:13:43.000Z</time><ele>2170.8</ele></trkpt><trkpt lat="42.132751" lon="14.112595"><time>2023-06-30T15:13:45.000Z</time><ele>2170.2</ele></trkpt><trkpt lat="42.13276" lon="14.112579"><time>2023-06-30T15:13:48.000Z</time><ele>2169.6</ele></trkpt><trkpt lat="42.132778" lon="14.112573"><time>2023-06-30T15:13:52.000Z</time><ele>2169</ele></trkpt><trkpt lat="42.132794" lon="14.112567"><time>2023-06-30T15:13:56.000Z</time><ele>2168.6</ele></trkpt><trkpt lat="42.132803" lon="14.11256"><time>2023-06-30T15:13:57.000Z</time><ele>2168.4</ele></trkpt><trkpt lat="42.13281" lon="14.11255"><time>2023-06-30T15:13:58.000Z</time><ele>2168.2</ele></trkpt><trkpt lat="42.13285" lon="14.112528"><time>2023-06-30T15:14:02.000Z</time><ele>2168</ele></trkpt><trkpt lat="42.132881" lon="14.112507"><time>2023-06-30T15:14:05.000Z</time><ele>2167.4</ele></trkpt><trkpt lat="42.132906" lon="14.112502"><time>2023-06-30T15:14:09.000Z</time><ele>2166.2</ele></trkpt><trkpt lat="42.132919" lon="14.1125"><time>2023-06-30T15:14:12.000Z</time><ele>2165.6</ele></trkpt><trkpt lat="42.132935" lon="14.112504"><time>2023-06-30T15:14:15.000Z</time><ele>2165</ele></trkpt><trkpt lat="42.132991" lon="14.112491"><time>2023-06-30T15:14:19.000Z</time><ele>2163.8</ele></trkpt><trkpt lat="42.133054" lon="14.112459"><time>2023-06-30T15:14:24.000Z</time><ele>2162.6</ele></trkpt><trkpt lat="42.133071" lon="14.112451"><time>2023-06-30T15:14:26.000Z</time><ele>2162</ele></trkpt><trkpt lat="42.133093" lon="14.112442"><time>2023-06-30T15:14:28.000Z</time><ele>2161.4</ele></trkpt><trkpt lat="42.133158" lon="14.112425"><time>2023-06-30T15:14:35.000Z</time><ele>2160.4</ele></trkpt><trkpt lat="42.133163" lon="14.112427"><time>2023-06-30T15:14:36.000Z</time><ele>2160.2</ele></trkpt><trkpt lat="42.133183" lon="14.112427"><time>2023-06-30T15:14:38.000Z</time><ele>2160</ele></trkpt><trkpt lat="42.133203" lon="14.112422"><time>2023-06-30T15:14:40.000Z</time><ele>2159.6</ele></trkpt><trkpt lat="42.133224" lon="14.11242"><time>2023-06-30T15:14:42.000Z</time><ele>2159.2</ele></trkpt><trkpt lat="42.133279" lon="14.112394"><time>2023-06-30T15:14:47.000Z</time><ele>2158.2</ele></trkpt><trkpt lat="42.133294" lon="14.11239"><time>2023-06-30T15:14:48.000Z</time><ele>2158.2</ele></trkpt><trkpt lat="42.133361" lon="14.112355"><time>2023-06-30T15:14:54.000Z</time><ele>2158.4</ele></trkpt><trkpt lat="42.133383" lon="14.112353"><time>2023-06-30T15:14:56.000Z</time><ele>2158.2</ele></trkpt><trkpt lat="42.1334" lon="14.11234"><time>2023-06-30T15:14:58.000Z</time><ele>2158.2</ele></trkpt><trkpt lat="42.133406" lon="14.112335"><time>2023-06-30T15:14:59.000Z</time><ele>2158</ele></trkpt><trkpt lat="42.133413" lon="14.112335"><time>2023-06-30T15:15:00.000Z</time><ele>2158</ele></trkpt><trkpt lat="42.133441" lon="14.11234"><time>2023-06-30T15:15:03.000Z</time><ele>2158</ele></trkpt><trkpt lat="42.133455" lon="14.112342"><time>2023-06-30T15:15:04.000Z</time><ele>2158</ele></trkpt><trkpt lat="42.133468" lon="14.112335"><time>2023-06-30T15:15:05.000Z</time><ele>2157.8</ele></trkpt><trkpt lat="42.133513" lon="14.112298"><time>2023-06-30T15:15:09.000Z</time><ele>2157.2</ele></trkpt><trkpt lat="42.133634" lon="14.112235"><time>2023-06-30T15:15:17.000Z</time><ele>2156.6</ele></trkpt><trkpt lat="42.133661" lon="14.112223"><time>2023-06-30T15:15:20.000Z</time><ele>2156</ele></trkpt><trkpt lat="42.133671" lon="14.112222"><time>2023-06-30T15:15:21.000Z</time><ele>2156</ele></trkpt><trkpt lat="42.13371" lon="14.112218"><time>2023-06-30T15:15:24.000Z</time><ele>2155.8</ele></trkpt><trkpt lat="42.133762" lon="14.112187"><time>2023-06-30T15:15:28.000Z</time><ele>2155</ele></trkpt><trkpt lat="42.133795" lon="14.112167"><time>2023-06-30T15:15:31.000Z</time><ele>2154.8</ele></trkpt><trkpt lat="42.1339" lon="14.112121"><time>2023-06-30T15:15:39.000Z</time><ele>2154</ele></trkpt><trkpt lat="42.133908" lon="14.112115"><time>2023-06-30T15:15:40.000Z</time><ele>2153.8</ele></trkpt><trkpt lat="42.13396" lon="14.112074"><time>2023-06-30T15:15:45.000Z</time><ele>2153.6</ele></trkpt><trkpt lat="42.134011" lon="14.112054"><time>2023-06-30T15:15:49.000Z</time><ele>2153.4</ele></trkpt><trkpt lat="42.134048" lon="14.112038"><time>2023-06-30T15:15:52.000Z</time><ele>2152.8</ele></trkpt><trkpt lat="42.134064" lon="14.112035"><time>2023-06-30T15:15:53.000Z</time><ele>2152.6</ele></trkpt><trkpt lat="42.134141" lon="14.112007"><time>2023-06-30T15:15:59.000Z</time><ele>2151.8</ele></trkpt><trkpt lat="42.134217" lon="14.111947"><time>2023-06-30T15:16:06.000Z</time><ele>2150.6</ele></trkpt><trkpt lat="42.134288" lon="14.111882"><time>2023-06-30T15:16:14.000Z</time><ele>2150</ele></trkpt><trkpt lat="42.134342" lon="14.111854"><time>2023-06-30T15:16:18.000Z</time><ele>2149.6</ele></trkpt><trkpt lat="42.13439" lon="14.111811"><time>2023-06-30T15:16:23.000Z</time><ele>2149</ele></trkpt><trkpt lat="42.134435" lon="14.111783"><time>2023-06-30T15:16:28.000Z</time><ele>2148.8</ele></trkpt><trkpt lat="42.134495" lon="14.111754"><time>2023-06-30T15:16:33.000Z</time><ele>2148.4</ele></trkpt><trkpt lat="42.134526" lon="14.111748"><time>2023-06-30T15:16:36.000Z</time><ele>2148</ele></trkpt><trkpt lat="42.13461" lon="14.111693"><time>2023-06-30T15:16:43.000Z</time><ele>2147.6</ele></trkpt><trkpt lat="42.134625" lon="14.111684"><time>2023-06-30T15:16:44.000Z</time><ele>2147.4</ele></trkpt><trkpt lat="42.134717" lon="14.111664"><time>2023-06-30T15:16:49.000Z</time><ele>2147.6</ele></trkpt><trkpt lat="42.134765" lon="14.111647"><time>2023-06-30T15:16:52.000Z</time><ele>2147.4</ele></trkpt><trkpt lat="42.134835" lon="14.111637"><time>2023-06-30T15:16:58.000Z</time><ele>2146.6</ele></trkpt><trkpt lat="42.134917" lon="14.111592"><time>2023-06-30T15:17:05.000Z</time><ele>2147</ele></trkpt><trkpt lat="42.134982" lon="14.11157"><time>2023-06-30T15:17:09.000Z</time><ele>2147.4</ele></trkpt><trkpt lat="42.135026" lon="14.111565"><time>2023-06-30T15:17:12.000Z</time><ele>2146.8</ele></trkpt><trkpt lat="42.13508" lon="14.111548"><time>2023-06-30T15:17:15.000Z</time><ele>2146.6</ele></trkpt><trkpt lat="42.135131" lon="14.111547"><time>2023-06-30T15:17:18.000Z</time><ele>2147</ele></trkpt><trkpt lat="42.135161" lon="14.111547"><time>2023-06-30T15:17:20.000Z</time><ele>2147</ele></trkpt><trkpt lat="42.135291" lon="14.111472"><time>2023-06-30T15:17:28.000Z</time><ele>2146.2</ele></trkpt><trkpt lat="42.135338" lon="14.1114"><time>2023-06-30T15:17:32.000Z</time><ele>2144.8</ele></trkpt><trkpt lat="42.135366" lon="14.111358"><time>2023-06-30T15:17:35.000Z</time><ele>2143.8</ele></trkpt><trkpt lat="42.135389" lon="14.111334"><time>2023-06-30T15:17:37.000Z</time><ele>2143</ele></trkpt><trkpt lat="42.135401" lon="14.111321"><time>2023-06-30T15:17:38.000Z</time><ele>2142.6</ele></trkpt><trkpt lat="42.135453" lon="14.111291"><time>2023-06-30T15:17:41.000Z</time><ele>2141.4</ele></trkpt><trkpt lat="42.135494" lon="14.111274"><time>2023-06-30T15:17:44.000Z</time><ele>2141</ele></trkpt><trkpt lat="42.13552" lon="14.111262"><time>2023-06-30T15:17:46.000Z</time><ele>2140.4</ele></trkpt><trkpt lat="42.135647" lon="14.111199"><time>2023-06-30T15:17:54.000Z</time><ele>2139.6</ele></trkpt><trkpt lat="42.13571" lon="14.111146"><time>2023-06-30T15:17:58.000Z</time><ele>2139.2</ele></trkpt><trkpt lat="42.135767" lon="14.111113"><time>2023-06-30T15:18:02.000Z</time><ele>2139</ele></trkpt><trkpt lat="42.135783" lon="14.111105"><time>2023-06-30T15:18:03.000Z</time><ele>2138.8</ele></trkpt><trkpt lat="42.135797" lon="14.111096"><time>2023-06-30T15:18:04.000Z</time><ele>2138.8</ele></trkpt><trkpt lat="42.135813" lon="14.111087"><time>2023-06-30T15:18:05.000Z</time><ele>2138.8</ele></trkpt><trkpt lat="42.135921" lon="14.111009"><time>2023-06-30T15:18:13.000Z</time><ele>2138.6</ele></trkpt><trkpt lat="42.135941" lon="14.110985"><time>2023-06-30T15:18:15.000Z</time><ele>2138.6</ele></trkpt><trkpt lat="42.135969" lon="14.110962"><time>2023-06-30T15:18:18.000Z</time><ele>2138.2</ele></trkpt><trkpt lat="42.13599" lon="14.110943"><time>2023-06-30T15:18:20.000Z</time><ele>2138</ele></trkpt><trkpt lat="42.136015" lon="14.110922"><time>2023-06-30T15:18:22.000Z</time><ele>2137.8</ele></trkpt><trkpt lat="42.136051" lon="14.110894"><time>2023-06-30T15:18:25.000Z</time><ele>2137.6</ele></trkpt><trkpt lat="42.136103" lon="14.110865"><time>2023-06-30T15:18:29.000Z</time><ele>2137.2</ele></trkpt><trkpt lat="42.136108" lon="14.110858"><time>2023-06-30T15:18:30.000Z</time><ele>2137.2</ele></trkpt><trkpt lat="42.136116" lon="14.110854"><time>2023-06-30T15:18:31.000Z</time><ele>2137.2</ele></trkpt><trkpt lat="42.136134" lon="14.110837"><time>2023-06-30T15:18:33.000Z</time><ele>2137.2</ele></trkpt><trkpt lat="42.136143" lon="14.11083"><time>2023-06-30T15:18:35.000Z</time><ele>2137.2</ele></trkpt><trkpt lat="42.136171" lon="14.110825"><time>2023-06-30T15:18:38.000Z</time><ele>2137</ele></trkpt><trkpt lat="42.136194" lon="14.110802"><time>2023-06-30T15:18:41.000Z</time><ele>2136.8</ele></trkpt><trkpt lat="42.136224" lon="14.110788"><time>2023-06-30T15:18:45.000Z</time><ele>2136.8</ele></trkpt><trkpt lat="42.136274" lon="14.110762"><time>2023-06-30T15:18:48.000Z</time><ele>2136.8</ele></trkpt><trkpt lat="42.136303" lon="14.110744"><time>2023-06-30T15:18:50.000Z</time><ele>2136.8</ele></trkpt><trkpt lat="42.136315" lon="14.110731"><time>2023-06-30T15:18:51.000Z</time><ele>2136.8</ele></trkpt><trkpt lat="42.136343" lon="14.110695"><time>2023-06-30T15:18:54.000Z</time><ele>2136.4</ele></trkpt><trkpt lat="42.136354" lon="14.110685"><time>2023-06-30T15:18:56.000Z</time><ele>2136.2</ele></trkpt><trkpt lat="42.136362" lon="14.110679"><time>2023-06-30T15:18:57.000Z</time><ele>2136</ele></trkpt><trkpt lat="42.136405" lon="14.110627"><time>2023-06-30T15:19:05.000Z</time><ele>2136.2</ele></trkpt><trkpt lat="42.136411" lon="14.110622"><time>2023-06-30T15:19:06.000Z</time><ele>2136.2</ele></trkpt><trkpt lat="42.136424" lon="14.110616"><time>2023-06-30T15:19:12.000Z</time><ele>2136.6</ele></trkpt><trkpt lat="42.136438" lon="14.110605"><time>2023-06-30T15:19:14.000Z</time><ele>2136.2</ele></trkpt><trkpt lat="42.136457" lon="14.110599"><time>2023-06-30T15:19:17.000Z</time><ele>2136</ele></trkpt><trkpt lat="42.136466" lon="14.1106"><time>2023-06-30T15:19:18.000Z</time><ele>2136</ele></trkpt><trkpt lat="42.136562" lon="14.110555"><time>2023-06-30T15:19:24.000Z</time><ele>2136.2</ele></trkpt><trkpt lat="42.136656" lon="14.110461"><time>2023-06-30T15:19:30.000Z</time><ele>2135.8</ele></trkpt><trkpt lat="42.136726" lon="14.110409"><time>2023-06-30T15:19:35.000Z</time><ele>2135.4</ele></trkpt><trkpt lat="42.136741" lon="14.110409"><time>2023-06-30T15:19:36.000Z</time><ele>2135.4</ele></trkpt><trkpt lat="42.136791" lon="14.110376"><time>2023-06-30T15:19:40.000Z</time><ele>2135</ele></trkpt><trkpt lat="42.136829" lon="14.110347"><time>2023-06-30T15:19:43.000Z</time><ele>2134.4</ele></trkpt><trkpt lat="42.13686" lon="14.11033"><time>2023-06-30T15:19:45.000Z</time><ele>2134</ele></trkpt><trkpt lat="42.136898" lon="14.110307"><time>2023-06-30T15:19:48.000Z</time><ele>2133.8</ele></trkpt><trkpt lat="42.136925" lon="14.110292"><time>2023-06-30T15:19:50.000Z</time><ele>2133.8</ele></trkpt><trkpt lat="42.136973" lon="14.110279"><time>2023-06-30T15:19:54.000Z</time><ele>2133.6</ele></trkpt><trkpt lat="42.137012" lon="14.110262"><time>2023-06-30T15:19:57.000Z</time><ele>2133</ele></trkpt><trkpt lat="42.13706" lon="14.110229"><time>2023-06-30T15:20:00.000Z</time><ele>2132.8</ele></trkpt><trkpt lat="42.137099" lon="14.110193"><time>2023-06-30T15:20:03.000Z</time><ele>2132.8</ele></trkpt><trkpt lat="42.137136" lon="14.11017"><time>2023-06-30T15:20:05.000Z</time><ele>2132.8</ele></trkpt><trkpt lat="42.137233" lon="14.110128"><time>2023-06-30T15:20:10.000Z</time><ele>2132.8</ele></trkpt><trkpt lat="42.137318" lon="14.110089"><time>2023-06-30T15:20:15.000Z</time><ele>2133</ele></trkpt><trkpt lat="42.137404" lon="14.110095"><time>2023-06-30T15:20:21.000Z</time><ele>2132.8</ele></trkpt><trkpt lat="42.137448" lon="14.110097"><time>2023-06-30T15:20:24.000Z</time><ele>2131.8</ele></trkpt><trkpt lat="42.137481" lon="14.110086"><time>2023-06-30T15:20:27.000Z</time><ele>2131.6</ele></trkpt><trkpt lat="42.137491" lon="14.110084"><time>2023-06-30T15:20:28.000Z</time><ele>2131.6</ele></trkpt><trkpt lat="42.137499" lon="14.110082"><time>2023-06-30T15:20:29.000Z</time><ele>2131.6</ele></trkpt><trkpt lat="42.137664" lon="14.110074"><time>2023-06-30T15:20:40.000Z</time><ele>2131</ele></trkpt><trkpt lat="42.13768" lon="14.110069"><time>2023-06-30T15:20:41.000Z</time><ele>2130.8</ele></trkpt><trkpt lat="42.137819" lon="14.110056"><time>2023-06-30T15:20:49.000Z</time><ele>2130.8</ele></trkpt><trkpt lat="42.137937" lon="14.110081"><time>2023-06-30T15:20:57.000Z</time><ele>2130</ele></trkpt><trkpt lat="42.137956" lon="14.110081"><time>2023-06-30T15:20:58.000Z</time><ele>2129.8</ele></trkpt><trkpt lat="42.138002" lon="14.110076"><time>2023-06-30T15:21:01.000Z</time><ele>2129.4</ele></trkpt><trkpt lat="42.138043" lon="14.110073"><time>2023-06-30T15:21:05.000Z</time><ele>2129.4</ele></trkpt><trkpt lat="42.1381" lon="14.110077"><time>2023-06-30T15:21:09.000Z</time><ele>2128.8</ele></trkpt><trkpt lat="42.138153" lon="14.110085"><time>2023-06-30T15:21:12.000Z</time><ele>2128.4</ele></trkpt><trkpt lat="42.138236" lon="14.110101"><time>2023-06-30T15:21:17.000Z</time><ele>2128</ele></trkpt><trkpt lat="42.138271" lon="14.110105"><time>2023-06-30T15:21:19.000Z</time><ele>2127.6</ele></trkpt><trkpt lat="42.138325" lon="14.110103"><time>2023-06-30T15:21:23.000Z</time><ele>2127.2</ele></trkpt><trkpt lat="42.138383" lon="14.110107"><time>2023-06-30T15:21:27.000Z</time><ele>2127.2</ele></trkpt><trkpt lat="42.138435" lon="14.110109"><time>2023-06-30T15:21:31.000Z</time><ele>2127.2</ele></trkpt><trkpt lat="42.138502" lon="14.110119"><time>2023-06-30T15:21:36.000Z</time><ele>2126.4</ele></trkpt><trkpt lat="42.138573" lon="14.110136"><time>2023-06-30T15:21:40.000Z</time><ele>2126.2</ele></trkpt><trkpt lat="42.13863" lon="14.110149"><time>2023-06-30T15:21:43.000Z</time><ele>2125.8</ele></trkpt><trkpt lat="42.138666" lon="14.110159"><time>2023-06-30T15:21:45.000Z</time><ele>2125.4</ele></trkpt><trkpt lat="42.138692" lon="14.110182"><time>2023-06-30T15:21:47.000Z</time><ele>2125.2</ele></trkpt><trkpt lat="42.138705" lon="14.110188"><time>2023-06-30T15:21:48.000Z</time><ele>2125</ele></trkpt><trkpt lat="42.138774" lon="14.110203"><time>2023-06-30T15:21:53.000Z</time><ele>2125.2</ele></trkpt><trkpt lat="42.138911" lon="14.110227"><time>2023-06-30T15:22:03.000Z</time><ele>2124.4</ele></trkpt><trkpt lat="42.138926" lon="14.110234"><time>2023-06-30T15:22:04.000Z</time><ele>2124.2</ele></trkpt><trkpt lat="42.138992" lon="14.110252"><time>2023-06-30T15:22:11.000Z</time><ele>2124.2</ele></trkpt><trkpt lat="42.139026" lon="14.110267"><time>2023-06-30T15:22:14.000Z</time><ele>2124</ele></trkpt><trkpt lat="42.13908" lon="14.110258"><time>2023-06-30T15:22:18.000Z</time><ele>2123.2</ele></trkpt><trkpt lat="42.139094" lon="14.110257"><time>2023-06-30T15:22:19.000Z</time><ele>2123.2</ele></trkpt><trkpt lat="42.139204" lon="14.110293"><time>2023-06-30T15:22:25.000Z</time><ele>2122.8</ele></trkpt><trkpt lat="42.139284" lon="14.110338"><time>2023-06-30T15:22:30.000Z</time><ele>2122</ele></trkpt><trkpt lat="42.139347" lon="14.110378"><time>2023-06-30T15:22:34.000Z</time><ele>2121.8</ele></trkpt><trkpt lat="42.139359" lon="14.110385"><time>2023-06-30T15:22:35.000Z</time><ele>2121.8</ele></trkpt><trkpt lat="42.139371" lon="14.110391"><time>2023-06-30T15:22:36.000Z</time><ele>2121.8</ele></trkpt><trkpt lat="42.139391" lon="14.110428"><time>2023-06-30T15:22:40.000Z</time><ele>2121.4</ele></trkpt><trkpt lat="42.139397" lon="14.110442"><time>2023-06-30T15:22:41.000Z</time><ele>2121.4</ele></trkpt><trkpt lat="42.139424" lon="14.110479"><time>2023-06-30T15:22:45.000Z</time><ele>2120.8</ele></trkpt><trkpt lat="42.139439" lon="14.110493"><time>2023-06-30T15:22:47.000Z</time><ele>2120</ele></trkpt><trkpt lat="42.139449" lon="14.110499"><time>2023-06-30T15:22:48.000Z</time><ele>2119.8</ele></trkpt><trkpt lat="42.139545" lon="14.110537"><time>2023-06-30T15:22:54.000Z</time><ele>2118.8</ele></trkpt><trkpt lat="42.139564" lon="14.11054"><time>2023-06-30T15:22:55.000Z</time><ele>2118.8</ele></trkpt><trkpt lat="42.139581" lon="14.110549"><time>2023-06-30T15:22:56.000Z</time><ele>2118.8</ele></trkpt><trkpt lat="42.139664" lon="14.110592"><time>2023-06-30T15:23:00.000Z</time><ele>2119</ele></trkpt><trkpt lat="42.139755" lon="14.110614"><time>2023-06-30T15:23:06.000Z</time><ele>2118.4</ele></trkpt><trkpt lat="42.139773" lon="14.110613"><time>2023-06-30T15:23:08.000Z</time><ele>2118.6</ele></trkpt><trkpt lat="42.139786" lon="14.110617"><time>2023-06-30T15:23:11.000Z</time><ele>2119.2</ele></trkpt><trkpt lat="42.139798" lon="14.110623"><time>2023-06-30T15:23:14.000Z</time><ele>2119.2</ele></trkpt><trkpt lat="42.13983" lon="14.110634"><time>2023-06-30T15:23:16.000Z</time><ele>2118.8</ele></trkpt><trkpt lat="42.139912" lon="14.110681"><time>2023-06-30T15:23:20.000Z</time><ele>2117.6</ele></trkpt><trkpt lat="42.13993" lon="14.11069"><time>2023-06-30T15:23:21.000Z</time><ele>2117.4</ele></trkpt><trkpt lat="42.139945" lon="14.110701"><time>2023-06-30T15:23:22.000Z</time><ele>2117.4</ele></trkpt><trkpt lat="42.13997" lon="14.110715"><time>2023-06-30T15:23:24.000Z</time><ele>2117.4</ele></trkpt><trkpt lat="42.139987" lon="14.110731"><time>2023-06-30T15:23:26.000Z</time><ele>2117.4</ele></trkpt><trkpt lat="42.139999" lon="14.110748"><time>2023-06-30T15:23:27.000Z</time><ele>2117.4</ele></trkpt><trkpt lat="42.140051" lon="14.11082"><time>2023-06-30T15:23:32.000Z</time><ele>2117.2</ele></trkpt><trkpt lat="42.140054" lon="14.110827"><time>2023-06-30T15:23:33.000Z</time><ele>2117.2</ele></trkpt><trkpt lat="42.140099" lon="14.110932"><time>2023-06-30T15:23:40.000Z</time><ele>2116.8</ele></trkpt><trkpt lat="42.140134" lon="14.110959"><time>2023-06-30T15:23:44.000Z</time><ele>2116.8</ele></trkpt><trkpt lat="42.14015" lon="14.110965"><time>2023-06-30T15:23:46.000Z</time><ele>2117.4</ele></trkpt><trkpt lat="42.140237" lon="14.110962"><time>2023-06-30T15:23:55.000Z</time><ele>2118</ele></trkpt><trkpt lat="42.140314" lon="14.110953"><time>2023-06-30T15:24:03.000Z</time><ele>2116.8</ele></trkpt><trkpt lat="42.140338" lon="14.110949"><time>2023-06-30T15:24:05.000Z</time><ele>2116.4</ele></trkpt><trkpt lat="42.140384" lon="14.110947"><time>2023-06-30T15:24:09.000Z</time><ele>2115.4</ele></trkpt><trkpt lat="42.140421" lon="14.110944"><time>2023-06-30T15:24:12.000Z</time><ele>2114.6</ele></trkpt><trkpt lat="42.140448" lon="14.110939"><time>2023-06-30T15:24:14.000Z</time><ele>2114.2</ele></trkpt><trkpt lat="42.140522" lon="14.110934"><time>2023-06-30T15:24:20.000Z</time><ele>2113.2</ele></trkpt><trkpt lat="42.140551" lon="14.11093"><time>2023-06-30T15:24:22.000Z</time><ele>2112.8</ele></trkpt><trkpt lat="42.1406" lon="14.110915"><time>2023-06-30T15:24:25.000Z</time><ele>2112.6</ele></trkpt><trkpt lat="42.140622" lon="14.110892"><time>2023-06-30T15:24:27.000Z</time><ele>2112.6</ele></trkpt><trkpt lat="42.140634" lon="14.110887"><time>2023-06-30T15:24:28.000Z</time><ele>2112.4</ele></trkpt><trkpt lat="42.140673" lon="14.110885"><time>2023-06-30T15:24:31.000Z</time><ele>2111.8</ele></trkpt><trkpt lat="42.140684" lon="14.110885"><time>2023-06-30T15:24:32.000Z</time><ele>2111.8</ele></trkpt><trkpt lat="42.140724" lon="14.110891"><time>2023-06-30T15:24:36.000Z</time><ele>2110.8</ele></trkpt><trkpt lat="42.140744" lon="14.11089"><time>2023-06-30T15:24:38.000Z</time><ele>2110</ele></trkpt><trkpt lat="42.140752" lon="14.110885"><time>2023-06-30T15:24:39.000Z</time><ele>2109.8</ele></trkpt><trkpt lat="42.14076" lon="14.110884"><time>2023-06-30T15:24:40.000Z</time><ele>2109.6</ele></trkpt><trkpt lat="42.140778" lon="14.11087"><time>2023-06-30T15:24:42.000Z</time><ele>2109</ele></trkpt><trkpt lat="42.140794" lon="14.11086"><time>2023-06-30T15:24:44.000Z</time><ele>2108.8</ele></trkpt><trkpt lat="42.140837" lon="14.110869"><time>2023-06-30T15:24:47.000Z</time><ele>2108.6</ele></trkpt><trkpt lat="42.140853" lon="14.11087"><time>2023-06-30T15:24:48.000Z</time><ele>2108.6</ele></trkpt><trkpt lat="42.140931" lon="14.110868"><time>2023-06-30T15:24:53.000Z</time><ele>2107.8</ele></trkpt><trkpt lat="42.140947" lon="14.110872"><time>2023-06-30T15:24:54.000Z</time><ele>2107.6</ele></trkpt><trkpt lat="42.140964" lon="14.110875"><time>2023-06-30T15:24:55.000Z</time><ele>2107.2</ele></trkpt><trkpt lat="42.141049" lon="14.110873"><time>2023-06-30T15:25:00.000Z</time><ele>2106.4</ele></trkpt><trkpt lat="42.141103" lon="14.110854"><time>2023-06-30T15:25:04.000Z</time><ele>2106</ele></trkpt><trkpt lat="42.141196" lon="14.110847"><time>2023-06-30T15:25:09.000Z</time><ele>2105.4</ele></trkpt><trkpt lat="42.141248" lon="14.110832"><time>2023-06-30T15:25:12.000Z</time><ele>2105.2</ele></trkpt><trkpt lat="42.141265" lon="14.110829"><time>2023-06-30T15:25:13.000Z</time><ele>2105.2</ele></trkpt><trkpt lat="42.141393" lon="14.110798"><time>2023-06-30T15:25:21.000Z</time><ele>2104.4</ele></trkpt><trkpt lat="42.141406" lon="14.110796"><time>2023-06-30T15:25:22.000Z</time><ele>2104.4</ele></trkpt><trkpt lat="42.141478" lon="14.110792"><time>2023-06-30T15:25:27.000Z</time><ele>2104.4</ele></trkpt><trkpt lat="42.141489" lon="14.110785"><time>2023-06-30T15:25:28.000Z</time><ele>2104.4</ele></trkpt><trkpt lat="42.1415" lon="14.110776"><time>2023-06-30T15:25:29.000Z</time><ele>2104.4</ele></trkpt><trkpt lat="42.141598" lon="14.110672"><time>2023-06-30T15:25:37.000Z</time><ele>2104.6</ele></trkpt><trkpt lat="42.14163" lon="14.110628"><time>2023-06-30T15:25:40.000Z</time><ele>2104.4</ele></trkpt><trkpt lat="42.141683" lon="14.110572"><time>2023-06-30T15:25:45.000Z</time><ele>2103.2</ele></trkpt><trkpt lat="42.141708" lon="14.110551"><time>2023-06-30T15:25:47.000Z</time><ele>2103.2</ele></trkpt><trkpt lat="42.141719" lon="14.110536"><time>2023-06-30T15:25:48.000Z</time><ele>2103</ele></trkpt><trkpt lat="42.141774" lon="14.110469"><time>2023-06-30T15:25:53.000Z</time><ele>2102.2</ele></trkpt><trkpt lat="42.141788" lon="14.110459"><time>2023-06-30T15:25:54.000Z</time><ele>2102</ele></trkpt><trkpt lat="42.141831" lon="14.110422"><time>2023-06-30T15:25:57.000Z</time><ele>2101.6</ele></trkpt><trkpt lat="42.141856" lon="14.110408"><time>2023-06-30T15:25:59.000Z</time><ele>2101.6</ele></trkpt><trkpt lat="42.141865" lon="14.1104"><time>2023-06-30T15:26:00.000Z</time><ele>2101.6</ele></trkpt><trkpt lat="42.141886" lon="14.110382"><time>2023-06-30T15:26:02.000Z</time><ele>2101.4</ele></trkpt><trkpt lat="42.141953" lon="14.110335"><time>2023-06-30T15:26:06.000Z</time><ele>2101.2</ele></trkpt><trkpt lat="42.141976" lon="14.110312"><time>2023-06-30T15:26:08.000Z</time><ele>2101.2</ele></trkpt><trkpt lat="42.142035" lon="14.110236"><time>2023-06-30T15:26:13.000Z</time><ele>2101</ele></trkpt><trkpt lat="42.142051" lon="14.110207"><time>2023-06-30T15:26:15.000Z</time><ele>2101</ele></trkpt><trkpt lat="42.142098" lon="14.110158"><time>2023-06-30T15:26:19.000Z</time><ele>2101.4</ele></trkpt><trkpt lat="42.142182" lon="14.110121"><time>2023-06-30T15:26:25.000Z</time><ele>2102.2</ele></trkpt><trkpt lat="42.142234" lon="14.110068"><time>2023-06-30T15:26:29.000Z</time><ele>2103.4</ele></trkpt><trkpt lat="42.142243" lon="14.110049"><time>2023-06-30T15:26:30.000Z</time><ele>2103.6</ele></trkpt><trkpt lat="42.142262" lon="14.110018"><time>2023-06-30T15:26:32.000Z</time><ele>2103.8</ele></trkpt><trkpt lat="42.142281" lon="14.109986"><time>2023-06-30T15:26:34.000Z</time><ele>2103.8</ele></trkpt><trkpt lat="42.142308" lon="14.10993"><time>2023-06-30T15:26:37.000Z</time><ele>2103.8</ele></trkpt><trkpt lat="42.142372" lon="14.109821"><time>2023-06-30T15:26:44.000Z</time><ele>2103.4</ele></trkpt><trkpt lat="42.142391" lon="14.109789"><time>2023-06-30T15:26:46.000Z</time><ele>2103.6</ele></trkpt><trkpt lat="42.142434" lon="14.109749"><time>2023-06-30T15:26:49.000Z</time><ele>2103.8</ele></trkpt><trkpt lat="42.142454" lon="14.109744"><time>2023-06-30T15:26:50.000Z</time><ele>2104</ele></trkpt><trkpt lat="42.142478" lon="14.109719"><time>2023-06-30T15:26:52.000Z</time><ele>2104.6</ele></trkpt><trkpt lat="42.142487" lon="14.1097"><time>2023-06-30T15:26:53.000Z</time><ele>2104.6</ele></trkpt><trkpt lat="42.142519" lon="14.109643"><time>2023-06-30T15:26:56.000Z</time><ele>2105</ele></trkpt><trkpt lat="42.142549" lon="14.109599"><time>2023-06-30T15:26:59.000Z</time><ele>2105</ele></trkpt><trkpt lat="42.142608" lon="14.109513"><time>2023-06-30T15:27:05.000Z</time><ele>2105</ele></trkpt><trkpt lat="42.142614" lon="14.10949"><time>2023-06-30T15:27:06.000Z</time><ele>2105</ele></trkpt><trkpt lat="42.142668" lon="14.109326"><time>2023-06-30T15:27:14.000Z</time><ele>2104.6</ele></trkpt><trkpt lat="42.142736" lon="14.109168"><time>2023-06-30T15:27:22.000Z</time><ele>2104.4</ele></trkpt><trkpt lat="42.142742" lon="14.109149"><time>2023-06-30T15:27:23.000Z</time><ele>2104.4</ele></trkpt><trkpt lat="42.142818" lon="14.109028"><time>2023-06-30T15:27:30.000Z</time><ele>2104.4</ele></trkpt><trkpt lat="42.142834" lon="14.109"><time>2023-06-30T15:27:32.000Z</time><ele>2104.6</ele></trkpt><trkpt lat="42.142849" lon="14.10897"><time>2023-06-30T15:27:34.000Z</time><ele>2104.4</ele></trkpt><trkpt lat="42.142862" lon="14.108955"><time>2023-06-30T15:27:35.000Z</time><ele>2104.4</ele></trkpt><trkpt lat="42.142917" lon="14.108809"><time>2023-06-30T15:27:43.000Z</time><ele>2104</ele></trkpt><trkpt lat="42.14296" lon="14.108756"><time>2023-06-30T15:27:47.000Z</time><ele>2103.4</ele></trkpt><trkpt lat="42.142977" lon="14.108697"><time>2023-06-30T15:27:50.000Z</time><ele>2103</ele></trkpt><trkpt lat="42.143071" lon="14.108574"><time>2023-06-30T15:27:58.000Z</time><ele>2103.4</ele></trkpt><trkpt lat="42.143186" lon="14.108495"><time>2023-06-30T15:28:07.000Z</time><ele>2103.4</ele></trkpt><trkpt lat="42.143243" lon="14.108418"><time>2023-06-30T15:28:14.000Z</time><ele>2103.4</ele></trkpt><trkpt lat="42.143352" lon="14.108316"><time>2023-06-30T15:28:23.000Z</time><ele>2103.2</ele></trkpt><trkpt lat="42.143409" lon="14.108301"><time>2023-06-30T15:28:28.000Z</time><ele>2102.2</ele></trkpt><trkpt lat="42.143456" lon="14.108278"><time>2023-06-30T15:28:31.000Z</time><ele>2101.6</ele></trkpt><trkpt lat="42.143559" lon="14.10815"><time>2023-06-30T15:28:40.000Z</time><ele>2101.6</ele></trkpt><trkpt lat="42.143616" lon="14.10811"><time>2023-06-30T15:28:44.000Z</time><ele>2101.4</ele></trkpt><trkpt lat="42.143633" lon="14.108107"><time>2023-06-30T15:28:45.000Z</time><ele>2101.2</ele></trkpt><trkpt lat="42.143648" lon="14.108101"><time>2023-06-30T15:28:46.000Z</time><ele>2101.2</ele></trkpt><trkpt lat="42.143763" lon="14.108053"><time>2023-06-30T15:28:54.000Z</time><ele>2100.6</ele></trkpt><trkpt lat="42.143776" lon="14.108056"><time>2023-06-30T15:28:55.000Z</time><ele>2100.6</ele></trkpt><trkpt lat="42.143847" lon="14.108072"><time>2023-06-30T15:29:00.000Z</time><ele>2100.6</ele></trkpt><trkpt lat="42.143954" lon="14.108107"><time>2023-06-30T15:29:07.000Z</time><ele>2100.4</ele></trkpt><trkpt lat="42.144047" lon="14.10815"><time>2023-06-30T15:29:16.000Z</time><ele>2101.6</ele></trkpt><trkpt lat="42.144068" lon="14.10815"><time>2023-06-30T15:29:18.000Z</time><ele>2101.8</ele></trkpt><trkpt lat="42.144109" lon="14.108133"><time>2023-06-30T15:29:22.000Z</time><ele>2101.8</ele></trkpt><trkpt lat="42.144121" lon="14.108132"><time>2023-06-30T15:29:23.000Z</time><ele>2101.6</ele></trkpt><trkpt lat="42.144214" lon="14.108157"><time>2023-06-30T15:29:29.000Z</time><ele>2101</ele></trkpt><trkpt lat="42.144301" lon="14.108212"><time>2023-06-30T15:29:35.000Z</time><ele>2101.2</ele></trkpt><trkpt lat="42.144322" lon="14.108208"><time>2023-06-30T15:29:37.000Z</time><ele>2101.4</ele></trkpt><trkpt lat="42.144389" lon="14.10821"><time>2023-06-30T15:29:43.000Z</time><ele>2100.4</ele></trkpt><trkpt lat="42.144418" lon="14.108216"><time>2023-06-30T15:29:45.000Z</time><ele>2100</ele></trkpt><trkpt lat="42.144437" lon="14.108246"><time>2023-06-30T15:29:49.000Z</time><ele>2099</ele></trkpt><trkpt lat="42.144449" lon="14.108276"><time>2023-06-30T15:29:54.000Z</time><ele>2098.4</ele></trkpt><trkpt lat="42.144454" lon="14.108287"><time>2023-06-30T15:29:56.000Z</time><ele>2098</ele></trkpt><trkpt lat="42.144458" lon="14.108291"><time>2023-06-30T15:29:57.000Z</time><ele>2097.8</ele></trkpt><trkpt lat="42.144465" lon="14.108288"><time>2023-06-30T15:29:58.000Z</time><ele>2097.6</ele></trkpt><trkpt lat="42.144493" lon="14.108283"><time>2023-06-30T15:30:02.000Z</time><ele>2096.8</ele></trkpt><trkpt lat="42.144499" lon="14.108281"><time>2023-06-30T15:30:03.000Z</time><ele>2096.6</ele></trkpt><trkpt lat="42.144505" lon="14.10828"><time>2023-06-30T15:30:04.000Z</time><ele>2096.4</ele></trkpt><trkpt lat="42.144516" lon="14.108274"><time>2023-06-30T15:30:06.000Z</time><ele>2096.2</ele></trkpt><trkpt lat="42.144528" lon="14.108258"><time>2023-06-30T15:30:09.000Z</time><ele>2095.6</ele></trkpt><trkpt lat="42.144535" lon="14.108278"><time>2023-06-30T15:30:12.000Z</time><ele>2094.6</ele></trkpt><trkpt lat="42.144537" lon="14.10829"><time>2023-06-30T15:30:13.000Z</time><ele>2094.4</ele></trkpt><trkpt lat="42.144539" lon="14.108301"><time>2023-06-30T15:30:14.000Z</time><ele>2094.4</ele></trkpt><trkpt lat="42.144583" lon="14.108323"><time>2023-06-30T15:30:19.000Z</time><ele>2093.4</ele></trkpt><trkpt lat="42.144592" lon="14.108316"><time>2023-06-30T15:30:20.000Z</time><ele>2093.4</ele></trkpt><trkpt lat="42.144614" lon="14.10829"><time>2023-06-30T15:30:23.000Z</time><ele>2092.6</ele></trkpt><trkpt lat="42.144619" lon="14.108278"><time>2023-06-30T15:30:24.000Z</time><ele>2092.2</ele></trkpt><trkpt lat="42.144629" lon="14.108244"><time>2023-06-30T15:30:27.000Z</time><ele>2091.6</ele></trkpt><trkpt lat="42.144639" lon="14.108233"><time>2023-06-30T15:30:29.000Z</time><ele>2091.2</ele></trkpt><trkpt lat="42.144655" lon="14.108229"><time>2023-06-30T15:30:33.000Z</time><ele>2090.2</ele></trkpt><trkpt lat="42.144666" lon="14.108225"><time>2023-06-30T15:30:34.000Z</time><ele>2090</ele></trkpt><trkpt lat="42.144681" lon="14.108188"><time>2023-06-30T15:30:38.000Z</time><ele>2088.8</ele></trkpt><trkpt lat="42.144687" lon="14.108181"><time>2023-06-30T15:30:39.000Z</time><ele>2088.6</ele></trkpt><trkpt lat="42.144705" lon="14.108179"><time>2023-06-30T15:30:41.000Z</time><ele>2088</ele></trkpt><trkpt lat="42.144709" lon="14.108187"><time>2023-06-30T15:30:42.000Z</time><ele>2087.8</ele></trkpt><trkpt lat="42.144719" lon="14.108207"><time>2023-06-30T15:30:44.000Z</time><ele>2087.2</ele></trkpt><trkpt lat="42.144747" lon="14.10821"><time>2023-06-30T15:30:47.000Z</time><ele>2086.6</ele></trkpt><trkpt lat="42.144775" lon="14.1082"><time>2023-06-30T15:30:50.000Z</time><ele>2086.2</ele></trkpt><trkpt lat="42.144792" lon="14.10819"><time>2023-06-30T15:30:52.000Z</time><ele>2085.4</ele></trkpt><trkpt lat="42.144818" lon="14.108181"><time>2023-06-30T15:30:55.000Z</time><ele>2084.4</ele></trkpt><trkpt lat="42.144829" lon="14.108183"><time>2023-06-30T15:30:56.000Z</time><ele>2084</ele></trkpt><trkpt lat="42.144857" lon="14.108185"><time>2023-06-30T15:30:59.000Z</time><ele>2083.2</ele></trkpt><trkpt lat="42.144869" lon="14.108182"><time>2023-06-30T15:31:01.000Z</time><ele>2082.8</ele></trkpt><trkpt lat="42.144877" lon="14.10818"><time>2023-06-30T15:31:02.000Z</time><ele>2082.2</ele></trkpt><trkpt lat="42.14489" lon="14.108181"><time>2023-06-30T15:31:03.000Z</time><ele>2081.8</ele></trkpt><trkpt lat="42.144943" lon="14.108175"><time>2023-06-30T15:31:07.000Z</time><ele>2080.8</ele></trkpt><trkpt lat="42.14498" lon="14.108188"><time>2023-06-30T15:31:11.000Z</time><ele>2079.8</ele></trkpt><trkpt lat="42.145026" lon="14.108215"><time>2023-06-30T15:31:14.000Z</time><ele>2079.2</ele></trkpt><trkpt lat="42.145052" lon="14.10823"><time>2023-06-30T15:31:16.000Z</time><ele>2079.2</ele></trkpt><trkpt lat="42.145098" lon="14.108267"><time>2023-06-30T15:31:21.000Z</time><ele>2079</ele></trkpt><trkpt lat="42.145197" lon="14.108298"><time>2023-06-30T15:31:28.000Z</time><ele>2078.8</ele></trkpt><trkpt lat="42.145227" lon="14.108303"><time>2023-06-30T15:31:30.000Z</time><ele>2078.4</ele></trkpt><trkpt lat="42.145304" lon="14.108326"><time>2023-06-30T15:31:36.000Z</time><ele>2077.8</ele></trkpt><trkpt lat="42.145321" lon="14.108323"><time>2023-06-30T15:31:37.000Z</time><ele>2077.6</ele></trkpt><trkpt lat="42.145394" lon="14.10834"><time>2023-06-30T15:31:41.000Z</time><ele>2077</ele></trkpt><trkpt lat="42.145425" lon="14.108346"><time>2023-06-30T15:31:43.000Z</time><ele>2076.6</ele></trkpt><trkpt lat="42.14543" lon="14.108346"><time>2023-06-30T15:31:44.000Z</time><ele>2076.6</ele></trkpt><trkpt lat="42.145454" lon="14.108351"><time>2023-06-30T15:31:46.000Z</time><ele>2076.4</ele></trkpt><trkpt lat="42.145502" lon="14.10836"><time>2023-06-30T15:31:49.000Z</time><ele>2076.4</ele></trkpt><trkpt lat="42.145564" lon="14.108361"><time>2023-06-30T15:31:54.000Z</time><ele>2076.6</ele></trkpt><trkpt lat="42.145581" lon="14.10835"><time>2023-06-30T15:31:56.000Z</time><ele>2076.6</ele></trkpt><trkpt lat="42.145621" lon="14.108346"><time>2023-06-30T15:31:59.000Z</time><ele>2076.4</ele></trkpt><trkpt lat="42.14564" lon="14.108347"><time>2023-06-30T15:32:00.000Z</time><ele>2076.2</ele></trkpt><trkpt lat="42.145675" lon="14.108345"><time>2023-06-30T15:32:02.000Z</time><ele>2076.2</ele></trkpt><trkpt lat="42.145804" lon="14.108347"><time>2023-06-30T15:32:10.000Z</time><ele>2076.8</ele></trkpt><trkpt lat="42.145958" lon="14.108348"><time>2023-06-30T15:32:19.000Z</time><ele>2076.4</ele></trkpt><trkpt lat="42.146032" lon="14.10833"><time>2023-06-30T15:32:24.000Z</time><ele>2076.4</ele></trkpt><trkpt lat="42.146057" lon="14.108325"><time>2023-06-30T15:32:26.000Z</time><ele>2076.2</ele></trkpt><trkpt lat="42.146115" lon="14.108299"><time>2023-06-30T15:32:31.000Z</time><ele>2076.4</ele></trkpt><trkpt lat="42.14614" lon="14.108293"><time>2023-06-30T15:32:33.000Z</time><ele>2076.2</ele></trkpt><trkpt lat="42.146175" lon="14.108291"><time>2023-06-30T15:32:35.000Z</time><ele>2076.2</ele></trkpt><trkpt lat="42.146193" lon="14.108287"><time>2023-06-30T15:32:37.000Z</time><ele>2076</ele></trkpt><trkpt lat="42.146205" lon="14.108281"><time>2023-06-30T15:32:39.000Z</time><ele>2076</ele></trkpt><trkpt lat="42.146227" lon="14.108289"><time>2023-06-30T15:32:41.000Z</time><ele>2076</ele></trkpt><trkpt lat="42.146246" lon="14.108288"><time>2023-06-30T15:32:43.000Z</time><ele>2075.8</ele></trkpt><trkpt lat="42.146256" lon="14.108288"><time>2023-06-30T15:32:44.000Z</time><ele>2075.8</ele></trkpt><trkpt lat="42.146289" lon="14.108289"><time>2023-06-30T15:32:47.000Z</time><ele>2075.6</ele></trkpt><trkpt lat="42.1463" lon="14.108281"><time>2023-06-30T15:32:48.000Z</time><ele>2075.4</ele></trkpt><trkpt lat="42.146344" lon="14.108271"><time>2023-06-30T15:32:51.000Z</time><ele>2074.8</ele></trkpt><trkpt lat="42.146359" lon="14.108265"><time>2023-06-30T15:32:52.000Z</time><ele>2074.6</ele></trkpt><trkpt lat="42.146372" lon="14.108257"><time>2023-06-30T15:32:53.000Z</time><ele>2074.4</ele></trkpt><trkpt lat="42.146443" lon="14.108237"><time>2023-06-30T15:32:58.000Z</time><ele>2074</ele></trkpt><trkpt lat="42.14658" lon="14.108215"><time>2023-06-30T15:33:07.000Z</time><ele>2075</ele></trkpt><trkpt lat="42.146712" lon="14.108198"><time>2023-06-30T15:33:16.000Z</time><ele>2073.8</ele></trkpt><trkpt lat="42.146741" lon="14.108194"><time>2023-06-30T15:33:18.000Z</time><ele>2073.4</ele></trkpt><trkpt lat="42.146754" lon="14.108194"><time>2023-06-30T15:33:19.000Z</time><ele>2073.2</ele></trkpt><trkpt lat="42.146764" lon="14.108195"><time>2023-06-30T15:33:20.000Z</time><ele>2073</ele></trkpt><trkpt lat="42.146773" lon="14.1082"><time>2023-06-30T15:33:21.000Z</time><ele>2072.8</ele></trkpt><trkpt lat="42.146792" lon="14.108218"><time>2023-06-30T15:33:23.000Z</time><ele>2072.4</ele></trkpt><trkpt lat="42.146799" lon="14.108225"><time>2023-06-30T15:33:24.000Z</time><ele>2072.2</ele></trkpt><trkpt lat="42.146819" lon="14.108285"><time>2023-06-30T15:33:29.000Z</time><ele>2071.6</ele></trkpt><trkpt lat="42.146824" lon="14.108297"><time>2023-06-30T15:33:30.000Z</time><ele>2071.6</ele></trkpt><trkpt lat="42.146876" lon="14.108389"><time>2023-06-30T15:33:37.000Z</time><ele>2071.4</ele></trkpt><trkpt lat="42.146897" lon="14.108418"><time>2023-06-30T15:33:39.000Z</time><ele>2071.4</ele></trkpt><trkpt lat="42.146906" lon="14.108431"><time>2023-06-30T15:33:40.000Z</time><ele>2071.4</ele></trkpt><trkpt lat="42.146909" lon="14.108446"><time>2023-06-30T15:33:41.000Z</time><ele>2071.2</ele></trkpt><trkpt lat="42.146911" lon="14.108461"><time>2023-06-30T15:33:42.000Z</time><ele>2071</ele></trkpt><trkpt lat="42.14693" lon="14.108509"><time>2023-06-30T15:33:45.000Z</time><ele>2071.2</ele></trkpt><trkpt lat="42.146939" lon="14.108523"><time>2023-06-30T15:33:46.000Z</time><ele>2071.4</ele></trkpt><trkpt lat="42.146943" lon="14.108583"><time>2023-06-30T15:33:50.000Z</time><ele>2071.6</ele></trkpt><trkpt lat="42.146976" lon="14.108737"><time>2023-06-30T15:33:59.000Z</time><ele>2071.8</ele></trkpt><trkpt lat="42.146974" lon="14.108775"><time>2023-06-30T15:34:02.000Z</time><ele>2072.4</ele></trkpt><trkpt lat="42.146981" lon="14.10885"><time>2023-06-30T15:34:07.000Z</time><ele>2073.4</ele></trkpt><trkpt lat="42.146985" lon="14.108889"><time>2023-06-30T15:34:09.000Z</time><ele>2073.8</ele></trkpt><trkpt lat="42.146988" lon="14.108937"><time>2023-06-30T15:34:12.000Z</time><ele>2074.2</ele></trkpt><trkpt lat="42.146987" lon="14.108961"><time>2023-06-30T15:34:14.000Z</time><ele>2074.2</ele></trkpt><trkpt lat="42.146987" lon="14.108991"><time>2023-06-30T15:34:16.000Z</time><ele>2074.6</ele></trkpt><trkpt lat="42.146997" lon="14.109025"><time>2023-06-30T15:34:20.000Z</time><ele>2075.2</ele></trkpt><trkpt lat="42.147001" lon="14.109079"><time>2023-06-30T15:34:23.000Z</time><ele>2075.8</ele></trkpt><trkpt lat="42.147005" lon="14.109098"><time>2023-06-30T15:34:24.000Z</time><ele>2076</ele></trkpt><trkpt lat="42.147009" lon="14.109134"><time>2023-06-30T15:34:26.000Z</time><ele>2076.2</ele></trkpt><trkpt lat="42.147011" lon="14.1092"><time>2023-06-30T15:34:31.000Z</time><ele>2076.8</ele></trkpt><trkpt lat="42.147011" lon="14.109232"><time>2023-06-30T15:34:33.000Z</time><ele>2077.4</ele></trkpt><trkpt lat="42.147012" lon="14.109282"><time>2023-06-30T15:34:36.000Z</time><ele>2078</ele></trkpt><trkpt lat="42.147017" lon="14.109333"><time>2023-06-30T15:34:39.000Z</time><ele>2078.4</ele></trkpt><trkpt lat="42.147039" lon="14.109462"><time>2023-06-30T15:34:46.000Z</time><ele>2079</ele></trkpt><trkpt lat="42.147043" lon="14.109477"><time>2023-06-30T15:34:47.000Z</time><ele>2079</ele></trkpt><trkpt lat="42.147061" lon="14.109541"><time>2023-06-30T15:34:51.000Z</time><ele>2079</ele></trkpt><trkpt lat="42.147066" lon="14.109623"><time>2023-06-30T15:34:56.000Z</time><ele>2079</ele></trkpt><trkpt lat="42.147078" lon="14.109695"><time>2023-06-30T15:35:01.000Z</time><ele>2080</ele></trkpt><trkpt lat="42.147083" lon="14.109723"><time>2023-06-30T15:35:03.000Z</time><ele>2080.2</ele></trkpt><trkpt lat="42.14711" lon="14.109855"><time>2023-06-30T15:35:10.000Z</time><ele>2080.8</ele></trkpt><trkpt lat="42.147128" lon="14.109964"><time>2023-06-30T15:35:15.000Z</time><ele>2081</ele></trkpt><trkpt lat="42.147139" lon="14.110008"><time>2023-06-30T15:35:17.000Z</time><ele>2081</ele></trkpt><trkpt lat="42.147162" lon="14.110058"><time>2023-06-30T15:35:20.000Z</time><ele>2081.2</ele></trkpt><trkpt lat="42.147175" lon="14.110101"><time>2023-06-30T15:35:23.000Z</time><ele>2081.4</ele></trkpt><trkpt lat="42.147179" lon="14.110134"><time>2023-06-30T15:35:26.000Z</time><ele>2081.6</ele></trkpt><trkpt lat="42.147187" lon="14.110158"><time>2023-06-30T15:35:28.000Z</time><ele>2081.6</ele></trkpt><trkpt lat="42.147203" lon="14.110219"><time>2023-06-30T15:35:32.000Z</time><ele>2082.2</ele></trkpt><trkpt lat="42.147207" lon="14.110235"><time>2023-06-30T15:35:33.000Z</time><ele>2082.2</ele></trkpt><trkpt lat="42.147212" lon="14.11025"><time>2023-06-30T15:35:34.000Z</time><ele>2082.4</ele></trkpt><trkpt lat="42.147233" lon="14.110358"><time>2023-06-30T15:35:40.000Z</time><ele>2082.8</ele></trkpt><trkpt lat="42.147239" lon="14.110391"><time>2023-06-30T15:35:42.000Z</time><ele>2083.4</ele></trkpt><trkpt lat="42.147283" lon="14.110518"><time>2023-06-30T15:35:50.000Z</time><ele>2084.4</ele></trkpt><trkpt lat="42.147317" lon="14.110648"><time>2023-06-30T15:35:58.000Z</time><ele>2085</ele></trkpt><trkpt lat="42.147319" lon="14.110659"><time>2023-06-30T15:35:59.000Z</time><ele>2085.2</ele></trkpt><trkpt lat="42.147323" lon="14.110667"><time>2023-06-30T15:36:00.000Z</time><ele>2085.2</ele></trkpt><trkpt lat="42.147333" lon="14.110687"><time>2023-06-30T15:36:02.000Z</time><ele>2085.4</ele></trkpt><trkpt lat="42.147352" lon="14.110723"><time>2023-06-30T15:36:05.000Z</time><ele>2085.8</ele></trkpt><trkpt lat="42.147422" lon="14.110882"><time>2023-06-30T15:36:15.000Z</time><ele>2086.4</ele></trkpt><trkpt lat="42.147435" lon="14.110911"><time>2023-06-30T15:36:17.000Z</time><ele>2086.6</ele></trkpt><trkpt lat="42.147486" lon="14.111063"><time>2023-06-30T15:36:25.000Z</time><ele>2087.4</ele></trkpt><trkpt lat="42.147494" lon="14.111081"><time>2023-06-30T15:36:26.000Z</time><ele>2087.6</ele></trkpt><trkpt lat="42.147526" lon="14.111173"><time>2023-06-30T15:36:32.000Z</time><ele>2088</ele></trkpt><trkpt lat="42.147546" lon="14.111223"><time>2023-06-30T15:36:35.000Z</time><ele>2088</ele></trkpt><trkpt lat="42.147582" lon="14.111334"><time>2023-06-30T15:36:42.000Z</time><ele>2088.6</ele></trkpt><trkpt lat="42.147607" lon="14.111389"><time>2023-06-30T15:36:46.000Z</time><ele>2089</ele></trkpt><trkpt lat="42.14767" lon="14.111542"><time>2023-06-30T15:36:55.000Z</time><ele>2089.6</ele></trkpt><trkpt lat="42.147686" lon="14.11157"><time>2023-06-30T15:36:57.000Z</time><ele>2089.8</ele></trkpt><trkpt lat="42.147749" lon="14.111716"><time>2023-06-30T15:37:07.000Z</time><ele>2090.6</ele></trkpt><trkpt lat="42.147757" lon="14.111731"><time>2023-06-30T15:37:08.000Z</time><ele>2090.8</ele></trkpt><trkpt lat="42.147802" lon="14.111889"><time>2023-06-30T15:37:18.000Z</time><ele>2091.2</ele></trkpt><trkpt lat="42.147811" lon="14.111901"><time>2023-06-30T15:37:19.000Z</time><ele>2091.2</ele></trkpt><trkpt lat="42.147856" lon="14.111964"><time>2023-06-30T15:37:24.000Z</time><ele>2091.6</ele></trkpt><trkpt lat="42.147928" lon="14.112084"><time>2023-06-30T15:37:33.000Z</time><ele>2091.2</ele></trkpt><trkpt lat="42.147973" lon="14.112132"><time>2023-06-30T15:37:38.000Z</time><ele>2090.8</ele></trkpt><trkpt lat="42.147992" lon="14.11216"><time>2023-06-30T15:37:41.000Z</time><ele>2091</ele></trkpt><trkpt lat="42.147993" lon="14.112173"><time>2023-06-30T15:37:42.000Z</time><ele>2091</ele></trkpt><trkpt lat="42.147999" lon="14.112245"><time>2023-06-30T15:37:47.000Z</time><ele>2091.8</ele></trkpt><trkpt lat="42.148002" lon="14.112261"><time>2023-06-30T15:37:48.000Z</time><ele>2091.8</ele></trkpt><trkpt lat="42.148016" lon="14.11231"><time>2023-06-30T15:37:52.000Z</time><ele>2092.4</ele></trkpt><trkpt lat="42.14802" lon="14.112321"><time>2023-06-30T15:37:53.000Z</time><ele>2092.4</ele></trkpt><trkpt lat="42.148032" lon="14.112367"><time>2023-06-30T15:37:56.000Z</time><ele>2092.8</ele></trkpt><trkpt lat="42.148041" lon="14.112396"><time>2023-06-30T15:37:58.000Z</time><ele>2093</ele></trkpt><trkpt lat="42.148082" lon="14.112486"><time>2023-06-30T15:38:03.000Z</time><ele>2093.8</ele></trkpt><trkpt lat="42.148087" lon="14.112501"><time>2023-06-30T15:38:04.000Z</time><ele>2094</ele></trkpt><trkpt lat="42.148092" lon="14.112518"><time>2023-06-30T15:38:05.000Z</time><ele>2094</ele></trkpt><trkpt lat="42.148146" lon="14.112613"><time>2023-06-30T15:38:13.000Z</time><ele>2094.8</ele></trkpt><trkpt lat="42.148152" lon="14.112626"><time>2023-06-30T15:38:14.000Z</time><ele>2094.8</ele></trkpt><trkpt lat="42.148156" lon="14.112642"><time>2023-06-30T15:38:15.000Z</time><ele>2095</ele></trkpt><trkpt lat="42.148219" lon="14.112785"><time>2023-06-30T15:38:23.000Z</time><ele>2096</ele></trkpt><trkpt lat="42.148301" lon="14.112928"><time>2023-06-30T15:38:31.000Z</time><ele>2096.4</ele></trkpt><trkpt lat="42.148349" lon="14.113087"><time>2023-06-30T15:38:39.000Z</time><ele>2096.6</ele></trkpt><trkpt lat="42.148376" lon="14.113157"><time>2023-06-30T15:38:43.000Z</time><ele>2097.2</ele></trkpt><trkpt lat="42.14838" lon="14.113221"><time>2023-06-30T15:38:47.000Z</time><ele>2097.2</ele></trkpt><trkpt lat="42.14843" lon="14.113348"><time>2023-06-30T15:38:57.000Z</time><ele>2098</ele></trkpt><trkpt lat="42.148437" lon="14.113379"><time>2023-06-30T15:38:59.000Z</time><ele>2098.2</ele></trkpt><trkpt lat="42.148474" lon="14.113491"><time>2023-06-30T15:39:06.000Z</time><ele>2098.2</ele></trkpt><trkpt lat="42.148519" lon="14.113584"><time>2023-06-30T15:39:12.000Z</time><ele>2098.8</ele></trkpt><trkpt lat="42.148539" lon="14.1136"><time>2023-06-30T15:39:14.000Z</time><ele>2099.2</ele></trkpt><trkpt lat="42.148602" lon="14.113668"><time>2023-06-30T15:39:20.000Z</time><ele>2100</ele></trkpt><trkpt lat="42.148634" lon="14.113704"><time>2023-06-30T15:39:25.000Z</time><ele>2099.8</ele></trkpt><trkpt lat="42.148651" lon="14.113728"><time>2023-06-30T15:39:29.000Z</time><ele>2100</ele></trkpt><trkpt lat="42.148653" lon="14.113732"><time>2023-06-30T15:39:30.000Z</time><ele>2100</ele></trkpt><trkpt lat="42.148664" lon="14.113737"><time>2023-06-30T15:39:32.000Z</time><ele>2100</ele></trkpt><trkpt lat="42.148681" lon="14.113753"><time>2023-06-30T15:39:35.000Z</time><ele>2100</ele></trkpt><trkpt lat="42.148695" lon="14.113759"><time>2023-06-30T15:39:37.000Z</time><ele>2100</ele></trkpt><trkpt lat="42.148709" lon="14.113768"><time>2023-06-30T15:39:39.000Z</time><ele>2100</ele></trkpt><trkpt lat="42.148722" lon="14.113778"><time>2023-06-30T15:39:42.000Z</time><ele>2099.8</ele></trkpt><trkpt lat="42.148729" lon="14.113781"><time>2023-06-30T15:39:44.000Z</time><ele>2099.8</ele></trkpt><trkpt lat="42.148745" lon="14.113784"><time>2023-06-30T15:39:49.000Z</time><ele>2099.4</ele></trkpt><trkpt lat="42.148749" lon="14.113783"><time>2023-06-30T15:39:53.000Z</time><ele>2099.4</ele></trkpt><trkpt lat="42.148736" lon="14.113793"><time>2023-06-30T15:40:01.000Z</time><ele>2099.4</ele></trkpt><trkpt lat="42.148736" lon="14.113793"><time>2023-06-30T15:40:11.000Z</time><ele>2099.4</ele></trkpt><trkpt lat="42.148799" lon="14.113819"><time>2023-06-30T15:40:24.000Z</time><ele>2099.4</ele></trkpt><trkpt lat="42.148923" lon="14.113889"><time>2023-06-30T15:40:32.000Z</time><ele>2099.2</ele></trkpt><trkpt lat="42.14904" lon="14.114032"><time>2023-06-30T15:40:43.000Z</time><ele>2099</ele></trkpt><trkpt lat="42.149141" lon="14.114183"><time>2023-06-30T15:40:54.000Z</time><ele>2099.2</ele></trkpt><trkpt lat="42.149219" lon="14.114264"><time>2023-06-30T15:41:03.000Z</time><ele>2099</ele></trkpt><trkpt lat="42.1493" lon="14.114321"><time>2023-06-30T15:41:11.000Z</time><ele>2098.8</ele></trkpt><trkpt lat="42.149406" lon="14.114399"><time>2023-06-30T15:41:20.000Z</time><ele>2098.8</ele></trkpt><trkpt lat="42.149472" lon="14.114447"><time>2023-06-30T15:41:25.000Z</time><ele>2099</ele></trkpt><trkpt lat="42.149487" lon="14.114464"><time>2023-06-30T15:41:26.000Z</time><ele>2099</ele></trkpt><trkpt lat="42.1495" lon="14.114478"><time>2023-06-30T15:41:27.000Z</time><ele>2099</ele></trkpt><trkpt lat="42.149513" lon="14.11449"><time>2023-06-30T15:41:28.000Z</time><ele>2099</ele></trkpt><trkpt lat="42.149526" lon="14.114504"><time>2023-06-30T15:41:29.000Z</time><ele>2099</ele></trkpt><trkpt lat="42.149624" lon="14.114628"><time>2023-06-30T15:41:39.000Z</time><ele>2099</ele></trkpt><trkpt lat="42.14963" lon="14.114642"><time>2023-06-30T15:41:40.000Z</time><ele>2099.2</ele></trkpt><trkpt lat="42.149659" lon="14.114701"><time>2023-06-30T15:41:44.000Z</time><ele>2099.2</ele></trkpt><trkpt lat="42.149684" lon="14.114751"><time>2023-06-30T15:41:47.000Z</time><ele>2099.2</ele></trkpt><trkpt lat="42.149705" lon="14.114783"><time>2023-06-30T15:41:49.000Z</time><ele>2099.2</ele></trkpt><trkpt lat="42.149815" lon="14.114935"><time>2023-06-30T15:41:59.000Z</time><ele>2099.4</ele></trkpt><trkpt lat="42.149827" lon="14.114948"><time>2023-06-30T15:42:00.000Z</time><ele>2099.4</ele></trkpt><trkpt lat="42.14991" lon="14.115011"><time>2023-06-30T15:42:07.000Z</time><ele>2099.6</ele></trkpt><trkpt lat="42.150002" lon="14.11505"><time>2023-06-30T15:42:14.000Z</time><ele>2099.6</ele></trkpt><trkpt lat="42.150017" lon="14.115056"><time>2023-06-30T15:42:15.000Z</time><ele>2099.6</ele></trkpt><trkpt lat="42.150049" lon="14.11507"><time>2023-06-30T15:42:17.000Z</time><ele>2099.6</ele></trkpt><trkpt lat="42.15012" lon="14.115117"><time>2023-06-30T15:42:22.000Z</time><ele>2099.8</ele></trkpt><trkpt lat="42.150133" lon="14.115132"><time>2023-06-30T15:42:23.000Z</time><ele>2099.6</ele></trkpt><trkpt lat="42.150166" lon="14.115169"><time>2023-06-30T15:42:26.000Z</time><ele>2099.6</ele></trkpt><trkpt lat="42.150206" lon="14.115301"><time>2023-06-30T15:42:36.000Z</time><ele>2099.4</ele></trkpt><trkpt lat="42.150196" lon="14.115473"><time>2023-06-30T15:42:45.000Z</time><ele>2099.8</ele></trkpt><trkpt lat="42.150258" lon="14.115626"><time>2023-06-30T15:42:53.000Z</time><ele>2100.2</ele></trkpt><trkpt lat="42.150288" lon="14.115719"><time>2023-06-30T15:42:58.000Z</time><ele>2100</ele></trkpt><trkpt lat="42.150308" lon="14.115781"><time>2023-06-30T15:43:02.000Z</time><ele>2100</ele></trkpt><trkpt lat="42.150341" lon="14.115877"><time>2023-06-30T15:43:08.000Z</time><ele>2100.2</ele></trkpt><trkpt lat="42.150358" lon="14.115927"><time>2023-06-30T15:43:11.000Z</time><ele>2099.8</ele></trkpt><trkpt lat="42.150403" lon="14.116036"><time>2023-06-30T15:43:17.000Z</time><ele>2100.2</ele></trkpt><trkpt lat="42.150426" lon="14.116114"><time>2023-06-30T15:43:22.000Z</time><ele>2100.4</ele></trkpt><trkpt lat="42.150467" lon="14.116206"><time>2023-06-30T15:43:28.000Z</time><ele>2100.4</ele></trkpt><trkpt lat="42.150506" lon="14.116304"><time>2023-06-30T15:43:35.000Z</time><ele>2099.4</ele></trkpt><trkpt lat="42.150516" lon="14.116337"><time>2023-06-30T15:43:37.000Z</time><ele>2099.4</ele></trkpt><trkpt lat="42.150607" lon="14.116478"><time>2023-06-30T15:43:46.000Z</time><ele>2099.4</ele></trkpt><trkpt lat="42.150659" lon="14.11654"><time>2023-06-30T15:43:50.000Z</time><ele>2099.4</ele></trkpt><trkpt lat="42.150705" lon="14.116589"><time>2023-06-30T15:43:54.000Z</time><ele>2099.4</ele></trkpt><trkpt lat="42.150715" lon="14.1166"><time>2023-06-30T15:43:55.000Z</time><ele>2099.2</ele></trkpt><trkpt lat="42.150733" lon="14.116622"><time>2023-06-30T15:43:57.000Z</time><ele>2099.2</ele></trkpt><trkpt lat="42.150764" lon="14.116654"><time>2023-06-30T15:44:00.000Z</time><ele>2099</ele></trkpt><trkpt lat="42.150789" lon="14.116672"><time>2023-06-30T15:44:02.000Z</time><ele>2098.8</ele></trkpt><trkpt lat="42.150864" lon="14.116723"><time>2023-06-30T15:44:07.000Z</time><ele>2098.4</ele></trkpt><trkpt lat="42.150915" lon="14.116763"><time>2023-06-30T15:44:11.000Z</time><ele>2098.4</ele></trkpt><trkpt lat="42.150947" lon="14.116793"><time>2023-06-30T15:44:14.000Z</time><ele>2098.2</ele></trkpt><trkpt lat="42.150985" lon="14.116837"><time>2023-06-30T15:44:18.000Z</time><ele>2097.2</ele></trkpt><trkpt lat="42.150996" lon="14.116848"><time>2023-06-30T15:44:19.000Z</time><ele>2097.2</ele></trkpt><trkpt lat="42.151101" lon="14.116936"><time>2023-06-30T15:44:27.000Z</time><ele>2096.4</ele></trkpt><trkpt lat="42.151125" lon="14.116956"><time>2023-06-30T15:44:29.000Z</time><ele>2096.4</ele></trkpt><trkpt lat="42.151149" lon="14.116971"><time>2023-06-30T15:44:31.000Z</time><ele>2096.2</ele></trkpt><trkpt lat="42.151163" lon="14.116979"><time>2023-06-30T15:44:32.000Z</time><ele>2096</ele></trkpt><trkpt lat="42.151225" lon="14.117047"><time>2023-06-30T15:44:38.000Z</time><ele>2095.6</ele></trkpt><trkpt lat="42.15127" lon="14.11709"><time>2023-06-30T15:44:42.000Z</time><ele>2095</ele></trkpt><trkpt lat="42.151326" lon="14.117162"><time>2023-06-30T15:44:47.000Z</time><ele>2094.4</ele></trkpt><trkpt lat="42.151391" lon="14.117224"><time>2023-06-30T15:44:52.000Z</time><ele>2094</ele></trkpt><trkpt lat="42.151439" lon="14.117282"><time>2023-06-30T15:44:57.000Z</time><ele>2093.2</ele></trkpt><trkpt lat="42.151457" lon="14.117305"><time>2023-06-30T15:44:59.000Z</time><ele>2093</ele></trkpt><trkpt lat="42.151488" lon="14.117347"><time>2023-06-30T15:45:02.000Z</time><ele>2092.4</ele></trkpt><trkpt lat="42.151535" lon="14.117402"><time>2023-06-30T15:45:06.000Z</time><ele>2092.2</ele></trkpt><trkpt lat="42.151548" lon="14.117417"><time>2023-06-30T15:45:07.000Z</time><ele>2091.8</ele></trkpt><trkpt lat="42.151572" lon="14.117444"><time>2023-06-30T15:45:09.000Z</time><ele>2091.4</ele></trkpt><trkpt lat="42.151622" lon="14.11751"><time>2023-06-30T15:45:14.000Z</time><ele>2090.6</ele></trkpt><trkpt lat="42.15164" lon="14.117538"><time>2023-06-30T15:45:16.000Z</time><ele>2090.2</ele></trkpt><trkpt lat="42.151702" lon="14.117638"><time>2023-06-30T15:45:22.000Z</time><ele>2089.8</ele></trkpt><trkpt lat="42.151731" lon="14.117686"><time>2023-06-30T15:45:25.000Z</time><ele>2089.6</ele></trkpt><trkpt lat="42.151785" lon="14.117803"><time>2023-06-30T15:45:33.000Z</time><ele>2088.4</ele></trkpt><trkpt lat="42.151861" lon="14.117969"><time>2023-06-30T15:45:42.000Z</time><ele>2087.6</ele></trkpt><trkpt lat="42.151869" lon="14.117984"><time>2023-06-30T15:45:43.000Z</time><ele>2087.4</ele></trkpt><trkpt lat="42.151882" lon="14.118013"><time>2023-06-30T15:45:45.000Z</time><ele>2086.8</ele></trkpt><trkpt lat="42.151899" lon="14.118069"><time>2023-06-30T15:45:48.000Z</time><ele>2086.4</ele></trkpt><trkpt lat="42.151937" lon="14.118177"><time>2023-06-30T15:45:53.000Z</time><ele>2085.8</ele></trkpt><trkpt lat="42.151966" lon="14.118245"><time>2023-06-30T15:45:57.000Z</time><ele>2085.2</ele></trkpt><trkpt lat="42.151992" lon="14.11834"><time>2023-06-30T15:46:02.000Z</time><ele>2084.2</ele></trkpt><trkpt lat="42.151999" lon="14.118362"><time>2023-06-30T15:46:03.000Z</time><ele>2084.2</ele></trkpt><trkpt lat="42.152022" lon="14.118423"><time>2023-06-30T15:46:06.000Z</time><ele>2084</ele></trkpt><trkpt lat="42.152043" lon="14.118492"><time>2023-06-30T15:46:10.000Z</time><ele>2083.6</ele></trkpt><trkpt lat="42.15206" lon="14.118544"><time>2023-06-30T15:46:13.000Z</time><ele>2083</ele></trkpt><trkpt lat="42.152076" lon="14.118603"><time>2023-06-30T15:46:16.000Z</time><ele>2082.8</ele></trkpt><trkpt lat="42.152122" lon="14.118735"><time>2023-06-30T15:46:23.000Z</time><ele>2082</ele></trkpt><trkpt lat="42.152132" lon="14.118769"><time>2023-06-30T15:46:25.000Z</time><ele>2081.8</ele></trkpt><trkpt lat="42.152147" lon="14.118846"><time>2023-06-30T15:46:30.000Z</time><ele>2081</ele></trkpt><trkpt lat="42.15218" lon="14.118981"><time>2023-06-30T15:46:37.000Z</time><ele>2080.4</ele></trkpt><trkpt lat="42.152192" lon="14.119043"><time>2023-06-30T15:46:40.000Z</time><ele>2080</ele></trkpt><trkpt lat="42.152221" lon="14.119201"><time>2023-06-30T15:46:48.000Z</time><ele>2079</ele></trkpt><trkpt lat="42.152223" lon="14.119218"><time>2023-06-30T15:46:49.000Z</time><ele>2078.8</ele></trkpt><trkpt lat="42.152239" lon="14.119331"><time>2023-06-30T15:46:56.000Z</time><ele>2078</ele></trkpt><trkpt lat="42.152242" lon="14.119363"><time>2023-06-30T15:46:58.000Z</time><ele>2077.8</ele></trkpt><trkpt lat="42.15227" lon="14.119542"><time>2023-06-30T15:47:07.000Z</time><ele>2076.8</ele></trkpt><trkpt lat="42.152274" lon="14.119564"><time>2023-06-30T15:47:08.000Z</time><ele>2076.6</ele></trkpt><trkpt lat="42.152306" lon="14.119738"><time>2023-06-30T15:47:17.000Z</time><ele>2075.8</ele></trkpt><trkpt lat="42.15231" lon="14.119775"><time>2023-06-30T15:47:19.000Z</time><ele>2075.6</ele></trkpt><trkpt lat="42.152313" lon="14.119842"><time>2023-06-30T15:47:23.000Z</time><ele>2074.8</ele></trkpt><trkpt lat="42.152306" lon="14.119897"><time>2023-06-30T15:47:27.000Z</time><ele>2074.4</ele></trkpt><trkpt lat="42.152298" lon="14.119941"><time>2023-06-30T15:47:30.000Z</time><ele>2074.2</ele></trkpt><trkpt lat="42.152292" lon="14.119987"><time>2023-06-30T15:47:33.000Z</time><ele>2073.8</ele></trkpt><trkpt lat="42.152284" lon="14.120064"><time>2023-06-30T15:47:37.000Z</time><ele>2073.4</ele></trkpt><trkpt lat="42.152284" lon="14.120106"><time>2023-06-30T15:47:39.000Z</time><ele>2073.2</ele></trkpt><trkpt lat="42.152284" lon="14.120175"><time>2023-06-30T15:47:42.000Z</time><ele>2072.8</ele></trkpt><trkpt lat="42.152286" lon="14.120305"><time>2023-06-30T15:47:48.000Z</time><ele>2072.4</ele></trkpt><trkpt lat="42.152275" lon="14.120342"><time>2023-06-30T15:47:50.000Z</time><ele>2072.4</ele></trkpt><trkpt lat="42.152266" lon="14.120389"><time>2023-06-30T15:47:53.000Z</time><ele>2072</ele></trkpt><trkpt lat="42.15226" lon="14.120438"><time>2023-06-30T15:47:56.000Z</time><ele>2071.4</ele></trkpt><trkpt lat="42.152257" lon="14.120454"><time>2023-06-30T15:47:57.000Z</time><ele>2071.4</ele></trkpt><trkpt lat="42.152233" lon="14.120557"><time>2023-06-30T15:48:03.000Z</time><ele>2070.6</ele></trkpt><trkpt lat="42.152213" lon="14.120663"><time>2023-06-30T15:48:08.000Z</time><ele>2070.2</ele></trkpt><trkpt lat="42.152191" lon="14.120843"><time>2023-06-30T15:48:17.000Z</time><ele>2069.2</ele></trkpt><trkpt lat="42.152147" lon="14.121074"><time>2023-06-30T15:48:28.000Z</time><ele>2069</ele></trkpt><trkpt lat="42.152134" lon="14.121161"><time>2023-06-30T15:48:33.000Z</time><ele>2068.2</ele></trkpt><trkpt lat="42.152129" lon="14.121174"><time>2023-06-30T15:48:34.000Z</time><ele>2068.2</ele></trkpt><trkpt lat="42.152124" lon="14.121188"><time>2023-06-30T15:48:35.000Z</time><ele>2068.2</ele></trkpt><trkpt lat="42.152112" lon="14.121291"><time>2023-06-30T15:48:41.000Z</time><ele>2068.8</ele></trkpt><trkpt lat="42.15211" lon="14.121314"><time>2023-06-30T15:48:42.000Z</time><ele>2069</ele></trkpt><trkpt lat="42.152124" lon="14.121434"><time>2023-06-30T15:48:48.000Z</time><ele>2068</ele></trkpt><trkpt lat="42.152146" lon="14.121514"><time>2023-06-30T15:48:52.000Z</time><ele>2067</ele></trkpt><trkpt lat="42.152156" lon="14.121534"><time>2023-06-30T15:48:53.000Z</time><ele>2066.8</ele></trkpt><trkpt lat="42.152166" lon="14.121551"><time>2023-06-30T15:48:54.000Z</time><ele>2066.8</ele></trkpt><trkpt lat="42.152188" lon="14.121585"><time>2023-06-30T15:48:56.000Z</time><ele>2066.2</ele></trkpt><trkpt lat="42.152207" lon="14.121612"><time>2023-06-30T15:48:58.000Z</time><ele>2066</ele></trkpt><trkpt lat="42.152218" lon="14.121625"><time>2023-06-30T15:48:59.000Z</time><ele>2065.6</ele></trkpt><trkpt lat="42.152265" lon="14.121675"><time>2023-06-30T15:49:03.000Z</time><ele>2065</ele></trkpt><trkpt lat="42.152331" lon="14.12172"><time>2023-06-30T15:49:08.000Z</time><ele>2064.4</ele></trkpt><trkpt lat="42.152393" lon="14.12175"><time>2023-06-30T15:49:12.000Z</time><ele>2063.4</ele></trkpt><trkpt lat="42.152409" lon="14.121754"><time>2023-06-30T15:49:13.000Z</time><ele>2063.2</ele></trkpt><trkpt lat="42.152477" lon="14.121771"><time>2023-06-30T15:49:18.000Z</time><ele>2062.4</ele></trkpt><trkpt lat="42.152492" lon="14.121773"><time>2023-06-30T15:49:19.000Z</time><ele>2062.4</ele></trkpt><trkpt lat="42.152524" lon="14.121776"><time>2023-06-30T15:49:21.000Z</time><ele>2062</ele></trkpt><trkpt lat="42.152658" lon="14.121794"><time>2023-06-30T15:49:30.000Z</time><ele>2061.2</ele></trkpt><trkpt lat="42.152711" lon="14.121797"><time>2023-06-30T15:49:34.000Z</time><ele>2060.2</ele></trkpt><trkpt lat="42.152748" lon="14.121797"><time>2023-06-30T15:49:37.000Z</time><ele>2059.6</ele></trkpt><trkpt lat="42.15281" lon="14.121788"><time>2023-06-30T15:49:41.000Z</time><ele>2059.4</ele></trkpt><trkpt lat="42.152859" lon="14.121788"><time>2023-06-30T15:49:44.000Z</time><ele>2059.4</ele></trkpt><trkpt lat="42.152893" lon="14.121791"><time>2023-06-30T15:49:46.000Z</time><ele>2059.4</ele></trkpt><trkpt lat="42.152906" lon="14.121791"><time>2023-06-30T15:49:47.000Z</time><ele>2059.4</ele></trkpt><trkpt lat="42.152933" lon="14.121797"><time>2023-06-30T15:49:49.000Z</time><ele>2059</ele></trkpt><trkpt lat="42.152974" lon="14.121793"><time>2023-06-30T15:49:52.000Z</time><ele>2057.8</ele></trkpt><trkpt lat="42.153035" lon="14.121788"><time>2023-06-30T15:49:56.000Z</time><ele>2057.4</ele></trkpt><trkpt lat="42.153068" lon="14.121783"><time>2023-06-30T15:49:58.000Z</time><ele>2057.4</ele></trkpt><trkpt lat="42.153113" lon="14.121781"><time>2023-06-30T15:50:01.000Z</time><ele>2057.2</ele></trkpt><trkpt lat="42.153175" lon="14.121786"><time>2023-06-30T15:50:05.000Z</time><ele>2056.4</ele></trkpt><trkpt lat="42.153333" lon="14.121779"><time>2023-06-30T15:50:15.000Z</time><ele>2055.4</ele></trkpt><trkpt lat="42.153398" lon="14.121779"><time>2023-06-30T15:50:19.000Z</time><ele>2054.4</ele></trkpt><trkpt lat="42.153524" lon="14.121785"><time>2023-06-30T15:50:27.000Z</time><ele>2053</ele></trkpt><trkpt lat="42.153591" lon="14.121787"><time>2023-06-30T15:50:31.000Z</time><ele>2052.2</ele></trkpt><trkpt lat="42.153643" lon="14.121793"><time>2023-06-30T15:50:34.000Z</time><ele>2052</ele></trkpt><trkpt lat="42.153716" lon="14.121807"><time>2023-06-30T15:50:39.000Z</time><ele>2051.4</ele></trkpt><trkpt lat="42.153763" lon="14.121806"><time>2023-06-30T15:50:42.000Z</time><ele>2050.6</ele></trkpt><trkpt lat="42.153896" lon="14.121836"><time>2023-06-30T15:50:51.000Z</time><ele>2049.4</ele></trkpt><trkpt lat="42.153911" lon="14.121839"><time>2023-06-30T15:50:52.000Z</time><ele>2049.4</ele></trkpt><trkpt lat="42.153996" lon="14.12185"><time>2023-06-30T15:50:57.000Z</time><ele>2049</ele></trkpt><trkpt lat="42.154025" lon="14.121854"><time>2023-06-30T15:50:59.000Z</time><ele>2048.6</ele></trkpt><trkpt lat="42.15404" lon="14.121859"><time>2023-06-30T15:51:00.000Z</time><ele>2048.4</ele></trkpt><trkpt lat="42.154084" lon="14.121874"><time>2023-06-30T15:51:03.000Z</time><ele>2048</ele></trkpt><trkpt lat="42.154156" lon="14.121891"><time>2023-06-30T15:51:08.000Z</time><ele>2047.4</ele></trkpt><trkpt lat="42.154219" lon="14.121905"><time>2023-06-30T15:51:12.000Z</time><ele>2046.8</ele></trkpt><trkpt lat="42.154282" lon="14.121922"><time>2023-06-30T15:51:16.000Z</time><ele>2046.4</ele></trkpt><trkpt lat="42.154348" lon="14.121942"><time>2023-06-30T15:51:20.000Z</time><ele>2045.8</ele></trkpt><trkpt lat="42.15439" lon="14.121966"><time>2023-06-30T15:51:23.000Z</time><ele>2045.2</ele></trkpt><trkpt lat="42.154501" lon="14.122002"><time>2023-06-30T15:51:30.000Z</time><ele>2044</ele></trkpt><trkpt lat="42.154515" lon="14.12201"><time>2023-06-30T15:51:31.000Z</time><ele>2044</ele></trkpt><trkpt lat="42.154546" lon="14.122018"><time>2023-06-30T15:51:33.000Z</time><ele>2043.8</ele></trkpt><trkpt lat="42.154659" lon="14.122053"><time>2023-06-30T15:51:39.000Z</time><ele>2043</ele></trkpt><trkpt lat="42.154715" lon="14.122082"><time>2023-06-30T15:51:42.000Z</time><ele>2042.6</ele></trkpt><trkpt lat="42.154741" lon="14.122094"><time>2023-06-30T15:51:44.000Z</time><ele>2042</ele></trkpt><trkpt lat="42.154785" lon="14.122117"><time>2023-06-30T15:51:48.000Z</time><ele>2041.8</ele></trkpt><trkpt lat="42.154813" lon="14.122128"><time>2023-06-30T15:51:50.000Z</time><ele>2041.4</ele></trkpt><trkpt lat="42.15487" lon="14.122152"><time>2023-06-30T15:51:54.000Z</time><ele>2040.8</ele></trkpt><trkpt lat="42.154897" lon="14.122163"><time>2023-06-30T15:51:56.000Z</time><ele>2040.6</ele></trkpt><trkpt lat="42.154944" lon="14.122188"><time>2023-06-30T15:51:59.000Z</time><ele>2040.2</ele></trkpt><trkpt lat="42.154972" lon="14.122203"><time>2023-06-30T15:52:01.000Z</time><ele>2039.8</ele></trkpt><trkpt lat="42.155081" lon="14.122254"><time>2023-06-30T15:52:08.000Z</time><ele>2038.8</ele></trkpt><trkpt lat="42.155108" lon="14.122275"><time>2023-06-30T15:52:10.000Z</time><ele>2038.6</ele></trkpt><trkpt lat="42.155145" lon="14.122302"><time>2023-06-30T15:52:13.000Z</time><ele>2038.6</ele></trkpt><trkpt lat="42.155203" lon="14.122353"><time>2023-06-30T15:52:17.000Z</time><ele>2037.6</ele></trkpt><trkpt lat="42.155272" lon="14.122403"><time>2023-06-30T15:52:22.000Z</time><ele>2036.6</ele></trkpt><trkpt lat="42.155286" lon="14.122415"><time>2023-06-30T15:52:23.000Z</time><ele>2036.4</ele></trkpt><trkpt lat="42.155395" lon="14.122514"><time>2023-06-30T15:52:31.000Z</time><ele>2035.4</ele></trkpt><trkpt lat="42.155422" lon="14.122538"><time>2023-06-30T15:52:33.000Z</time><ele>2035.2</ele></trkpt><trkpt lat="42.155479" lon="14.122584"><time>2023-06-30T15:52:37.000Z</time><ele>2034.2</ele></trkpt><trkpt lat="42.155557" lon="14.122659"><time>2023-06-30T15:52:43.000Z</time><ele>2033.4</ele></trkpt><trkpt lat="42.155584" lon="14.122686"><time>2023-06-30T15:52:45.000Z</time><ele>2033.2</ele></trkpt><trkpt lat="42.155627" lon="14.122743"><time>2023-06-30T15:52:49.000Z</time><ele>2032.4</ele></trkpt><trkpt lat="42.155652" lon="14.122775"><time>2023-06-30T15:52:51.000Z</time><ele>2032</ele></trkpt><trkpt lat="42.155676" lon="14.122799"><time>2023-06-30T15:52:53.000Z</time><ele>2031.6</ele></trkpt><trkpt lat="42.155739" lon="14.122876"><time>2023-06-30T15:52:58.000Z</time><ele>2030.8</ele></trkpt><trkpt lat="42.155828" lon="14.122977"><time>2023-06-30T15:53:05.000Z</time><ele>2030.4</ele></trkpt><trkpt lat="42.155854" lon="14.123007"><time>2023-06-30T15:53:07.000Z</time><ele>2029.6</ele></trkpt><trkpt lat="42.15592" lon="14.123091"><time>2023-06-30T15:53:13.000Z</time><ele>2029</ele></trkpt><trkpt lat="42.155947" lon="14.123117"><time>2023-06-30T15:53:15.000Z</time><ele>2028.6</ele></trkpt><trkpt lat="42.155983" lon="14.123165"><time>2023-06-30T15:53:18.000Z</time><ele>2028.2</ele></trkpt><trkpt lat="42.156035" lon="14.12324"><time>2023-06-30T15:53:23.000Z</time><ele>2027.4</ele></trkpt><trkpt lat="42.156045" lon="14.123254"><time>2023-06-30T15:53:24.000Z</time><ele>2027.4</ele></trkpt><trkpt lat="42.156056" lon="14.123264"><time>2023-06-30T15:53:25.000Z</time><ele>2027.2</ele></trkpt><trkpt lat="42.156148" lon="14.123394"><time>2023-06-30T15:53:33.000Z</time><ele>2026.4</ele></trkpt><trkpt lat="42.156156" lon="14.123409"><time>2023-06-30T15:53:34.000Z</time><ele>2026.2</ele></trkpt><trkpt lat="42.156171" lon="14.123443"><time>2023-06-30T15:53:36.000Z</time><ele>2026</ele></trkpt><trkpt lat="42.156242" lon="14.123588"><time>2023-06-30T15:53:44.000Z</time><ele>2025.2</ele></trkpt><trkpt lat="42.156248" lon="14.123604"><time>2023-06-30T15:53:45.000Z</time><ele>2025.2</ele></trkpt><trkpt lat="42.156308" lon="14.123756"><time>2023-06-30T15:53:53.000Z</time><ele>2025</ele></trkpt><trkpt lat="42.156331" lon="14.123849"><time>2023-06-30T15:53:58.000Z</time><ele>2024.8</ele></trkpt><trkpt lat="42.15635" lon="14.123916"><time>2023-06-30T15:54:01.000Z</time><ele>2024.6</ele></trkpt><trkpt lat="42.156355" lon="14.123934"><time>2023-06-30T15:54:02.000Z</time><ele>2024.6</ele></trkpt><trkpt lat="42.1564" lon="14.124099"><time>2023-06-30T15:54:10.000Z</time><ele>2024.2</ele></trkpt><trkpt lat="42.156407" lon="14.124123"><time>2023-06-30T15:54:11.000Z</time><ele>2024.2</ele></trkpt><trkpt lat="42.156435" lon="14.124215"><time>2023-06-30T15:54:16.000Z</time><ele>2024</ele></trkpt><trkpt lat="42.156437" lon="14.124237"><time>2023-06-30T15:54:17.000Z</time><ele>2023.8</ele></trkpt><trkpt lat="42.156442" lon="14.124257"><time>2023-06-30T15:54:18.000Z</time><ele>2023.4</ele></trkpt><trkpt lat="42.156448" lon="14.124276"><time>2023-06-30T15:54:19.000Z</time><ele>2023.2</ele></trkpt><trkpt lat="42.156513" lon="14.124438"><time>2023-06-30T15:54:27.000Z</time><ele>2022.4</ele></trkpt><trkpt lat="42.156541" lon="14.124485"><time>2023-06-30T15:54:30.000Z</time><ele>2022</ele></trkpt><trkpt lat="42.156562" lon="14.124523"><time>2023-06-30T15:54:32.000Z</time><ele>2022</ele></trkpt><trkpt lat="42.156585" lon="14.124583"><time>2023-06-30T15:54:35.000Z</time><ele>2021.4</ele></trkpt><trkpt lat="42.156601" lon="14.12463"><time>2023-06-30T15:54:38.000Z</time><ele>2021</ele></trkpt><trkpt lat="42.156643" lon="14.124736"><time>2023-06-30T15:54:43.000Z</time><ele>2020.4</ele></trkpt><trkpt lat="42.156663" lon="14.124779"><time>2023-06-30T15:54:45.000Z</time><ele>2020</ele></trkpt><trkpt lat="42.156672" lon="14.124799"><time>2023-06-30T15:54:46.000Z</time><ele>2020</ele></trkpt><trkpt lat="42.156728" lon="14.124941"><time>2023-06-30T15:54:54.000Z</time><ele>2019</ele></trkpt><trkpt lat="42.156739" lon="14.12496"><time>2023-06-30T15:54:55.000Z</time><ele>2018.8</ele></trkpt><trkpt lat="42.156749" lon="14.124979"><time>2023-06-30T15:54:56.000Z</time><ele>2018.6</ele></trkpt><trkpt lat="42.156758" lon="14.124997"><time>2023-06-30T15:54:57.000Z</time><ele>2018.4</ele></trkpt><trkpt lat="42.156787" lon="14.125071"><time>2023-06-30T15:55:01.000Z</time><ele>2017.8</ele></trkpt><trkpt lat="42.15681" lon="14.125144"><time>2023-06-30T15:55:05.000Z</time><ele>2017</ele></trkpt><trkpt lat="42.156825" lon="14.125188"><time>2023-06-30T15:55:07.000Z</time><ele>2016.8</ele></trkpt><trkpt lat="42.156866" lon="14.125333"><time>2023-06-30T15:55:15.000Z</time><ele>2015.4</ele></trkpt><trkpt lat="42.156912" lon="14.12548"><time>2023-06-30T15:55:22.000Z</time><ele>2014.4</ele></trkpt><trkpt lat="42.156916" lon="14.125495"><time>2023-06-30T15:55:23.000Z</time><ele>2014.4</ele></trkpt><trkpt lat="42.156923" lon="14.125548"><time>2023-06-30T15:55:26.000Z</time><ele>2013.6</ele></trkpt><trkpt lat="42.156924" lon="14.125567"><time>2023-06-30T15:55:27.000Z</time><ele>2013.4</ele></trkpt><trkpt lat="42.156942" lon="14.125658"><time>2023-06-30T15:55:31.000Z</time><ele>2013</ele></trkpt><trkpt lat="42.156958" lon="14.125724"><time>2023-06-30T15:55:34.000Z</time><ele>2012.8</ele></trkpt><trkpt lat="42.156963" lon="14.125742"><time>2023-06-30T15:55:35.000Z</time><ele>2012.6</ele></trkpt><trkpt lat="42.156968" lon="14.125756"><time>2023-06-30T15:55:36.000Z</time><ele>2012.4</ele></trkpt><trkpt lat="42.156984" lon="14.125827"><time>2023-06-30T15:55:40.000Z</time><ele>2011.6</ele></trkpt><trkpt lat="42.156997" lon="14.125874"><time>2023-06-30T15:55:42.000Z</time><ele>2011.4</ele></trkpt><trkpt lat="42.157006" lon="14.125923"><time>2023-06-30T15:55:44.000Z</time><ele>2011.2</ele></trkpt><trkpt lat="42.157024" lon="14.125997"><time>2023-06-30T15:55:48.000Z</time><ele>2010.8</ele></trkpt><trkpt lat="42.157028" lon="14.126047"><time>2023-06-30T15:55:51.000Z</time><ele>2010.2</ele></trkpt><trkpt lat="42.157033" lon="14.126068"><time>2023-06-30T15:55:52.000Z</time><ele>2009.8</ele></trkpt><trkpt lat="42.157055" lon="14.126287"><time>2023-06-30T15:56:03.000Z</time><ele>2009.2</ele></trkpt><trkpt lat="42.157066" lon="14.126466"><time>2023-06-30T15:56:11.000Z</time><ele>2008.2</ele></trkpt><trkpt lat="42.157064" lon="14.12648"><time>2023-06-30T15:56:12.000Z</time><ele>2007.8</ele></trkpt><trkpt lat="42.157062" lon="14.126496"><time>2023-06-30T15:56:13.000Z</time><ele>2007.6</ele></trkpt><trkpt lat="42.157059" lon="14.126608"><time>2023-06-30T15:56:18.000Z</time><ele>2006.6</ele></trkpt><trkpt lat="42.157066" lon="14.126686"><time>2023-06-30T15:56:22.000Z</time><ele>2005.6</ele></trkpt><trkpt lat="42.157066" lon="14.126704"><time>2023-06-30T15:56:23.000Z</time><ele>2005.4</ele></trkpt><trkpt lat="42.157063" lon="14.126776"><time>2023-06-30T15:56:26.000Z</time><ele>2005</ele></trkpt><trkpt lat="42.157066" lon="14.126885"><time>2023-06-30T15:56:31.000Z</time><ele>2004.4</ele></trkpt><trkpt lat="42.157065" lon="14.126906"><time>2023-06-30T15:56:32.000Z</time><ele>2004.4</ele></trkpt><trkpt lat="42.157064" lon="14.126929"><time>2023-06-30T15:56:33.000Z</time><ele>2004.2</ele></trkpt><trkpt lat="42.157065" lon="14.126954"><time>2023-06-30T15:56:34.000Z</time><ele>2004.2</ele></trkpt><trkpt lat="42.157066" lon="14.12698"><time>2023-06-30T15:56:35.000Z</time><ele>2004.2</ele></trkpt><trkpt lat="42.157076" lon="14.127085"><time>2023-06-30T15:56:40.000Z</time><ele>2003.4</ele></trkpt><trkpt lat="42.157079" lon="14.127107"><time>2023-06-30T15:56:41.000Z</time><ele>2003.2</ele></trkpt><trkpt lat="42.157102" lon="14.127239"><time>2023-06-30T15:56:47.000Z</time><ele>2002.2</ele></trkpt><trkpt lat="42.157108" lon="14.127262"><time>2023-06-30T15:56:48.000Z</time><ele>2002</ele></trkpt><trkpt lat="42.157155" lon="14.127363"><time>2023-06-30T15:56:53.000Z</time><ele>2001.4</ele></trkpt><trkpt lat="42.157164" lon="14.127376"><time>2023-06-30T15:56:54.000Z</time><ele>2001</ele></trkpt><trkpt lat="42.157192" lon="14.127425"><time>2023-06-30T15:56:57.000Z</time><ele>2000.2</ele></trkpt><trkpt lat="42.157214" lon="14.127461"><time>2023-06-30T15:56:59.000Z</time><ele>1999.8</ele></trkpt><trkpt lat="42.157278" lon="14.127573"><time>2023-06-30T15:57:06.000Z</time><ele>1998.8</ele></trkpt><trkpt lat="42.157341" lon="14.127685"><time>2023-06-30T15:57:12.000Z</time><ele>1997.8</ele></trkpt><trkpt lat="42.157379" lon="14.127743"><time>2023-06-30T15:57:16.000Z</time><ele>1996.8</ele></trkpt><trkpt lat="42.157389" lon="14.127761"><time>2023-06-30T15:57:17.000Z</time><ele>1996.6</ele></trkpt><trkpt lat="42.15744" lon="14.127834"><time>2023-06-30T15:57:21.000Z</time><ele>1996</ele></trkpt><trkpt lat="42.15746" lon="14.127872"><time>2023-06-30T15:57:23.000Z</time><ele>1995.4</ele></trkpt><trkpt lat="42.157498" lon="14.127952"><time>2023-06-30T15:57:28.000Z</time><ele>1994.4</ele></trkpt><trkpt lat="42.157509" lon="14.127972"><time>2023-06-30T15:57:29.000Z</time><ele>1994.2</ele></trkpt><trkpt lat="42.157584" lon="14.128113"><time>2023-06-30T15:57:37.000Z</time><ele>1993</ele></trkpt><trkpt lat="42.157621" lon="14.128159"><time>2023-06-30T15:57:40.000Z</time><ele>1992.6</ele></trkpt><trkpt lat="42.15765" lon="14.128186"><time>2023-06-30T15:57:42.000Z</time><ele>1992.2</ele></trkpt><trkpt lat="42.157683" lon="14.12823"><time>2023-06-30T15:57:45.000Z</time><ele>1991.8</ele></trkpt><trkpt lat="42.157691" lon="14.128245"><time>2023-06-30T15:57:46.000Z</time><ele>1991.6</ele></trkpt><trkpt lat="42.157734" lon="14.128306"><time>2023-06-30T15:57:51.000Z</time><ele>1990.6</ele></trkpt><trkpt lat="42.157806" lon="14.128407"><time>2023-06-30T15:57:57.000Z</time><ele>1990</ele></trkpt><trkpt lat="42.157833" lon="14.128456"><time>2023-06-30T15:58:00.000Z</time><ele>1989.4</ele></trkpt><trkpt lat="42.157902" lon="14.128541"><time>2023-06-30T15:58:06.000Z</time><ele>1988.4</ele></trkpt><trkpt lat="42.15791" lon="14.128554"><time>2023-06-30T15:58:07.000Z</time><ele>1988.2</ele></trkpt><trkpt lat="42.157944" lon="14.128614"><time>2023-06-30T15:58:11.000Z</time><ele>1987.4</ele></trkpt><trkpt lat="42.157956" lon="14.128631"><time>2023-06-30T15:58:12.000Z</time><ele>1987.2</ele></trkpt><trkpt lat="42.15797" lon="14.128649"><time>2023-06-30T15:58:13.000Z</time><ele>1987.2</ele></trkpt><trkpt lat="42.157995" lon="14.128682"><time>2023-06-30T15:58:15.000Z</time><ele>1986.8</ele></trkpt><trkpt lat="42.158044" lon="14.128766"><time>2023-06-30T15:58:20.000Z</time><ele>1986</ele></trkpt><trkpt lat="42.158092" lon="14.128858"><time>2023-06-30T15:58:25.000Z</time><ele>1985.2</ele></trkpt><trkpt lat="42.158114" lon="14.128904"><time>2023-06-30T15:58:28.000Z</time><ele>1984.8</ele></trkpt><trkpt lat="42.158171" lon="14.129024"><time>2023-06-30T15:58:34.000Z</time><ele>1983.8</ele></trkpt><trkpt lat="42.158179" lon="14.12904"><time>2023-06-30T15:58:35.000Z</time><ele>1983.6</ele></trkpt><trkpt lat="42.158231" lon="14.129158"><time>2023-06-30T15:58:42.000Z</time><ele>1982.6</ele></trkpt><trkpt lat="42.158252" lon="14.129197"><time>2023-06-30T15:58:44.000Z</time><ele>1982.4</ele></trkpt><trkpt lat="42.158285" lon="14.129267"><time>2023-06-30T15:58:48.000Z</time><ele>1981.6</ele></trkpt><trkpt lat="42.158343" lon="14.129373"><time>2023-06-30T15:58:54.000Z</time><ele>1981</ele></trkpt><trkpt lat="42.158366" lon="14.129399"><time>2023-06-30T15:58:56.000Z</time><ele>1981</ele></trkpt><trkpt lat="42.158411" lon="14.129474"><time>2023-06-30T15:59:02.000Z</time><ele>1980.6</ele></trkpt><trkpt lat="42.158425" lon="14.129502"><time>2023-06-30T15:59:04.000Z</time><ele>1980.4</ele></trkpt><trkpt lat="42.158439" lon="14.129528"><time>2023-06-30T15:59:06.000Z</time><ele>1980.2</ele></trkpt><trkpt lat="42.158451" lon="14.129549"><time>2023-06-30T15:59:07.000Z</time><ele>1980</ele></trkpt><trkpt lat="42.158457" lon="14.129565"><time>2023-06-30T15:59:08.000Z</time><ele>1979.8</ele></trkpt><trkpt lat="42.158479" lon="14.129601"><time>2023-06-30T15:59:10.000Z</time><ele>1979.4</ele></trkpt><trkpt lat="42.158488" lon="14.129618"><time>2023-06-30T15:59:11.000Z</time><ele>1979.4</ele></trkpt><trkpt lat="42.158539" lon="14.129718"><time>2023-06-30T15:59:17.000Z</time><ele>1978.4</ele></trkpt><trkpt lat="42.158548" lon="14.129734"><time>2023-06-30T15:59:18.000Z</time><ele>1978.4</ele></trkpt><trkpt lat="42.158614" lon="14.12984"><time>2023-06-30T15:59:24.000Z</time><ele>1977.6</ele></trkpt><trkpt lat="42.158629" lon="14.129872"><time>2023-06-30T15:59:26.000Z</time><ele>1977.2</ele></trkpt><trkpt lat="42.158653" lon="14.129921"><time>2023-06-30T15:59:29.000Z</time><ele>1976.6</ele></trkpt><trkpt lat="42.158693" lon="14.129994"><time>2023-06-30T15:59:33.000Z</time><ele>1976.2</ele></trkpt><trkpt lat="42.158735" lon="14.130082"><time>2023-06-30T15:59:38.000Z</time><ele>1975.8</ele></trkpt><trkpt lat="42.158776" lon="14.130177"><time>2023-06-30T15:59:43.000Z</time><ele>1975.2</ele></trkpt><trkpt lat="42.158808" lon="14.130223"><time>2023-06-30T15:59:47.000Z</time><ele>1974.2</ele></trkpt><trkpt lat="42.158816" lon="14.130238"><time>2023-06-30T15:59:48.000Z</time><ele>1974</ele></trkpt><trkpt lat="42.158827" lon="14.130246"><time>2023-06-30T15:59:49.000Z</time><ele>1974</ele></trkpt><trkpt lat="42.158856" lon="14.13024"><time>2023-06-30T15:59:52.000Z</time><ele>1973.8</ele></trkpt><trkpt lat="42.158907" lon="14.130253"><time>2023-06-30T15:59:57.000Z</time><ele>1973.4</ele></trkpt><trkpt lat="42.158933" lon="14.130282"><time>2023-06-30T15:59:59.000Z</time><ele>1972.8</ele></trkpt><trkpt lat="42.158943" lon="14.130299"><time>2023-06-30T16:00:00.000Z</time><ele>1972.4</ele></trkpt><trkpt lat="42.158958" lon="14.130335"><time>2023-06-30T16:00:02.000Z</time><ele>1971.6</ele></trkpt><trkpt lat="42.158971" lon="14.130397"><time>2023-06-30T16:00:05.000Z</time><ele>1970.6</ele></trkpt><trkpt lat="42.158978" lon="14.130413"><time>2023-06-30T16:00:06.000Z</time><ele>1970.4</ele></trkpt><trkpt lat="42.158996" lon="14.13046"><time>2023-06-30T16:00:09.000Z</time><ele>1969.6</ele></trkpt><trkpt lat="42.159019" lon="14.130518"><time>2023-06-30T16:00:12.000Z</time><ele>1968.8</ele></trkpt><trkpt lat="42.159025" lon="14.130533"><time>2023-06-30T16:00:13.000Z</time><ele>1968.4</ele></trkpt><trkpt lat="42.159035" lon="14.130564"><time>2023-06-30T16:00:15.000Z</time><ele>1967.8</ele></trkpt><trkpt lat="42.159051" lon="14.13059"><time>2023-06-30T16:00:17.000Z</time><ele>1967.4</ele></trkpt><trkpt lat="42.15906" lon="14.130606"><time>2023-06-30T16:00:18.000Z</time><ele>1967</ele></trkpt><trkpt lat="42.159099" lon="14.130655"><time>2023-06-30T16:00:21.000Z</time><ele>1966.2</ele></trkpt><trkpt lat="42.159112" lon="14.130666"><time>2023-06-30T16:00:22.000Z</time><ele>1966</ele></trkpt><trkpt lat="42.15913" lon="14.130703"><time>2023-06-30T16:00:24.000Z</time><ele>1965.2</ele></trkpt><trkpt lat="42.159155" lon="14.130747"><time>2023-06-30T16:00:26.000Z</time><ele>1964.6</ele></trkpt><trkpt lat="42.159183" lon="14.130795"><time>2023-06-30T16:00:28.000Z</time><ele>1963.8</ele></trkpt><trkpt lat="42.159219" lon="14.13085"><time>2023-06-30T16:00:30.000Z</time><ele>1963.4</ele></trkpt><trkpt lat="42.159248" lon="14.130916"><time>2023-06-30T16:00:32.000Z</time><ele>1962.4</ele></trkpt><trkpt lat="42.159293" lon="14.131005"><time>2023-06-30T16:00:35.000Z</time><ele>1960.8</ele></trkpt><trkpt lat="42.159307" lon="14.131033"><time>2023-06-30T16:00:36.000Z</time><ele>1960.4</ele></trkpt><trkpt lat="42.159323" lon="14.131056"><time>2023-06-30T16:00:37.000Z</time><ele>1959.6</ele></trkpt><trkpt lat="42.159363" lon="14.131103"><time>2023-06-30T16:00:39.000Z</time><ele>1958.6</ele></trkpt><trkpt lat="42.159421" lon="14.131163"><time>2023-06-30T16:00:42.000Z</time><ele>1957.2</ele></trkpt><trkpt lat="42.159438" lon="14.131173"><time>2023-06-30T16:00:43.000Z</time><ele>1956.6</ele></trkpt><trkpt lat="42.159462" lon="14.131191"><time>2023-06-30T16:00:44.000Z</time><ele>1956.2</ele></trkpt><trkpt lat="42.159547" lon="14.131274"><time>2023-06-30T16:00:48.000Z</time><ele>1954.8</ele></trkpt><trkpt lat="42.159583" lon="14.131315"><time>2023-06-30T16:00:50.000Z</time><ele>1953.6</ele></trkpt><trkpt lat="42.159599" lon="14.131335"><time>2023-06-30T16:00:51.000Z</time><ele>1953.2</ele></trkpt><trkpt lat="42.159626" lon="14.131382"><time>2023-06-30T16:00:53.000Z</time><ele>1952.6</ele></trkpt><trkpt lat="42.159674" lon="14.131481"><time>2023-06-30T16:00:56.000Z</time><ele>1951.2</ele></trkpt><trkpt lat="42.15969" lon="14.131503"><time>2023-06-30T16:00:57.000Z</time><ele>1950.8</ele></trkpt><trkpt lat="42.159719" lon="14.131545"><time>2023-06-30T16:00:59.000Z</time><ele>1949.8</ele></trkpt><trkpt lat="42.159762" lon="14.131612"><time>2023-06-30T16:01:02.000Z</time><ele>1948.6</ele></trkpt><trkpt lat="42.159804" lon="14.131697"><time>2023-06-30T16:01:05.000Z</time><ele>1947.4</ele></trkpt><trkpt lat="42.159847" lon="14.131771"><time>2023-06-30T16:01:08.000Z</time><ele>1946</ele></trkpt><trkpt lat="42.159885" lon="14.131848"><time>2023-06-30T16:01:11.000Z</time><ele>1944.8</ele></trkpt><trkpt lat="42.159909" lon="14.131896"><time>2023-06-30T16:01:13.000Z</time><ele>1943.8</ele></trkpt><trkpt lat="42.159936" lon="14.131966"><time>2023-06-30T16:01:16.000Z</time><ele>1942.8</ele></trkpt><trkpt lat="42.159946" lon="14.131999"><time>2023-06-30T16:01:18.000Z</time><ele>1942.2</ele></trkpt><trkpt lat="42.159955" lon="14.132049"><time>2023-06-30T16:01:20.000Z</time><ele>1941.6</ele></trkpt><trkpt lat="42.159992" lon="14.132158"><time>2023-06-30T16:01:24.000Z</time><ele>1940.4</ele></trkpt><trkpt lat="42.160007" lon="14.132203"><time>2023-06-30T16:01:26.000Z</time><ele>1939.6</ele></trkpt><trkpt lat="42.160019" lon="14.132223"><time>2023-06-30T16:01:27.000Z</time><ele>1939.4</ele></trkpt><trkpt lat="42.160072" lon="14.13233"><time>2023-06-30T16:01:32.000Z</time><ele>1938.2</ele></trkpt><trkpt lat="42.160077" lon="14.132347"><time>2023-06-30T16:01:33.000Z</time><ele>1937.8</ele></trkpt><trkpt lat="42.160086" lon="14.132363"><time>2023-06-30T16:01:34.000Z</time><ele>1937.8</ele></trkpt><trkpt lat="42.160112" lon="14.132409"><time>2023-06-30T16:01:37.000Z</time><ele>1937.2</ele></trkpt><trkpt lat="42.160123" lon="14.132425"><time>2023-06-30T16:01:38.000Z</time><ele>1937.2</ele></trkpt><trkpt lat="42.160136" lon="14.132439"><time>2023-06-30T16:01:39.000Z</time><ele>1937</ele></trkpt><trkpt lat="42.160189" lon="14.132492"><time>2023-06-30T16:01:43.000Z</time><ele>1936.4</ele></trkpt><trkpt lat="42.160216" lon="14.132503"><time>2023-06-30T16:01:45.000Z</time><ele>1936</ele></trkpt><trkpt lat="42.160273" lon="14.132529"><time>2023-06-30T16:01:48.000Z</time><ele>1935.8</ele></trkpt><trkpt lat="42.160318" lon="14.132552"><time>2023-06-30T16:01:51.000Z</time><ele>1935.8</ele></trkpt><trkpt lat="42.160422" lon="14.13256"><time>2023-06-30T16:01:56.000Z</time><ele>1936</ele></trkpt><trkpt lat="42.160537" lon="14.132623"><time>2023-06-30T16:02:04.000Z</time><ele>1935</ele></trkpt><trkpt lat="42.160679" lon="14.132734"><time>2023-06-30T16:02:14.000Z</time><ele>1935.4</ele></trkpt><trkpt lat="42.160724" lon="14.132752"><time>2023-06-30T16:02:17.000Z</time><ele>1935.6</ele></trkpt></trkseg></trk></gpx>